<?xml version="1.0" encoding="UTF-8" standalone="no" ?>
<gpx xmlns="http://www.topografix.com/GPX/1/1" xmlns:xsi="http://www.w3.org/2001/XMLSchema-instance" xsi:schemaLocation="http://www.topografix.com/GPX/1/1 http://www.topografix.com/GPX/1/1/gpx.xsd" version="1.1" creator="VisuGPX - https://www.visugpx.com">
  <metadata>
    <name>Cadaques J5</name>
    <desc><![CDATA[File with points/tracks from Locus Map/4.25.1]]></desc>
  </metadata>
  <trk>
    <name><![CDATA[2024-09-20 Thuir J5]]></name>
    <extensions>
      <line xmlns="http://www.topografix.com/GPX/gpx_style/0/2">
        <color>0000FF</color>
        <opacity>0.70</opacity>
        <width>6.0</width>
      </line>
    </extensions>
    <trkseg>
      <trkpt lat="42.88288" lon="2.19033">
        <ele>283.03</ele>
        <time>2024-09-20T07:15:19.999Z</time>
      </trkpt>
      <trkpt lat="42.88293" lon="2.19043">
        <ele>285.87</ele>
        <time>2024-09-20T07:16:15.999Z</time>
      </trkpt>
      <trkpt lat="42.88304" lon="2.19041">
        <ele>286.68</ele>
        <time>2024-09-20T07:16:25.999Z</time>
      </trkpt>
      <trkpt lat="42.88319" lon="2.19041">
        <ele>287.03</ele>
        <time>2024-09-20T07:16:30.999Z</time>
      </trkpt>
      <trkpt lat="42.88336" lon="2.1904">
        <ele>287.35</ele>
        <time>2024-09-20T07:16:35.999Z</time>
      </trkpt>
      <trkpt lat="42.88356" lon="2.19038">
        <ele>289.31</ele>
        <time>2024-09-20T07:16:40.999Z</time>
      </trkpt>
      <trkpt lat="42.88377" lon="2.19038">
        <ele>290.07</ele>
        <time>2024-09-20T07:16:45.999Z</time>
      </trkpt>
      <trkpt lat="42.88396" lon="2.19042">
        <ele>290.32</ele>
        <time>2024-09-20T07:16:50.999Z</time>
      </trkpt>
      <trkpt lat="42.88414" lon="2.19047">
        <ele>290.41</ele>
        <time>2024-09-20T07:16:55.999Z</time>
      </trkpt>
      <trkpt lat="42.88433" lon="2.19059">
        <ele>290.78</ele>
        <time>2024-09-20T07:17:00.999Z</time>
      </trkpt>
      <trkpt lat="42.8845" lon="2.19074">
        <ele>291.01</ele>
        <time>2024-09-20T07:17:05.999Z</time>
      </trkpt>
      <trkpt lat="42.88455" lon="2.1909">
        <ele>291.06</ele>
        <time>2024-09-20T07:17:10.999Z</time>
      </trkpt>
      <trkpt lat="42.88458" lon="2.19103">
        <ele>291.91</ele>
        <time>2024-09-20T07:18:07.999Z</time>
      </trkpt>
      <trkpt lat="42.88459" lon="2.19122">
        <ele>292.32</ele>
        <time>2024-09-20T07:18:12.999Z</time>
      </trkpt>
      <trkpt lat="42.88464" lon="2.19148">
        <ele>294.38</ele>
        <time>2024-09-20T07:18:17.999Z</time>
      </trkpt>
      <trkpt lat="42.88473" lon="2.19176">
        <ele>296.14</ele>
        <time>2024-09-20T07:18:22.999Z</time>
      </trkpt>
      <trkpt lat="42.88479" lon="2.19201">
        <ele>296.47</ele>
        <time>2024-09-20T07:18:27.999Z</time>
      </trkpt>
      <trkpt lat="42.88485" lon="2.19224">
        <ele>296.66</ele>
        <time>2024-09-20T07:18:32.999Z</time>
      </trkpt>
      <trkpt lat="42.88492" lon="2.1925">
        <ele>297.05</ele>
        <time>2024-09-20T07:18:37.999Z</time>
      </trkpt>
      <trkpt lat="42.88495" lon="2.19273">
        <ele>297.13</ele>
        <time>2024-09-20T07:18:42.999Z</time>
      </trkpt>
      <trkpt lat="42.88497" lon="2.19296">
        <ele>297.15</ele>
        <time>2024-09-20T07:18:47.999Z</time>
      </trkpt>
      <trkpt lat="42.885" lon="2.1932">
        <ele>297.15</ele>
        <time>2024-09-20T07:18:52.999Z</time>
      </trkpt>
      <trkpt lat="42.88503" lon="2.19343">
        <ele>297.13</ele>
        <time>2024-09-20T07:18:57.999Z</time>
      </trkpt>
      <trkpt lat="42.88505" lon="2.19363">
        <ele>297.07</ele>
        <time>2024-09-20T07:19:02.999Z</time>
      </trkpt>
      <trkpt lat="42.88509" lon="2.19385">
        <ele>296.95</ele>
        <time>2024-09-20T07:19:07.999Z</time>
      </trkpt>
      <trkpt lat="42.88522" lon="2.19406">
        <ele>296.8</ele>
        <time>2024-09-20T07:19:12.999Z</time>
      </trkpt>
      <trkpt lat="42.8853" lon="2.19426">
        <ele>296.65</ele>
        <time>2024-09-20T07:19:17.999Z</time>
      </trkpt>
      <trkpt lat="42.88537" lon="2.19444">
        <ele>296.55</ele>
        <time>2024-09-20T07:19:22.999Z</time>
      </trkpt>
      <trkpt lat="42.88541" lon="2.1946">
        <ele>296.48</ele>
        <time>2024-09-20T07:19:27.999Z</time>
      </trkpt>
      <trkpt lat="42.88548" lon="2.19473">
        <ele>296.43</ele>
        <time>2024-09-20T07:19:32.999Z</time>
      </trkpt>
      <trkpt lat="42.88557" lon="2.19482">
        <ele>296.41</ele>
        <time>2024-09-20T07:19:37.999Z</time>
      </trkpt>
      <trkpt lat="42.88566" lon="2.19489">
        <ele>296.38</ele>
        <time>2024-09-20T07:19:42.999Z</time>
      </trkpt>
      <trkpt lat="42.8858" lon="2.19488">
        <ele>296.33</ele>
        <time>2024-09-20T07:19:47.999Z</time>
      </trkpt>
      <trkpt lat="42.8859" lon="2.19487">
        <ele>296.22</ele>
        <time>2024-09-20T07:19:55.999Z</time>
      </trkpt>
      <trkpt lat="42.886" lon="2.19489">
        <ele>296.13</ele>
        <time>2024-09-20T07:20:02.999Z</time>
      </trkpt>
      <trkpt lat="42.8861" lon="2.19495">
        <ele>296.05</ele>
        <time>2024-09-20T07:20:09.999Z</time>
      </trkpt>
      <trkpt lat="42.88621" lon="2.19496">
        <ele>296</ele>
        <time>2024-09-20T07:20:15.999Z</time>
      </trkpt>
      <trkpt lat="42.88631" lon="2.19498">
        <ele>295.96</ele>
        <time>2024-09-20T07:20:22.999Z</time>
      </trkpt>
      <trkpt lat="42.88644" lon="2.19499">
        <ele>295.94</ele>
        <time>2024-09-20T07:20:27.999Z</time>
      </trkpt>
      <trkpt lat="42.88654" lon="2.19499">
        <ele>295.94</ele>
        <time>2024-09-20T07:20:32.999Z</time>
      </trkpt>
      <trkpt lat="42.88663" lon="2.19499">
        <ele>295.95</ele>
        <time>2024-09-20T07:20:38.999Z</time>
      </trkpt>
      <trkpt lat="42.88673" lon="2.19499">
        <ele>295.98</ele>
        <time>2024-09-20T07:20:44.999Z</time>
      </trkpt>
      <trkpt lat="42.88682" lon="2.19497">
        <ele>296.02</ele>
        <time>2024-09-20T07:20:50.999Z</time>
      </trkpt>
      <trkpt lat="42.88691" lon="2.19494">
        <ele>296.07</ele>
        <time>2024-09-20T07:20:56.999Z</time>
      </trkpt>
      <trkpt lat="42.887" lon="2.19488">
        <ele>296.15</ele>
        <time>2024-09-20T07:21:03.999Z</time>
      </trkpt>
      <trkpt lat="42.88708" lon="2.19484">
        <ele>296.27</ele>
        <time>2024-09-20T07:21:11.999Z</time>
      </trkpt>
      <trkpt lat="42.88719" lon="2.19484">
        <ele>296.4</ele>
        <time>2024-09-20T07:21:19.999Z</time>
      </trkpt>
      <trkpt lat="42.88729" lon="2.19484">
        <ele>296.53</ele>
        <time>2024-09-20T07:21:25.999Z</time>
      </trkpt>
      <trkpt lat="42.88738" lon="2.19483">
        <ele>296.69</ele>
        <time>2024-09-20T07:21:31.999Z</time>
      </trkpt>
      <trkpt lat="42.88748" lon="2.19485">
        <ele>296.87</ele>
        <time>2024-09-20T07:21:37.999Z</time>
      </trkpt>
      <trkpt lat="42.88755" lon="2.19494">
        <ele>297.17</ele>
        <time>2024-09-20T07:21:46.999Z</time>
      </trkpt>
      <trkpt lat="42.88759" lon="2.19508">
        <ele>297.49</ele>
        <time>2024-09-20T07:21:55.999Z</time>
      </trkpt>
      <trkpt lat="42.88765" lon="2.19529">
        <ele>298.19</ele>
        <time>2024-09-20T07:22:00.999Z</time>
      </trkpt>
      <trkpt lat="42.88776" lon="2.19566">
        <ele>299.18</ele>
        <time>2024-09-20T07:22:05.999Z</time>
      </trkpt>
      <trkpt lat="42.88778" lon="2.19605">
        <ele>299.56</ele>
        <time>2024-09-20T07:22:10.999Z</time>
      </trkpt>
      <trkpt lat="42.88784" lon="2.19649">
        <ele>299.67</ele>
        <time>2024-09-20T07:22:15.999Z</time>
      </trkpt>
      <trkpt lat="42.88788" lon="2.19682">
        <ele>299.7</ele>
        <time>2024-09-20T07:22:20.999Z</time>
      </trkpt>
      <trkpt lat="42.88791" lon="2.19709">
        <ele>299.75</ele>
        <time>2024-09-20T07:22:25.999Z</time>
      </trkpt>
      <trkpt lat="42.88797" lon="2.19737">
        <ele>299.84</ele>
        <time>2024-09-20T07:22:30.999Z</time>
      </trkpt>
      <trkpt lat="42.88804" lon="2.1977">
        <ele>299.95</ele>
        <time>2024-09-20T07:22:35.999Z</time>
      </trkpt>
      <trkpt lat="42.88809" lon="2.19803">
        <ele>300.1</ele>
        <time>2024-09-20T07:22:40.999Z</time>
      </trkpt>
      <trkpt lat="42.88813" lon="2.19834">
        <ele>300.21</ele>
        <time>2024-09-20T07:22:45.999Z</time>
      </trkpt>
      <trkpt lat="42.88813" lon="2.19867">
        <ele>300.28</ele>
        <time>2024-09-20T07:22:50.999Z</time>
      </trkpt>
      <trkpt lat="42.88812" lon="2.19899">
        <ele>300.33</ele>
        <time>2024-09-20T07:22:55.999Z</time>
      </trkpt>
      <trkpt lat="42.88814" lon="2.19937">
        <ele>300.38</ele>
        <time>2024-09-20T07:23:00.999Z</time>
      </trkpt>
      <trkpt lat="42.88819" lon="2.1997">
        <ele>300.43</ele>
        <time>2024-09-20T07:23:05.999Z</time>
      </trkpt>
      <trkpt lat="42.88826" lon="2.19992">
        <ele>300.43</ele>
        <time>2024-09-20T07:23:10.999Z</time>
      </trkpt>
      <trkpt lat="42.88833" lon="2.19999">
        <ele>300.48</ele>
        <time>2024-09-20T07:23:34.999Z</time>
      </trkpt>
      <trkpt lat="42.88841" lon="2.20007">
        <ele>301.1</ele>
        <time>2024-09-20T07:25:39.000Z</time>
      </trkpt>
      <trkpt lat="42.88828" lon="2.20031">
        <ele>302.39</ele>
        <time>2024-09-20T07:25:44.000Z</time>
      </trkpt>
      <trkpt lat="42.88816" lon="2.20061">
        <ele>303.05</ele>
        <time>2024-09-20T07:25:49.000Z</time>
      </trkpt>
      <trkpt lat="42.88806" lon="2.20096">
        <ele>303.27</ele>
        <time>2024-09-20T07:25:54.000Z</time>
      </trkpt>
      <trkpt lat="42.888" lon="2.20136">
        <ele>303.32</ele>
        <time>2024-09-20T07:25:59.000Z</time>
      </trkpt>
      <trkpt lat="42.88791" lon="2.20181">
        <ele>303.32</ele>
        <time>2024-09-20T07:26:04.000Z</time>
      </trkpt>
      <trkpt lat="42.88776" lon="2.20222">
        <ele>303.34</ele>
        <time>2024-09-20T07:26:09.000Z</time>
      </trkpt>
      <trkpt lat="42.88754" lon="2.2025">
        <ele>303.36</ele>
        <time>2024-09-20T07:26:14.000Z</time>
      </trkpt>
      <trkpt lat="42.88733" lon="2.20275">
        <ele>303.36</ele>
        <time>2024-09-20T07:26:19.000Z</time>
      </trkpt>
      <trkpt lat="42.88715" lon="2.20296">
        <ele>303.52</ele>
        <time>2024-09-20T07:26:24.000Z</time>
      </trkpt>
      <trkpt lat="42.88698" lon="2.20316">
        <ele>303.71</ele>
        <time>2024-09-20T07:26:29.000Z</time>
      </trkpt>
      <trkpt lat="42.88682" lon="2.20334">
        <ele>303.88</ele>
        <time>2024-09-20T07:26:34.000Z</time>
      </trkpt>
      <trkpt lat="42.88666" lon="2.20353">
        <ele>304.08</ele>
        <time>2024-09-20T07:26:39.000Z</time>
      </trkpt>
      <trkpt lat="42.8865" lon="2.20369">
        <ele>304.41</ele>
        <time>2024-09-20T07:26:44.000Z</time>
      </trkpt>
      <trkpt lat="42.88629" lon="2.20372">
        <ele>304.64</ele>
        <time>2024-09-20T07:26:49.000Z</time>
      </trkpt>
      <trkpt lat="42.88609" lon="2.20369">
        <ele>304.7</ele>
        <time>2024-09-20T07:26:54.000Z</time>
      </trkpt>
      <trkpt lat="42.88589" lon="2.20366">
        <ele>304.68</ele>
        <time>2024-09-20T07:26:59.000Z</time>
      </trkpt>
      <trkpt lat="42.88569" lon="2.20362">
        <ele>304.62</ele>
        <time>2024-09-20T07:27:04.000Z</time>
      </trkpt>
      <trkpt lat="42.88549" lon="2.20358">
        <ele>304.52</ele>
        <time>2024-09-20T07:27:09.000Z</time>
      </trkpt>
      <trkpt lat="42.88529" lon="2.20355">
        <ele>304.44</ele>
        <time>2024-09-20T07:27:14.000Z</time>
      </trkpt>
      <trkpt lat="42.88508" lon="2.20351">
        <ele>304.35</ele>
        <time>2024-09-20T07:27:19.000Z</time>
      </trkpt>
      <trkpt lat="42.88485" lon="2.20347">
        <ele>304.27</ele>
        <time>2024-09-20T07:27:24.000Z</time>
      </trkpt>
      <trkpt lat="42.88462" lon="2.20343">
        <ele>304.19</ele>
        <time>2024-09-20T07:27:29.000Z</time>
      </trkpt>
      <trkpt lat="42.8844" lon="2.2034">
        <ele>304.12</ele>
        <time>2024-09-20T07:27:34.000Z</time>
      </trkpt>
      <trkpt lat="42.88421" lon="2.20336">
        <ele>304.08</ele>
        <time>2024-09-20T07:27:39.000Z</time>
      </trkpt>
      <trkpt lat="42.88403" lon="2.20333">
        <ele>304.07</ele>
        <time>2024-09-20T07:27:44.000Z</time>
      </trkpt>
      <trkpt lat="42.88387" lon="2.2033">
        <ele>304.07</ele>
        <time>2024-09-20T07:27:49.000Z</time>
      </trkpt>
      <trkpt lat="42.88373" lon="2.2033">
        <ele>304.07</ele>
        <time>2024-09-20T07:27:54.000Z</time>
      </trkpt>
      <trkpt lat="42.88359" lon="2.20335">
        <ele>304.08</ele>
        <time>2024-09-20T07:27:59.000Z</time>
      </trkpt>
      <trkpt lat="42.88343" lon="2.20342">
        <ele>304.07</ele>
        <time>2024-09-20T07:28:04.000Z</time>
      </trkpt>
      <trkpt lat="42.88324" lon="2.20341">
        <ele>304.05</ele>
        <time>2024-09-20T07:28:09.000Z</time>
      </trkpt>
      <trkpt lat="42.88304" lon="2.20339">
        <ele>304</ele>
        <time>2024-09-20T07:28:14.000Z</time>
      </trkpt>
      <trkpt lat="42.88285" lon="2.20337">
        <ele>304.01</ele>
        <time>2024-09-20T07:28:19.000Z</time>
      </trkpt>
      <trkpt lat="42.88267" lon="2.20334">
        <ele>304.03</ele>
        <time>2024-09-20T07:28:24.000Z</time>
      </trkpt>
      <trkpt lat="42.8825" lon="2.20334">
        <ele>304.04</ele>
        <time>2024-09-20T07:28:29.000Z</time>
      </trkpt>
      <trkpt lat="42.88233" lon="2.20332">
        <ele>304.05</ele>
        <time>2024-09-20T07:28:34.000Z</time>
      </trkpt>
      <trkpt lat="42.88215" lon="2.20331">
        <ele>304.07</ele>
        <time>2024-09-20T07:28:39.000Z</time>
      </trkpt>
      <trkpt lat="42.88197" lon="2.2033">
        <ele>304.09</ele>
        <time>2024-09-20T07:28:44.000Z</time>
      </trkpt>
      <trkpt lat="42.8818" lon="2.2033">
        <ele>304.12</ele>
        <time>2024-09-20T07:28:49.000Z</time>
      </trkpt>
      <trkpt lat="42.88162" lon="2.20331">
        <ele>304.13</ele>
        <time>2024-09-20T07:28:54.000Z</time>
      </trkpt>
      <trkpt lat="42.88145" lon="2.20333">
        <ele>304.15</ele>
        <time>2024-09-20T07:28:59.000Z</time>
      </trkpt>
      <trkpt lat="42.88128" lon="2.20335">
        <ele>304.15</ele>
        <time>2024-09-20T07:29:04.000Z</time>
      </trkpt>
      <trkpt lat="42.88113" lon="2.20338">
        <ele>304.15</ele>
        <time>2024-09-20T07:29:09.000Z</time>
      </trkpt>
      <trkpt lat="42.88099" lon="2.20342">
        <ele>304.13</ele>
        <time>2024-09-20T07:29:14.000Z</time>
      </trkpt>
      <trkpt lat="42.88083" lon="2.20351">
        <ele>304.09</ele>
        <time>2024-09-20T07:29:19.000Z</time>
      </trkpt>
      <trkpt lat="42.88067" lon="2.2036">
        <ele>304.02</ele>
        <time>2024-09-20T07:29:24.000Z</time>
      </trkpt>
      <trkpt lat="42.88055" lon="2.20369">
        <ele>303.93</ele>
        <time>2024-09-20T07:29:29.000Z</time>
      </trkpt>
      <trkpt lat="42.88043" lon="2.20379">
        <ele>303.77</ele>
        <time>2024-09-20T07:29:34.000Z</time>
      </trkpt>
      <trkpt lat="42.88033" lon="2.20389">
        <ele>303.54</ele>
        <time>2024-09-20T07:29:39.000Z</time>
      </trkpt>
      <trkpt lat="42.88023" lon="2.20399">
        <ele>303.3</ele>
        <time>2024-09-20T07:29:44.000Z</time>
      </trkpt>
      <trkpt lat="42.88013" lon="2.20409">
        <ele>303.09</ele>
        <time>2024-09-20T07:29:49.000Z</time>
      </trkpt>
      <trkpt lat="42.88004" lon="2.20419">
        <ele>302.96</ele>
        <time>2024-09-20T07:29:54.000Z</time>
      </trkpt>
      <trkpt lat="42.87995" lon="2.20429">
        <ele>302.9</ele>
        <time>2024-09-20T07:29:59.000Z</time>
      </trkpt>
      <trkpt lat="42.87986" lon="2.20438">
        <ele>302.88</ele>
        <time>2024-09-20T07:30:04.000Z</time>
      </trkpt>
      <trkpt lat="42.87977" lon="2.20448">
        <ele>302.9</ele>
        <time>2024-09-20T07:30:09.000Z</time>
      </trkpt>
      <trkpt lat="42.87969" lon="2.20457">
        <ele>302.95</ele>
        <time>2024-09-20T07:30:14.000Z</time>
      </trkpt>
      <trkpt lat="42.87961" lon="2.20466">
        <ele>303.01</ele>
        <time>2024-09-20T07:30:19.000Z</time>
      </trkpt>
      <trkpt lat="42.87952" lon="2.20476">
        <ele>303.1</ele>
        <time>2024-09-20T07:30:24.000Z</time>
      </trkpt>
      <trkpt lat="42.87944" lon="2.20484">
        <ele>303.19</ele>
        <time>2024-09-20T07:30:29.000Z</time>
      </trkpt>
      <trkpt lat="42.87936" lon="2.20491">
        <ele>303.3</ele>
        <time>2024-09-20T07:30:35.000Z</time>
      </trkpt>
      <trkpt lat="42.87929" lon="2.20501">
        <ele>303.43</ele>
        <time>2024-09-20T07:30:41.000Z</time>
      </trkpt>
      <trkpt lat="42.87919" lon="2.20511">
        <ele>303.53</ele>
        <time>2024-09-20T07:30:46.000Z</time>
      </trkpt>
      <trkpt lat="42.87911" lon="2.20521">
        <ele>303.63</ele>
        <time>2024-09-20T07:30:52.000Z</time>
      </trkpt>
      <trkpt lat="42.87905" lon="2.20532">
        <ele>303.71</ele>
        <time>2024-09-20T07:30:57.000Z</time>
      </trkpt>
      <trkpt lat="42.87896" lon="2.20542">
        <ele>303.8</ele>
        <time>2024-09-20T07:31:02.000Z</time>
      </trkpt>
      <trkpt lat="42.87886" lon="2.20554">
        <ele>303.9</ele>
        <time>2024-09-20T07:31:07.000Z</time>
      </trkpt>
      <trkpt lat="42.87875" lon="2.20566">
        <ele>304.1</ele>
        <time>2024-09-20T07:31:12.000Z</time>
      </trkpt>
      <trkpt lat="42.87866" lon="2.20574">
        <ele>304.39</ele>
        <time>2024-09-20T07:31:17.000Z</time>
      </trkpt>
      <trkpt lat="42.87857" lon="2.2058">
        <ele>304.7</ele>
        <time>2024-09-20T07:31:22.000Z</time>
      </trkpt>
      <trkpt lat="42.87848" lon="2.20588">
        <ele>305.02</ele>
        <time>2024-09-20T07:31:27.000Z</time>
      </trkpt>
      <trkpt lat="42.87838" lon="2.20594">
        <ele>305.36</ele>
        <time>2024-09-20T07:31:32.000Z</time>
      </trkpt>
      <trkpt lat="42.87828" lon="2.206">
        <ele>305.7</ele>
        <time>2024-09-20T07:31:37.000Z</time>
      </trkpt>
      <trkpt lat="42.87818" lon="2.20603">
        <ele>306.16</ele>
        <time>2024-09-20T07:31:43.000Z</time>
      </trkpt>
      <trkpt lat="42.87808" lon="2.20607">
        <ele>306.63</ele>
        <time>2024-09-20T07:31:49.000Z</time>
      </trkpt>
      <trkpt lat="42.87798" lon="2.20611">
        <ele>307.07</ele>
        <time>2024-09-20T07:31:55.000Z</time>
      </trkpt>
      <trkpt lat="42.87789" lon="2.20616">
        <ele>307.51</ele>
        <time>2024-09-20T07:32:02.000Z</time>
      </trkpt>
      <trkpt lat="42.87779" lon="2.20618">
        <ele>307.76</ele>
        <time>2024-09-20T07:32:07.000Z</time>
      </trkpt>
      <trkpt lat="42.8777" lon="2.20619">
        <ele>307.93</ele>
        <time>2024-09-20T07:32:12.000Z</time>
      </trkpt>
      <trkpt lat="42.8776" lon="2.2062">
        <ele>308.07</ele>
        <time>2024-09-20T07:32:18.000Z</time>
      </trkpt>
      <trkpt lat="42.8775" lon="2.20619">
        <ele>308.17</ele>
        <time>2024-09-20T07:32:25.000Z</time>
      </trkpt>
      <trkpt lat="42.87741" lon="2.20617">
        <ele>308.26</ele>
        <time>2024-09-20T07:32:31.000Z</time>
      </trkpt>
      <trkpt lat="42.8773" lon="2.20615">
        <ele>308.37</ele>
        <time>2024-09-20T07:32:37.000Z</time>
      </trkpt>
      <trkpt lat="42.87721" lon="2.20612">
        <ele>308.54</ele>
        <time>2024-09-20T07:32:42.000Z</time>
      </trkpt>
      <trkpt lat="42.87711" lon="2.20609">
        <ele>308.82</ele>
        <time>2024-09-20T07:32:48.000Z</time>
      </trkpt>
      <trkpt lat="42.87702" lon="2.20605">
        <ele>309.19</ele>
        <time>2024-09-20T07:32:54.000Z</time>
      </trkpt>
      <trkpt lat="42.87693" lon="2.20603">
        <ele>309.64</ele>
        <time>2024-09-20T07:33:00.000Z</time>
      </trkpt>
      <trkpt lat="42.87684" lon="2.20601">
        <ele>310.14</ele>
        <time>2024-09-20T07:33:06.000Z</time>
      </trkpt>
      <trkpt lat="42.87674" lon="2.20602">
        <ele>310.54</ele>
        <time>2024-09-20T07:33:11.000Z</time>
      </trkpt>
      <trkpt lat="42.87663" lon="2.20605">
        <ele>310.9</ele>
        <time>2024-09-20T07:33:16.000Z</time>
      </trkpt>
      <trkpt lat="42.8765" lon="2.20608">
        <ele>311.23</ele>
        <time>2024-09-20T07:33:21.000Z</time>
      </trkpt>
      <trkpt lat="42.87635" lon="2.20612">
        <ele>311.52</ele>
        <time>2024-09-20T07:33:26.000Z</time>
      </trkpt>
      <trkpt lat="42.87622" lon="2.20616">
        <ele>311.78</ele>
        <time>2024-09-20T07:33:31.000Z</time>
      </trkpt>
      <trkpt lat="42.87609" lon="2.2062">
        <ele>312.02</ele>
        <time>2024-09-20T07:33:36.000Z</time>
      </trkpt>
      <trkpt lat="42.87598" lon="2.20619">
        <ele>312.25</ele>
        <time>2024-09-20T07:33:41.000Z</time>
      </trkpt>
      <trkpt lat="42.87589" lon="2.20626">
        <ele>314.54</ele>
        <time>2024-09-20T07:35:41.000Z</time>
      </trkpt>
      <trkpt lat="42.8758" lon="2.20631">
        <ele>315.3</ele>
        <time>2024-09-20T07:35:46.000Z</time>
      </trkpt>
      <trkpt lat="42.87568" lon="2.20633">
        <ele>316.02</ele>
        <time>2024-09-20T07:35:51.000Z</time>
      </trkpt>
      <trkpt lat="42.87549" lon="2.2064">
        <ele>319.24</ele>
        <time>2024-09-20T07:35:56.000Z</time>
      </trkpt>
      <trkpt lat="42.87527" lon="2.20655">
        <ele>321.65</ele>
        <time>2024-09-20T07:36:01.000Z</time>
      </trkpt>
      <trkpt lat="42.87506" lon="2.2068">
        <ele>322.57</ele>
        <time>2024-09-20T07:36:06.000Z</time>
      </trkpt>
      <trkpt lat="42.87487" lon="2.20713">
        <ele>325.85</ele>
        <time>2024-09-20T07:36:11.000Z</time>
      </trkpt>
      <trkpt lat="42.8747" lon="2.20742">
        <ele>329.18</ele>
        <time>2024-09-20T07:36:16.000Z</time>
      </trkpt>
      <trkpt lat="42.87456" lon="2.20771">
        <ele>331.6</ele>
        <time>2024-09-20T07:36:21.000Z</time>
      </trkpt>
      <trkpt lat="42.87442" lon="2.20797">
        <ele>333.26</ele>
        <time>2024-09-20T07:36:26.000Z</time>
      </trkpt>
      <trkpt lat="42.87425" lon="2.20828">
        <ele>334.53</ele>
        <time>2024-09-20T07:36:31.999Z</time>
      </trkpt>
      <trkpt lat="42.87414" lon="2.20848">
        <ele>334.84</ele>
        <time>2024-09-20T07:36:36.999Z</time>
      </trkpt>
      <trkpt lat="42.874" lon="2.20864">
        <ele>335.02</ele>
        <time>2024-09-20T07:36:41.999Z</time>
      </trkpt>
      <trkpt lat="42.87383" lon="2.20876">
        <ele>336.31</ele>
        <time>2024-09-20T07:36:46.999Z</time>
      </trkpt>
      <trkpt lat="42.87367" lon="2.20889">
        <ele>337.27</ele>
        <time>2024-09-20T07:36:51.999Z</time>
      </trkpt>
      <trkpt lat="42.87351" lon="2.20902">
        <ele>338.02</ele>
        <time>2024-09-20T07:36:56.999Z</time>
      </trkpt>
      <trkpt lat="42.87334" lon="2.20914">
        <ele>338.36</ele>
        <time>2024-09-20T07:37:01.999Z</time>
      </trkpt>
      <trkpt lat="42.87317" lon="2.20924">
        <ele>338.54</ele>
        <time>2024-09-20T07:37:06.999Z</time>
      </trkpt>
      <trkpt lat="42.87302" lon="2.20933">
        <ele>338.62</ele>
        <time>2024-09-20T07:37:11.999Z</time>
      </trkpt>
      <trkpt lat="42.87287" lon="2.2094">
        <ele>338.7</ele>
        <time>2024-09-20T07:37:16.999Z</time>
      </trkpt>
      <trkpt lat="42.87271" lon="2.20948">
        <ele>338.77</ele>
        <time>2024-09-20T07:37:21.999Z</time>
      </trkpt>
      <trkpt lat="42.87256" lon="2.2096">
        <ele>338.84</ele>
        <time>2024-09-20T07:37:26.999Z</time>
      </trkpt>
      <trkpt lat="42.87242" lon="2.20974">
        <ele>338.92</ele>
        <time>2024-09-20T07:37:31.999Z</time>
      </trkpt>
      <trkpt lat="42.87227" lon="2.20988">
        <ele>339.05</ele>
        <time>2024-09-20T07:37:36.999Z</time>
      </trkpt>
      <trkpt lat="42.87211" lon="2.21002">
        <ele>339.26</ele>
        <time>2024-09-20T07:37:41.999Z</time>
      </trkpt>
      <trkpt lat="42.87196" lon="2.21017">
        <ele>339.34</ele>
        <time>2024-09-20T07:37:46.999Z</time>
      </trkpt>
      <trkpt lat="42.87181" lon="2.21031">
        <ele>339.41</ele>
        <time>2024-09-20T07:37:51.999Z</time>
      </trkpt>
      <trkpt lat="42.87165" lon="2.21046">
        <ele>339.66</ele>
        <time>2024-09-20T07:37:56.999Z</time>
      </trkpt>
      <trkpt lat="42.87149" lon="2.2106">
        <ele>339.73</ele>
        <time>2024-09-20T07:38:01.999Z</time>
      </trkpt>
      <trkpt lat="42.87133" lon="2.21074">
        <ele>339.83</ele>
        <time>2024-09-20T07:38:06.999Z</time>
      </trkpt>
      <trkpt lat="42.87119" lon="2.21091">
        <ele>339.95</ele>
        <time>2024-09-20T07:38:11.999Z</time>
      </trkpt>
      <trkpt lat="42.87109" lon="2.21108">
        <ele>340.12</ele>
        <time>2024-09-20T07:38:16.999Z</time>
      </trkpt>
      <trkpt lat="42.871" lon="2.21133">
        <ele>340.64</ele>
        <time>2024-09-20T07:38:21.999Z</time>
      </trkpt>
      <trkpt lat="42.87094" lon="2.21153">
        <ele>340.83</ele>
        <time>2024-09-20T07:38:26.999Z</time>
      </trkpt>
      <trkpt lat="42.87086" lon="2.21174">
        <ele>341.03</ele>
        <time>2024-09-20T07:38:31.999Z</time>
      </trkpt>
      <trkpt lat="42.87078" lon="2.21196">
        <ele>341.28</ele>
        <time>2024-09-20T07:38:36.999Z</time>
      </trkpt>
      <trkpt lat="42.87071" lon="2.21218">
        <ele>341.56</ele>
        <time>2024-09-20T07:38:41.999Z</time>
      </trkpt>
      <trkpt lat="42.87062" lon="2.21239">
        <ele>341.87</ele>
        <time>2024-09-20T07:38:46.999Z</time>
      </trkpt>
      <trkpt lat="42.87053" lon="2.2126">
        <ele>342.16</ele>
        <time>2024-09-20T07:38:51.999Z</time>
      </trkpt>
      <trkpt lat="42.87045" lon="2.21281">
        <ele>342.44</ele>
        <time>2024-09-20T07:38:56.999Z</time>
      </trkpt>
      <trkpt lat="42.87039" lon="2.21302">
        <ele>342.73</ele>
        <time>2024-09-20T07:39:01.999Z</time>
      </trkpt>
      <trkpt lat="42.87035" lon="2.21323">
        <ele>343.05</ele>
        <time>2024-09-20T07:39:06.999Z</time>
      </trkpt>
      <trkpt lat="42.87032" lon="2.21344">
        <ele>343.4</ele>
        <time>2024-09-20T07:39:11.999Z</time>
      </trkpt>
      <trkpt lat="42.87028" lon="2.21364">
        <ele>343.76</ele>
        <time>2024-09-20T07:39:16.999Z</time>
      </trkpt>
      <trkpt lat="42.87025" lon="2.21382">
        <ele>344.15</ele>
        <time>2024-09-20T07:39:21.999Z</time>
      </trkpt>
      <trkpt lat="42.87021" lon="2.214">
        <ele>344.57</ele>
        <time>2024-09-20T07:39:26.999Z</time>
      </trkpt>
      <trkpt lat="42.87017" lon="2.21419">
        <ele>345</ele>
        <time>2024-09-20T07:39:31.999Z</time>
      </trkpt>
      <trkpt lat="42.87012" lon="2.21438">
        <ele>345.46</ele>
        <time>2024-09-20T07:39:36.999Z</time>
      </trkpt>
      <trkpt lat="42.87007" lon="2.21455">
        <ele>345.91</ele>
        <time>2024-09-20T07:39:41.999Z</time>
      </trkpt>
      <trkpt lat="42.87002" lon="2.21472">
        <ele>346.36</ele>
        <time>2024-09-20T07:39:46.999Z</time>
      </trkpt>
      <trkpt lat="42.86996" lon="2.21489">
        <ele>346.81</ele>
        <time>2024-09-20T07:39:51.999Z</time>
      </trkpt>
      <trkpt lat="42.8699" lon="2.21506">
        <ele>347.27</ele>
        <time>2024-09-20T07:39:56.999Z</time>
      </trkpt>
      <trkpt lat="42.86986" lon="2.21526">
        <ele>347.74</ele>
        <time>2024-09-20T07:40:01.999Z</time>
      </trkpt>
      <trkpt lat="42.86981" lon="2.21544">
        <ele>348.22</ele>
        <time>2024-09-20T07:40:06.999Z</time>
      </trkpt>
      <trkpt lat="42.86975" lon="2.21568">
        <ele>349.97</ele>
        <time>2024-09-20T07:40:11.999Z</time>
      </trkpt>
      <trkpt lat="42.86968" lon="2.21594">
        <ele>352.19</ele>
        <time>2024-09-20T07:40:16.999Z</time>
      </trkpt>
      <trkpt lat="42.8696" lon="2.2162">
        <ele>353.05</ele>
        <time>2024-09-20T07:40:21.999Z</time>
      </trkpt>
      <trkpt lat="42.86952" lon="2.21648">
        <ele>353.48</ele>
        <time>2024-09-20T07:40:26.999Z</time>
      </trkpt>
      <trkpt lat="42.86944" lon="2.21674">
        <ele>353.81</ele>
        <time>2024-09-20T07:40:31.999Z</time>
      </trkpt>
      <trkpt lat="42.86938" lon="2.21697">
        <ele>353.94</ele>
        <time>2024-09-20T07:40:36.999Z</time>
      </trkpt>
      <trkpt lat="42.8693" lon="2.21722">
        <ele>354.34</ele>
        <time>2024-09-20T07:40:41.999Z</time>
      </trkpt>
      <trkpt lat="42.86924" lon="2.21747">
        <ele>354.59</ele>
        <time>2024-09-20T07:40:46.999Z</time>
      </trkpt>
      <trkpt lat="42.86917" lon="2.21769">
        <ele>354.63</ele>
        <time>2024-09-20T07:40:51.999Z</time>
      </trkpt>
      <trkpt lat="42.86911" lon="2.21786">
        <ele>354.69</ele>
        <time>2024-09-20T07:40:56.999Z</time>
      </trkpt>
      <trkpt lat="42.86903" lon="2.21804">
        <ele>354.78</ele>
        <time>2024-09-20T07:41:01.999Z</time>
      </trkpt>
      <trkpt lat="42.86894" lon="2.21826">
        <ele>355.18</ele>
        <time>2024-09-20T07:41:06.999Z</time>
      </trkpt>
      <trkpt lat="42.86883" lon="2.21852">
        <ele>355.44</ele>
        <time>2024-09-20T07:41:11.999Z</time>
      </trkpt>
      <trkpt lat="42.8687" lon="2.2188">
        <ele>355.41</ele>
        <time>2024-09-20T07:41:16.999Z</time>
      </trkpt>
      <trkpt lat="42.86857" lon="2.21908">
        <ele>355.4</ele>
        <time>2024-09-20T07:41:21.999Z</time>
      </trkpt>
      <trkpt lat="42.86846" lon="2.21932">
        <ele>355.37</ele>
        <time>2024-09-20T07:41:26.999Z</time>
      </trkpt>
      <trkpt lat="42.86836" lon="2.21955">
        <ele>355.34</ele>
        <time>2024-09-20T07:41:31.999Z</time>
      </trkpt>
      <trkpt lat="42.86825" lon="2.2198">
        <ele>355.3</ele>
        <time>2024-09-20T07:41:36.999Z</time>
      </trkpt>
      <trkpt lat="42.86813" lon="2.22006">
        <ele>355.31</ele>
        <time>2024-09-20T07:41:41.999Z</time>
      </trkpt>
      <trkpt lat="42.86801" lon="2.22032">
        <ele>355.29</ele>
        <time>2024-09-20T07:41:46.999Z</time>
      </trkpt>
      <trkpt lat="42.86789" lon="2.22061">
        <ele>355.23</ele>
        <time>2024-09-20T07:41:51.999Z</time>
      </trkpt>
      <trkpt lat="42.86775" lon="2.22092">
        <ele>355.1</ele>
        <time>2024-09-20T07:41:56.999Z</time>
      </trkpt>
      <trkpt lat="42.86762" lon="2.22122">
        <ele>354.99</ele>
        <time>2024-09-20T07:42:01.999Z</time>
      </trkpt>
      <trkpt lat="42.8675" lon="2.22149">
        <ele>354.84</ele>
        <time>2024-09-20T07:42:06.999Z</time>
      </trkpt>
      <trkpt lat="42.86739" lon="2.22172">
        <ele>354.72</ele>
        <time>2024-09-20T07:42:11.999Z</time>
      </trkpt>
      <trkpt lat="42.86729" lon="2.22194">
        <ele>354.69</ele>
        <time>2024-09-20T07:42:16.999Z</time>
      </trkpt>
      <trkpt lat="42.8672" lon="2.22214">
        <ele>354.68</ele>
        <time>2024-09-20T07:42:21.999Z</time>
      </trkpt>
      <trkpt lat="42.8671" lon="2.22235">
        <ele>354.66</ele>
        <time>2024-09-20T07:42:26.999Z</time>
      </trkpt>
      <trkpt lat="42.86701" lon="2.22257">
        <ele>354.65</ele>
        <time>2024-09-20T07:42:31.999Z</time>
      </trkpt>
      <trkpt lat="42.86692" lon="2.22278">
        <ele>354.63</ele>
        <time>2024-09-20T07:42:36.999Z</time>
      </trkpt>
      <trkpt lat="42.86683" lon="2.22298">
        <ele>354.6</ele>
        <time>2024-09-20T07:42:41.999Z</time>
      </trkpt>
      <trkpt lat="42.86673" lon="2.22319">
        <ele>354.58</ele>
        <time>2024-09-20T07:42:46.999Z</time>
      </trkpt>
      <trkpt lat="42.86664" lon="2.22339">
        <ele>354.55</ele>
        <time>2024-09-20T07:42:51.999Z</time>
      </trkpt>
      <trkpt lat="42.86654" lon="2.22359">
        <ele>354.52</ele>
        <time>2024-09-20T07:42:56.999Z</time>
      </trkpt>
      <trkpt lat="42.86646" lon="2.2238">
        <ele>354.51</ele>
        <time>2024-09-20T07:43:01.999Z</time>
      </trkpt>
      <trkpt lat="42.86637" lon="2.224">
        <ele>354.49</ele>
        <time>2024-09-20T07:43:06.999Z</time>
      </trkpt>
      <trkpt lat="42.86628" lon="2.22418">
        <ele>354.48</ele>
        <time>2024-09-20T07:43:11.999Z</time>
      </trkpt>
      <trkpt lat="42.86619" lon="2.22437">
        <ele>354.48</ele>
        <time>2024-09-20T07:43:16.999Z</time>
      </trkpt>
      <trkpt lat="42.86611" lon="2.22456">
        <ele>354.47</ele>
        <time>2024-09-20T07:43:21.999Z</time>
      </trkpt>
      <trkpt lat="42.86603" lon="2.22474">
        <ele>354.46</ele>
        <time>2024-09-20T07:43:26.999Z</time>
      </trkpt>
      <trkpt lat="42.86595" lon="2.22492">
        <ele>354.45</ele>
        <time>2024-09-20T07:43:31.999Z</time>
      </trkpt>
      <trkpt lat="42.86587" lon="2.22511">
        <ele>354.45</ele>
        <time>2024-09-20T07:43:36.999Z</time>
      </trkpt>
      <trkpt lat="42.8658" lon="2.22528">
        <ele>354.47</ele>
        <time>2024-09-20T07:43:41.999Z</time>
      </trkpt>
      <trkpt lat="42.86573" lon="2.22542">
        <ele>354.49</ele>
        <time>2024-09-20T07:43:46.999Z</time>
      </trkpt>
      <trkpt lat="42.86565" lon="2.22557">
        <ele>354.52</ele>
        <time>2024-09-20T07:43:51.999Z</time>
      </trkpt>
      <trkpt lat="42.86558" lon="2.22574">
        <ele>354.56</ele>
        <time>2024-09-20T07:43:56.999Z</time>
      </trkpt>
      <trkpt lat="42.86551" lon="2.22591">
        <ele>354.62</ele>
        <time>2024-09-20T07:44:01.999Z</time>
      </trkpt>
      <trkpt lat="42.86544" lon="2.22607">
        <ele>354.68</ele>
        <time>2024-09-20T07:44:06.999Z</time>
      </trkpt>
      <trkpt lat="42.86537" lon="2.2262">
        <ele>354.76</ele>
        <time>2024-09-20T07:44:11.999Z</time>
      </trkpt>
      <trkpt lat="42.86531" lon="2.22635">
        <ele>354.83</ele>
        <time>2024-09-20T07:44:16.999Z</time>
      </trkpt>
      <trkpt lat="42.86523" lon="2.22649">
        <ele>354.89</ele>
        <time>2024-09-20T07:44:21.999Z</time>
      </trkpt>
      <trkpt lat="42.86511" lon="2.22658">
        <ele>354.96</ele>
        <time>2024-09-20T07:44:26.999Z</time>
      </trkpt>
      <trkpt lat="42.86499" lon="2.22661">
        <ele>355.02</ele>
        <time>2024-09-20T07:44:31.999Z</time>
      </trkpt>
      <trkpt lat="42.86488" lon="2.2266">
        <ele>355.07</ele>
        <time>2024-09-20T07:44:36.999Z</time>
      </trkpt>
      <trkpt lat="42.86477" lon="2.2266">
        <ele>355.13</ele>
        <time>2024-09-20T07:44:41.999Z</time>
      </trkpt>
      <trkpt lat="42.86467" lon="2.22666">
        <ele>355.18</ele>
        <time>2024-09-20T07:44:46.999Z</time>
      </trkpt>
      <trkpt lat="42.8646" lon="2.22678">
        <ele>355.22</ele>
        <time>2024-09-20T07:44:51.999Z</time>
      </trkpt>
      <trkpt lat="42.86457" lon="2.22694">
        <ele>355.28</ele>
        <time>2024-09-20T07:44:56.999Z</time>
      </trkpt>
      <trkpt lat="42.86454" lon="2.22711">
        <ele>355.34</ele>
        <time>2024-09-20T07:45:01.999Z</time>
      </trkpt>
      <trkpt lat="42.8645" lon="2.22729">
        <ele>355.4</ele>
        <time>2024-09-20T07:45:06.999Z</time>
      </trkpt>
      <trkpt lat="42.86447" lon="2.22747">
        <ele>355.47</ele>
        <time>2024-09-20T07:45:11.999Z</time>
      </trkpt>
      <trkpt lat="42.86442" lon="2.22764">
        <ele>355.54</ele>
        <time>2024-09-20T07:45:16.999Z</time>
      </trkpt>
      <trkpt lat="42.86434" lon="2.22778">
        <ele>355.6</ele>
        <time>2024-09-20T07:45:21.999Z</time>
      </trkpt>
      <trkpt lat="42.86423" lon="2.22786">
        <ele>355.66</ele>
        <time>2024-09-20T07:45:26.999Z</time>
      </trkpt>
      <trkpt lat="42.86413" lon="2.2279">
        <ele>355.73</ele>
        <time>2024-09-20T07:45:31.999Z</time>
      </trkpt>
      <trkpt lat="42.86404" lon="2.22792">
        <ele>355.8</ele>
        <time>2024-09-20T07:45:36.999Z</time>
      </trkpt>
      <trkpt lat="42.86395" lon="2.22793">
        <ele>355.86</ele>
        <time>2024-09-20T07:45:41.999Z</time>
      </trkpt>
      <trkpt lat="42.86384" lon="2.22795">
        <ele>355.93</ele>
        <time>2024-09-20T07:45:47.999Z</time>
      </trkpt>
      <trkpt lat="42.86375" lon="2.22797">
        <ele>355.98</ele>
        <time>2024-09-20T07:45:52.999Z</time>
      </trkpt>
      <trkpt lat="42.86366" lon="2.22798">
        <ele>356.03</ele>
        <time>2024-09-20T07:45:57.999Z</time>
      </trkpt>
      <trkpt lat="42.86357" lon="2.228">
        <ele>356.07</ele>
        <time>2024-09-20T07:46:02.999Z</time>
      </trkpt>
      <trkpt lat="42.86347" lon="2.22803">
        <ele>356.11</ele>
        <time>2024-09-20T07:46:07.999Z</time>
      </trkpt>
      <trkpt lat="42.86338" lon="2.22808">
        <ele>356.17</ele>
        <time>2024-09-20T07:46:13.999Z</time>
      </trkpt>
      <trkpt lat="42.86329" lon="2.22815">
        <ele>356.24</ele>
        <time>2024-09-20T07:46:19.999Z</time>
      </trkpt>
      <trkpt lat="42.86322" lon="2.22824">
        <ele>356.31</ele>
        <time>2024-09-20T07:46:24.999Z</time>
      </trkpt>
      <trkpt lat="42.86313" lon="2.22832">
        <ele>356.37</ele>
        <time>2024-09-20T07:46:29.999Z</time>
      </trkpt>
      <trkpt lat="42.86306" lon="2.22842">
        <ele>356.44</ele>
        <time>2024-09-20T07:46:34.999Z</time>
      </trkpt>
      <trkpt lat="42.86298" lon="2.22851">
        <ele>356.5</ele>
        <time>2024-09-20T07:46:39.999Z</time>
      </trkpt>
      <trkpt lat="42.8629" lon="2.22859">
        <ele>356.56</ele>
        <time>2024-09-20T07:46:44.999Z</time>
      </trkpt>
      <trkpt lat="42.86283" lon="2.22867">
        <ele>356.62</ele>
        <time>2024-09-20T07:46:49.999Z</time>
      </trkpt>
      <trkpt lat="42.86275" lon="2.22874">
        <ele>356.68</ele>
        <time>2024-09-20T07:46:54.999Z</time>
      </trkpt>
      <trkpt lat="42.86266" lon="2.22882">
        <ele>356.75</ele>
        <time>2024-09-20T07:47:00.999Z</time>
      </trkpt>
      <trkpt lat="42.86257" lon="2.22885">
        <ele>356.81</ele>
        <time>2024-09-20T07:47:05.999Z</time>
      </trkpt>
      <trkpt lat="42.86248" lon="2.22883">
        <ele>356.88</ele>
        <time>2024-09-20T07:47:10.999Z</time>
      </trkpt>
      <trkpt lat="42.86239" lon="2.22878">
        <ele>356.94</ele>
        <time>2024-09-20T07:47:15.999Z</time>
      </trkpt>
      <trkpt lat="42.86231" lon="2.22869">
        <ele>357.01</ele>
        <time>2024-09-20T07:47:21.999Z</time>
      </trkpt>
      <trkpt lat="42.86224" lon="2.2286">
        <ele>357.04</ele>
        <time>2024-09-20T07:47:27.999Z</time>
      </trkpt>
      <trkpt lat="42.86218" lon="2.22848">
        <ele>357.12</ele>
        <time>2024-09-20T07:47:33.999Z</time>
      </trkpt>
      <trkpt lat="42.86211" lon="2.22838">
        <ele>357.27</ele>
        <time>2024-09-20T07:47:39.999Z</time>
      </trkpt>
      <trkpt lat="42.86203" lon="2.22828">
        <ele>357.49</ele>
        <time>2024-09-20T07:47:45.999Z</time>
      </trkpt>
      <trkpt lat="42.86195" lon="2.22819">
        <ele>357.75</ele>
        <time>2024-09-20T07:47:51.999Z</time>
      </trkpt>
      <trkpt lat="42.86186" lon="2.22812">
        <ele>358.03</ele>
        <time>2024-09-20T07:47:57.999Z</time>
      </trkpt>
      <trkpt lat="42.86177" lon="2.22806">
        <ele>358.35</ele>
        <time>2024-09-20T07:48:03.999Z</time>
      </trkpt>
      <trkpt lat="42.86168" lon="2.22801">
        <ele>358.69</ele>
        <time>2024-09-20T07:48:09.999Z</time>
      </trkpt>
      <trkpt lat="42.86159" lon="2.22798">
        <ele>359.05</ele>
        <time>2024-09-20T07:48:15.999Z</time>
      </trkpt>
      <trkpt lat="42.86149" lon="2.22796">
        <ele>360.34</ele>
        <time>2024-09-20T07:49:19.000Z</time>
      </trkpt>
      <trkpt lat="42.86139" lon="2.228">
        <ele>360.59</ele>
        <time>2024-09-20T07:49:24.000Z</time>
      </trkpt>
      <trkpt lat="42.86128" lon="2.22805">
        <ele>360.76</ele>
        <time>2024-09-20T07:49:29.000Z</time>
      </trkpt>
      <trkpt lat="42.86119" lon="2.22812">
        <ele>360.94</ele>
        <time>2024-09-20T07:49:34.000Z</time>
      </trkpt>
      <trkpt lat="42.8611" lon="2.22818">
        <ele>361.24</ele>
        <time>2024-09-20T07:49:39.000Z</time>
      </trkpt>
      <trkpt lat="42.86101" lon="2.22824">
        <ele>361.65</ele>
        <time>2024-09-20T07:49:44.000Z</time>
      </trkpt>
      <trkpt lat="42.8609" lon="2.2283">
        <ele>362.07</ele>
        <time>2024-09-20T07:49:49.000Z</time>
      </trkpt>
      <trkpt lat="42.8608" lon="2.22836">
        <ele>362.51</ele>
        <time>2024-09-20T07:49:54.000Z</time>
      </trkpt>
      <trkpt lat="42.8607" lon="2.22842">
        <ele>363.01</ele>
        <time>2024-09-20T07:49:59.000Z</time>
      </trkpt>
      <trkpt lat="42.86061" lon="2.22849">
        <ele>363.56</ele>
        <time>2024-09-20T07:50:04.000Z</time>
      </trkpt>
      <trkpt lat="42.86052" lon="2.22856">
        <ele>364.14</ele>
        <time>2024-09-20T07:50:09.000Z</time>
      </trkpt>
      <trkpt lat="42.86044" lon="2.22865">
        <ele>364.76</ele>
        <time>2024-09-20T07:50:14.000Z</time>
      </trkpt>
      <trkpt lat="42.86037" lon="2.22876">
        <ele>365.53</ele>
        <time>2024-09-20T07:50:20.000Z</time>
      </trkpt>
      <trkpt lat="42.86032" lon="2.2289">
        <ele>366.23</ele>
        <time>2024-09-20T07:50:25.000Z</time>
      </trkpt>
      <trkpt lat="42.86028" lon="2.22904">
        <ele>367.06</ele>
        <time>2024-09-20T07:50:30.000Z</time>
      </trkpt>
      <trkpt lat="42.86024" lon="2.22918">
        <ele>368.12</ele>
        <time>2024-09-20T07:50:36.000Z</time>
      </trkpt>
      <trkpt lat="42.8602" lon="2.2293">
        <ele>369.06</ele>
        <time>2024-09-20T07:50:41.000Z</time>
      </trkpt>
      <trkpt lat="42.86017" lon="2.22943">
        <ele>370.04</ele>
        <time>2024-09-20T07:50:46.000Z</time>
      </trkpt>
      <trkpt lat="42.86013" lon="2.22955">
        <ele>371.04</ele>
        <time>2024-09-20T07:50:51.000Z</time>
      </trkpt>
      <trkpt lat="42.86009" lon="2.22967">
        <ele>372.06</ele>
        <time>2024-09-20T07:50:56.000Z</time>
      </trkpt>
      <trkpt lat="42.86005" lon="2.2298">
        <ele>373.09</ele>
        <time>2024-09-20T07:51:01.000Z</time>
      </trkpt>
      <trkpt lat="42.86003" lon="2.22993">
        <ele>374.11</ele>
        <time>2024-09-20T07:51:06.000Z</time>
      </trkpt>
      <trkpt lat="42.86001" lon="2.23006">
        <ele>375.12</ele>
        <time>2024-09-20T07:51:11.000Z</time>
      </trkpt>
      <trkpt lat="42.86" lon="2.2302">
        <ele>376.34</ele>
        <time>2024-09-20T07:51:17.000Z</time>
      </trkpt>
      <trkpt lat="42.86001" lon="2.23033">
        <ele>377.35</ele>
        <time>2024-09-20T07:51:22.000Z</time>
      </trkpt>
      <trkpt lat="42.86004" lon="2.23047">
        <ele>378.54</ele>
        <time>2024-09-20T07:51:28.000Z</time>
      </trkpt>
      <trkpt lat="42.86008" lon="2.23059">
        <ele>379.47</ele>
        <time>2024-09-20T07:51:33.000Z</time>
      </trkpt>
      <trkpt lat="42.86012" lon="2.23071">
        <ele>380.51</ele>
        <time>2024-09-20T07:51:39.000Z</time>
      </trkpt>
      <trkpt lat="42.86016" lon="2.23083">
        <ele>381.35</ele>
        <time>2024-09-20T07:51:44.000Z</time>
      </trkpt>
      <trkpt lat="42.86021" lon="2.23097">
        <ele>382.18</ele>
        <time>2024-09-20T07:51:49.000Z</time>
      </trkpt>
      <trkpt lat="42.86025" lon="2.23108">
        <ele>383</ele>
        <time>2024-09-20T07:51:54.000Z</time>
      </trkpt>
      <trkpt lat="42.86028" lon="2.23121">
        <ele>383.78</ele>
        <time>2024-09-20T07:51:59.000Z</time>
      </trkpt>
      <trkpt lat="42.86028" lon="2.23135">
        <ele>384.51</ele>
        <time>2024-09-20T07:52:04.000Z</time>
      </trkpt>
      <trkpt lat="42.86025" lon="2.23149">
        <ele>385.23</ele>
        <time>2024-09-20T07:52:09.000Z</time>
      </trkpt>
      <trkpt lat="42.86021" lon="2.23161">
        <ele>385.94</ele>
        <time>2024-09-20T07:52:14.000Z</time>
      </trkpt>
      <trkpt lat="42.86015" lon="2.23172">
        <ele>386.75</ele>
        <time>2024-09-20T07:52:20.000Z</time>
      </trkpt>
      <trkpt lat="42.86008" lon="2.23183">
        <ele>387.55</ele>
        <time>2024-09-20T07:52:26.000Z</time>
      </trkpt>
      <trkpt lat="42.86002" lon="2.23193">
        <ele>388.18</ele>
        <time>2024-09-20T07:52:31.000Z</time>
      </trkpt>
      <trkpt lat="42.85995" lon="2.23204">
        <ele>388.78</ele>
        <time>2024-09-20T07:52:36.000Z</time>
      </trkpt>
      <trkpt lat="42.85989" lon="2.23215">
        <ele>389.37</ele>
        <time>2024-09-20T07:52:41.000Z</time>
      </trkpt>
      <trkpt lat="42.85982" lon="2.23224">
        <ele>389.95</ele>
        <time>2024-09-20T07:52:46.000Z</time>
      </trkpt>
      <trkpt lat="42.85976" lon="2.23233">
        <ele>390.49</ele>
        <time>2024-09-20T07:52:51.000Z</time>
      </trkpt>
      <trkpt lat="42.85969" lon="2.23244">
        <ele>390.98</ele>
        <time>2024-09-20T07:52:56.000Z</time>
      </trkpt>
      <trkpt lat="42.85963" lon="2.23254">
        <ele>391.43</ele>
        <time>2024-09-20T07:53:01.000Z</time>
      </trkpt>
      <trkpt lat="42.85956" lon="2.23264">
        <ele>391.85</ele>
        <time>2024-09-20T07:53:06.000Z</time>
      </trkpt>
      <trkpt lat="42.85949" lon="2.23273">
        <ele>392.32</ele>
        <time>2024-09-20T07:53:12.000Z</time>
      </trkpt>
      <trkpt lat="42.85942" lon="2.23283">
        <ele>392.75</ele>
        <time>2024-09-20T07:53:18.000Z</time>
      </trkpt>
      <trkpt lat="42.85935" lon="2.23293">
        <ele>393.08</ele>
        <time>2024-09-20T07:53:23.000Z</time>
      </trkpt>
      <trkpt lat="42.85929" lon="2.23303">
        <ele>393.48</ele>
        <time>2024-09-20T07:53:29.000Z</time>
      </trkpt>
      <trkpt lat="42.85921" lon="2.23313">
        <ele>393.85</ele>
        <time>2024-09-20T07:53:35.000Z</time>
      </trkpt>
      <trkpt lat="42.85914" lon="2.23322">
        <ele>394.25</ele>
        <time>2024-09-20T07:53:42.000Z</time>
      </trkpt>
      <trkpt lat="42.85907" lon="2.23333">
        <ele>394.66</ele>
        <time>2024-09-20T07:53:49.000Z</time>
      </trkpt>
      <trkpt lat="42.85899" lon="2.23342">
        <ele>395</ele>
        <time>2024-09-20T07:53:55.000Z</time>
      </trkpt>
      <trkpt lat="42.85892" lon="2.23351">
        <ele>395.26</ele>
        <time>2024-09-20T07:54:00.000Z</time>
      </trkpt>
      <trkpt lat="42.85885" lon="2.2336">
        <ele>395.49</ele>
        <time>2024-09-20T07:54:05.000Z</time>
      </trkpt>
      <trkpt lat="42.85878" lon="2.2337">
        <ele>395.74</ele>
        <time>2024-09-20T07:54:10.000Z</time>
      </trkpt>
      <trkpt lat="42.85871" lon="2.2338">
        <ele>396</ele>
        <time>2024-09-20T07:54:15.000Z</time>
      </trkpt>
      <trkpt lat="42.85864" lon="2.23388">
        <ele>396.27</ele>
        <time>2024-09-20T07:54:20.000Z</time>
      </trkpt>
      <trkpt lat="42.85856" lon="2.23396">
        <ele>396.54</ele>
        <time>2024-09-20T07:54:25.000Z</time>
      </trkpt>
      <trkpt lat="42.85848" lon="2.23404">
        <ele>396.88</ele>
        <time>2024-09-20T07:54:31.000Z</time>
      </trkpt>
      <trkpt lat="42.8584" lon="2.23412">
        <ele>397.18</ele>
        <time>2024-09-20T07:54:36.000Z</time>
      </trkpt>
      <trkpt lat="42.85833" lon="2.23421">
        <ele>397.5</ele>
        <time>2024-09-20T07:54:41.000Z</time>
      </trkpt>
      <trkpt lat="42.85825" lon="2.23429">
        <ele>397.84</ele>
        <time>2024-09-20T07:54:46.000Z</time>
      </trkpt>
      <trkpt lat="42.85817" lon="2.23438">
        <ele>398.27</ele>
        <time>2024-09-20T07:54:52.000Z</time>
      </trkpt>
      <trkpt lat="42.8581" lon="2.23446">
        <ele>398.64</ele>
        <time>2024-09-20T07:54:57.000Z</time>
      </trkpt>
      <trkpt lat="42.85802" lon="2.23453">
        <ele>399.02</ele>
        <time>2024-09-20T07:55:02.000Z</time>
      </trkpt>
      <trkpt lat="42.85794" lon="2.23463">
        <ele>399.46</ele>
        <time>2024-09-20T07:55:08.000Z</time>
      </trkpt>
      <trkpt lat="42.85786" lon="2.2347">
        <ele>399.83</ele>
        <time>2024-09-20T07:55:13.000Z</time>
      </trkpt>
      <trkpt lat="42.85777" lon="2.23479">
        <ele>400.22</ele>
        <time>2024-09-20T07:55:18.000Z</time>
      </trkpt>
      <trkpt lat="42.85769" lon="2.23486">
        <ele>400.6</ele>
        <time>2024-09-20T07:55:23.000Z</time>
      </trkpt>
      <trkpt lat="42.85761" lon="2.23494">
        <ele>400.98</ele>
        <time>2024-09-20T07:55:28.000Z</time>
      </trkpt>
      <trkpt lat="42.85753" lon="2.23503">
        <ele>401.37</ele>
        <time>2024-09-20T07:55:33.000Z</time>
      </trkpt>
      <trkpt lat="42.85746" lon="2.23515">
        <ele>401.83</ele>
        <time>2024-09-20T07:55:38.000Z</time>
      </trkpt>
      <trkpt lat="42.85739" lon="2.23528">
        <ele>402.54</ele>
        <time>2024-09-20T07:55:43.000Z</time>
      </trkpt>
      <trkpt lat="42.85733" lon="2.23539">
        <ele>403.51</ele>
        <time>2024-09-20T07:55:48.000Z</time>
      </trkpt>
      <trkpt lat="42.85728" lon="2.23549">
        <ele>404.6</ele>
        <time>2024-09-20T07:55:53.000Z</time>
      </trkpt>
      <trkpt lat="42.85721" lon="2.23561">
        <ele>405.83</ele>
        <time>2024-09-20T07:55:58.000Z</time>
      </trkpt>
      <trkpt lat="42.85716" lon="2.23572">
        <ele>407.2</ele>
        <time>2024-09-20T07:56:03.000Z</time>
      </trkpt>
      <trkpt lat="42.8571" lon="2.23584">
        <ele>408.64</ele>
        <time>2024-09-20T07:56:08.000Z</time>
      </trkpt>
      <trkpt lat="42.85704" lon="2.23596">
        <ele>410.11</ele>
        <time>2024-09-20T07:56:13.000Z</time>
      </trkpt>
      <trkpt lat="42.85698" lon="2.23608">
        <ele>411.56</ele>
        <time>2024-09-20T07:56:18.000Z</time>
      </trkpt>
      <trkpt lat="42.85692" lon="2.23619">
        <ele>413.24</ele>
        <time>2024-09-20T07:56:24.000Z</time>
      </trkpt>
      <trkpt lat="42.85687" lon="2.2363">
        <ele>414.58</ele>
        <time>2024-09-20T07:56:29.000Z</time>
      </trkpt>
      <trkpt lat="42.85681" lon="2.23641">
        <ele>415.87</ele>
        <time>2024-09-20T07:56:34.000Z</time>
      </trkpt>
      <trkpt lat="42.85676" lon="2.23652">
        <ele>417.07</ele>
        <time>2024-09-20T07:56:39.000Z</time>
      </trkpt>
      <trkpt lat="42.85671" lon="2.23664">
        <ele>418.19</ele>
        <time>2024-09-20T07:56:44.000Z</time>
      </trkpt>
      <trkpt lat="42.85665" lon="2.23676">
        <ele>419.24</ele>
        <time>2024-09-20T07:56:49.000Z</time>
      </trkpt>
      <trkpt lat="42.85659" lon="2.23687">
        <ele>420.2</ele>
        <time>2024-09-20T07:56:54.000Z</time>
      </trkpt>
      <trkpt lat="42.85653" lon="2.237">
        <ele>421.11</ele>
        <time>2024-09-20T07:56:59.000Z</time>
      </trkpt>
      <trkpt lat="42.85647" lon="2.23712">
        <ele>421.97</ele>
        <time>2024-09-20T07:57:04.000Z</time>
      </trkpt>
      <trkpt lat="42.8564" lon="2.23726">
        <ele>422.77</ele>
        <time>2024-09-20T07:57:09.000Z</time>
      </trkpt>
      <trkpt lat="42.85633" lon="2.2374">
        <ele>423.49</ele>
        <time>2024-09-20T07:57:14.000Z</time>
      </trkpt>
      <trkpt lat="42.85624" lon="2.23755">
        <ele>424.13</ele>
        <time>2024-09-20T07:57:19.000Z</time>
      </trkpt>
      <trkpt lat="42.85616" lon="2.23769">
        <ele>424.71</ele>
        <time>2024-09-20T07:57:24.000Z</time>
      </trkpt>
      <trkpt lat="42.85608" lon="2.23782">
        <ele>425.26</ele>
        <time>2024-09-20T07:57:29.000Z</time>
      </trkpt>
      <trkpt lat="42.85599" lon="2.23794">
        <ele>425.77</ele>
        <time>2024-09-20T07:57:34.000Z</time>
      </trkpt>
      <trkpt lat="42.85588" lon="2.23803">
        <ele>426.26</ele>
        <time>2024-09-20T07:57:39.000Z</time>
      </trkpt>
      <trkpt lat="42.85578" lon="2.23807">
        <ele>426.7</ele>
        <time>2024-09-20T07:57:44.000Z</time>
      </trkpt>
      <trkpt lat="42.85565" lon="2.23809">
        <ele>427.1</ele>
        <time>2024-09-20T07:57:49.000Z</time>
      </trkpt>
      <trkpt lat="42.85551" lon="2.23815">
        <ele>427.46</ele>
        <time>2024-09-20T07:57:54.000Z</time>
      </trkpt>
      <trkpt lat="42.85543" lon="2.23832">
        <ele>427.78</ele>
        <time>2024-09-20T07:57:59.000Z</time>
      </trkpt>
      <trkpt lat="42.85539" lon="2.23855">
        <ele>428.15</ele>
        <time>2024-09-20T07:58:04.000Z</time>
      </trkpt>
      <trkpt lat="42.85537" lon="2.23872">
        <ele>428.82</ele>
        <time>2024-09-20T07:58:09.000Z</time>
      </trkpt>
      <trkpt lat="42.85535" lon="2.23886">
        <ele>429.69</ele>
        <time>2024-09-20T07:58:14.000Z</time>
      </trkpt>
      <trkpt lat="42.85532" lon="2.23899">
        <ele>430.85</ele>
        <time>2024-09-20T07:58:20.000Z</time>
      </trkpt>
      <trkpt lat="42.85527" lon="2.23911">
        <ele>431.85</ele>
        <time>2024-09-20T07:58:25.000Z</time>
      </trkpt>
      <trkpt lat="42.85522" lon="2.23924">
        <ele>432.81</ele>
        <time>2024-09-20T07:58:30.000Z</time>
      </trkpt>
      <trkpt lat="42.85516" lon="2.23935">
        <ele>433.74</ele>
        <time>2024-09-20T07:58:35.000Z</time>
      </trkpt>
      <trkpt lat="42.8551" lon="2.23946">
        <ele>434.62</ele>
        <time>2024-09-20T07:58:40.000Z</time>
      </trkpt>
      <trkpt lat="42.85503" lon="2.23957">
        <ele>435.41</ele>
        <time>2024-09-20T07:58:45.000Z</time>
      </trkpt>
      <trkpt lat="42.85494" lon="2.23968">
        <ele>436.12</ele>
        <time>2024-09-20T07:58:50.000Z</time>
      </trkpt>
      <trkpt lat="42.85485" lon="2.23982">
        <ele>436.73</ele>
        <time>2024-09-20T07:58:55.000Z</time>
      </trkpt>
      <trkpt lat="42.85474" lon="2.23994">
        <ele>437.23</ele>
        <time>2024-09-20T07:59:00.000Z</time>
      </trkpt>
      <trkpt lat="42.85464" lon="2.24007">
        <ele>437.76</ele>
        <time>2024-09-20T07:59:05.000Z</time>
      </trkpt>
      <trkpt lat="42.85455" lon="2.24017">
        <ele>438.27</ele>
        <time>2024-09-20T07:59:10.000Z</time>
      </trkpt>
      <trkpt lat="42.85446" lon="2.24029">
        <ele>438.74</ele>
        <time>2024-09-20T07:59:15.000Z</time>
      </trkpt>
      <trkpt lat="42.85437" lon="2.2404">
        <ele>439.17</ele>
        <time>2024-09-20T07:59:20.000Z</time>
      </trkpt>
      <trkpt lat="42.85429" lon="2.2405">
        <ele>439.55</ele>
        <time>2024-09-20T07:59:25.000Z</time>
      </trkpt>
      <trkpt lat="42.85421" lon="2.24061">
        <ele>439.88</ele>
        <time>2024-09-20T07:59:30.000Z</time>
      </trkpt>
      <trkpt lat="42.85412" lon="2.24076">
        <ele>440.15</ele>
        <time>2024-09-20T07:59:35.000Z</time>
      </trkpt>
      <trkpt lat="42.85404" lon="2.24091">
        <ele>440.4</ele>
        <time>2024-09-20T07:59:40.000Z</time>
      </trkpt>
      <trkpt lat="42.85396" lon="2.24107">
        <ele>440.65</ele>
        <time>2024-09-20T07:59:45.000Z</time>
      </trkpt>
      <trkpt lat="42.85391" lon="2.24122">
        <ele>440.93</ele>
        <time>2024-09-20T07:59:50.000Z</time>
      </trkpt>
      <trkpt lat="42.85385" lon="2.24136">
        <ele>441.22</ele>
        <time>2024-09-20T07:59:55.000Z</time>
      </trkpt>
      <trkpt lat="42.85379" lon="2.24151">
        <ele>441.53</ele>
        <time>2024-09-20T08:00:00.000Z</time>
      </trkpt>
      <trkpt lat="42.85373" lon="2.24165">
        <ele>441.83</ele>
        <time>2024-09-20T08:00:05.000Z</time>
      </trkpt>
      <trkpt lat="42.85366" lon="2.24177">
        <ele>442.11</ele>
        <time>2024-09-20T08:00:10.000Z</time>
      </trkpt>
      <trkpt lat="42.85359" lon="2.24191">
        <ele>442.38</ele>
        <time>2024-09-20T08:00:15.000Z</time>
      </trkpt>
      <trkpt lat="42.85352" lon="2.24203">
        <ele>442.64</ele>
        <time>2024-09-20T08:00:20.000Z</time>
      </trkpt>
      <trkpt lat="42.85342" lon="2.2421">
        <ele>442.88</ele>
        <time>2024-09-20T08:00:25.000Z</time>
      </trkpt>
      <trkpt lat="42.85332" lon="2.24207">
        <ele>443.09</ele>
        <time>2024-09-20T08:00:30.000Z</time>
      </trkpt>
      <trkpt lat="42.8532" lon="2.24204">
        <ele>443.28</ele>
        <time>2024-09-20T08:00:35.000Z</time>
      </trkpt>
      <trkpt lat="42.85309" lon="2.24199">
        <ele>443.42</ele>
        <time>2024-09-20T08:00:40.000Z</time>
      </trkpt>
      <trkpt lat="42.85298" lon="2.24201">
        <ele>443.5</ele>
        <time>2024-09-20T08:00:45.000Z</time>
      </trkpt>
      <trkpt lat="42.85287" lon="2.24204">
        <ele>443.6</ele>
        <time>2024-09-20T08:00:50.999Z</time>
      </trkpt>
      <trkpt lat="42.85278" lon="2.24211">
        <ele>443.71</ele>
        <time>2024-09-20T08:00:55.999Z</time>
      </trkpt>
      <trkpt lat="42.85271" lon="2.24222">
        <ele>443.86</ele>
        <time>2024-09-20T08:01:00.999Z</time>
      </trkpt>
      <trkpt lat="42.85264" lon="2.24236">
        <ele>444.09</ele>
        <time>2024-09-20T08:01:05.999Z</time>
      </trkpt>
      <trkpt lat="42.8526" lon="2.24249">
        <ele>444.4</ele>
        <time>2024-09-20T08:01:10.999Z</time>
      </trkpt>
      <trkpt lat="42.85258" lon="2.24264">
        <ele>444.82</ele>
        <time>2024-09-20T08:01:15.999Z</time>
      </trkpt>
      <trkpt lat="42.85258" lon="2.24276">
        <ele>445.39</ele>
        <time>2024-09-20T08:01:20.999Z</time>
      </trkpt>
      <trkpt lat="42.85257" lon="2.24289">
        <ele>446.07</ele>
        <time>2024-09-20T08:01:25.999Z</time>
      </trkpt>
      <trkpt lat="42.85255" lon="2.24302">
        <ele>446.83</ele>
        <time>2024-09-20T08:01:30.999Z</time>
      </trkpt>
      <trkpt lat="42.85251" lon="2.24313">
        <ele>447.63</ele>
        <time>2024-09-20T08:01:35.999Z</time>
      </trkpt>
      <trkpt lat="42.85248" lon="2.24325">
        <ele>448.44</ele>
        <time>2024-09-20T08:01:40.999Z</time>
      </trkpt>
      <trkpt lat="42.85242" lon="2.24335">
        <ele>449.22</ele>
        <time>2024-09-20T08:01:45.999Z</time>
      </trkpt>
      <trkpt lat="42.85236" lon="2.24346">
        <ele>449.97</ele>
        <time>2024-09-20T08:01:50.999Z</time>
      </trkpt>
      <trkpt lat="42.85229" lon="2.24356">
        <ele>450.81</ele>
        <time>2024-09-20T08:01:56.999Z</time>
      </trkpt>
      <trkpt lat="42.85224" lon="2.24367">
        <ele>451.47</ele>
        <time>2024-09-20T08:02:01.999Z</time>
      </trkpt>
      <trkpt lat="42.85217" lon="2.24378">
        <ele>452.08</ele>
        <time>2024-09-20T08:02:06.999Z</time>
      </trkpt>
      <trkpt lat="42.8521" lon="2.24386">
        <ele>452.66</ele>
        <time>2024-09-20T08:02:11.999Z</time>
      </trkpt>
      <trkpt lat="42.85202" lon="2.24394">
        <ele>453.21</ele>
        <time>2024-09-20T08:02:16.999Z</time>
      </trkpt>
      <trkpt lat="42.85196" lon="2.24404">
        <ele>453.72</ele>
        <time>2024-09-20T08:02:21.999Z</time>
      </trkpt>
      <trkpt lat="42.85189" lon="2.24412">
        <ele>454.18</ele>
        <time>2024-09-20T08:02:26.999Z</time>
      </trkpt>
      <trkpt lat="42.85182" lon="2.24419">
        <ele>454.6</ele>
        <time>2024-09-20T08:02:31.999Z</time>
      </trkpt>
      <trkpt lat="42.85174" lon="2.24427">
        <ele>454.98</ele>
        <time>2024-09-20T08:02:36.999Z</time>
      </trkpt>
      <trkpt lat="42.85166" lon="2.24435">
        <ele>455.33</ele>
        <time>2024-09-20T08:02:41.999Z</time>
      </trkpt>
      <trkpt lat="42.85157" lon="2.24443">
        <ele>455.66</ele>
        <time>2024-09-20T08:02:46.999Z</time>
      </trkpt>
      <trkpt lat="42.8515" lon="2.24453">
        <ele>455.96</ele>
        <time>2024-09-20T08:02:51.999Z</time>
      </trkpt>
      <trkpt lat="42.85145" lon="2.24463">
        <ele>456.25</ele>
        <time>2024-09-20T08:02:56.999Z</time>
      </trkpt>
      <trkpt lat="42.8514" lon="2.24474">
        <ele>456.57</ele>
        <time>2024-09-20T08:03:01.999Z</time>
      </trkpt>
      <trkpt lat="42.85135" lon="2.24485">
        <ele>456.89</ele>
        <time>2024-09-20T08:03:06.999Z</time>
      </trkpt>
      <trkpt lat="42.85131" lon="2.24496">
        <ele>457.2</ele>
        <time>2024-09-20T08:03:11.999Z</time>
      </trkpt>
      <trkpt lat="42.85126" lon="2.24508">
        <ele>457.58</ele>
        <time>2024-09-20T08:03:16.999Z</time>
      </trkpt>
      <trkpt lat="42.8512" lon="2.24519">
        <ele>458</ele>
        <time>2024-09-20T08:03:21.999Z</time>
      </trkpt>
      <trkpt lat="42.85116" lon="2.24532">
        <ele>458.42</ele>
        <time>2024-09-20T08:03:26.999Z</time>
      </trkpt>
      <trkpt lat="42.85112" lon="2.24545">
        <ele>458.83</ele>
        <time>2024-09-20T08:03:31.999Z</time>
      </trkpt>
      <trkpt lat="42.85108" lon="2.24557">
        <ele>459.24</ele>
        <time>2024-09-20T08:03:36.999Z</time>
      </trkpt>
      <trkpt lat="42.85102" lon="2.24569">
        <ele>459.65</ele>
        <time>2024-09-20T08:03:41.999Z</time>
      </trkpt>
      <trkpt lat="42.85095" lon="2.24578">
        <ele>460.05</ele>
        <time>2024-09-20T08:03:46.999Z</time>
      </trkpt>
      <trkpt lat="42.85089" lon="2.24588">
        <ele>460.5</ele>
        <time>2024-09-20T08:03:52.999Z</time>
      </trkpt>
      <trkpt lat="42.85081" lon="2.24597">
        <ele>460.95</ele>
        <time>2024-09-20T08:03:58.999Z</time>
      </trkpt>
      <trkpt lat="42.85074" lon="2.24606">
        <ele>461.39</ele>
        <time>2024-09-20T08:04:04.999Z</time>
      </trkpt>
      <trkpt lat="42.85068" lon="2.24615">
        <ele>461.82</ele>
        <time>2024-09-20T08:04:10.999Z</time>
      </trkpt>
      <trkpt lat="42.85061" lon="2.24623">
        <ele>462.26</ele>
        <time>2024-09-20T08:04:16.999Z</time>
      </trkpt>
      <trkpt lat="42.85054" lon="2.24633">
        <ele>462.69</ele>
        <time>2024-09-20T08:04:22.999Z</time>
      </trkpt>
      <trkpt lat="42.85048" lon="2.24643">
        <ele>463.14</ele>
        <time>2024-09-20T08:04:28.999Z</time>
      </trkpt>
      <trkpt lat="42.85043" lon="2.24654">
        <ele>463.59</ele>
        <time>2024-09-20T08:04:34.999Z</time>
      </trkpt>
      <trkpt lat="42.85037" lon="2.24665">
        <ele>463.97</ele>
        <time>2024-09-20T08:04:39.999Z</time>
      </trkpt>
      <trkpt lat="42.85032" lon="2.24675">
        <ele>464.41</ele>
        <time>2024-09-20T08:04:44.999Z</time>
      </trkpt>
      <trkpt lat="42.85025" lon="2.24686">
        <ele>465</ele>
        <time>2024-09-20T08:04:50.999Z</time>
      </trkpt>
      <trkpt lat="42.8502" lon="2.24696">
        <ele>465.62</ele>
        <time>2024-09-20T08:04:56.999Z</time>
      </trkpt>
      <trkpt lat="42.85015" lon="2.24707">
        <ele>466.24</ele>
        <time>2024-09-20T08:05:02.999Z</time>
      </trkpt>
      <trkpt lat="42.85008" lon="2.24717">
        <ele>466.82</ele>
        <time>2024-09-20T08:05:08.999Z</time>
      </trkpt>
      <trkpt lat="42.85" lon="2.24726">
        <ele>467.38</ele>
        <time>2024-09-20T08:05:14.999Z</time>
      </trkpt>
      <trkpt lat="42.84992" lon="2.24735">
        <ele>468</ele>
        <time>2024-09-20T08:05:21.999Z</time>
      </trkpt>
      <trkpt lat="42.84985" lon="2.24744">
        <ele>468.49</ele>
        <time>2024-09-20T08:05:27.999Z</time>
      </trkpt>
      <trkpt lat="42.84977" lon="2.24754">
        <ele>468.97</ele>
        <time>2024-09-20T08:05:33.999Z</time>
      </trkpt>
      <trkpt lat="42.84971" lon="2.24765">
        <ele>469.44</ele>
        <time>2024-09-20T08:05:39.999Z</time>
      </trkpt>
      <trkpt lat="42.84967" lon="2.24778">
        <ele>469.98</ele>
        <time>2024-09-20T08:05:45.999Z</time>
      </trkpt>
      <trkpt lat="42.84964" lon="2.24793">
        <ele>470.56</ele>
        <time>2024-09-20T08:05:51.999Z</time>
      </trkpt>
      <trkpt lat="42.84963" lon="2.24808">
        <ele>471.22</ele>
        <time>2024-09-20T08:05:57.999Z</time>
      </trkpt>
      <trkpt lat="42.8496" lon="2.24821">
        <ele>471.86</ele>
        <time>2024-09-20T08:06:02.999Z</time>
      </trkpt>
      <trkpt lat="42.84958" lon="2.24835">
        <ele>472.61</ele>
        <time>2024-09-20T08:06:07.999Z</time>
      </trkpt>
      <trkpt lat="42.84955" lon="2.24848">
        <ele>473.41</ele>
        <time>2024-09-20T08:06:12.999Z</time>
      </trkpt>
      <trkpt lat="42.84952" lon="2.24861">
        <ele>474.25</ele>
        <time>2024-09-20T08:06:17.999Z</time>
      </trkpt>
      <trkpt lat="42.8495" lon="2.24874">
        <ele>475.1</ele>
        <time>2024-09-20T08:06:22.999Z</time>
      </trkpt>
      <trkpt lat="42.84951" lon="2.24887">
        <ele>475.96</ele>
        <time>2024-09-20T08:06:27.999Z</time>
      </trkpt>
      <trkpt lat="42.8495" lon="2.24899">
        <ele>476.82</ele>
        <time>2024-09-20T08:06:32.999Z</time>
      </trkpt>
      <trkpt lat="42.8495" lon="2.24912">
        <ele>477.68</ele>
        <time>2024-09-20T08:06:37.999Z</time>
      </trkpt>
      <trkpt lat="42.84948" lon="2.24926">
        <ele>478.67</ele>
        <time>2024-09-20T08:06:43.999Z</time>
      </trkpt>
      <trkpt lat="42.84946" lon="2.24938">
        <ele>479.46</ele>
        <time>2024-09-20T08:06:48.999Z</time>
      </trkpt>
      <trkpt lat="42.84943" lon="2.2495">
        <ele>480.24</ele>
        <time>2024-09-20T08:06:53.999Z</time>
      </trkpt>
      <trkpt lat="42.8494" lon="2.24962">
        <ele>481.14</ele>
        <time>2024-09-20T08:06:59.999Z</time>
      </trkpt>
      <trkpt lat="42.84937" lon="2.24975">
        <ele>481.85</ele>
        <time>2024-09-20T08:07:04.999Z</time>
      </trkpt>
      <trkpt lat="42.84932" lon="2.24988">
        <ele>482.67</ele>
        <time>2024-09-20T08:07:10.999Z</time>
      </trkpt>
      <trkpt lat="42.84927" lon="2.25001">
        <ele>483.43</ele>
        <time>2024-09-20T08:07:16.999Z</time>
      </trkpt>
      <trkpt lat="42.84923" lon="2.25014">
        <ele>484.17</ele>
        <time>2024-09-20T08:07:22.999Z</time>
      </trkpt>
      <trkpt lat="42.84918" lon="2.25025">
        <ele>484.84</ele>
        <time>2024-09-20T08:07:28.999Z</time>
      </trkpt>
      <trkpt lat="42.84914" lon="2.25037">
        <ele>485.38</ele>
        <time>2024-09-20T08:07:33.999Z</time>
      </trkpt>
      <trkpt lat="42.8491" lon="2.2505">
        <ele>485.99</ele>
        <time>2024-09-20T08:07:39.999Z</time>
      </trkpt>
      <trkpt lat="42.84906" lon="2.25063">
        <ele>486.59</ele>
        <time>2024-09-20T08:07:45.999Z</time>
      </trkpt>
      <trkpt lat="42.84904" lon="2.25078">
        <ele>487.16</ele>
        <time>2024-09-20T08:07:51.999Z</time>
      </trkpt>
      <trkpt lat="42.84901" lon="2.2509">
        <ele>487.61</ele>
        <time>2024-09-20T08:07:56.999Z</time>
      </trkpt>
      <trkpt lat="42.84897" lon="2.25103">
        <ele>488.14</ele>
        <time>2024-09-20T08:08:02.999Z</time>
      </trkpt>
      <trkpt lat="42.84894" lon="2.25116">
        <ele>488.65</ele>
        <time>2024-09-20T08:08:08.999Z</time>
      </trkpt>
      <trkpt lat="42.84892" lon="2.2513">
        <ele>489.15</ele>
        <time>2024-09-20T08:08:14.999Z</time>
      </trkpt>
      <trkpt lat="42.8489" lon="2.25143">
        <ele>489.55</ele>
        <time>2024-09-20T08:08:19.999Z</time>
      </trkpt>
      <trkpt lat="42.8489" lon="2.25155">
        <ele>489.93</ele>
        <time>2024-09-20T08:08:24.999Z</time>
      </trkpt>
      <trkpt lat="42.84894" lon="2.25168">
        <ele>490.36</ele>
        <time>2024-09-20T08:08:30.999Z</time>
      </trkpt>
      <trkpt lat="42.84898" lon="2.25182">
        <ele>490.77</ele>
        <time>2024-09-20T08:08:36.999Z</time>
      </trkpt>
      <trkpt lat="42.849" lon="2.25195">
        <ele>491.17</ele>
        <time>2024-09-20T08:08:42.999Z</time>
      </trkpt>
      <trkpt lat="42.84902" lon="2.25209">
        <ele>491.58</ele>
        <time>2024-09-20T08:08:48.999Z</time>
      </trkpt>
      <trkpt lat="42.84904" lon="2.25223">
        <ele>491.92</ele>
        <time>2024-09-20T08:08:53.999Z</time>
      </trkpt>
      <trkpt lat="42.84905" lon="2.25236">
        <ele>492.29</ele>
        <time>2024-09-20T08:08:58.999Z</time>
      </trkpt>
      <trkpt lat="42.84907" lon="2.25249">
        <ele>492.67</ele>
        <time>2024-09-20T08:09:03.999Z</time>
      </trkpt>
      <trkpt lat="42.84906" lon="2.25263">
        <ele>493.12</ele>
        <time>2024-09-20T08:09:09.999Z</time>
      </trkpt>
      <trkpt lat="42.84905" lon="2.25277">
        <ele>493.64</ele>
        <time>2024-09-20T08:09:16.999Z</time>
      </trkpt>
      <trkpt lat="42.84905" lon="2.25291">
        <ele>494.1</ele>
        <time>2024-09-20T08:09:22.999Z</time>
      </trkpt>
      <trkpt lat="42.84903" lon="2.25303">
        <ele>494.58</ele>
        <time>2024-09-20T08:09:28.999Z</time>
      </trkpt>
      <trkpt lat="42.84902" lon="2.25316">
        <ele>495.05</ele>
        <time>2024-09-20T08:09:34.999Z</time>
      </trkpt>
      <trkpt lat="42.84901" lon="2.25329">
        <ele>495.53</ele>
        <time>2024-09-20T08:09:40.999Z</time>
      </trkpt>
      <trkpt lat="42.84898" lon="2.25343">
        <ele>496.07</ele>
        <time>2024-09-20T08:09:47.999Z</time>
      </trkpt>
      <trkpt lat="42.84896" lon="2.25356">
        <ele>496.6</ele>
        <time>2024-09-20T08:09:54.999Z</time>
      </trkpt>
      <trkpt lat="42.84895" lon="2.25368">
        <ele>497.04</ele>
        <time>2024-09-20T08:10:00.999Z</time>
      </trkpt>
      <trkpt lat="42.84893" lon="2.25381">
        <ele>497.48</ele>
        <time>2024-09-20T08:10:06.999Z</time>
      </trkpt>
      <trkpt lat="42.8489" lon="2.25393">
        <ele>497.92</ele>
        <time>2024-09-20T08:10:12.999Z</time>
      </trkpt>
      <trkpt lat="42.84889" lon="2.25406">
        <ele>498.28</ele>
        <time>2024-09-20T08:10:17.999Z</time>
      </trkpt>
      <trkpt lat="42.84888" lon="2.25419">
        <ele>498.7</ele>
        <time>2024-09-20T08:10:23.999Z</time>
      </trkpt>
      <trkpt lat="42.84888" lon="2.25431">
        <ele>499.04</ele>
        <time>2024-09-20T08:10:28.999Z</time>
      </trkpt>
      <trkpt lat="42.84888" lon="2.25445">
        <ele>499.43</ele>
        <time>2024-09-20T08:10:34.999Z</time>
      </trkpt>
      <trkpt lat="42.84886" lon="2.25457">
        <ele>499.81</ele>
        <time>2024-09-20T08:10:40.999Z</time>
      </trkpt>
      <trkpt lat="42.84883" lon="2.25471">
        <ele>500.23</ele>
        <time>2024-09-20T08:10:47.999Z</time>
      </trkpt>
      <trkpt lat="42.84881" lon="2.25483">
        <ele>500.59</ele>
        <time>2024-09-20T08:10:53.999Z</time>
      </trkpt>
      <trkpt lat="42.8488" lon="2.25496">
        <ele>500.93</ele>
        <time>2024-09-20T08:10:59.999Z</time>
      </trkpt>
      <trkpt lat="42.8488" lon="2.2551">
        <ele>501.27</ele>
        <time>2024-09-20T08:11:05.999Z</time>
      </trkpt>
      <trkpt lat="42.8488" lon="2.25524">
        <ele>501.61</ele>
        <time>2024-09-20T08:11:11.999Z</time>
      </trkpt>
      <trkpt lat="42.84878" lon="2.25536">
        <ele>501.89</ele>
        <time>2024-09-20T08:11:16.999Z</time>
      </trkpt>
      <trkpt lat="42.84877" lon="2.2555">
        <ele>502.21</ele>
        <time>2024-09-20T08:11:22.999Z</time>
      </trkpt>
      <trkpt lat="42.84875" lon="2.25563">
        <ele>502.53</ele>
        <time>2024-09-20T08:11:28.999Z</time>
      </trkpt>
      <trkpt lat="42.84875" lon="2.25576">
        <ele>502.79</ele>
        <time>2024-09-20T08:11:33.999Z</time>
      </trkpt>
      <trkpt lat="42.84873" lon="2.2559">
        <ele>503.09</ele>
        <time>2024-09-20T08:11:39.999Z</time>
      </trkpt>
      <trkpt lat="42.84872" lon="2.25603">
        <ele>503.38</ele>
        <time>2024-09-20T08:11:45.999Z</time>
      </trkpt>
      <trkpt lat="42.8487" lon="2.25616">
        <ele>503.67</ele>
        <time>2024-09-20T08:11:51.999Z</time>
      </trkpt>
      <trkpt lat="42.84869" lon="2.2563">
        <ele>504</ele>
        <time>2024-09-20T08:11:58.999Z</time>
      </trkpt>
      <trkpt lat="42.84869" lon="2.25644">
        <ele>504.28</ele>
        <time>2024-09-20T08:12:04.999Z</time>
      </trkpt>
      <trkpt lat="42.84869" lon="2.25657">
        <ele>504.5</ele>
        <time>2024-09-20T08:12:09.999Z</time>
      </trkpt>
      <trkpt lat="42.84867" lon="2.25671">
        <ele>504.76</ele>
        <time>2024-09-20T08:12:15.999Z</time>
      </trkpt>
      <trkpt lat="42.84867" lon="2.25685">
        <ele>505.02</ele>
        <time>2024-09-20T08:12:21.999Z</time>
      </trkpt>
      <trkpt lat="42.84865" lon="2.25697">
        <ele>505.28</ele>
        <time>2024-09-20T08:12:27.999Z</time>
      </trkpt>
      <trkpt lat="42.84864" lon="2.25711">
        <ele>505.55</ele>
        <time>2024-09-20T08:12:33.999Z</time>
      </trkpt>
      <trkpt lat="42.84863" lon="2.25725">
        <ele>505.82</ele>
        <time>2024-09-20T08:12:39.999Z</time>
      </trkpt>
      <trkpt lat="42.84862" lon="2.25739">
        <ele>506.1</ele>
        <time>2024-09-20T08:12:45.999Z</time>
      </trkpt>
      <trkpt lat="42.8486" lon="2.25753">
        <ele>506.39</ele>
        <time>2024-09-20T08:12:51.999Z</time>
      </trkpt>
      <trkpt lat="42.84857" lon="2.25768">
        <ele>506.75</ele>
        <time>2024-09-20T08:12:58.999Z</time>
      </trkpt>
      <trkpt lat="42.84857" lon="2.2578">
        <ele>507</ele>
        <time>2024-09-20T08:13:04.000Z</time>
      </trkpt>
      <trkpt lat="42.84855" lon="2.25793">
        <ele>507.31</ele>
        <time>2024-09-20T08:13:10.000Z</time>
      </trkpt>
      <trkpt lat="42.84853" lon="2.25807">
        <ele>507.61</ele>
        <time>2024-09-20T08:13:16.000Z</time>
      </trkpt>
      <trkpt lat="42.84853" lon="2.2582">
        <ele>507.87</ele>
        <time>2024-09-20T08:13:21.000Z</time>
      </trkpt>
      <trkpt lat="42.84851" lon="2.25834">
        <ele>508.18</ele>
        <time>2024-09-20T08:13:27.000Z</time>
      </trkpt>
      <trkpt lat="42.84848" lon="2.25846">
        <ele>508.44</ele>
        <time>2024-09-20T08:13:32.000Z</time>
      </trkpt>
      <trkpt lat="42.84846" lon="2.25858">
        <ele>508.69</ele>
        <time>2024-09-20T08:13:37.000Z</time>
      </trkpt>
      <trkpt lat="42.84841" lon="2.25869">
        <ele>509</ele>
        <time>2024-09-20T08:13:43.000Z</time>
      </trkpt>
      <trkpt lat="42.84834" lon="2.25877">
        <ele>509.33</ele>
        <time>2024-09-20T08:13:50.000Z</time>
      </trkpt>
      <trkpt lat="42.84824" lon="2.25883">
        <ele>509.58</ele>
        <time>2024-09-20T08:13:56.000Z</time>
      </trkpt>
      <trkpt lat="42.84815" lon="2.25889">
        <ele>509.82</ele>
        <time>2024-09-20T08:14:02.000Z</time>
      </trkpt>
      <trkpt lat="42.84807" lon="2.25898">
        <ele>510.04</ele>
        <time>2024-09-20T08:14:08.000Z</time>
      </trkpt>
      <trkpt lat="42.84802" lon="2.2591">
        <ele>510.21</ele>
        <time>2024-09-20T08:14:13.000Z</time>
      </trkpt>
      <trkpt lat="42.84805" lon="2.25929">
        <ele>510.39</ele>
        <time>2024-09-20T08:14:18.000Z</time>
      </trkpt>
      <trkpt lat="42.84814" lon="2.25945">
        <ele>510.61</ele>
        <time>2024-09-20T08:14:23.000Z</time>
      </trkpt>
      <trkpt lat="42.84826" lon="2.25957">
        <ele>510.89</ele>
        <time>2024-09-20T08:14:28.000Z</time>
      </trkpt>
      <trkpt lat="42.84838" lon="2.25969">
        <ele>511.25</ele>
        <time>2024-09-20T08:14:33.000Z</time>
      </trkpt>
      <trkpt lat="42.84848" lon="2.25981">
        <ele>511.63</ele>
        <time>2024-09-20T08:14:38.000Z</time>
      </trkpt>
      <trkpt lat="42.84853" lon="2.25991">
        <ele>512.01</ele>
        <time>2024-09-20T08:14:43.000Z</time>
      </trkpt>
      <trkpt lat="42.84857" lon="2.26003">
        <ele>512.4</ele>
        <time>2024-09-20T08:14:48.000Z</time>
      </trkpt>
      <trkpt lat="42.8486" lon="2.26019">
        <ele>512.81</ele>
        <time>2024-09-20T08:14:53.000Z</time>
      </trkpt>
      <trkpt lat="42.84861" lon="2.26033">
        <ele>513.31</ele>
        <time>2024-09-20T08:14:58.000Z</time>
      </trkpt>
      <trkpt lat="42.84859" lon="2.26048">
        <ele>513.88</ele>
        <time>2024-09-20T08:15:03.000Z</time>
      </trkpt>
      <trkpt lat="42.84853" lon="2.26058">
        <ele>514.47</ele>
        <time>2024-09-20T08:15:08.000Z</time>
      </trkpt>
      <trkpt lat="42.84846" lon="2.26065">
        <ele>515.04</ele>
        <time>2024-09-20T08:15:13.000Z</time>
      </trkpt>
      <trkpt lat="42.84838" lon="2.26073">
        <ele>515.58</ele>
        <time>2024-09-20T08:15:18.000Z</time>
      </trkpt>
      <trkpt lat="42.84833" lon="2.26083">
        <ele>516.09</ele>
        <time>2024-09-20T08:15:23.000Z</time>
      </trkpt>
      <trkpt lat="42.84834" lon="2.26098">
        <ele>516.57</ele>
        <time>2024-09-20T08:15:28.000Z</time>
      </trkpt>
      <trkpt lat="42.8484" lon="2.26113">
        <ele>517.03</ele>
        <time>2024-09-20T08:15:33.000Z</time>
      </trkpt>
      <trkpt lat="42.84847" lon="2.2613">
        <ele>517.49</ele>
        <time>2024-09-20T08:15:38.000Z</time>
      </trkpt>
      <trkpt lat="42.84853" lon="2.26144">
        <ele>517.95</ele>
        <time>2024-09-20T08:15:43.000Z</time>
      </trkpt>
      <trkpt lat="42.84855" lon="2.2616">
        <ele>518.41</ele>
        <time>2024-09-20T08:15:48.000Z</time>
      </trkpt>
      <trkpt lat="42.84856" lon="2.26175">
        <ele>518.89</ele>
        <time>2024-09-20T08:15:53.000Z</time>
      </trkpt>
      <trkpt lat="42.84857" lon="2.26188">
        <ele>519.37</ele>
        <time>2024-09-20T08:15:58.000Z</time>
      </trkpt>
      <trkpt lat="42.84859" lon="2.26201">
        <ele>519.84</ele>
        <time>2024-09-20T08:16:03.000Z</time>
      </trkpt>
      <trkpt lat="42.8486" lon="2.26214">
        <ele>520.31</ele>
        <time>2024-09-20T08:16:08.000Z</time>
      </trkpt>
      <trkpt lat="42.84862" lon="2.26227">
        <ele>520.87</ele>
        <time>2024-09-20T08:16:14.000Z</time>
      </trkpt>
      <trkpt lat="42.84863" lon="2.26242">
        <ele>521.42</ele>
        <time>2024-09-20T08:16:20.000Z</time>
      </trkpt>
      <trkpt lat="42.84864" lon="2.26256">
        <ele>521.97</ele>
        <time>2024-09-20T08:16:26.000Z</time>
      </trkpt>
      <trkpt lat="42.84863" lon="2.26269">
        <ele>522.52</ele>
        <time>2024-09-20T08:16:32.000Z</time>
      </trkpt>
      <trkpt lat="42.84859" lon="2.26281">
        <ele>523.07</ele>
        <time>2024-09-20T08:16:38.000Z</time>
      </trkpt>
      <trkpt lat="42.84853" lon="2.26291">
        <ele>523.6</ele>
        <time>2024-09-20T08:16:44.000Z</time>
      </trkpt>
      <trkpt lat="42.84844" lon="2.26297">
        <ele>524.11</ele>
        <time>2024-09-20T08:16:50.000Z</time>
      </trkpt>
      <trkpt lat="42.84836" lon="2.26305">
        <ele>524.59</ele>
        <time>2024-09-20T08:16:56.000Z</time>
      </trkpt>
      <trkpt lat="42.84828" lon="2.26312">
        <ele>525.04</ele>
        <time>2024-09-20T08:17:02.000Z</time>
      </trkpt>
      <trkpt lat="42.8482" lon="2.2632">
        <ele>525.46</ele>
        <time>2024-09-20T08:17:08.000Z</time>
      </trkpt>
      <trkpt lat="42.84813" lon="2.26327">
        <ele>525.79</ele>
        <time>2024-09-20T08:17:13.000Z</time>
      </trkpt>
      <trkpt lat="42.84804" lon="2.26335">
        <ele>526.16</ele>
        <time>2024-09-20T08:17:19.000Z</time>
      </trkpt>
      <trkpt lat="42.84797" lon="2.26343">
        <ele>527.9</ele>
        <time>2024-09-20T08:20:20.000Z</time>
      </trkpt>
      <trkpt lat="42.84791" lon="2.26353">
        <ele>528.53</ele>
        <time>2024-09-20T08:20:29.000Z</time>
      </trkpt>
      <trkpt lat="42.84785" lon="2.26363">
        <ele>528.85</ele>
        <time>2024-09-20T08:20:34.000Z</time>
      </trkpt>
      <trkpt lat="42.8478" lon="2.26378">
        <ele>529.16</ele>
        <time>2024-09-20T08:20:39.000Z</time>
      </trkpt>
      <trkpt lat="42.84777" lon="2.26392">
        <ele>529.45</ele>
        <time>2024-09-20T08:20:44.000Z</time>
      </trkpt>
      <trkpt lat="42.84778" lon="2.26408">
        <ele>529.72</ele>
        <time>2024-09-20T08:20:49.000Z</time>
      </trkpt>
      <trkpt lat="42.84782" lon="2.26422">
        <ele>529.97</ele>
        <time>2024-09-20T08:20:54.000Z</time>
      </trkpt>
      <trkpt lat="42.84793" lon="2.26434">
        <ele>530.22</ele>
        <time>2024-09-20T08:20:59.000Z</time>
      </trkpt>
      <trkpt lat="42.84804" lon="2.26442">
        <ele>530.47</ele>
        <time>2024-09-20T08:21:04.000Z</time>
      </trkpt>
      <trkpt lat="42.84815" lon="2.2645">
        <ele>530.71</ele>
        <time>2024-09-20T08:21:09.000Z</time>
      </trkpt>
      <trkpt lat="42.84825" lon="2.26459">
        <ele>530.96</ele>
        <time>2024-09-20T08:21:14.000Z</time>
      </trkpt>
      <trkpt lat="42.84833" lon="2.2647">
        <ele>531.21</ele>
        <time>2024-09-20T08:21:19.000Z</time>
      </trkpt>
      <trkpt lat="42.84839" lon="2.26483">
        <ele>531.52</ele>
        <time>2024-09-20T08:21:25.000Z</time>
      </trkpt>
      <trkpt lat="42.8484" lon="2.26496">
        <ele>531.9</ele>
        <time>2024-09-20T08:21:32.000Z</time>
      </trkpt>
      <trkpt lat="42.8484" lon="2.26509">
        <ele>532.19</ele>
        <time>2024-09-20T08:21:37.000Z</time>
      </trkpt>
      <trkpt lat="42.8484" lon="2.26522">
        <ele>532.5</ele>
        <time>2024-09-20T08:21:42.000Z</time>
      </trkpt>
      <trkpt lat="42.8484" lon="2.26535">
        <ele>532.81</ele>
        <time>2024-09-20T08:21:47.000Z</time>
      </trkpt>
      <trkpt lat="42.8484" lon="2.26549">
        <ele>533.13</ele>
        <time>2024-09-20T08:21:52.000Z</time>
      </trkpt>
      <trkpt lat="42.8484" lon="2.26563">
        <ele>533.48</ele>
        <time>2024-09-20T08:21:57.000Z</time>
      </trkpt>
      <trkpt lat="42.84841" lon="2.26576">
        <ele>533.83</ele>
        <time>2024-09-20T08:22:02.000Z</time>
      </trkpt>
      <trkpt lat="42.84841" lon="2.2659">
        <ele>534.17</ele>
        <time>2024-09-20T08:22:07.000Z</time>
      </trkpt>
      <trkpt lat="42.84841" lon="2.26604">
        <ele>534.53</ele>
        <time>2024-09-20T08:22:12.000Z</time>
      </trkpt>
      <trkpt lat="42.84841" lon="2.26618">
        <ele>534.88</ele>
        <time>2024-09-20T08:22:17.000Z</time>
      </trkpt>
      <trkpt lat="42.84842" lon="2.26632">
        <ele>535.24</ele>
        <time>2024-09-20T08:22:22.000Z</time>
      </trkpt>
      <trkpt lat="42.84841" lon="2.26645">
        <ele>535.6</ele>
        <time>2024-09-20T08:22:27.000Z</time>
      </trkpt>
      <trkpt lat="42.84842" lon="2.26657">
        <ele>535.96</ele>
        <time>2024-09-20T08:22:32.000Z</time>
      </trkpt>
      <trkpt lat="42.84841" lon="2.2667">
        <ele>536.32</ele>
        <time>2024-09-20T08:22:37.000Z</time>
      </trkpt>
      <trkpt lat="42.84842" lon="2.26684">
        <ele>536.68</ele>
        <time>2024-09-20T08:22:42.000Z</time>
      </trkpt>
      <trkpt lat="42.84841" lon="2.26697">
        <ele>537.03</ele>
        <time>2024-09-20T08:22:47.000Z</time>
      </trkpt>
      <trkpt lat="42.8484" lon="2.2671">
        <ele>537.39</ele>
        <time>2024-09-20T08:22:52.000Z</time>
      </trkpt>
      <trkpt lat="42.84837" lon="2.26725">
        <ele>537.75</ele>
        <time>2024-09-20T08:22:57.000Z</time>
      </trkpt>
      <trkpt lat="42.84833" lon="2.26736">
        <ele>538.18</ele>
        <time>2024-09-20T08:23:03.000Z</time>
      </trkpt>
      <trkpt lat="42.84826" lon="2.26746">
        <ele>538.58</ele>
        <time>2024-09-20T08:23:09.000Z</time>
      </trkpt>
      <trkpt lat="42.84817" lon="2.26755">
        <ele>538.95</ele>
        <time>2024-09-20T08:23:15.000Z</time>
      </trkpt>
      <trkpt lat="42.84812" lon="2.26767">
        <ele>539.23</ele>
        <time>2024-09-20T08:23:20.000Z</time>
      </trkpt>
      <trkpt lat="42.8481" lon="2.26786">
        <ele>539.51</ele>
        <time>2024-09-20T08:23:25.000Z</time>
      </trkpt>
      <trkpt lat="42.84815" lon="2.268">
        <ele>539.79</ele>
        <time>2024-09-20T08:23:30.000Z</time>
      </trkpt>
      <trkpt lat="42.84824" lon="2.26813">
        <ele>540.07</ele>
        <time>2024-09-20T08:23:35.000Z</time>
      </trkpt>
      <trkpt lat="42.84831" lon="2.26825">
        <ele>540.34</ele>
        <time>2024-09-20T08:23:40.000Z</time>
      </trkpt>
      <trkpt lat="42.84837" lon="2.26842">
        <ele>540.6</ele>
        <time>2024-09-20T08:23:45.000Z</time>
      </trkpt>
      <trkpt lat="42.84835" lon="2.26856">
        <ele>540.92</ele>
        <time>2024-09-20T08:23:51.000Z</time>
      </trkpt>
      <trkpt lat="42.84832" lon="2.26868">
        <ele>541.2</ele>
        <time>2024-09-20T08:23:56.000Z</time>
      </trkpt>
      <trkpt lat="42.8483" lon="2.26882">
        <ele>541.53</ele>
        <time>2024-09-20T08:24:02.000Z</time>
      </trkpt>
      <trkpt lat="42.84828" lon="2.26895">
        <ele>541.81</ele>
        <time>2024-09-20T08:24:07.000Z</time>
      </trkpt>
      <trkpt lat="42.84831" lon="2.26908">
        <ele>542.11</ele>
        <time>2024-09-20T08:24:12.000Z</time>
      </trkpt>
      <trkpt lat="42.84833" lon="2.26921">
        <ele>542.42</ele>
        <time>2024-09-20T08:24:17.000Z</time>
      </trkpt>
      <trkpt lat="42.84835" lon="2.26935">
        <ele>542.73</ele>
        <time>2024-09-20T08:24:22.000Z</time>
      </trkpt>
      <trkpt lat="42.84837" lon="2.26948">
        <ele>543.05</ele>
        <time>2024-09-20T08:24:27.000Z</time>
      </trkpt>
      <trkpt lat="42.84841" lon="2.26964">
        <ele>543.37</ele>
        <time>2024-09-20T08:24:32.000Z</time>
      </trkpt>
      <trkpt lat="42.84845" lon="2.26976">
        <ele>543.69</ele>
        <time>2024-09-20T08:24:37.000Z</time>
      </trkpt>
      <trkpt lat="42.84852" lon="2.2699">
        <ele>544</ele>
        <time>2024-09-20T08:24:42.000Z</time>
      </trkpt>
      <trkpt lat="42.8486" lon="2.26999">
        <ele>544.29</ele>
        <time>2024-09-20T08:24:47.000Z</time>
      </trkpt>
      <trkpt lat="42.84866" lon="2.27011">
        <ele>544.58</ele>
        <time>2024-09-20T08:24:52.000Z</time>
      </trkpt>
      <trkpt lat="42.84871" lon="2.27022">
        <ele>544.93</ele>
        <time>2024-09-20T08:24:58.000Z</time>
      </trkpt>
      <trkpt lat="42.84874" lon="2.27035">
        <ele>545.22</ele>
        <time>2024-09-20T08:25:03.000Z</time>
      </trkpt>
      <trkpt lat="42.84877" lon="2.27049">
        <ele>545.52</ele>
        <time>2024-09-20T08:25:08.000Z</time>
      </trkpt>
      <trkpt lat="42.84878" lon="2.27069">
        <ele>545.89</ele>
        <time>2024-09-20T08:25:13.999Z</time>
      </trkpt>
      <trkpt lat="42.84878" lon="2.27085">
        <ele>546.21</ele>
        <time>2024-09-20T08:25:18.999Z</time>
      </trkpt>
      <trkpt lat="42.84878" lon="2.27099">
        <ele>546.53</ele>
        <time>2024-09-20T08:25:23.999Z</time>
      </trkpt>
      <trkpt lat="42.84876" lon="2.27111">
        <ele>546.86</ele>
        <time>2024-09-20T08:25:28.999Z</time>
      </trkpt>
      <trkpt lat="42.84872" lon="2.27125">
        <ele>547.2</ele>
        <time>2024-09-20T08:25:33.999Z</time>
      </trkpt>
      <trkpt lat="42.84869" lon="2.27137">
        <ele>547.56</ele>
        <time>2024-09-20T08:25:38.999Z</time>
      </trkpt>
      <trkpt lat="42.84865" lon="2.27151">
        <ele>547.98</ele>
        <time>2024-09-20T08:25:44.999Z</time>
      </trkpt>
      <trkpt lat="42.84861" lon="2.27164">
        <ele>548.41</ele>
        <time>2024-09-20T08:25:50.999Z</time>
      </trkpt>
      <trkpt lat="42.84858" lon="2.27179">
        <ele>548.76</ele>
        <time>2024-09-20T08:25:55.999Z</time>
      </trkpt>
      <trkpt lat="42.84855" lon="2.27192">
        <ele>549.12</ele>
        <time>2024-09-20T08:26:00.999Z</time>
      </trkpt>
      <trkpt lat="42.84854" lon="2.27206">
        <ele>549.48</ele>
        <time>2024-09-20T08:26:05.999Z</time>
      </trkpt>
      <trkpt lat="42.84852" lon="2.27221">
        <ele>549.84</ele>
        <time>2024-09-20T08:26:10.999Z</time>
      </trkpt>
      <trkpt lat="42.84852" lon="2.27235">
        <ele>550.2</ele>
        <time>2024-09-20T08:26:15.999Z</time>
      </trkpt>
      <trkpt lat="42.84853" lon="2.2725">
        <ele>550.55</ele>
        <time>2024-09-20T08:26:20.999Z</time>
      </trkpt>
      <trkpt lat="42.84854" lon="2.27265">
        <ele>550.88</ele>
        <time>2024-09-20T08:26:25.999Z</time>
      </trkpt>
      <trkpt lat="42.84856" lon="2.27279">
        <ele>551.28</ele>
        <time>2024-09-20T08:26:31.999Z</time>
      </trkpt>
      <trkpt lat="42.84858" lon="2.27291">
        <ele>551.6</ele>
        <time>2024-09-20T08:26:36.999Z</time>
      </trkpt>
      <trkpt lat="42.84861" lon="2.27305">
        <ele>551.92</ele>
        <time>2024-09-20T08:26:41.999Z</time>
      </trkpt>
      <trkpt lat="42.84865" lon="2.27317">
        <ele>552.23</ele>
        <time>2024-09-20T08:26:46.999Z</time>
      </trkpt>
      <trkpt lat="42.84867" lon="2.2733">
        <ele>552.53</ele>
        <time>2024-09-20T08:26:51.999Z</time>
      </trkpt>
      <trkpt lat="42.84868" lon="2.27344">
        <ele>552.83</ele>
        <time>2024-09-20T08:26:56.999Z</time>
      </trkpt>
      <trkpt lat="42.84866" lon="2.27357">
        <ele>553.15</ele>
        <time>2024-09-20T08:27:01.999Z</time>
      </trkpt>
      <trkpt lat="42.84863" lon="2.2737">
        <ele>553.57</ele>
        <time>2024-09-20T08:27:07.999Z</time>
      </trkpt>
      <trkpt lat="42.8486" lon="2.27383">
        <ele>553.94</ele>
        <time>2024-09-20T08:27:12.999Z</time>
      </trkpt>
      <trkpt lat="42.84856" lon="2.27396">
        <ele>554.49</ele>
        <time>2024-09-20T08:27:19.999Z</time>
      </trkpt>
      <trkpt lat="42.84852" lon="2.27409">
        <ele>554.97</ele>
        <time>2024-09-20T08:27:25.999Z</time>
      </trkpt>
      <trkpt lat="42.84847" lon="2.27419">
        <ele>555.36</ele>
        <time>2024-09-20T08:27:30.999Z</time>
      </trkpt>
      <trkpt lat="42.84843" lon="2.27431">
        <ele>555.75</ele>
        <time>2024-09-20T08:27:35.999Z</time>
      </trkpt>
      <trkpt lat="42.84838" lon="2.27444">
        <ele>556.15</ele>
        <time>2024-09-20T08:27:40.999Z</time>
      </trkpt>
      <trkpt lat="42.84834" lon="2.27461">
        <ele>556.57</ele>
        <time>2024-09-20T08:27:45.999Z</time>
      </trkpt>
      <trkpt lat="42.84831" lon="2.27475">
        <ele>557.04</ele>
        <time>2024-09-20T08:27:50.999Z</time>
      </trkpt>
      <trkpt lat="42.84828" lon="2.27488">
        <ele>557.5</ele>
        <time>2024-09-20T08:27:55.999Z</time>
      </trkpt>
      <trkpt lat="42.84826" lon="2.27501">
        <ele>557.99</ele>
        <time>2024-09-20T08:28:00.999Z</time>
      </trkpt>
      <trkpt lat="42.84826" lon="2.27516">
        <ele>558.51</ele>
        <time>2024-09-20T08:28:05.999Z</time>
      </trkpt>
      <trkpt lat="42.84825" lon="2.2753">
        <ele>559.06</ele>
        <time>2024-09-20T08:28:10.999Z</time>
      </trkpt>
      <trkpt lat="42.84825" lon="2.27544">
        <ele>559.63</ele>
        <time>2024-09-20T08:28:15.999Z</time>
      </trkpt>
      <trkpt lat="42.84825" lon="2.27558">
        <ele>560.19</ele>
        <time>2024-09-20T08:28:20.999Z</time>
      </trkpt>
      <trkpt lat="42.84826" lon="2.27574">
        <ele>560.76</ele>
        <time>2024-09-20T08:28:25.999Z</time>
      </trkpt>
      <trkpt lat="42.84828" lon="2.27589">
        <ele>561.35</ele>
        <time>2024-09-20T08:28:30.999Z</time>
      </trkpt>
      <trkpt lat="42.84829" lon="2.27604">
        <ele>561.94</ele>
        <time>2024-09-20T08:28:35.999Z</time>
      </trkpt>
      <trkpt lat="42.84831" lon="2.27621">
        <ele>562.53</ele>
        <time>2024-09-20T08:28:40.999Z</time>
      </trkpt>
      <trkpt lat="42.84833" lon="2.27634">
        <ele>563.12</ele>
        <time>2024-09-20T08:28:45.999Z</time>
      </trkpt>
      <trkpt lat="42.84838" lon="2.27651">
        <ele>563.69</ele>
        <time>2024-09-20T08:28:50.999Z</time>
      </trkpt>
      <trkpt lat="42.84843" lon="2.27666">
        <ele>564.26</ele>
        <time>2024-09-20T08:28:55.999Z</time>
      </trkpt>
      <trkpt lat="42.84849" lon="2.2768">
        <ele>564.81</ele>
        <time>2024-09-20T08:29:00.999Z</time>
      </trkpt>
      <trkpt lat="42.84856" lon="2.27692">
        <ele>565.35</ele>
        <time>2024-09-20T08:29:05.999Z</time>
      </trkpt>
      <trkpt lat="42.8486" lon="2.27704">
        <ele>565.87</ele>
        <time>2024-09-20T08:29:10.999Z</time>
      </trkpt>
      <trkpt lat="42.84865" lon="2.27716">
        <ele>566.37</ele>
        <time>2024-09-20T08:29:15.999Z</time>
      </trkpt>
      <trkpt lat="42.84869" lon="2.27733">
        <ele>566.87</ele>
        <time>2024-09-20T08:29:20.999Z</time>
      </trkpt>
      <trkpt lat="42.84872" lon="2.27748">
        <ele>567.37</ele>
        <time>2024-09-20T08:29:25.999Z</time>
      </trkpt>
      <trkpt lat="42.84875" lon="2.27762">
        <ele>567.87</ele>
        <time>2024-09-20T08:29:30.999Z</time>
      </trkpt>
      <trkpt lat="42.84877" lon="2.27778">
        <ele>568.36</ele>
        <time>2024-09-20T08:29:35.999Z</time>
      </trkpt>
      <trkpt lat="42.8488" lon="2.27793">
        <ele>568.84</ele>
        <time>2024-09-20T08:29:40.999Z</time>
      </trkpt>
      <trkpt lat="42.84879" lon="2.27807">
        <ele>569.31</ele>
        <time>2024-09-20T08:29:45.999Z</time>
      </trkpt>
      <trkpt lat="42.84876" lon="2.27822">
        <ele>569.79</ele>
        <time>2024-09-20T08:29:50.999Z</time>
      </trkpt>
      <trkpt lat="42.84872" lon="2.27833">
        <ele>570.28</ele>
        <time>2024-09-20T08:29:55.999Z</time>
      </trkpt>
      <trkpt lat="42.84867" lon="2.27847">
        <ele>570.85</ele>
        <time>2024-09-20T08:30:01.999Z</time>
      </trkpt>
      <trkpt lat="42.84861" lon="2.27856">
        <ele>571.31</ele>
        <time>2024-09-20T08:30:06.999Z</time>
      </trkpt>
      <trkpt lat="42.84856" lon="2.27866">
        <ele>571.75</ele>
        <time>2024-09-20T08:30:11.999Z</time>
      </trkpt>
      <trkpt lat="42.8485" lon="2.27879">
        <ele>572.16</ele>
        <time>2024-09-20T08:30:16.999Z</time>
      </trkpt>
      <trkpt lat="42.84843" lon="2.2789">
        <ele>572.55</ele>
        <time>2024-09-20T08:30:21.999Z</time>
      </trkpt>
      <trkpt lat="42.84835" lon="2.279">
        <ele>572.91</ele>
        <time>2024-09-20T08:30:26.999Z</time>
      </trkpt>
      <trkpt lat="42.84829" lon="2.27911">
        <ele>573.26</ele>
        <time>2024-09-20T08:30:31.999Z</time>
      </trkpt>
      <trkpt lat="42.84822" lon="2.27923">
        <ele>573.59</ele>
        <time>2024-09-20T08:30:36.999Z</time>
      </trkpt>
      <trkpt lat="42.84816" lon="2.27937">
        <ele>573.9</ele>
        <time>2024-09-20T08:30:41.999Z</time>
      </trkpt>
      <trkpt lat="42.8481" lon="2.27954">
        <ele>574.19</ele>
        <time>2024-09-20T08:30:46.999Z</time>
      </trkpt>
      <trkpt lat="42.84805" lon="2.27967">
        <ele>574.47</ele>
        <time>2024-09-20T08:30:51.999Z</time>
      </trkpt>
      <trkpt lat="42.848" lon="2.27981">
        <ele>574.74</ele>
        <time>2024-09-20T08:30:56.999Z</time>
      </trkpt>
      <trkpt lat="42.84795" lon="2.27993">
        <ele>575</ele>
        <time>2024-09-20T08:31:01.999Z</time>
      </trkpt>
      <trkpt lat="42.84787" lon="2.28003">
        <ele>575.29</ele>
        <time>2024-09-20T08:31:07.999Z</time>
      </trkpt>
      <trkpt lat="42.8478" lon="2.28012">
        <ele>575.51</ele>
        <time>2024-09-20T08:31:12.999Z</time>
      </trkpt>
      <trkpt lat="42.84773" lon="2.2802">
        <ele>575.74</ele>
        <time>2024-09-20T08:31:17.999Z</time>
      </trkpt>
      <trkpt lat="42.84765" lon="2.28028">
        <ele>576.01</ele>
        <time>2024-09-20T08:31:22.999Z</time>
      </trkpt>
      <trkpt lat="42.84759" lon="2.28042">
        <ele>576.29</ele>
        <time>2024-09-20T08:31:27.999Z</time>
      </trkpt>
      <trkpt lat="42.84754" lon="2.28063">
        <ele>576.57</ele>
        <time>2024-09-20T08:31:32.999Z</time>
      </trkpt>
      <trkpt lat="42.84751" lon="2.2808">
        <ele>576.98</ele>
        <time>2024-09-20T08:31:37.999Z</time>
      </trkpt>
      <trkpt lat="42.84749" lon="2.28093">
        <ele>577.65</ele>
        <time>2024-09-20T08:31:42.999Z</time>
      </trkpt>
      <trkpt lat="42.84746" lon="2.28106">
        <ele>578.79</ele>
        <time>2024-09-20T08:31:48.999Z</time>
      </trkpt>
      <trkpt lat="42.84742" lon="2.28119">
        <ele>579.91</ele>
        <time>2024-09-20T08:31:53.999Z</time>
      </trkpt>
      <trkpt lat="42.84737" lon="2.2813">
        <ele>581.35</ele>
        <time>2024-09-20T08:31:59.999Z</time>
      </trkpt>
      <trkpt lat="42.84732" lon="2.28141">
        <ele>582.54</ele>
        <time>2024-09-20T08:32:04.999Z</time>
      </trkpt>
      <trkpt lat="42.84726" lon="2.28151">
        <ele>583.7</ele>
        <time>2024-09-20T08:32:09.999Z</time>
      </trkpt>
      <trkpt lat="42.84722" lon="2.28168">
        <ele>584.83</ele>
        <time>2024-09-20T08:32:14.999Z</time>
      </trkpt>
      <trkpt lat="42.84723" lon="2.28183">
        <ele>585.98</ele>
        <time>2024-09-20T08:32:19.999Z</time>
      </trkpt>
      <trkpt lat="42.84729" lon="2.28198">
        <ele>587.17</ele>
        <time>2024-09-20T08:32:24.999Z</time>
      </trkpt>
      <trkpt lat="42.84738" lon="2.28209">
        <ele>588.41</ele>
        <time>2024-09-20T08:32:29.999Z</time>
      </trkpt>
      <trkpt lat="42.84743" lon="2.2822">
        <ele>589.67</ele>
        <time>2024-09-20T08:32:34.999Z</time>
      </trkpt>
      <trkpt lat="42.84742" lon="2.28234">
        <ele>591.22</ele>
        <time>2024-09-20T08:32:40.999Z</time>
      </trkpt>
      <trkpt lat="42.84733" lon="2.2824">
        <ele>593.01</ele>
        <time>2024-09-20T08:32:47.999Z</time>
      </trkpt>
      <trkpt lat="42.84723" lon="2.2824">
        <ele>594.47</ele>
        <time>2024-09-20T08:32:53.999Z</time>
      </trkpt>
      <trkpt lat="42.84713" lon="2.2824">
        <ele>595.82</ele>
        <time>2024-09-20T08:32:59.999Z</time>
      </trkpt>
      <trkpt lat="42.84704" lon="2.2824">
        <ele>596.87</ele>
        <time>2024-09-20T08:33:04.999Z</time>
      </trkpt>
      <trkpt lat="42.84694" lon="2.28245">
        <ele>597.87</ele>
        <time>2024-09-20T08:33:09.999Z</time>
      </trkpt>
      <trkpt lat="42.84686" lon="2.28255">
        <ele>598.8</ele>
        <time>2024-09-20T08:33:14.999Z</time>
      </trkpt>
      <trkpt lat="42.84685" lon="2.28269">
        <ele>599.7</ele>
        <time>2024-09-20T08:33:19.999Z</time>
      </trkpt>
      <trkpt lat="42.84687" lon="2.28287">
        <ele>600.65</ele>
        <time>2024-09-20T08:33:24.999Z</time>
      </trkpt>
      <trkpt lat="42.84692" lon="2.283">
        <ele>601.63</ele>
        <time>2024-09-20T08:33:29.999Z</time>
      </trkpt>
      <trkpt lat="42.84698" lon="2.28312">
        <ele>602.59</ele>
        <time>2024-09-20T08:33:34.999Z</time>
      </trkpt>
      <trkpt lat="42.84704" lon="2.28324">
        <ele>603.52</ele>
        <time>2024-09-20T08:33:39.999Z</time>
      </trkpt>
      <trkpt lat="42.84708" lon="2.28336">
        <ele>604.41</ele>
        <time>2024-09-20T08:33:44.999Z</time>
      </trkpt>
      <trkpt lat="42.84712" lon="2.28348">
        <ele>605.25</ele>
        <time>2024-09-20T08:33:49.999Z</time>
      </trkpt>
      <trkpt lat="42.84715" lon="2.28363">
        <ele>606.04</ele>
        <time>2024-09-20T08:33:54.999Z</time>
      </trkpt>
      <trkpt lat="42.84717" lon="2.28384">
        <ele>606.77</ele>
        <time>2024-09-20T08:33:59.999Z</time>
      </trkpt>
      <trkpt lat="42.84716" lon="2.28402">
        <ele>607.46</ele>
        <time>2024-09-20T08:34:04.999Z</time>
      </trkpt>
      <trkpt lat="42.84714" lon="2.28416">
        <ele>608.12</ele>
        <time>2024-09-20T08:34:09.999Z</time>
      </trkpt>
      <trkpt lat="42.84714" lon="2.28432">
        <ele>608.76</ele>
        <time>2024-09-20T08:34:14.999Z</time>
      </trkpt>
      <trkpt lat="42.84712" lon="2.28446">
        <ele>609.36</ele>
        <time>2024-09-20T08:34:19.999Z</time>
      </trkpt>
      <trkpt lat="42.84711" lon="2.28459">
        <ele>609.94</ele>
        <time>2024-09-20T08:34:24.999Z</time>
      </trkpt>
      <trkpt lat="42.8471" lon="2.28474">
        <ele>610.6</ele>
        <time>2024-09-20T08:34:30.999Z</time>
      </trkpt>
      <trkpt lat="42.84707" lon="2.28489">
        <ele>611.13</ele>
        <time>2024-09-20T08:34:35.999Z</time>
      </trkpt>
      <trkpt lat="42.84704" lon="2.28505">
        <ele>611.65</ele>
        <time>2024-09-20T08:34:40.999Z</time>
      </trkpt>
      <trkpt lat="42.847" lon="2.28521">
        <ele>612.17</ele>
        <time>2024-09-20T08:34:45.999Z</time>
      </trkpt>
      <trkpt lat="42.84692" lon="2.28536">
        <ele>612.69</ele>
        <time>2024-09-20T08:34:50.999Z</time>
      </trkpt>
      <trkpt lat="42.84687" lon="2.28554">
        <ele>613.22</ele>
        <time>2024-09-20T08:34:55.999Z</time>
      </trkpt>
      <trkpt lat="42.84689" lon="2.28575">
        <ele>613.76</ele>
        <time>2024-09-20T08:35:00.999Z</time>
      </trkpt>
      <trkpt lat="42.84695" lon="2.28595">
        <ele>614.32</ele>
        <time>2024-09-20T08:35:05.999Z</time>
      </trkpt>
      <trkpt lat="42.84698" lon="2.28613">
        <ele>614.86</ele>
        <time>2024-09-20T08:35:10.999Z</time>
      </trkpt>
      <trkpt lat="42.847" lon="2.2863">
        <ele>615.39</ele>
        <time>2024-09-20T08:35:15.999Z</time>
      </trkpt>
      <trkpt lat="42.84701" lon="2.28648">
        <ele>615.89</ele>
        <time>2024-09-20T08:35:20.999Z</time>
      </trkpt>
      <trkpt lat="42.84701" lon="2.28664">
        <ele>616.37</ele>
        <time>2024-09-20T08:35:25.999Z</time>
      </trkpt>
      <trkpt lat="42.84701" lon="2.28677">
        <ele>616.85</ele>
        <time>2024-09-20T08:35:30.999Z</time>
      </trkpt>
      <trkpt lat="42.84698" lon="2.28694">
        <ele>617.3</ele>
        <time>2024-09-20T08:35:35.999Z</time>
      </trkpt>
      <trkpt lat="42.84697" lon="2.28713">
        <ele>617.76</ele>
        <time>2024-09-20T08:35:40.999Z</time>
      </trkpt>
      <trkpt lat="42.84698" lon="2.28731">
        <ele>618.23</ele>
        <time>2024-09-20T08:35:45.999Z</time>
      </trkpt>
      <trkpt lat="42.84702" lon="2.28746">
        <ele>618.68</ele>
        <time>2024-09-20T08:35:50.999Z</time>
      </trkpt>
      <trkpt lat="42.84707" lon="2.28765">
        <ele>619.12</ele>
        <time>2024-09-20T08:35:55.999Z</time>
      </trkpt>
      <trkpt lat="42.84713" lon="2.28781">
        <ele>619.55</ele>
        <time>2024-09-20T08:36:00.999Z</time>
      </trkpt>
      <trkpt lat="42.84715" lon="2.28802">
        <ele>619.97</ele>
        <time>2024-09-20T08:36:05.999Z</time>
      </trkpt>
      <trkpt lat="42.84717" lon="2.28821">
        <ele>620.37</ele>
        <time>2024-09-20T08:36:10.999Z</time>
      </trkpt>
      <trkpt lat="42.84718" lon="2.28841">
        <ele>620.75</ele>
        <time>2024-09-20T08:36:15.999Z</time>
      </trkpt>
      <trkpt lat="42.84718" lon="2.28859">
        <ele>621.13</ele>
        <time>2024-09-20T08:36:20.999Z</time>
      </trkpt>
      <trkpt lat="42.84713" lon="2.28878">
        <ele>621.51</ele>
        <time>2024-09-20T08:36:25.999Z</time>
      </trkpt>
      <trkpt lat="42.84708" lon="2.28892">
        <ele>621.88</ele>
        <time>2024-09-20T08:36:30.999Z</time>
      </trkpt>
      <trkpt lat="42.84702" lon="2.28904">
        <ele>622.23</ele>
        <time>2024-09-20T08:36:35.999Z</time>
      </trkpt>
      <trkpt lat="42.84695" lon="2.28918">
        <ele>622.56</ele>
        <time>2024-09-20T08:36:40.999Z</time>
      </trkpt>
      <trkpt lat="42.84686" lon="2.28937">
        <ele>622.87</ele>
        <time>2024-09-20T08:36:45.999Z</time>
      </trkpt>
      <trkpt lat="42.8468" lon="2.28961">
        <ele>623.17</ele>
        <time>2024-09-20T08:36:50.999Z</time>
      </trkpt>
      <trkpt lat="42.84677" lon="2.28979">
        <ele>623.49</ele>
        <time>2024-09-20T08:36:55.999Z</time>
      </trkpt>
      <trkpt lat="42.84675" lon="2.28997">
        <ele>623.81</ele>
        <time>2024-09-20T08:37:00.999Z</time>
      </trkpt>
      <trkpt lat="42.84672" lon="2.29014">
        <ele>624.12</ele>
        <time>2024-09-20T08:37:05.999Z</time>
      </trkpt>
      <trkpt lat="42.84668" lon="2.29028">
        <ele>624.42</ele>
        <time>2024-09-20T08:37:10.999Z</time>
      </trkpt>
      <trkpt lat="42.84661" lon="2.29046">
        <ele>624.7</ele>
        <time>2024-09-20T08:37:15.999Z</time>
      </trkpt>
      <trkpt lat="42.84654" lon="2.2906">
        <ele>624.96</ele>
        <time>2024-09-20T08:37:20.999Z</time>
      </trkpt>
      <trkpt lat="42.84647" lon="2.29073">
        <ele>625.2</ele>
        <time>2024-09-20T08:37:25.999Z</time>
      </trkpt>
      <trkpt lat="42.8464" lon="2.29087">
        <ele>625.43</ele>
        <time>2024-09-20T08:37:31.000Z</time>
      </trkpt>
      <trkpt lat="42.84633" lon="2.29108">
        <ele>625.66</ele>
        <time>2024-09-20T08:37:36.000Z</time>
      </trkpt>
      <trkpt lat="42.84625" lon="2.29118">
        <ele>625.92</ele>
        <time>2024-09-20T08:37:41.000Z</time>
      </trkpt>
      <trkpt lat="42.84623" lon="2.29138">
        <ele>626.3</ele>
        <time>2024-09-20T08:37:46.000Z</time>
      </trkpt>
      <trkpt lat="42.84624" lon="2.2916">
        <ele>626.8</ele>
        <time>2024-09-20T08:37:51.000Z</time>
      </trkpt>
      <trkpt lat="42.84626" lon="2.29179">
        <ele>627.32</ele>
        <time>2024-09-20T08:37:56.000Z</time>
      </trkpt>
      <trkpt lat="42.84628" lon="2.29197">
        <ele>627.83</ele>
        <time>2024-09-20T08:38:01.000Z</time>
      </trkpt>
      <trkpt lat="42.84629" lon="2.29218">
        <ele>628.31</ele>
        <time>2024-09-20T08:38:06.000Z</time>
      </trkpt>
      <trkpt lat="42.84628" lon="2.29242">
        <ele>628.79</ele>
        <time>2024-09-20T08:38:11.000Z</time>
      </trkpt>
      <trkpt lat="42.84626" lon="2.29263">
        <ele>629.31</ele>
        <time>2024-09-20T08:38:16.000Z</time>
      </trkpt>
      <trkpt lat="42.84627" lon="2.29283">
        <ele>629.83</ele>
        <time>2024-09-20T08:38:21.000Z</time>
      </trkpt>
      <trkpt lat="42.8463" lon="2.29304">
        <ele>630.32</ele>
        <time>2024-09-20T08:38:26.000Z</time>
      </trkpt>
      <trkpt lat="42.84633" lon="2.2932">
        <ele>630.78</ele>
        <time>2024-09-20T08:38:31.000Z</time>
      </trkpt>
      <trkpt lat="42.84638" lon="2.2934">
        <ele>631.2</ele>
        <time>2024-09-20T08:38:36.000Z</time>
      </trkpt>
      <trkpt lat="42.84643" lon="2.29362">
        <ele>631.59</ele>
        <time>2024-09-20T08:38:41.000Z</time>
      </trkpt>
      <trkpt lat="42.84646" lon="2.29384">
        <ele>631.96</ele>
        <time>2024-09-20T08:38:46.000Z</time>
      </trkpt>
      <trkpt lat="42.84645" lon="2.29406">
        <ele>632.3</ele>
        <time>2024-09-20T08:38:51.000Z</time>
      </trkpt>
      <trkpt lat="42.84642" lon="2.29426">
        <ele>632.66</ele>
        <time>2024-09-20T08:38:56.000Z</time>
      </trkpt>
      <trkpt lat="42.84639" lon="2.29447">
        <ele>633.02</ele>
        <time>2024-09-20T08:39:01.000Z</time>
      </trkpt>
      <trkpt lat="42.84639" lon="2.29469">
        <ele>633.4</ele>
        <time>2024-09-20T08:39:06.000Z</time>
      </trkpt>
      <trkpt lat="42.84645" lon="2.29492">
        <ele>633.78</ele>
        <time>2024-09-20T08:39:11.000Z</time>
      </trkpt>
      <trkpt lat="42.84652" lon="2.29516">
        <ele>634.16</ele>
        <time>2024-09-20T08:39:16.000Z</time>
      </trkpt>
      <trkpt lat="42.84656" lon="2.29543">
        <ele>635.15</ele>
        <time>2024-09-20T08:39:21.000Z</time>
      </trkpt>
      <trkpt lat="42.84649" lon="2.29568">
        <ele>635.43</ele>
        <time>2024-09-20T08:39:26.000Z</time>
      </trkpt>
      <trkpt lat="42.8464" lon="2.29584">
        <ele>635.7</ele>
        <time>2024-09-20T08:39:31.000Z</time>
      </trkpt>
      <trkpt lat="42.84632" lon="2.29605">
        <ele>635.95</ele>
        <time>2024-09-20T08:39:36.000Z</time>
      </trkpt>
      <trkpt lat="42.84636" lon="2.29632">
        <ele>636.21</ele>
        <time>2024-09-20T08:39:41.000Z</time>
      </trkpt>
      <trkpt lat="42.84642" lon="2.2965">
        <ele>636.48</ele>
        <time>2024-09-20T08:39:46.000Z</time>
      </trkpt>
      <trkpt lat="42.84648" lon="2.29668">
        <ele>636.75</ele>
        <time>2024-09-20T08:39:51.000Z</time>
      </trkpt>
      <trkpt lat="42.84652" lon="2.29692">
        <ele>637.02</ele>
        <time>2024-09-20T08:39:56.000Z</time>
      </trkpt>
      <trkpt lat="42.84654" lon="2.29714">
        <ele>637.29</ele>
        <time>2024-09-20T08:40:01.000Z</time>
      </trkpt>
      <trkpt lat="42.84655" lon="2.29737">
        <ele>637.54</ele>
        <time>2024-09-20T08:40:06.000Z</time>
      </trkpt>
      <trkpt lat="42.84657" lon="2.29759">
        <ele>637.79</ele>
        <time>2024-09-20T08:40:11.000Z</time>
      </trkpt>
      <trkpt lat="42.8466" lon="2.29782">
        <ele>638.04</ele>
        <time>2024-09-20T08:40:16.000Z</time>
      </trkpt>
      <trkpt lat="42.84664" lon="2.29803">
        <ele>638.3</ele>
        <time>2024-09-20T08:40:21.000Z</time>
      </trkpt>
      <trkpt lat="42.84666" lon="2.29824">
        <ele>638.55</ele>
        <time>2024-09-20T08:40:26.000Z</time>
      </trkpt>
      <trkpt lat="42.84669" lon="2.29846">
        <ele>638.8</ele>
        <time>2024-09-20T08:40:31.000Z</time>
      </trkpt>
      <trkpt lat="42.8467" lon="2.29869">
        <ele>639.04</ele>
        <time>2024-09-20T08:40:36.000Z</time>
      </trkpt>
      <trkpt lat="42.84673" lon="2.29891">
        <ele>639.29</ele>
        <time>2024-09-20T08:40:41.000Z</time>
      </trkpt>
      <trkpt lat="42.84673" lon="2.29917">
        <ele>639.54</ele>
        <time>2024-09-20T08:40:46.000Z</time>
      </trkpt>
      <trkpt lat="42.84675" lon="2.29938">
        <ele>639.79</ele>
        <time>2024-09-20T08:40:51.000Z</time>
      </trkpt>
      <trkpt lat="42.84675" lon="2.29962">
        <ele>640.04</ele>
        <time>2024-09-20T08:40:56.000Z</time>
      </trkpt>
      <trkpt lat="42.84674" lon="2.29987">
        <ele>640.27</ele>
        <time>2024-09-20T08:41:01.000Z</time>
      </trkpt>
      <trkpt lat="42.84672" lon="2.30014">
        <ele>640.49</ele>
        <time>2024-09-20T08:41:06.000Z</time>
      </trkpt>
      <trkpt lat="42.84677" lon="2.30041">
        <ele>641.75</ele>
        <time>2024-09-20T08:41:11.000Z</time>
      </trkpt>
      <trkpt lat="42.84687" lon="2.30064">
        <ele>641.92</ele>
        <time>2024-09-20T08:41:16.000Z</time>
      </trkpt>
      <trkpt lat="42.84699" lon="2.30085">
        <ele>642.66</ele>
        <time>2024-09-20T08:41:21.000Z</time>
      </trkpt>
      <trkpt lat="42.84704" lon="2.30112">
        <ele>643.05</ele>
        <time>2024-09-20T08:41:26.000Z</time>
      </trkpt>
      <trkpt lat="42.84705" lon="2.30139">
        <ele>643.27</ele>
        <time>2024-09-20T08:41:31.000Z</time>
      </trkpt>
      <trkpt lat="42.84707" lon="2.30168">
        <ele>643.59</ele>
        <time>2024-09-20T08:41:36.000Z</time>
      </trkpt>
      <trkpt lat="42.84715" lon="2.30197">
        <ele>643.89</ele>
        <time>2024-09-20T08:41:41.000Z</time>
      </trkpt>
      <trkpt lat="42.84723" lon="2.30228">
        <ele>644.2</ele>
        <time>2024-09-20T08:41:46.000Z</time>
      </trkpt>
      <trkpt lat="42.84725" lon="2.30263">
        <ele>644.39</ele>
        <time>2024-09-20T08:41:51.000Z</time>
      </trkpt>
      <trkpt lat="42.84723" lon="2.30299">
        <ele>644.53</ele>
        <time>2024-09-20T08:41:56.000Z</time>
      </trkpt>
      <trkpt lat="42.8472" lon="2.30334">
        <ele>644.66</ele>
        <time>2024-09-20T08:42:01.000Z</time>
      </trkpt>
      <trkpt lat="42.84711" lon="2.30368">
        <ele>644.79</ele>
        <time>2024-09-20T08:42:06.000Z</time>
      </trkpt>
      <trkpt lat="42.84711" lon="2.3041">
        <ele>644.89</ele>
        <time>2024-09-20T08:42:11.000Z</time>
      </trkpt>
      <trkpt lat="42.84722" lon="2.30452">
        <ele>645.08</ele>
        <time>2024-09-20T08:42:16.000Z</time>
      </trkpt>
      <trkpt lat="42.84729" lon="2.30495">
        <ele>645.28</ele>
        <time>2024-09-20T08:42:21.000Z</time>
      </trkpt>
      <trkpt lat="42.84728" lon="2.30539">
        <ele>645.53</ele>
        <time>2024-09-20T08:42:26.000Z</time>
      </trkpt>
      <trkpt lat="42.84719" lon="2.30574">
        <ele>645.63</ele>
        <time>2024-09-20T08:42:31.000Z</time>
      </trkpt>
      <trkpt lat="42.84711" lon="2.30601">
        <ele>645.7</ele>
        <time>2024-09-20T08:42:36.000Z</time>
      </trkpt>
      <trkpt lat="42.84703" lon="2.30628">
        <ele>645.96</ele>
        <time>2024-09-20T08:42:41.000Z</time>
      </trkpt>
      <trkpt lat="42.84697" lon="2.30654">
        <ele>646.59</ele>
        <time>2024-09-20T08:42:46.000Z</time>
      </trkpt>
      <trkpt lat="42.84691" lon="2.30677">
        <ele>646.73</ele>
        <time>2024-09-20T08:42:51.000Z</time>
      </trkpt>
      <trkpt lat="42.84682" lon="2.30699">
        <ele>647.02</ele>
        <time>2024-09-20T08:42:56.000Z</time>
      </trkpt>
      <trkpt lat="42.8467" lon="2.30719">
        <ele>647.27</ele>
        <time>2024-09-20T08:43:01.000Z</time>
      </trkpt>
      <trkpt lat="42.84658" lon="2.30734">
        <ele>647.46</ele>
        <time>2024-09-20T08:43:06.000Z</time>
      </trkpt>
      <trkpt lat="42.84647" lon="2.30753">
        <ele>647.62</ele>
        <time>2024-09-20T08:43:11.000Z</time>
      </trkpt>
      <trkpt lat="42.84638" lon="2.30772">
        <ele>647.81</ele>
        <time>2024-09-20T08:43:16.000Z</time>
      </trkpt>
      <trkpt lat="42.84636" lon="2.30794">
        <ele>648.02</ele>
        <time>2024-09-20T08:43:21.000Z</time>
      </trkpt>
      <trkpt lat="42.84636" lon="2.30817">
        <ele>648.31</ele>
        <time>2024-09-20T08:43:26.000Z</time>
      </trkpt>
      <trkpt lat="42.84636" lon="2.30837">
        <ele>648.61</ele>
        <time>2024-09-20T08:43:31.000Z</time>
      </trkpt>
      <trkpt lat="42.84636" lon="2.30857">
        <ele>648.91</ele>
        <time>2024-09-20T08:43:36.000Z</time>
      </trkpt>
      <trkpt lat="42.84634" lon="2.30876">
        <ele>649.23</ele>
        <time>2024-09-20T08:43:41.000Z</time>
      </trkpt>
      <trkpt lat="42.84628" lon="2.30894">
        <ele>649.57</ele>
        <time>2024-09-20T08:43:46.000Z</time>
      </trkpt>
      <trkpt lat="42.84619" lon="2.30912">
        <ele>649.88</ele>
        <time>2024-09-20T08:43:51.000Z</time>
      </trkpt>
      <trkpt lat="42.8461" lon="2.30925">
        <ele>650.19</ele>
        <time>2024-09-20T08:43:56.000Z</time>
      </trkpt>
      <trkpt lat="42.84601" lon="2.30936">
        <ele>650.48</ele>
        <time>2024-09-20T08:44:01.000Z</time>
      </trkpt>
      <trkpt lat="42.84596" lon="2.30951">
        <ele>650.76</ele>
        <time>2024-09-20T08:44:06.000Z</time>
      </trkpt>
      <trkpt lat="42.84594" lon="2.30963">
        <ele>651.42</ele>
        <time>2024-09-20T08:44:56.000Z</time>
      </trkpt>
      <trkpt lat="42.84591" lon="2.30975">
        <ele>652.95</ele>
        <time>2024-09-20T08:45:48.000Z</time>
      </trkpt>
      <trkpt lat="42.84587" lon="2.31005">
        <ele>655.95</ele>
        <time>2024-09-20T08:45:53.000Z</time>
      </trkpt>
      <trkpt lat="42.84601" lon="2.31039">
        <ele>658.1</ele>
        <time>2024-09-20T08:45:58.000Z</time>
      </trkpt>
      <trkpt lat="42.84622" lon="2.31075">
        <ele>658.69</ele>
        <time>2024-09-20T08:46:03.000Z</time>
      </trkpt>
      <trkpt lat="42.84623" lon="2.31123">
        <ele>658.31</ele>
        <time>2024-09-20T08:46:08.000Z</time>
      </trkpt>
      <trkpt lat="42.84619" lon="2.31174">
        <ele>657.25</ele>
        <time>2024-09-20T08:46:13.000Z</time>
      </trkpt>
      <trkpt lat="42.84615" lon="2.31226">
        <ele>655.71</ele>
        <time>2024-09-20T08:46:18.000Z</time>
      </trkpt>
      <trkpt lat="42.84612" lon="2.31277">
        <ele>654.18</ele>
        <time>2024-09-20T08:46:23.000Z</time>
      </trkpt>
      <trkpt lat="42.84608" lon="2.31326">
        <ele>652.56</ele>
        <time>2024-09-20T08:46:28.000Z</time>
      </trkpt>
      <trkpt lat="42.846" lon="2.31376">
        <ele>651.08</ele>
        <time>2024-09-20T08:46:33.000Z</time>
      </trkpt>
      <trkpt lat="42.84607" lon="2.31428">
        <ele>649.41</ele>
        <time>2024-09-20T08:46:38.000Z</time>
      </trkpt>
      <trkpt lat="42.84606" lon="2.31479">
        <ele>647.43</ele>
        <time>2024-09-20T08:46:43.000Z</time>
      </trkpt>
      <trkpt lat="42.8461" lon="2.3153">
        <ele>645.25</ele>
        <time>2024-09-20T08:46:48.000Z</time>
      </trkpt>
      <trkpt lat="42.84622" lon="2.3158">
        <ele>643.03</ele>
        <time>2024-09-20T08:46:53.000Z</time>
      </trkpt>
      <trkpt lat="42.84634" lon="2.31632">
        <ele>640.81</ele>
        <time>2024-09-20T08:46:58.000Z</time>
      </trkpt>
      <trkpt lat="42.84648" lon="2.31683">
        <ele>638.99</ele>
        <time>2024-09-20T08:47:03.000Z</time>
      </trkpt>
      <trkpt lat="42.84664" lon="2.31731">
        <ele>637.02</ele>
        <time>2024-09-20T08:47:08.000Z</time>
      </trkpt>
      <trkpt lat="42.84681" lon="2.31783">
        <ele>635.14</ele>
        <time>2024-09-20T08:47:13.000Z</time>
      </trkpt>
      <trkpt lat="42.84704" lon="2.31828">
        <ele>633.49</ele>
        <time>2024-09-20T08:47:18.000Z</time>
      </trkpt>
      <trkpt lat="42.84727" lon="2.31862">
        <ele>632.05</ele>
        <time>2024-09-20T08:47:23.000Z</time>
      </trkpt>
      <trkpt lat="42.84747" lon="2.3189">
        <ele>631.36</ele>
        <time>2024-09-20T08:47:28.000Z</time>
      </trkpt>
      <trkpt lat="42.84756" lon="2.31902">
        <ele>631.18</ele>
        <time>2024-09-20T08:47:33.000Z</time>
      </trkpt>
      <trkpt lat="42.84762" lon="2.31911">
        <ele>630.99</ele>
        <time>2024-09-20T08:47:38.000Z</time>
      </trkpt>
      <trkpt lat="42.8477" lon="2.31922">
        <ele>630.82</ele>
        <time>2024-09-20T08:47:43.000Z</time>
      </trkpt>
      <trkpt lat="42.84781" lon="2.31929">
        <ele>630.67</ele>
        <time>2024-09-20T08:47:48.000Z</time>
      </trkpt>
      <trkpt lat="42.8479" lon="2.31937">
        <ele>630.46</ele>
        <time>2024-09-20T08:47:53.000Z</time>
      </trkpt>
      <trkpt lat="42.84793" lon="2.31954">
        <ele>630.15</ele>
        <time>2024-09-20T08:47:58.000Z</time>
      </trkpt>
      <trkpt lat="42.84793" lon="2.31968">
        <ele>629.81</ele>
        <time>2024-09-20T08:48:03.000Z</time>
      </trkpt>
      <trkpt lat="42.84791" lon="2.31984">
        <ele>629.48</ele>
        <time>2024-09-20T08:48:08.000Z</time>
      </trkpt>
      <trkpt lat="42.84787" lon="2.31995">
        <ele>629.04</ele>
        <time>2024-09-20T08:48:14.000Z</time>
      </trkpt>
      <trkpt lat="42.84783" lon="2.32007">
        <ele>628.4</ele>
        <time>2024-09-20T08:48:25.000Z</time>
      </trkpt>
      <trkpt lat="42.84789" lon="2.31998">
        <ele>618.02</ele>
        <time>2024-09-20T09:03:23.000Z</time>
      </trkpt>
      <trkpt lat="42.84791" lon="2.31986">
        <ele>617.85</ele>
        <time>2024-09-20T09:03:35.000Z</time>
      </trkpt>
      <trkpt lat="42.84794" lon="2.31973">
        <ele>617.8</ele>
        <time>2024-09-20T09:04:21.000Z</time>
      </trkpt>
      <trkpt lat="42.84796" lon="2.31953">
        <ele>617.84</ele>
        <time>2024-09-20T09:04:26.000Z</time>
      </trkpt>
      <trkpt lat="42.84785" lon="2.31927">
        <ele>618.11</ele>
        <time>2024-09-20T09:04:31.000Z</time>
      </trkpt>
      <trkpt lat="42.84759" lon="2.31901">
        <ele>618.21</ele>
        <time>2024-09-20T09:04:36.000Z</time>
      </trkpt>
      <trkpt lat="42.84731" lon="2.31865">
        <ele>618.18</ele>
        <time>2024-09-20T09:04:41.000Z</time>
      </trkpt>
      <trkpt lat="42.84704" lon="2.31827">
        <ele>618.12</ele>
        <time>2024-09-20T09:04:46.000Z</time>
      </trkpt>
      <trkpt lat="42.84682" lon="2.31794">
        <ele>618.14</ele>
        <time>2024-09-20T09:04:51.000Z</time>
      </trkpt>
      <trkpt lat="42.84674" lon="2.31768">
        <ele>618.24</ele>
        <time>2024-09-20T09:04:56.000Z</time>
      </trkpt>
      <trkpt lat="42.84668" lon="2.31746">
        <ele>618.3</ele>
        <time>2024-09-20T09:05:01.000Z</time>
      </trkpt>
      <trkpt lat="42.84662" lon="2.31724">
        <ele>618.33</ele>
        <time>2024-09-20T09:05:06.000Z</time>
      </trkpt>
      <trkpt lat="42.84656" lon="2.31706">
        <ele>618.4</ele>
        <time>2024-09-20T09:05:11.000Z</time>
      </trkpt>
      <trkpt lat="42.84652" lon="2.31688">
        <ele>618.5</ele>
        <time>2024-09-20T09:05:16.000Z</time>
      </trkpt>
      <trkpt lat="42.84646" lon="2.31671">
        <ele>618.66</ele>
        <time>2024-09-20T09:05:21.000Z</time>
      </trkpt>
      <trkpt lat="42.84642" lon="2.31658">
        <ele>618.92</ele>
        <time>2024-09-20T09:05:26.000Z</time>
      </trkpt>
      <trkpt lat="42.84638" lon="2.31643">
        <ele>619.21</ele>
        <time>2024-09-20T09:05:31.000Z</time>
      </trkpt>
      <trkpt lat="42.84634" lon="2.31628">
        <ele>619.52</ele>
        <time>2024-09-20T09:05:36.000Z</time>
      </trkpt>
      <trkpt lat="42.84631" lon="2.31612">
        <ele>619.83</ele>
        <time>2024-09-20T09:05:41.000Z</time>
      </trkpt>
      <trkpt lat="42.84627" lon="2.31597">
        <ele>620.17</ele>
        <time>2024-09-20T09:05:46.000Z</time>
      </trkpt>
      <trkpt lat="42.84623" lon="2.31581">
        <ele>620.5</ele>
        <time>2024-09-20T09:05:51.000Z</time>
      </trkpt>
      <trkpt lat="42.8462" lon="2.31566">
        <ele>620.83</ele>
        <time>2024-09-20T09:05:56.000Z</time>
      </trkpt>
      <trkpt lat="42.84616" lon="2.3155">
        <ele>621.19</ele>
        <time>2024-09-20T09:06:01.000Z</time>
      </trkpt>
      <trkpt lat="42.84613" lon="2.31534">
        <ele>621.56</ele>
        <time>2024-09-20T09:06:06.000Z</time>
      </trkpt>
      <trkpt lat="42.84609" lon="2.31519">
        <ele>621.93</ele>
        <time>2024-09-20T09:06:11.000Z</time>
      </trkpt>
      <trkpt lat="42.84606" lon="2.31503">
        <ele>622.32</ele>
        <time>2024-09-20T09:06:16.000Z</time>
      </trkpt>
      <trkpt lat="42.84606" lon="2.31489">
        <ele>622.71</ele>
        <time>2024-09-20T09:06:21.000Z</time>
      </trkpt>
      <trkpt lat="42.84608" lon="2.31471">
        <ele>623.08</ele>
        <time>2024-09-20T09:06:26.000Z</time>
      </trkpt>
      <trkpt lat="42.8461" lon="2.31453">
        <ele>623.43</ele>
        <time>2024-09-20T09:06:31.000Z</time>
      </trkpt>
      <trkpt lat="42.8461" lon="2.31435">
        <ele>623.77</ele>
        <time>2024-09-20T09:06:36.000Z</time>
      </trkpt>
      <trkpt lat="42.84608" lon="2.31418">
        <ele>624.14</ele>
        <time>2024-09-20T09:06:41.000Z</time>
      </trkpt>
      <trkpt lat="42.84606" lon="2.31401">
        <ele>624.56</ele>
        <time>2024-09-20T09:06:46.000Z</time>
      </trkpt>
      <trkpt lat="42.84602" lon="2.31385">
        <ele>624.99</ele>
        <time>2024-09-20T09:06:51.000Z</time>
      </trkpt>
      <trkpt lat="42.84601" lon="2.31367">
        <ele>625.46</ele>
        <time>2024-09-20T09:06:56.000Z</time>
      </trkpt>
      <trkpt lat="42.84602" lon="2.31353">
        <ele>625.95</ele>
        <time>2024-09-20T09:07:01.000Z</time>
      </trkpt>
      <trkpt lat="42.84605" lon="2.31336">
        <ele>626.44</ele>
        <time>2024-09-20T09:07:06.000Z</time>
      </trkpt>
      <trkpt lat="42.84608" lon="2.3132">
        <ele>626.94</ele>
        <time>2024-09-20T09:07:11.000Z</time>
      </trkpt>
      <trkpt lat="42.84609" lon="2.31303">
        <ele>627.43</ele>
        <time>2024-09-20T09:07:16.000Z</time>
      </trkpt>
      <trkpt lat="42.8461" lon="2.31286">
        <ele>627.92</ele>
        <time>2024-09-20T09:07:21.000Z</time>
      </trkpt>
      <trkpt lat="42.84611" lon="2.31269">
        <ele>628.41</ele>
        <time>2024-09-20T09:07:26.000Z</time>
      </trkpt>
      <trkpt lat="42.84612" lon="2.31252">
        <ele>628.87</ele>
        <time>2024-09-20T09:07:31.000Z</time>
      </trkpt>
      <trkpt lat="42.84614" lon="2.31235">
        <ele>629.33</ele>
        <time>2024-09-20T09:07:36.000Z</time>
      </trkpt>
      <trkpt lat="42.84618" lon="2.31214">
        <ele>629.8</ele>
        <time>2024-09-20T09:07:41.000Z</time>
      </trkpt>
      <trkpt lat="42.84619" lon="2.31199">
        <ele>630.3</ele>
        <time>2024-09-20T09:07:46.000Z</time>
      </trkpt>
      <trkpt lat="42.8462" lon="2.31183">
        <ele>630.76</ele>
        <time>2024-09-20T09:07:51.000Z</time>
      </trkpt>
      <trkpt lat="42.8462" lon="2.31167">
        <ele>631.2</ele>
        <time>2024-09-20T09:07:56.000Z</time>
      </trkpt>
      <trkpt lat="42.84621" lon="2.3115">
        <ele>631.64</ele>
        <time>2024-09-20T09:08:01.000Z</time>
      </trkpt>
      <trkpt lat="42.84621" lon="2.31133">
        <ele>632.07</ele>
        <time>2024-09-20T09:08:06.000Z</time>
      </trkpt>
      <trkpt lat="42.84623" lon="2.31115">
        <ele>632.5</ele>
        <time>2024-09-20T09:08:11.000Z</time>
      </trkpt>
      <trkpt lat="42.84625" lon="2.31097">
        <ele>632.93</ele>
        <time>2024-09-20T09:08:16.000Z</time>
      </trkpt>
      <trkpt lat="42.84623" lon="2.3108">
        <ele>633.37</ele>
        <time>2024-09-20T09:08:21.000Z</time>
      </trkpt>
      <trkpt lat="42.84618" lon="2.31064">
        <ele>633.83</ele>
        <time>2024-09-20T09:08:26.000Z</time>
      </trkpt>
      <trkpt lat="42.84609" lon="2.31051">
        <ele>634.3</ele>
        <time>2024-09-20T09:08:31.000Z</time>
      </trkpt>
      <trkpt lat="42.84601" lon="2.31037">
        <ele>634.83</ele>
        <time>2024-09-20T09:08:36.000Z</time>
      </trkpt>
      <trkpt lat="42.84592" lon="2.31024">
        <ele>635.43</ele>
        <time>2024-09-20T09:08:41.000Z</time>
      </trkpt>
      <trkpt lat="42.84588" lon="2.31012">
        <ele>636.16</ele>
        <time>2024-09-20T09:08:47.000Z</time>
      </trkpt>
      <trkpt lat="42.84588" lon="2.30998">
        <ele>636.96</ele>
        <time>2024-09-20T09:08:54.000Z</time>
      </trkpt>
      <trkpt lat="42.8459" lon="2.30985">
        <ele>637.58</ele>
        <time>2024-09-20T09:09:00.000Z</time>
      </trkpt>
      <trkpt lat="42.84593" lon="2.30974">
        <ele>638.04</ele>
        <time>2024-09-20T09:09:05.000Z</time>
      </trkpt>
      <trkpt lat="42.84596" lon="2.30961">
        <ele>638.47</ele>
        <time>2024-09-20T09:09:10.000Z</time>
      </trkpt>
      <trkpt lat="42.8459" lon="2.30951">
        <ele>639.11</ele>
        <time>2024-09-20T09:09:17.000Z</time>
      </trkpt>
      <trkpt lat="42.84583" lon="2.30962">
        <ele>639.7</ele>
        <time>2024-09-20T09:09:23.000Z</time>
      </trkpt>
      <trkpt lat="42.84579" lon="2.30976">
        <ele>640.44</ele>
        <time>2024-09-20T09:09:30.000Z</time>
      </trkpt>
      <trkpt lat="42.84576" lon="2.30988">
        <ele>641.13</ele>
        <time>2024-09-20T09:09:36.000Z</time>
      </trkpt>
      <trkpt lat="42.84571" lon="2.31002">
        <ele>641.75</ele>
        <time>2024-09-20T09:09:41.000Z</time>
      </trkpt>
      <trkpt lat="42.84567" lon="2.31015">
        <ele>642.55</ele>
        <time>2024-09-20T09:09:47.000Z</time>
      </trkpt>
      <trkpt lat="42.84566" lon="2.31032">
        <ele>643.26</ele>
        <time>2024-09-20T09:09:52.000Z</time>
      </trkpt>
      <trkpt lat="42.84564" lon="2.31055">
        <ele>643.94</ele>
        <time>2024-09-20T09:09:57.000Z</time>
      </trkpt>
      <trkpt lat="42.84559" lon="2.31076">
        <ele>644.58</ele>
        <time>2024-09-20T09:10:02.000Z</time>
      </trkpt>
      <trkpt lat="42.84554" lon="2.31094">
        <ele>645.17</ele>
        <time>2024-09-20T09:10:07.000Z</time>
      </trkpt>
      <trkpt lat="42.84547" lon="2.31107">
        <ele>645.72</ele>
        <time>2024-09-20T09:10:12.000Z</time>
      </trkpt>
      <trkpt lat="42.84539" lon="2.31122">
        <ele>646.25</ele>
        <time>2024-09-20T09:10:17.000Z</time>
      </trkpt>
      <trkpt lat="42.84531" lon="2.31136">
        <ele>646.74</ele>
        <time>2024-09-20T09:10:22.000Z</time>
      </trkpt>
      <trkpt lat="42.84525" lon="2.31149">
        <ele>647.21</ele>
        <time>2024-09-20T09:10:27.000Z</time>
      </trkpt>
      <trkpt lat="42.84522" lon="2.31162">
        <ele>647.66</ele>
        <time>2024-09-20T09:10:32.000Z</time>
      </trkpt>
      <trkpt lat="42.84515" lon="2.31178">
        <ele>648.09</ele>
        <time>2024-09-20T09:10:37.000Z</time>
      </trkpt>
      <trkpt lat="42.84509" lon="2.31195">
        <ele>648.51</ele>
        <time>2024-09-20T09:10:42.000Z</time>
      </trkpt>
      <trkpt lat="42.84502" lon="2.31216">
        <ele>648.91</ele>
        <time>2024-09-20T09:10:47.000Z</time>
      </trkpt>
      <trkpt lat="42.84496" lon="2.31236">
        <ele>649.29</ele>
        <time>2024-09-20T09:10:52.000Z</time>
      </trkpt>
      <trkpt lat="42.84491" lon="2.31254">
        <ele>649.64</ele>
        <time>2024-09-20T09:10:57.000Z</time>
      </trkpt>
      <trkpt lat="42.84485" lon="2.31272">
        <ele>649.97</ele>
        <time>2024-09-20T09:11:02.000Z</time>
      </trkpt>
      <trkpt lat="42.8448" lon="2.31291">
        <ele>650.28</ele>
        <time>2024-09-20T09:11:07.000Z</time>
      </trkpt>
      <trkpt lat="42.84473" lon="2.31311">
        <ele>650.58</ele>
        <time>2024-09-20T09:11:12.000Z</time>
      </trkpt>
      <trkpt lat="42.84468" lon="2.3133">
        <ele>650.87</ele>
        <time>2024-09-20T09:11:17.000Z</time>
      </trkpt>
      <trkpt lat="42.84461" lon="2.3135">
        <ele>651.15</ele>
        <time>2024-09-20T09:11:22.000Z</time>
      </trkpt>
      <trkpt lat="42.84455" lon="2.31367">
        <ele>651.41</ele>
        <time>2024-09-20T09:11:27.000Z</time>
      </trkpt>
      <trkpt lat="42.84451" lon="2.31383">
        <ele>651.66</ele>
        <time>2024-09-20T09:11:32.000Z</time>
      </trkpt>
      <trkpt lat="42.84446" lon="2.31402">
        <ele>651.9</ele>
        <time>2024-09-20T09:11:37.000Z</time>
      </trkpt>
      <trkpt lat="42.84441" lon="2.31424">
        <ele>652.13</ele>
        <time>2024-09-20T09:11:42.000Z</time>
      </trkpt>
      <trkpt lat="42.84436" lon="2.31443">
        <ele>652.37</ele>
        <time>2024-09-20T09:11:47.000Z</time>
      </trkpt>
      <trkpt lat="42.84431" lon="2.31462">
        <ele>652.6</ele>
        <time>2024-09-20T09:11:52.000Z</time>
      </trkpt>
      <trkpt lat="42.84425" lon="2.3148">
        <ele>652.82</ele>
        <time>2024-09-20T09:11:57.000Z</time>
      </trkpt>
      <trkpt lat="42.84419" lon="2.31499">
        <ele>653.04</ele>
        <time>2024-09-20T09:12:02.000Z</time>
      </trkpt>
      <trkpt lat="42.84413" lon="2.31517">
        <ele>653.25</ele>
        <time>2024-09-20T09:12:07.000Z</time>
      </trkpt>
      <trkpt lat="42.84408" lon="2.31536">
        <ele>653.46</ele>
        <time>2024-09-20T09:12:12.000Z</time>
      </trkpt>
      <trkpt lat="42.84402" lon="2.31555">
        <ele>653.67</ele>
        <time>2024-09-20T09:12:17.000Z</time>
      </trkpt>
      <trkpt lat="42.84396" lon="2.31573">
        <ele>653.87</ele>
        <time>2024-09-20T09:12:22.000Z</time>
      </trkpt>
      <trkpt lat="42.8439" lon="2.31591">
        <ele>654.09</ele>
        <time>2024-09-20T09:12:27.000Z</time>
      </trkpt>
      <trkpt lat="42.84382" lon="2.31611">
        <ele>654.3</ele>
        <time>2024-09-20T09:12:32.000Z</time>
      </trkpt>
      <trkpt lat="42.84375" lon="2.31631">
        <ele>654.51</ele>
        <time>2024-09-20T09:12:37.000Z</time>
      </trkpt>
      <trkpt lat="42.84369" lon="2.31649">
        <ele>654.71</ele>
        <time>2024-09-20T09:12:42.000Z</time>
      </trkpt>
      <trkpt lat="42.84362" lon="2.31667">
        <ele>654.92</ele>
        <time>2024-09-20T09:12:47.000Z</time>
      </trkpt>
      <trkpt lat="42.84357" lon="2.31683">
        <ele>655.13</ele>
        <time>2024-09-20T09:12:52.000Z</time>
      </trkpt>
      <trkpt lat="42.8435" lon="2.317">
        <ele>655.36</ele>
        <time>2024-09-20T09:12:57.000Z</time>
      </trkpt>
      <trkpt lat="42.84341" lon="2.31717">
        <ele>655.58</ele>
        <time>2024-09-20T09:13:02.000Z</time>
      </trkpt>
      <trkpt lat="42.84334" lon="2.31732">
        <ele>655.81</ele>
        <time>2024-09-20T09:13:07.000Z</time>
      </trkpt>
      <trkpt lat="42.84324" lon="2.3175">
        <ele>656.05</ele>
        <time>2024-09-20T09:13:12.000Z</time>
      </trkpt>
      <trkpt lat="42.84316" lon="2.31764">
        <ele>656.27</ele>
        <time>2024-09-20T09:13:17.000Z</time>
      </trkpt>
      <trkpt lat="42.84308" lon="2.31777">
        <ele>656.5</ele>
        <time>2024-09-20T09:13:22.000Z</time>
      </trkpt>
      <trkpt lat="42.843" lon="2.31786">
        <ele>656.7</ele>
        <time>2024-09-20T09:13:27.000Z</time>
      </trkpt>
      <trkpt lat="42.84296" lon="2.31797">
        <ele>656.91</ele>
        <time>2024-09-20T09:13:32.000Z</time>
      </trkpt>
      <trkpt lat="42.84288" lon="2.31813">
        <ele>657.11</ele>
        <time>2024-09-20T09:13:37.000Z</time>
      </trkpt>
      <trkpt lat="42.84283" lon="2.31828">
        <ele>657.32</ele>
        <time>2024-09-20T09:13:42.000Z</time>
      </trkpt>
      <trkpt lat="42.84276" lon="2.31848">
        <ele>657.54</ele>
        <time>2024-09-20T09:13:47.000Z</time>
      </trkpt>
      <trkpt lat="42.84271" lon="2.31869">
        <ele>657.76</ele>
        <time>2024-09-20T09:13:52.000Z</time>
      </trkpt>
      <trkpt lat="42.84266" lon="2.31886">
        <ele>657.98</ele>
        <time>2024-09-20T09:13:57.000Z</time>
      </trkpt>
      <trkpt lat="42.84261" lon="2.31909">
        <ele>658.22</ele>
        <time>2024-09-20T09:14:02.000Z</time>
      </trkpt>
      <trkpt lat="42.84254" lon="2.31935">
        <ele>658.45</ele>
        <time>2024-09-20T09:14:07.000Z</time>
      </trkpt>
      <trkpt lat="42.84245" lon="2.31968">
        <ele>658.71</ele>
        <time>2024-09-20T09:14:12.999Z</time>
      </trkpt>
      <trkpt lat="42.84238" lon="2.31994">
        <ele>659.56</ele>
        <time>2024-09-20T09:14:17.999Z</time>
      </trkpt>
      <trkpt lat="42.84231" lon="2.32018">
        <ele>659.69</ele>
        <time>2024-09-20T09:14:22.999Z</time>
      </trkpt>
      <trkpt lat="42.84226" lon="2.32037">
        <ele>659.83</ele>
        <time>2024-09-20T09:14:27.999Z</time>
      </trkpt>
      <trkpt lat="42.84223" lon="2.32049">
        <ele>659.98</ele>
        <time>2024-09-20T09:14:32.999Z</time>
      </trkpt>
      <trkpt lat="42.84215" lon="2.32059">
        <ele>660.16</ele>
        <time>2024-09-20T09:14:37.999Z</time>
      </trkpt>
      <trkpt lat="42.84202" lon="2.32063">
        <ele>660.36</ele>
        <time>2024-09-20T09:14:42.999Z</time>
      </trkpt>
      <trkpt lat="42.84189" lon="2.32064">
        <ele>660.59</ele>
        <time>2024-09-20T09:14:47.999Z</time>
      </trkpt>
      <trkpt lat="42.84178" lon="2.32063">
        <ele>660.84</ele>
        <time>2024-09-20T09:14:52.999Z</time>
      </trkpt>
      <trkpt lat="42.84167" lon="2.32066">
        <ele>661.11</ele>
        <time>2024-09-20T09:14:57.999Z</time>
      </trkpt>
      <trkpt lat="42.84157" lon="2.32074">
        <ele>661.41</ele>
        <time>2024-09-20T09:15:02.999Z</time>
      </trkpt>
      <trkpt lat="42.84148" lon="2.32084">
        <ele>661.73</ele>
        <time>2024-09-20T09:15:07.999Z</time>
      </trkpt>
      <trkpt lat="42.84141" lon="2.32094">
        <ele>662.07</ele>
        <time>2024-09-20T09:15:12.999Z</time>
      </trkpt>
      <trkpt lat="42.84134" lon="2.32106">
        <ele>662.42</ele>
        <time>2024-09-20T09:15:17.999Z</time>
      </trkpt>
      <trkpt lat="42.84126" lon="2.32117">
        <ele>662.77</ele>
        <time>2024-09-20T09:15:22.999Z</time>
      </trkpt>
      <trkpt lat="42.84116" lon="2.32126">
        <ele>663.12</ele>
        <time>2024-09-20T09:15:27.999Z</time>
      </trkpt>
      <trkpt lat="42.84107" lon="2.32134">
        <ele>663.49</ele>
        <time>2024-09-20T09:15:32.999Z</time>
      </trkpt>
      <trkpt lat="42.84098" lon="2.32141">
        <ele>663.88</ele>
        <time>2024-09-20T09:15:37.999Z</time>
      </trkpt>
      <trkpt lat="42.84089" lon="2.32149">
        <ele>664.28</ele>
        <time>2024-09-20T09:15:42.999Z</time>
      </trkpt>
      <trkpt lat="42.8408" lon="2.3216">
        <ele>664.68</ele>
        <time>2024-09-20T09:15:47.999Z</time>
      </trkpt>
      <trkpt lat="42.8407" lon="2.32173">
        <ele>665.07</ele>
        <time>2024-09-20T09:15:52.999Z</time>
      </trkpt>
      <trkpt lat="42.84061" lon="2.32186">
        <ele>665.45</ele>
        <time>2024-09-20T09:15:57.999Z</time>
      </trkpt>
      <trkpt lat="42.84053" lon="2.32199">
        <ele>665.8</ele>
        <time>2024-09-20T09:16:02.999Z</time>
      </trkpt>
      <trkpt lat="42.84047" lon="2.3221">
        <ele>666.12</ele>
        <time>2024-09-20T09:16:07.999Z</time>
      </trkpt>
      <trkpt lat="42.84042" lon="2.32222">
        <ele>666.45</ele>
        <time>2024-09-20T09:16:12.999Z</time>
      </trkpt>
      <trkpt lat="42.84035" lon="2.32232">
        <ele>666.98</ele>
        <time>2024-09-20T09:16:19.999Z</time>
      </trkpt>
      <trkpt lat="42.84029" lon="2.32241">
        <ele>667.4</ele>
        <time>2024-09-20T09:16:24.999Z</time>
      </trkpt>
      <trkpt lat="42.84024" lon="2.32254">
        <ele>667.93</ele>
        <time>2024-09-20T09:16:30.999Z</time>
      </trkpt>
      <trkpt lat="42.84017" lon="2.32267">
        <ele>668.4</ele>
        <time>2024-09-20T09:16:35.999Z</time>
      </trkpt>
      <trkpt lat="42.8401" lon="2.3228">
        <ele>668.9</ele>
        <time>2024-09-20T09:16:40.999Z</time>
      </trkpt>
      <trkpt lat="42.84004" lon="2.32292">
        <ele>669.43</ele>
        <time>2024-09-20T09:16:45.999Z</time>
      </trkpt>
      <trkpt lat="42.83997" lon="2.32302">
        <ele>670.02</ele>
        <time>2024-09-20T09:16:50.999Z</time>
      </trkpt>
      <trkpt lat="42.83989" lon="2.32311">
        <ele>670.63</ele>
        <time>2024-09-20T09:16:55.999Z</time>
      </trkpt>
      <trkpt lat="42.8398" lon="2.32318">
        <ele>671.25</ele>
        <time>2024-09-20T09:17:00.999Z</time>
      </trkpt>
      <trkpt lat="42.83972" lon="2.32327">
        <ele>672</ele>
        <time>2024-09-20T09:17:06.999Z</time>
      </trkpt>
      <trkpt lat="42.83963" lon="2.32335">
        <ele>672.62</ele>
        <time>2024-09-20T09:17:11.999Z</time>
      </trkpt>
      <trkpt lat="42.83954" lon="2.32342">
        <ele>673.24</ele>
        <time>2024-09-20T09:17:16.999Z</time>
      </trkpt>
      <trkpt lat="42.83945" lon="2.3235">
        <ele>673.87</ele>
        <time>2024-09-20T09:17:21.999Z</time>
      </trkpt>
      <trkpt lat="42.83937" lon="2.32357">
        <ele>674.49</ele>
        <time>2024-09-20T09:17:26.999Z</time>
      </trkpt>
      <trkpt lat="42.8393" lon="2.32364">
        <ele>675.1</ele>
        <time>2024-09-20T09:17:31.999Z</time>
      </trkpt>
      <trkpt lat="42.83922" lon="2.32373">
        <ele>675.73</ele>
        <time>2024-09-20T09:17:36.999Z</time>
      </trkpt>
      <trkpt lat="42.83914" lon="2.3238">
        <ele>676.37</ele>
        <time>2024-09-20T09:17:41.999Z</time>
      </trkpt>
      <trkpt lat="42.83905" lon="2.32387">
        <ele>677.03</ele>
        <time>2024-09-20T09:17:46.999Z</time>
      </trkpt>
      <trkpt lat="42.83897" lon="2.32394">
        <ele>677.69</ele>
        <time>2024-09-20T09:17:51.999Z</time>
      </trkpt>
      <trkpt lat="42.83888" lon="2.32402">
        <ele>678.37</ele>
        <time>2024-09-20T09:17:56.999Z</time>
      </trkpt>
      <trkpt lat="42.8388" lon="2.32409">
        <ele>679.06</ele>
        <time>2024-09-20T09:18:01.999Z</time>
      </trkpt>
      <trkpt lat="42.83871" lon="2.32418">
        <ele>679.79</ele>
        <time>2024-09-20T09:18:06.999Z</time>
      </trkpt>
      <trkpt lat="42.83865" lon="2.32429">
        <ele>680.52</ele>
        <time>2024-09-20T09:18:11.999Z</time>
      </trkpt>
      <trkpt lat="42.83858" lon="2.32442">
        <ele>681.25</ele>
        <time>2024-09-20T09:18:16.999Z</time>
      </trkpt>
      <trkpt lat="42.83854" lon="2.32458">
        <ele>682.03</ele>
        <time>2024-09-20T09:18:21.999Z</time>
      </trkpt>
      <trkpt lat="42.83851" lon="2.32471">
        <ele>682.83</ele>
        <time>2024-09-20T09:18:26.999Z</time>
      </trkpt>
      <trkpt lat="42.8385" lon="2.32487">
        <ele>683.63</ele>
        <time>2024-09-20T09:18:31.999Z</time>
      </trkpt>
      <trkpt lat="42.83849" lon="2.32507">
        <ele>684.4</ele>
        <time>2024-09-20T09:18:36.999Z</time>
      </trkpt>
      <trkpt lat="42.83848" lon="2.32528">
        <ele>685.15</ele>
        <time>2024-09-20T09:18:41.999Z</time>
      </trkpt>
      <trkpt lat="42.83846" lon="2.32549">
        <ele>685.91</ele>
        <time>2024-09-20T09:18:46.999Z</time>
      </trkpt>
      <trkpt lat="42.83844" lon="2.32567">
        <ele>686.67</ele>
        <time>2024-09-20T09:18:51.999Z</time>
      </trkpt>
      <trkpt lat="42.83842" lon="2.32584">
        <ele>687.45</ele>
        <time>2024-09-20T09:18:56.999Z</time>
      </trkpt>
      <trkpt lat="42.8384" lon="2.32602">
        <ele>688.24</ele>
        <time>2024-09-20T09:19:01.999Z</time>
      </trkpt>
      <trkpt lat="42.83839" lon="2.3262">
        <ele>689.03</ele>
        <time>2024-09-20T09:19:06.999Z</time>
      </trkpt>
      <trkpt lat="42.83837" lon="2.32636">
        <ele>689.82</ele>
        <time>2024-09-20T09:19:11.999Z</time>
      </trkpt>
      <trkpt lat="42.83834" lon="2.32651">
        <ele>690.6</ele>
        <time>2024-09-20T09:19:16.999Z</time>
      </trkpt>
      <trkpt lat="42.8383" lon="2.32664">
        <ele>691.36</ele>
        <time>2024-09-20T09:19:21.999Z</time>
      </trkpt>
      <trkpt lat="42.83822" lon="2.32677">
        <ele>692.13</ele>
        <time>2024-09-20T09:19:26.999Z</time>
      </trkpt>
      <trkpt lat="42.83812" lon="2.32687">
        <ele>692.9</ele>
        <time>2024-09-20T09:19:31.999Z</time>
      </trkpt>
      <trkpt lat="42.83803" lon="2.32699">
        <ele>693.65</ele>
        <time>2024-09-20T09:19:36.999Z</time>
      </trkpt>
      <trkpt lat="42.83792" lon="2.32708">
        <ele>694.38</ele>
        <time>2024-09-20T09:19:41.999Z</time>
      </trkpt>
      <trkpt lat="42.83782" lon="2.32718">
        <ele>695.09</ele>
        <time>2024-09-20T09:19:46.999Z</time>
      </trkpt>
      <trkpt lat="42.8377" lon="2.32728">
        <ele>695.77</ele>
        <time>2024-09-20T09:19:51.999Z</time>
      </trkpt>
      <trkpt lat="42.8376" lon="2.32739">
        <ele>696.42</ele>
        <time>2024-09-20T09:19:56.999Z</time>
      </trkpt>
      <trkpt lat="42.83749" lon="2.32749">
        <ele>697.04</ele>
        <time>2024-09-20T09:20:01.999Z</time>
      </trkpt>
      <trkpt lat="42.83738" lon="2.32758">
        <ele>697.64</ele>
        <time>2024-09-20T09:20:06.999Z</time>
      </trkpt>
      <trkpt lat="42.83726" lon="2.32767">
        <ele>698.21</ele>
        <time>2024-09-20T09:20:11.999Z</time>
      </trkpt>
      <trkpt lat="42.83712" lon="2.3278">
        <ele>698.76</ele>
        <time>2024-09-20T09:20:16.999Z</time>
      </trkpt>
      <trkpt lat="42.83697" lon="2.32794">
        <ele>700.17</ele>
        <time>2024-09-20T09:20:21.999Z</time>
      </trkpt>
      <trkpt lat="42.83681" lon="2.32806">
        <ele>700.59</ele>
        <time>2024-09-20T09:20:26.999Z</time>
      </trkpt>
      <trkpt lat="42.83666" lon="2.32807">
        <ele>700.96</ele>
        <time>2024-09-20T09:20:31.999Z</time>
      </trkpt>
      <trkpt lat="42.83658" lon="2.32798">
        <ele>701.32</ele>
        <time>2024-09-20T09:20:36.999Z</time>
      </trkpt>
      <trkpt lat="42.8365" lon="2.32799">
        <ele>703.36</ele>
        <time>2024-09-20T09:22:00.999Z</time>
      </trkpt>
      <trkpt lat="42.83656" lon="2.3281">
        <ele>705.31</ele>
        <time>2024-09-20T09:26:10.999Z</time>
      </trkpt>
      <trkpt lat="42.83653" lon="2.32824">
        <ele>705.49</ele>
        <time>2024-09-20T09:26:15.999Z</time>
      </trkpt>
      <trkpt lat="42.83642" lon="2.32829">
        <ele>705.66</ele>
        <time>2024-09-20T09:26:20.999Z</time>
      </trkpt>
      <trkpt lat="42.83628" lon="2.32837">
        <ele>705.84</ele>
        <time>2024-09-20T09:26:26.000Z</time>
      </trkpt>
      <trkpt lat="42.83612" lon="2.32845">
        <ele>706.28</ele>
        <time>2024-09-20T09:26:31.000Z</time>
      </trkpt>
      <trkpt lat="42.83594" lon="2.32855">
        <ele>707.35</ele>
        <time>2024-09-20T09:26:36.000Z</time>
      </trkpt>
      <trkpt lat="42.83576" lon="2.32863">
        <ele>707.6</ele>
        <time>2024-09-20T09:26:41.000Z</time>
      </trkpt>
      <trkpt lat="42.83562" lon="2.32876">
        <ele>707.69</ele>
        <time>2024-09-20T09:26:46.000Z</time>
      </trkpt>
      <trkpt lat="42.83549" lon="2.32891">
        <ele>707.77</ele>
        <time>2024-09-20T09:26:51.000Z</time>
      </trkpt>
      <trkpt lat="42.8354" lon="2.3291">
        <ele>707.86</ele>
        <time>2024-09-20T09:26:56.000Z</time>
      </trkpt>
      <trkpt lat="42.83532" lon="2.32936">
        <ele>708.17</ele>
        <time>2024-09-20T09:27:01.000Z</time>
      </trkpt>
      <trkpt lat="42.83523" lon="2.32964">
        <ele>708.17</ele>
        <time>2024-09-20T09:27:06.000Z</time>
      </trkpt>
      <trkpt lat="42.83514" lon="2.32993">
        <ele>707.77</ele>
        <time>2024-09-20T09:27:11.000Z</time>
      </trkpt>
      <trkpt lat="42.83502" lon="2.33027">
        <ele>707.37</ele>
        <time>2024-09-20T09:27:16.000Z</time>
      </trkpt>
      <trkpt lat="42.83488" lon="2.33063">
        <ele>706.96</ele>
        <time>2024-09-20T09:27:21.000Z</time>
      </trkpt>
      <trkpt lat="42.83474" lon="2.33099">
        <ele>706.63</ele>
        <time>2024-09-20T09:27:26.000Z</time>
      </trkpt>
      <trkpt lat="42.83455" lon="2.33129">
        <ele>706.35</ele>
        <time>2024-09-20T09:27:31.000Z</time>
      </trkpt>
      <trkpt lat="42.83435" lon="2.33155">
        <ele>705.89</ele>
        <time>2024-09-20T09:27:36.000Z</time>
      </trkpt>
      <trkpt lat="42.83415" lon="2.33181">
        <ele>705.49</ele>
        <time>2024-09-20T09:27:41.000Z</time>
      </trkpt>
      <trkpt lat="42.8339" lon="2.33214">
        <ele>705.01</ele>
        <time>2024-09-20T09:27:46.000Z</time>
      </trkpt>
      <trkpt lat="42.83362" lon="2.3325">
        <ele>704.38</ele>
        <time>2024-09-20T09:27:51.000Z</time>
      </trkpt>
      <trkpt lat="42.83331" lon="2.33287">
        <ele>703.74</ele>
        <time>2024-09-20T09:27:56.000Z</time>
      </trkpt>
      <trkpt lat="42.83289" lon="2.33294">
        <ele>703.04</ele>
        <time>2024-09-20T09:28:01.000Z</time>
      </trkpt>
      <trkpt lat="42.8325" lon="2.33285">
        <ele>702.32</ele>
        <time>2024-09-20T09:28:06.000Z</time>
      </trkpt>
      <trkpt lat="42.83217" lon="2.33278">
        <ele>701.23</ele>
        <time>2024-09-20T09:28:11.000Z</time>
      </trkpt>
      <trkpt lat="42.83191" lon="2.33273">
        <ele>699.97</ele>
        <time>2024-09-20T09:28:16.000Z</time>
      </trkpt>
      <trkpt lat="42.83172" lon="2.33274">
        <ele>698.68</ele>
        <time>2024-09-20T09:28:21.000Z</time>
      </trkpt>
      <trkpt lat="42.83148" lon="2.33285">
        <ele>697.19</ele>
        <time>2024-09-20T09:28:26.000Z</time>
      </trkpt>
      <trkpt lat="42.83128" lon="2.33301">
        <ele>695.84</ele>
        <time>2024-09-20T09:28:31.000Z</time>
      </trkpt>
      <trkpt lat="42.83107" lon="2.3332">
        <ele>694.22</ele>
        <time>2024-09-20T09:28:36.000Z</time>
      </trkpt>
      <trkpt lat="42.83086" lon="2.33348">
        <ele>691.59</ele>
        <time>2024-09-20T09:28:41.000Z</time>
      </trkpt>
      <trkpt lat="42.83071" lon="2.33393">
        <ele>689.35</ele>
        <time>2024-09-20T09:28:46.000Z</time>
      </trkpt>
      <trkpt lat="42.83072" lon="2.33442">
        <ele>686.79</ele>
        <time>2024-09-20T09:28:51.000Z</time>
      </trkpt>
      <trkpt lat="42.83106" lon="2.33457">
        <ele>683.85</ele>
        <time>2024-09-20T09:28:56.000Z</time>
      </trkpt>
      <trkpt lat="42.83128" lon="2.33494">
        <ele>681.23</ele>
        <time>2024-09-20T09:29:01.000Z</time>
      </trkpt>
      <trkpt lat="42.83137" lon="2.33544">
        <ele>679.33</ele>
        <time>2024-09-20T09:29:06.000Z</time>
      </trkpt>
      <trkpt lat="42.83123" lon="2.33597">
        <ele>678.13</ele>
        <time>2024-09-20T09:29:11.000Z</time>
      </trkpt>
      <trkpt lat="42.83094" lon="2.33642">
        <ele>676.67</ele>
        <time>2024-09-20T09:29:16.000Z</time>
      </trkpt>
      <trkpt lat="42.83079" lon="2.33698">
        <ele>675.63</ele>
        <time>2024-09-20T09:29:21.000Z</time>
      </trkpt>
      <trkpt lat="42.83064" lon="2.33753">
        <ele>674.57</ele>
        <time>2024-09-20T09:29:26.000Z</time>
      </trkpt>
      <trkpt lat="42.83026" lon="2.33763">
        <ele>673.41</ele>
        <time>2024-09-20T09:29:31.000Z</time>
      </trkpt>
      <trkpt lat="42.83035" lon="2.33714">
        <ele>669.98</ele>
        <time>2024-09-20T09:29:36.000Z</time>
      </trkpt>
      <trkpt lat="42.83057" lon="2.33675">
        <ele>666.26</ele>
        <time>2024-09-20T09:29:41.000Z</time>
      </trkpt>
      <trkpt lat="42.83035" lon="2.3364">
        <ele>665.46</ele>
        <time>2024-09-20T09:29:46.000Z</time>
      </trkpt>
      <trkpt lat="42.82999" lon="2.33654">
        <ele>667.03</ele>
        <time>2024-09-20T09:29:51.000Z</time>
      </trkpt>
      <trkpt lat="42.82967" lon="2.3364">
        <ele>665.32</ele>
        <time>2024-09-20T09:29:56.000Z</time>
      </trkpt>
      <trkpt lat="42.82936" lon="2.33631">
        <ele>662.36</ele>
        <time>2024-09-20T09:30:01.000Z</time>
      </trkpt>
      <trkpt lat="42.82904" lon="2.33637">
        <ele>659.2</ele>
        <time>2024-09-20T09:30:06.000Z</time>
      </trkpt>
      <trkpt lat="42.82878" lon="2.33675">
        <ele>655.74</ele>
        <time>2024-09-20T09:30:11.000Z</time>
      </trkpt>
      <trkpt lat="42.82864" lon="2.33728">
        <ele>652.18</ele>
        <time>2024-09-20T09:30:16.000Z</time>
      </trkpt>
      <trkpt lat="42.82845" lon="2.33774">
        <ele>648.73</ele>
        <time>2024-09-20T09:30:21.000Z</time>
      </trkpt>
      <trkpt lat="42.82818" lon="2.33817">
        <ele>645.23</ele>
        <time>2024-09-20T09:30:26.000Z</time>
      </trkpt>
      <trkpt lat="42.82806" lon="2.33873">
        <ele>642.02</ele>
        <time>2024-09-20T09:30:31.000Z</time>
      </trkpt>
      <trkpt lat="42.82814" lon="2.33922">
        <ele>639.29</ele>
        <time>2024-09-20T09:30:36.000Z</time>
      </trkpt>
      <trkpt lat="42.82839" lon="2.33923">
        <ele>636.33</ele>
        <time>2024-09-20T09:30:41.000Z</time>
      </trkpt>
      <trkpt lat="42.82852" lon="2.33905">
        <ele>635.45</ele>
        <time>2024-09-20T09:30:46.000Z</time>
      </trkpt>
      <trkpt lat="42.82859" lon="2.33896">
        <ele>633.58</ele>
        <time>2024-09-20T09:32:43.000Z</time>
      </trkpt>
      <trkpt lat="42.82863" lon="2.33881">
        <ele>631.46</ele>
        <time>2024-09-20T09:34:06.000Z</time>
      </trkpt>
      <trkpt lat="42.82877" lon="2.33855">
        <ele>627.43</ele>
        <time>2024-09-20T09:34:11.000Z</time>
      </trkpt>
      <trkpt lat="42.82892" lon="2.33817">
        <ele>625.64</ele>
        <time>2024-09-20T09:34:16.000Z</time>
      </trkpt>
      <trkpt lat="42.8287" lon="2.33789">
        <ele>624.81</ele>
        <time>2024-09-20T09:34:21.000Z</time>
      </trkpt>
      <trkpt lat="42.82843" lon="2.33818">
        <ele>624.15</ele>
        <time>2024-09-20T09:34:26.000Z</time>
      </trkpt>
      <trkpt lat="42.82856" lon="2.33868">
        <ele>622.8</ele>
        <time>2024-09-20T09:34:31.000Z</time>
      </trkpt>
      <trkpt lat="42.82891" lon="2.33882">
        <ele>621.19</ele>
        <time>2024-09-20T09:34:36.000Z</time>
      </trkpt>
      <trkpt lat="42.82928" lon="2.33868">
        <ele>619.37</ele>
        <time>2024-09-20T09:34:41.000Z</time>
      </trkpt>
      <trkpt lat="42.82952" lon="2.33914">
        <ele>618.59</ele>
        <time>2024-09-20T09:34:46.000Z</time>
      </trkpt>
      <trkpt lat="42.82964" lon="2.33968">
        <ele>617.19</ele>
        <time>2024-09-20T09:34:51.000Z</time>
      </trkpt>
      <trkpt lat="42.8297" lon="2.34026">
        <ele>615.8</ele>
        <time>2024-09-20T09:34:56.000Z</time>
      </trkpt>
      <trkpt lat="42.82971" lon="2.34085">
        <ele>614.61</ele>
        <time>2024-09-20T09:35:01.000Z</time>
      </trkpt>
      <trkpt lat="42.82969" lon="2.3414">
        <ele>614.33</ele>
        <time>2024-09-20T09:35:06.000Z</time>
      </trkpt>
      <trkpt lat="42.8296" lon="2.34184">
        <ele>614.29</ele>
        <time>2024-09-20T09:35:11.000Z</time>
      </trkpt>
      <trkpt lat="42.82954" lon="2.34221">
        <ele>612.95</ele>
        <time>2024-09-20T09:35:16.000Z</time>
      </trkpt>
      <trkpt lat="42.82956" lon="2.34263">
        <ele>611.82</ele>
        <time>2024-09-20T09:35:21.000Z</time>
      </trkpt>
      <trkpt lat="42.82961" lon="2.34306">
        <ele>611.19</ele>
        <time>2024-09-20T09:35:26.000Z</time>
      </trkpt>
      <trkpt lat="42.82962" lon="2.34357">
        <ele>610.31</ele>
        <time>2024-09-20T09:35:31.000Z</time>
      </trkpt>
      <trkpt lat="42.82948" lon="2.34407">
        <ele>607.5</ele>
        <time>2024-09-20T09:35:36.000Z</time>
      </trkpt>
      <trkpt lat="42.82939" lon="2.34453">
        <ele>604.63</ele>
        <time>2024-09-20T09:35:41.000Z</time>
      </trkpt>
      <trkpt lat="42.82949" lon="2.34515">
        <ele>602.68</ele>
        <time>2024-09-20T09:35:46.000Z</time>
      </trkpt>
      <trkpt lat="42.82952" lon="2.34586">
        <ele>599.44</ele>
        <time>2024-09-20T09:35:51.000Z</time>
      </trkpt>
      <trkpt lat="42.82958" lon="2.34668">
        <ele>594.88</ele>
        <time>2024-09-20T09:35:56.000Z</time>
      </trkpt>
      <trkpt lat="42.8297" lon="2.34741">
        <ele>589.62</ele>
        <time>2024-09-20T09:36:01.000Z</time>
      </trkpt>
      <trkpt lat="42.82967" lon="2.34805">
        <ele>585.28</ele>
        <time>2024-09-20T09:36:06.000Z</time>
      </trkpt>
      <trkpt lat="42.82928" lon="2.34831">
        <ele>581.82</ele>
        <time>2024-09-20T09:36:11.000Z</time>
      </trkpt>
      <trkpt lat="42.82879" lon="2.34849">
        <ele>578.16</ele>
        <time>2024-09-20T09:36:16.000Z</time>
      </trkpt>
      <trkpt lat="42.82834" lon="2.34881">
        <ele>574.27</ele>
        <time>2024-09-20T09:36:21.000Z</time>
      </trkpt>
      <trkpt lat="42.82794" lon="2.34938">
        <ele>568.45</ele>
        <time>2024-09-20T09:36:26.000Z</time>
      </trkpt>
      <trkpt lat="42.82753" lon="2.35008">
        <ele>562.06</ele>
        <time>2024-09-20T09:36:31.000Z</time>
      </trkpt>
      <trkpt lat="42.82711" lon="2.3508">
        <ele>555.47</ele>
        <time>2024-09-20T09:36:36.000Z</time>
      </trkpt>
      <trkpt lat="42.82678" lon="2.35164">
        <ele>549.15</ele>
        <time>2024-09-20T09:36:41.000Z</time>
      </trkpt>
      <trkpt lat="42.82653" lon="2.35242">
        <ele>542.67</ele>
        <time>2024-09-20T09:36:46.000Z</time>
      </trkpt>
      <trkpt lat="42.82633" lon="2.35328">
        <ele>536.18</ele>
        <time>2024-09-20T09:36:51.000Z</time>
      </trkpt>
      <trkpt lat="42.82599" lon="2.35407">
        <ele>531.92</ele>
        <time>2024-09-20T09:36:56.000Z</time>
      </trkpt>
      <trkpt lat="42.8256" lon="2.35472">
        <ele>527.73</ele>
        <time>2024-09-20T09:37:01.000Z</time>
      </trkpt>
      <trkpt lat="42.82515" lon="2.35528">
        <ele>522.51</ele>
        <time>2024-09-20T09:37:06.000Z</time>
      </trkpt>
      <trkpt lat="42.82477" lon="2.35585">
        <ele>517.3</ele>
        <time>2024-09-20T09:37:11.000Z</time>
      </trkpt>
      <trkpt lat="42.82472" lon="2.3565">
        <ele>513.19</ele>
        <time>2024-09-20T09:37:16.000Z</time>
      </trkpt>
      <trkpt lat="42.82467" lon="2.35718">
        <ele>504.26</ele>
        <time>2024-09-20T09:37:21.000Z</time>
      </trkpt>
      <trkpt lat="42.82418" lon="2.35745">
        <ele>493.49</ele>
        <time>2024-09-20T09:37:26.000Z</time>
      </trkpt>
      <trkpt lat="42.82373" lon="2.35773">
        <ele>487.1</ele>
        <time>2024-09-20T09:37:31.000Z</time>
      </trkpt>
      <trkpt lat="42.82339" lon="2.35826">
        <ele>481.7</ele>
        <time>2024-09-20T09:37:36.000Z</time>
      </trkpt>
      <trkpt lat="42.82307" lon="2.3588">
        <ele>476.87</ele>
        <time>2024-09-20T09:37:41.000Z</time>
      </trkpt>
      <trkpt lat="42.82274" lon="2.35926">
        <ele>472.74</ele>
        <time>2024-09-20T09:37:46.000Z</time>
      </trkpt>
      <trkpt lat="42.8225" lon="2.35974">
        <ele>468.46</ele>
        <time>2024-09-20T09:37:51.000Z</time>
      </trkpt>
      <trkpt lat="42.82223" lon="2.36023">
        <ele>463.47</ele>
        <time>2024-09-20T09:37:56.000Z</time>
      </trkpt>
      <trkpt lat="42.82193" lon="2.3607">
        <ele>459.64</ele>
        <time>2024-09-20T09:38:01.000Z</time>
      </trkpt>
      <trkpt lat="42.82167" lon="2.36113">
        <ele>456</ele>
        <time>2024-09-20T09:38:06.000Z</time>
      </trkpt>
      <trkpt lat="42.82136" lon="2.36151">
        <ele>452.86</ele>
        <time>2024-09-20T09:38:11.000Z</time>
      </trkpt>
      <trkpt lat="42.82103" lon="2.36194">
        <ele>450.21</ele>
        <time>2024-09-20T09:38:16.000Z</time>
      </trkpt>
      <trkpt lat="42.82069" lon="2.36242">
        <ele>446.81</ele>
        <time>2024-09-20T09:38:21.000Z</time>
      </trkpt>
      <trkpt lat="42.82031" lon="2.36295">
        <ele>441.85</ele>
        <time>2024-09-20T09:38:26.000Z</time>
      </trkpt>
      <trkpt lat="42.81998" lon="2.3636">
        <ele>436.81</ele>
        <time>2024-09-20T09:38:31.000Z</time>
      </trkpt>
      <trkpt lat="42.81958" lon="2.36397">
        <ele>431.2</ele>
        <time>2024-09-20T09:38:36.999Z</time>
      </trkpt>
      <trkpt lat="42.81918" lon="2.36409">
        <ele>420.41</ele>
        <time>2024-09-20T09:38:41.999Z</time>
      </trkpt>
      <trkpt lat="42.8191" lon="2.36476">
        <ele>412.42</ele>
        <time>2024-09-20T09:38:46.999Z</time>
      </trkpt>
      <trkpt lat="42.8189" lon="2.36523">
        <ele>407.66</ele>
        <time>2024-09-20T09:38:51.999Z</time>
      </trkpt>
      <trkpt lat="42.81862" lon="2.36561">
        <ele>404.96</ele>
        <time>2024-09-20T09:38:56.999Z</time>
      </trkpt>
      <trkpt lat="42.81834" lon="2.36599">
        <ele>404.24</ele>
        <time>2024-09-20T09:39:01.999Z</time>
      </trkpt>
      <trkpt lat="42.81807" lon="2.36632">
        <ele>404.22</ele>
        <time>2024-09-20T09:39:06.999Z</time>
      </trkpt>
      <trkpt lat="42.81779" lon="2.36665">
        <ele>402.05</ele>
        <time>2024-09-20T09:39:11.999Z</time>
      </trkpt>
      <trkpt lat="42.81751" lon="2.36698">
        <ele>398.51</ele>
        <time>2024-09-20T09:39:16.999Z</time>
      </trkpt>
      <trkpt lat="42.81731" lon="2.36737">
        <ele>396.03</ele>
        <time>2024-09-20T09:39:21.999Z</time>
      </trkpt>
      <trkpt lat="42.81716" lon="2.36782">
        <ele>394.59</ele>
        <time>2024-09-20T09:39:26.999Z</time>
      </trkpt>
      <trkpt lat="42.81711" lon="2.36833">
        <ele>393.06</ele>
        <time>2024-09-20T09:39:31.999Z</time>
      </trkpt>
      <trkpt lat="42.81706" lon="2.36883">
        <ele>391.24</ele>
        <time>2024-09-20T09:39:36.999Z</time>
      </trkpt>
      <trkpt lat="42.817" lon="2.36928">
        <ele>389.98</ele>
        <time>2024-09-20T09:39:41.999Z</time>
      </trkpt>
      <trkpt lat="42.81696" lon="2.36967">
        <ele>389.05</ele>
        <time>2024-09-20T09:39:46.999Z</time>
      </trkpt>
      <trkpt lat="42.81686" lon="2.37001">
        <ele>388.13</ele>
        <time>2024-09-20T09:39:51.999Z</time>
      </trkpt>
      <trkpt lat="42.81675" lon="2.37028">
        <ele>388.08</ele>
        <time>2024-09-20T09:39:56.999Z</time>
      </trkpt>
      <trkpt lat="42.81664" lon="2.37051">
        <ele>387.76</ele>
        <time>2024-09-20T09:40:01.999Z</time>
      </trkpt>
      <trkpt lat="42.81649" lon="2.37072">
        <ele>387.06</ele>
        <time>2024-09-20T09:40:06.999Z</time>
      </trkpt>
      <trkpt lat="42.81636" lon="2.3709">
        <ele>386.22</ele>
        <time>2024-09-20T09:40:11.999Z</time>
      </trkpt>
      <trkpt lat="42.8162" lon="2.37111">
        <ele>386.25</ele>
        <time>2024-09-20T09:40:16.999Z</time>
      </trkpt>
      <trkpt lat="42.81604" lon="2.37134">
        <ele>386.18</ele>
        <time>2024-09-20T09:40:21.999Z</time>
      </trkpt>
      <trkpt lat="42.81591" lon="2.37151">
        <ele>384.76</ele>
        <time>2024-09-20T09:40:26.999Z</time>
      </trkpt>
      <trkpt lat="42.81578" lon="2.37169">
        <ele>383.96</ele>
        <time>2024-09-20T09:40:31.999Z</time>
      </trkpt>
      <trkpt lat="42.81562" lon="2.37193">
        <ele>382.06</ele>
        <time>2024-09-20T09:40:36.999Z</time>
      </trkpt>
      <trkpt lat="42.81547" lon="2.37216">
        <ele>380.71</ele>
        <time>2024-09-20T09:40:41.999Z</time>
      </trkpt>
      <trkpt lat="42.81533" lon="2.37242">
        <ele>379.82</ele>
        <time>2024-09-20T09:40:46.999Z</time>
      </trkpt>
      <trkpt lat="42.81515" lon="2.37268">
        <ele>379.25</ele>
        <time>2024-09-20T09:40:51.999Z</time>
      </trkpt>
      <trkpt lat="42.81495" lon="2.37295">
        <ele>378.5</ele>
        <time>2024-09-20T09:40:56.999Z</time>
      </trkpt>
      <trkpt lat="42.8147" lon="2.37326">
        <ele>377.12</ele>
        <time>2024-09-20T09:41:01.999Z</time>
      </trkpt>
      <trkpt lat="42.81431" lon="2.37336">
        <ele>375.17</ele>
        <time>2024-09-20T09:41:06.999Z</time>
      </trkpt>
      <trkpt lat="42.81412" lon="2.37366">
        <ele>374.02</ele>
        <time>2024-09-20T09:41:11.999Z</time>
      </trkpt>
      <trkpt lat="42.8142" lon="2.37399">
        <ele>372.81</ele>
        <time>2024-09-20T09:41:16.999Z</time>
      </trkpt>
      <trkpt lat="42.81419" lon="2.37433">
        <ele>371.26</ele>
        <time>2024-09-20T09:41:21.999Z</time>
      </trkpt>
      <trkpt lat="42.81416" lon="2.3746">
        <ele>370.71</ele>
        <time>2024-09-20T09:41:26.999Z</time>
      </trkpt>
      <trkpt lat="42.81414" lon="2.37477">
        <ele>370.42</ele>
        <time>2024-09-20T09:41:31.999Z</time>
      </trkpt>
      <trkpt lat="42.81413" lon="2.3749">
        <ele>369.99</ele>
        <time>2024-09-20T09:41:37.999Z</time>
      </trkpt>
      <trkpt lat="42.81406" lon="2.37501">
        <ele>369.66</ele>
        <time>2024-09-20T09:41:42.999Z</time>
      </trkpt>
      <trkpt lat="42.81399" lon="2.3751">
        <ele>369.49</ele>
        <time>2024-09-20T09:41:47.999Z</time>
      </trkpt>
      <trkpt lat="42.81395" lon="2.37521">
        <ele>369.94</ele>
        <time>2024-09-20T09:42:11.999Z</time>
      </trkpt>
      <trkpt lat="42.81383" lon="2.37523">
        <ele>370.47</ele>
        <time>2024-09-20T09:42:16.999Z</time>
      </trkpt>
      <trkpt lat="42.81374" lon="2.37524">
        <ele>370.96</ele>
        <time>2024-09-20T09:42:21.999Z</time>
      </trkpt>
      <trkpt lat="42.8136" lon="2.37525">
        <ele>371.42</ele>
        <time>2024-09-20T09:42:26.999Z</time>
      </trkpt>
      <trkpt lat="42.81346" lon="2.37527">
        <ele>371.78</ele>
        <time>2024-09-20T09:42:31.999Z</time>
      </trkpt>
      <trkpt lat="42.81333" lon="2.37526">
        <ele>372</ele>
        <time>2024-09-20T09:42:36.999Z</time>
      </trkpt>
      <trkpt lat="42.81322" lon="2.37521">
        <ele>372.1</ele>
        <time>2024-09-20T09:42:41.999Z</time>
      </trkpt>
      <trkpt lat="42.81312" lon="2.37516">
        <ele>372.09</ele>
        <time>2024-09-20T09:42:47.999Z</time>
      </trkpt>
      <trkpt lat="42.81322" lon="2.37519">
        <ele>371.93</ele>
        <time>2024-09-20T09:43:22.999Z</time>
      </trkpt>
      <trkpt lat="42.81336" lon="2.37527">
        <ele>371.93</ele>
        <time>2024-09-20T09:43:27.999Z</time>
      </trkpt>
      <trkpt lat="42.81354" lon="2.37528">
        <ele>372.63</ele>
        <time>2024-09-20T09:43:32.999Z</time>
      </trkpt>
      <trkpt lat="42.81377" lon="2.37527">
        <ele>373.24</ele>
        <time>2024-09-20T09:43:37.999Z</time>
      </trkpt>
      <trkpt lat="42.81391" lon="2.37524">
        <ele>373.24</ele>
        <time>2024-09-20T09:43:42.999Z</time>
      </trkpt>
      <trkpt lat="42.81397" lon="2.37536">
        <ele>373.18</ele>
        <time>2024-09-20T09:43:49.999Z</time>
      </trkpt>
      <trkpt lat="42.81398" lon="2.37552">
        <ele>373.09</ele>
        <time>2024-09-20T09:43:54.999Z</time>
      </trkpt>
      <trkpt lat="42.814" lon="2.37569">
        <ele>373</ele>
        <time>2024-09-20T09:43:59.999Z</time>
      </trkpt>
      <trkpt lat="42.81401" lon="2.37591">
        <ele>372.9</ele>
        <time>2024-09-20T09:44:04.999Z</time>
      </trkpt>
      <trkpt lat="42.81402" lon="2.37616">
        <ele>372.72</ele>
        <time>2024-09-20T09:44:09.999Z</time>
      </trkpt>
      <trkpt lat="42.81401" lon="2.37636">
        <ele>372.47</ele>
        <time>2024-09-20T09:44:14.999Z</time>
      </trkpt>
      <trkpt lat="42.81401" lon="2.37655">
        <ele>372.15</ele>
        <time>2024-09-20T09:44:19.999Z</time>
      </trkpt>
      <trkpt lat="42.81392" lon="2.37684">
        <ele>371.89</ele>
        <time>2024-09-20T09:44:24.999Z</time>
      </trkpt>
      <trkpt lat="42.81378" lon="2.3771">
        <ele>370.8</ele>
        <time>2024-09-20T09:44:29.999Z</time>
      </trkpt>
      <trkpt lat="42.81379" lon="2.37759">
        <ele>369.01</ele>
        <time>2024-09-20T09:44:34.999Z</time>
      </trkpt>
      <trkpt lat="42.81399" lon="2.37777">
        <ele>367.38</ele>
        <time>2024-09-20T09:44:39.999Z</time>
      </trkpt>
      <trkpt lat="42.81417" lon="2.37779">
        <ele>367.07</ele>
        <time>2024-09-20T09:44:44.999Z</time>
      </trkpt>
      <trkpt lat="42.8143" lon="2.37784">
        <ele>366.71</ele>
        <time>2024-09-20T09:44:49.999Z</time>
      </trkpt>
      <trkpt lat="42.81446" lon="2.37789">
        <ele>366.32</ele>
        <time>2024-09-20T09:44:54.999Z</time>
      </trkpt>
      <trkpt lat="42.81462" lon="2.37793">
        <ele>365.89</ele>
        <time>2024-09-20T09:44:59.999Z</time>
      </trkpt>
      <trkpt lat="42.81481" lon="2.37799">
        <ele>364.08</ele>
        <time>2024-09-20T09:45:04.999Z</time>
      </trkpt>
      <trkpt lat="42.81501" lon="2.37805">
        <ele>361.49</ele>
        <time>2024-09-20T09:45:09.999Z</time>
      </trkpt>
      <trkpt lat="42.81521" lon="2.37809">
        <ele>360.33</ele>
        <time>2024-09-20T09:45:14.999Z</time>
      </trkpt>
      <trkpt lat="42.81543" lon="2.37811">
        <ele>359.59</ele>
        <time>2024-09-20T09:45:19.999Z</time>
      </trkpt>
      <trkpt lat="42.81563" lon="2.37814">
        <ele>359</ele>
        <time>2024-09-20T09:45:24.999Z</time>
      </trkpt>
      <trkpt lat="42.81585" lon="2.37817">
        <ele>358.43</ele>
        <time>2024-09-20T09:45:29.999Z</time>
      </trkpt>
      <trkpt lat="42.81605" lon="2.37826">
        <ele>357.84</ele>
        <time>2024-09-20T09:45:34.999Z</time>
      </trkpt>
      <trkpt lat="42.8162" lon="2.37843">
        <ele>357.24</ele>
        <time>2024-09-20T09:45:39.999Z</time>
      </trkpt>
      <trkpt lat="42.81628" lon="2.37866">
        <ele>357.04</ele>
        <time>2024-09-20T09:45:44.999Z</time>
      </trkpt>
      <trkpt lat="42.81631" lon="2.37888">
        <ele>356.96</ele>
        <time>2024-09-20T09:45:49.999Z</time>
      </trkpt>
      <trkpt lat="42.81635" lon="2.3791">
        <ele>356.88</ele>
        <time>2024-09-20T09:45:54.999Z</time>
      </trkpt>
      <trkpt lat="42.81643" lon="2.37928">
        <ele>356.8</ele>
        <time>2024-09-20T09:45:59.999Z</time>
      </trkpt>
      <trkpt lat="42.81653" lon="2.37945">
        <ele>356.7</ele>
        <time>2024-09-20T09:46:04.999Z</time>
      </trkpt>
      <trkpt lat="42.81662" lon="2.37961">
        <ele>356.57</ele>
        <time>2024-09-20T09:46:09.999Z</time>
      </trkpt>
      <trkpt lat="42.81667" lon="2.37981">
        <ele>356.43</ele>
        <time>2024-09-20T09:46:14.999Z</time>
      </trkpt>
      <trkpt lat="42.81666" lon="2.38003">
        <ele>356.29</ele>
        <time>2024-09-20T09:46:19.999Z</time>
      </trkpt>
      <trkpt lat="42.81659" lon="2.3802">
        <ele>356.17</ele>
        <time>2024-09-20T09:46:24.999Z</time>
      </trkpt>
      <trkpt lat="42.81649" lon="2.38031">
        <ele>356.04</ele>
        <time>2024-09-20T09:46:29.999Z</time>
      </trkpt>
      <trkpt lat="42.81637" lon="2.38043">
        <ele>355.89</ele>
        <time>2024-09-20T09:46:34.999Z</time>
      </trkpt>
      <trkpt lat="42.81624" lon="2.38056">
        <ele>355.72</ele>
        <time>2024-09-20T09:46:39.999Z</time>
      </trkpt>
      <trkpt lat="42.81611" lon="2.38075">
        <ele>354.63</ele>
        <time>2024-09-20T09:46:44.999Z</time>
      </trkpt>
      <trkpt lat="42.81602" lon="2.38102">
        <ele>353.93</ele>
        <time>2024-09-20T09:46:49.999Z</time>
      </trkpt>
      <trkpt lat="42.81593" lon="2.38131">
        <ele>353.54</ele>
        <time>2024-09-20T09:46:54.999Z</time>
      </trkpt>
      <trkpt lat="42.81584" lon="2.38161">
        <ele>353.29</ele>
        <time>2024-09-20T09:46:59.999Z</time>
      </trkpt>
      <trkpt lat="42.81574" lon="2.38191">
        <ele>353.12</ele>
        <time>2024-09-20T09:47:04.999Z</time>
      </trkpt>
      <trkpt lat="42.81566" lon="2.38221">
        <ele>352.98</ele>
        <time>2024-09-20T09:47:09.999Z</time>
      </trkpt>
      <trkpt lat="42.81557" lon="2.38246">
        <ele>352.93</ele>
        <time>2024-09-20T09:47:14.999Z</time>
      </trkpt>
      <trkpt lat="42.8155" lon="2.38269">
        <ele>352.91</ele>
        <time>2024-09-20T09:47:19.999Z</time>
      </trkpt>
      <trkpt lat="42.81544" lon="2.38295">
        <ele>352.86</ele>
        <time>2024-09-20T09:47:24.999Z</time>
      </trkpt>
      <trkpt lat="42.81538" lon="2.38327">
        <ele>352.75</ele>
        <time>2024-09-20T09:47:29.999Z</time>
      </trkpt>
      <trkpt lat="42.81535" lon="2.38354">
        <ele>352.73</ele>
        <time>2024-09-20T09:47:34.999Z</time>
      </trkpt>
      <trkpt lat="42.81531" lon="2.38377">
        <ele>352.73</ele>
        <time>2024-09-20T09:47:39.999Z</time>
      </trkpt>
      <trkpt lat="42.81527" lon="2.38399">
        <ele>352.73</ele>
        <time>2024-09-20T09:47:44.999Z</time>
      </trkpt>
      <trkpt lat="42.81523" lon="2.38421">
        <ele>352.73</ele>
        <time>2024-09-20T09:47:49.999Z</time>
      </trkpt>
      <trkpt lat="42.81519" lon="2.38443">
        <ele>352.73</ele>
        <time>2024-09-20T09:47:54.999Z</time>
      </trkpt>
      <trkpt lat="42.81516" lon="2.38466">
        <ele>352.74</ele>
        <time>2024-09-20T09:47:59.999Z</time>
      </trkpt>
      <trkpt lat="42.81516" lon="2.3849">
        <ele>352.74</ele>
        <time>2024-09-20T09:48:04.999Z</time>
      </trkpt>
      <trkpt lat="42.81524" lon="2.3851">
        <ele>352.75</ele>
        <time>2024-09-20T09:48:09.999Z</time>
      </trkpt>
      <trkpt lat="42.81536" lon="2.38524">
        <ele>352.74</ele>
        <time>2024-09-20T09:48:14.999Z</time>
      </trkpt>
      <trkpt lat="42.8155" lon="2.38538">
        <ele>352.72</ele>
        <time>2024-09-20T09:48:19.999Z</time>
      </trkpt>
      <trkpt lat="42.81561" lon="2.38554">
        <ele>352.69</ele>
        <time>2024-09-20T09:48:24.999Z</time>
      </trkpt>
      <trkpt lat="42.8157" lon="2.38572">
        <ele>352.65</ele>
        <time>2024-09-20T09:48:29.999Z</time>
      </trkpt>
      <trkpt lat="42.81578" lon="2.38591">
        <ele>352.62</ele>
        <time>2024-09-20T09:48:34.999Z</time>
      </trkpt>
      <trkpt lat="42.81586" lon="2.38611">
        <ele>352.59</ele>
        <time>2024-09-20T09:48:39.999Z</time>
      </trkpt>
      <trkpt lat="42.81592" lon="2.3863">
        <ele>352.56</ele>
        <time>2024-09-20T09:48:44.999Z</time>
      </trkpt>
      <trkpt lat="42.81596" lon="2.38649">
        <ele>352.53</ele>
        <time>2024-09-20T09:48:49.999Z</time>
      </trkpt>
      <trkpt lat="42.81599" lon="2.38669">
        <ele>352.51</ele>
        <time>2024-09-20T09:48:54.999Z</time>
      </trkpt>
      <trkpt lat="42.81603" lon="2.3869">
        <ele>352.5</ele>
        <time>2024-09-20T09:48:59.999Z</time>
      </trkpt>
      <trkpt lat="42.81613" lon="2.38706">
        <ele>352.49</ele>
        <time>2024-09-20T09:49:04.999Z</time>
      </trkpt>
      <trkpt lat="42.81627" lon="2.38716">
        <ele>352.47</ele>
        <time>2024-09-20T09:49:09.999Z</time>
      </trkpt>
      <trkpt lat="42.81641" lon="2.38728">
        <ele>352.45</ele>
        <time>2024-09-20T09:49:14.999Z</time>
      </trkpt>
      <trkpt lat="42.81651" lon="2.38747">
        <ele>352.42</ele>
        <time>2024-09-20T09:49:19.999Z</time>
      </trkpt>
      <trkpt lat="42.81653" lon="2.38771">
        <ele>352.4</ele>
        <time>2024-09-20T09:49:24.999Z</time>
      </trkpt>
      <trkpt lat="42.81653" lon="2.38791">
        <ele>352.37</ele>
        <time>2024-09-20T09:49:29.999Z</time>
      </trkpt>
      <trkpt lat="42.81652" lon="2.3881">
        <ele>352.36</ele>
        <time>2024-09-20T09:49:34.999Z</time>
      </trkpt>
      <trkpt lat="42.81649" lon="2.38829">
        <ele>352.35</ele>
        <time>2024-09-20T09:49:39.999Z</time>
      </trkpt>
      <trkpt lat="42.81645" lon="2.38848">
        <ele>352.35</ele>
        <time>2024-09-20T09:49:44.999Z</time>
      </trkpt>
      <trkpt lat="42.81638" lon="2.38867">
        <ele>352.35</ele>
        <time>2024-09-20T09:49:49.999Z</time>
      </trkpt>
      <trkpt lat="42.81631" lon="2.38885">
        <ele>352.37</ele>
        <time>2024-09-20T09:49:54.999Z</time>
      </trkpt>
      <trkpt lat="42.81624" lon="2.38903">
        <ele>352.4</ele>
        <time>2024-09-20T09:49:59.999Z</time>
      </trkpt>
      <trkpt lat="42.81618" lon="2.38921">
        <ele>352.44</ele>
        <time>2024-09-20T09:50:04.999Z</time>
      </trkpt>
      <trkpt lat="42.81611" lon="2.3894">
        <ele>352.5</ele>
        <time>2024-09-20T09:50:09.999Z</time>
      </trkpt>
      <trkpt lat="42.81604" lon="2.38961">
        <ele>352.57</ele>
        <time>2024-09-20T09:50:14.999Z</time>
      </trkpt>
      <trkpt lat="42.81597" lon="2.38982">
        <ele>352.64</ele>
        <time>2024-09-20T09:50:19.999Z</time>
      </trkpt>
      <trkpt lat="42.81591" lon="2.39001">
        <ele>352.73</ele>
        <time>2024-09-20T09:50:24.999Z</time>
      </trkpt>
      <trkpt lat="42.81584" lon="2.3902">
        <ele>352.82</ele>
        <time>2024-09-20T09:50:29.999Z</time>
      </trkpt>
      <trkpt lat="42.81577" lon="2.3904">
        <ele>352.91</ele>
        <time>2024-09-20T09:50:34.999Z</time>
      </trkpt>
      <trkpt lat="42.81571" lon="2.39062">
        <ele>353.01</ele>
        <time>2024-09-20T09:50:40.000Z</time>
      </trkpt>
      <trkpt lat="42.81564" lon="2.39083">
        <ele>353.11</ele>
        <time>2024-09-20T09:50:45.000Z</time>
      </trkpt>
      <trkpt lat="42.81557" lon="2.39106">
        <ele>353.21</ele>
        <time>2024-09-20T09:50:50.000Z</time>
      </trkpt>
      <trkpt lat="42.8155" lon="2.39128">
        <ele>353.32</ele>
        <time>2024-09-20T09:50:55.000Z</time>
      </trkpt>
      <trkpt lat="42.81544" lon="2.39152">
        <ele>354.07</ele>
        <time>2024-09-20T09:51:00.000Z</time>
      </trkpt>
      <trkpt lat="42.81534" lon="2.39177">
        <ele>354.4</ele>
        <time>2024-09-20T09:51:05.000Z</time>
      </trkpt>
      <trkpt lat="42.81521" lon="2.39194">
        <ele>354.5</ele>
        <time>2024-09-20T09:51:10.000Z</time>
      </trkpt>
      <trkpt lat="42.81503" lon="2.39206">
        <ele>354.53</ele>
        <time>2024-09-20T09:51:15.000Z</time>
      </trkpt>
      <trkpt lat="42.81484" lon="2.39208">
        <ele>354.64</ele>
        <time>2024-09-20T09:51:20.000Z</time>
      </trkpt>
      <trkpt lat="42.81465" lon="2.39217">
        <ele>354.75</ele>
        <time>2024-09-20T09:51:25.000Z</time>
      </trkpt>
      <trkpt lat="42.81452" lon="2.39245">
        <ele>354.82</ele>
        <time>2024-09-20T09:51:30.000Z</time>
      </trkpt>
      <trkpt lat="42.81443" lon="2.39275">
        <ele>354.85</ele>
        <time>2024-09-20T09:51:35.000Z</time>
      </trkpt>
      <trkpt lat="42.81434" lon="2.39305">
        <ele>354.82</ele>
        <time>2024-09-20T09:51:40.000Z</time>
      </trkpt>
      <trkpt lat="42.81425" lon="2.39334">
        <ele>354.76</ele>
        <time>2024-09-20T09:51:45.000Z</time>
      </trkpt>
      <trkpt lat="42.81415" lon="2.39367">
        <ele>354.65</ele>
        <time>2024-09-20T09:51:50.000Z</time>
      </trkpt>
      <trkpt lat="42.81406" lon="2.39403">
        <ele>354.5</ele>
        <time>2024-09-20T09:51:55.000Z</time>
      </trkpt>
      <trkpt lat="42.81396" lon="2.39442">
        <ele>354.31</ele>
        <time>2024-09-20T09:52:00.000Z</time>
      </trkpt>
      <trkpt lat="42.81385" lon="2.39483">
        <ele>354.03</ele>
        <time>2024-09-20T09:52:05.000Z</time>
      </trkpt>
      <trkpt lat="42.81374" lon="2.39526">
        <ele>353.48</ele>
        <time>2024-09-20T09:52:10.000Z</time>
      </trkpt>
      <trkpt lat="42.81362" lon="2.3957">
        <ele>353.03</ele>
        <time>2024-09-20T09:52:15.000Z</time>
      </trkpt>
      <trkpt lat="42.81354" lon="2.39614">
        <ele>352.42</ele>
        <time>2024-09-20T09:52:20.000Z</time>
      </trkpt>
      <trkpt lat="42.81367" lon="2.39653">
        <ele>351.79</ele>
        <time>2024-09-20T09:52:25.000Z</time>
      </trkpt>
      <trkpt lat="42.81395" lon="2.39671">
        <ele>351.39</ele>
        <time>2024-09-20T09:52:30.000Z</time>
      </trkpt>
      <trkpt lat="42.81421" lon="2.39687">
        <ele>350.4</ele>
        <time>2024-09-20T09:52:35.000Z</time>
      </trkpt>
      <trkpt lat="42.81438" lon="2.39709">
        <ele>349.31</ele>
        <time>2024-09-20T09:52:40.000Z</time>
      </trkpt>
      <trkpt lat="42.8144" lon="2.39734">
        <ele>348.89</ele>
        <time>2024-09-20T09:52:45.000Z</time>
      </trkpt>
      <trkpt lat="42.81439" lon="2.39719">
        <ele>349.03</ele>
        <time>2024-09-20T09:53:01.000Z</time>
      </trkpt>
      <trkpt lat="42.81431" lon="2.39696">
        <ele>348.9</ele>
        <time>2024-09-20T09:53:06.000Z</time>
      </trkpt>
      <trkpt lat="42.81414" lon="2.39679">
        <ele>348.76</ele>
        <time>2024-09-20T09:53:11.000Z</time>
      </trkpt>
      <trkpt lat="42.81396" lon="2.39667">
        <ele>348.62</ele>
        <time>2024-09-20T09:53:16.000Z</time>
      </trkpt>
      <trkpt lat="42.81378" lon="2.39655">
        <ele>348.54</ele>
        <time>2024-09-20T09:53:21.000Z</time>
      </trkpt>
      <trkpt lat="42.81363" lon="2.3964">
        <ele>348.33</ele>
        <time>2024-09-20T09:53:26.000Z</time>
      </trkpt>
      <trkpt lat="42.81356" lon="2.3962">
        <ele>348.23</ele>
        <time>2024-09-20T09:53:31.000Z</time>
      </trkpt>
      <trkpt lat="42.81351" lon="2.39606">
        <ele>348.09</ele>
        <time>2024-09-20T09:53:36.000Z</time>
      </trkpt>
      <trkpt lat="42.81347" lon="2.39617">
        <ele>347.89</ele>
        <time>2024-09-20T09:54:08.000Z</time>
      </trkpt>
      <trkpt lat="42.81341" lon="2.39634">
        <ele>347.83</ele>
        <time>2024-09-20T09:54:13.000Z</time>
      </trkpt>
      <trkpt lat="42.81333" lon="2.39654">
        <ele>347.51</ele>
        <time>2024-09-20T09:54:18.000Z</time>
      </trkpt>
      <trkpt lat="42.81322" lon="2.3968">
        <ele>347</ele>
        <time>2024-09-20T09:54:23.000Z</time>
      </trkpt>
      <trkpt lat="42.81311" lon="2.39709">
        <ele>346.7</ele>
        <time>2024-09-20T09:54:28.000Z</time>
      </trkpt>
      <trkpt lat="42.81302" lon="2.39728">
        <ele>346.59</ele>
        <time>2024-09-20T09:54:33.000Z</time>
      </trkpt>
      <trkpt lat="42.81293" lon="2.39744">
        <ele>346.51</ele>
        <time>2024-09-20T09:54:38.000Z</time>
      </trkpt>
      <trkpt lat="42.81284" lon="2.39764">
        <ele>346.02</ele>
        <time>2024-09-20T09:54:43.000Z</time>
      </trkpt>
      <trkpt lat="42.81277" lon="2.39791">
        <ele>345.14</ele>
        <time>2024-09-20T09:54:48.000Z</time>
      </trkpt>
      <trkpt lat="42.81267" lon="2.39816">
        <ele>344.54</ele>
        <time>2024-09-20T09:54:53.000Z</time>
      </trkpt>
      <trkpt lat="42.81252" lon="2.39836">
        <ele>344.14</ele>
        <time>2024-09-20T09:54:58.000Z</time>
      </trkpt>
      <trkpt lat="42.81242" lon="2.39866">
        <ele>343.72</ele>
        <time>2024-09-20T09:55:03.000Z</time>
      </trkpt>
      <trkpt lat="42.81232" lon="2.39896">
        <ele>343.33</ele>
        <time>2024-09-20T09:55:08.000Z</time>
      </trkpt>
      <trkpt lat="42.81226" lon="2.39915">
        <ele>343.27</ele>
        <time>2024-09-20T09:55:13.000Z</time>
      </trkpt>
      <trkpt lat="42.81218" lon="2.39931">
        <ele>343.21</ele>
        <time>2024-09-20T09:55:18.000Z</time>
      </trkpt>
      <trkpt lat="42.8121" lon="2.39949">
        <ele>343.13</ele>
        <time>2024-09-20T09:55:23.000Z</time>
      </trkpt>
      <trkpt lat="42.81203" lon="2.39965">
        <ele>343.05</ele>
        <time>2024-09-20T09:55:28.000Z</time>
      </trkpt>
      <trkpt lat="42.81198" lon="2.39983">
        <ele>342.96</ele>
        <time>2024-09-20T09:55:33.000Z</time>
      </trkpt>
      <trkpt lat="42.81192" lon="2.40003">
        <ele>342.88</ele>
        <time>2024-09-20T09:55:38.000Z</time>
      </trkpt>
      <trkpt lat="42.81183" lon="2.40027">
        <ele>342.53</ele>
        <time>2024-09-20T09:55:43.000Z</time>
      </trkpt>
      <trkpt lat="42.81176" lon="2.40049">
        <ele>342.51</ele>
        <time>2024-09-20T09:55:48.000Z</time>
      </trkpt>
      <trkpt lat="42.8117" lon="2.40068">
        <ele>342.49</ele>
        <time>2024-09-20T09:55:53.000Z</time>
      </trkpt>
      <trkpt lat="42.81163" lon="2.40087">
        <ele>342.47</ele>
        <time>2024-09-20T09:55:58.000Z</time>
      </trkpt>
      <trkpt lat="42.81156" lon="2.40113">
        <ele>342.23</ele>
        <time>2024-09-20T09:56:03.000Z</time>
      </trkpt>
      <trkpt lat="42.81147" lon="2.40146">
        <ele>342.03</ele>
        <time>2024-09-20T09:56:08.000Z</time>
      </trkpt>
      <trkpt lat="42.81139" lon="2.40175">
        <ele>341.9</ele>
        <time>2024-09-20T09:56:13.000Z</time>
      </trkpt>
      <trkpt lat="42.81132" lon="2.40195">
        <ele>341.88</ele>
        <time>2024-09-20T09:56:18.000Z</time>
      </trkpt>
      <trkpt lat="42.81128" lon="2.40216">
        <ele>341.84</ele>
        <time>2024-09-20T09:56:23.000Z</time>
      </trkpt>
      <trkpt lat="42.8113" lon="2.40251">
        <ele>341.53</ele>
        <time>2024-09-20T09:56:28.000Z</time>
      </trkpt>
      <trkpt lat="42.81123" lon="2.4028">
        <ele>341.4</ele>
        <time>2024-09-20T09:56:33.000Z</time>
      </trkpt>
      <trkpt lat="42.81117" lon="2.40292">
        <ele>341.37</ele>
        <time>2024-09-20T09:56:38.000Z</time>
      </trkpt>
      <trkpt lat="42.81111" lon="2.40302">
        <ele>341.32</ele>
        <time>2024-09-20T09:56:43.000Z</time>
      </trkpt>
      <trkpt lat="42.81105" lon="2.40318">
        <ele>341.25</ele>
        <time>2024-09-20T09:56:48.000Z</time>
      </trkpt>
      <trkpt lat="42.81102" lon="2.40334">
        <ele>341.16</ele>
        <time>2024-09-20T09:56:53.000Z</time>
      </trkpt>
      <trkpt lat="42.811" lon="2.40353">
        <ele>341.06</ele>
        <time>2024-09-20T09:56:58.000Z</time>
      </trkpt>
      <trkpt lat="42.81098" lon="2.4037">
        <ele>340.97</ele>
        <time>2024-09-20T09:57:03.000Z</time>
      </trkpt>
      <trkpt lat="42.81094" lon="2.40386">
        <ele>340.88</ele>
        <time>2024-09-20T09:57:08.000Z</time>
      </trkpt>
      <trkpt lat="42.81091" lon="2.40401">
        <ele>340.8</ele>
        <time>2024-09-20T09:57:13.000Z</time>
      </trkpt>
      <trkpt lat="42.81088" lon="2.40416">
        <ele>340.73</ele>
        <time>2024-09-20T09:57:18.000Z</time>
      </trkpt>
      <trkpt lat="42.81086" lon="2.40433">
        <ele>340.65</ele>
        <time>2024-09-20T09:57:23.000Z</time>
      </trkpt>
      <trkpt lat="42.81083" lon="2.40448">
        <ele>340.59</ele>
        <time>2024-09-20T09:57:28.000Z</time>
      </trkpt>
      <trkpt lat="42.8108" lon="2.40464">
        <ele>340.52</ele>
        <time>2024-09-20T09:57:33.000Z</time>
      </trkpt>
      <trkpt lat="42.81076" lon="2.4048">
        <ele>340.46</ele>
        <time>2024-09-20T09:57:38.000Z</time>
      </trkpt>
      <trkpt lat="42.8107" lon="2.40492">
        <ele>340.4</ele>
        <time>2024-09-20T09:57:43.000Z</time>
      </trkpt>
      <trkpt lat="42.81065" lon="2.40507">
        <ele>340.33</ele>
        <time>2024-09-20T09:57:48.000Z</time>
      </trkpt>
      <trkpt lat="42.81063" lon="2.40525">
        <ele>340.27</ele>
        <time>2024-09-20T09:57:53.000Z</time>
      </trkpt>
      <trkpt lat="42.81061" lon="2.40539">
        <ele>340.22</ele>
        <time>2024-09-20T09:57:58.000Z</time>
      </trkpt>
      <trkpt lat="42.8106" lon="2.40556">
        <ele>340.17</ele>
        <time>2024-09-20T09:58:03.000Z</time>
      </trkpt>
      <trkpt lat="42.8106" lon="2.40572">
        <ele>340.14</ele>
        <time>2024-09-20T09:58:08.000Z</time>
      </trkpt>
      <trkpt lat="42.81061" lon="2.40587">
        <ele>340.11</ele>
        <time>2024-09-20T09:58:13.000Z</time>
      </trkpt>
      <trkpt lat="42.81062" lon="2.40604">
        <ele>340.09</ele>
        <time>2024-09-20T09:58:18.000Z</time>
      </trkpt>
      <trkpt lat="42.81064" lon="2.4062">
        <ele>340.08</ele>
        <time>2024-09-20T09:58:23.000Z</time>
      </trkpt>
      <trkpt lat="42.81067" lon="2.40635">
        <ele>340.08</ele>
        <time>2024-09-20T09:58:28.000Z</time>
      </trkpt>
      <trkpt lat="42.8107" lon="2.40651">
        <ele>340.09</ele>
        <time>2024-09-20T09:58:33.000Z</time>
      </trkpt>
      <trkpt lat="42.81073" lon="2.40665">
        <ele>340.1</ele>
        <time>2024-09-20T09:58:38.000Z</time>
      </trkpt>
      <trkpt lat="42.81077" lon="2.4068">
        <ele>340.12</ele>
        <time>2024-09-20T09:58:43.000Z</time>
      </trkpt>
      <trkpt lat="42.8108" lon="2.40694">
        <ele>340.14</ele>
        <time>2024-09-20T09:58:48.000Z</time>
      </trkpt>
      <trkpt lat="42.81083" lon="2.4071">
        <ele>340.16</ele>
        <time>2024-09-20T09:58:53.000Z</time>
      </trkpt>
      <trkpt lat="42.81089" lon="2.40722">
        <ele>340.18</ele>
        <time>2024-09-20T09:58:58.000Z</time>
      </trkpt>
      <trkpt lat="42.81103" lon="2.40725">
        <ele>340.21</ele>
        <time>2024-09-20T09:59:03.000Z</time>
      </trkpt>
      <trkpt lat="42.81113" lon="2.40736">
        <ele>340.23</ele>
        <time>2024-09-20T09:59:08.000Z</time>
      </trkpt>
      <trkpt lat="42.81122" lon="2.40745">
        <ele>340.26</ele>
        <time>2024-09-20T09:59:13.000Z</time>
      </trkpt>
      <trkpt lat="42.81131" lon="2.40754">
        <ele>340.3</ele>
        <time>2024-09-20T09:59:19.000Z</time>
      </trkpt>
      <trkpt lat="42.81135" lon="2.40766">
        <ele>340.35</ele>
        <time>2024-09-20T09:59:26.000Z</time>
      </trkpt>
      <trkpt lat="42.81133" lon="2.40779">
        <ele>340.39</ele>
        <time>2024-09-20T09:59:32.000Z</time>
      </trkpt>
      <trkpt lat="42.81128" lon="2.40791">
        <ele>340.44</ele>
        <time>2024-09-20T09:59:38.000Z</time>
      </trkpt>
      <trkpt lat="42.81133" lon="2.40779">
        <ele>341.45</ele>
        <time>2024-09-20T10:02:19.000Z</time>
      </trkpt>
      <trkpt lat="42.81128" lon="2.4079">
        <ele>342.14</ele>
        <time>2024-09-20T10:03:34.999Z</time>
      </trkpt>
      <trkpt lat="42.81121" lon="2.40804">
        <ele>342.23</ele>
        <time>2024-09-20T10:03:39.999Z</time>
      </trkpt>
      <trkpt lat="42.81113" lon="2.40821">
        <ele>342.3</ele>
        <time>2024-09-20T10:03:44.999Z</time>
      </trkpt>
      <trkpt lat="42.81105" lon="2.40837">
        <ele>342.36</ele>
        <time>2024-09-20T10:03:49.999Z</time>
      </trkpt>
      <trkpt lat="42.81095" lon="2.40857">
        <ele>342.41</ele>
        <time>2024-09-20T10:03:54.999Z</time>
      </trkpt>
      <trkpt lat="42.81085" lon="2.40875">
        <ele>342.45</ele>
        <time>2024-09-20T10:03:59.999Z</time>
      </trkpt>
      <trkpt lat="42.81077" lon="2.40894">
        <ele>342.49</ele>
        <time>2024-09-20T10:04:04.999Z</time>
      </trkpt>
      <trkpt lat="42.81069" lon="2.40911">
        <ele>342.52</ele>
        <time>2024-09-20T10:04:09.999Z</time>
      </trkpt>
      <trkpt lat="42.81061" lon="2.40923">
        <ele>342.54</ele>
        <time>2024-09-20T10:04:14.999Z</time>
      </trkpt>
      <trkpt lat="42.81053" lon="2.40936">
        <ele>342.55</ele>
        <time>2024-09-20T10:04:19.999Z</time>
      </trkpt>
      <trkpt lat="42.81047" lon="2.40956">
        <ele>342.54</ele>
        <time>2024-09-20T10:04:24.999Z</time>
      </trkpt>
      <trkpt lat="42.81039" lon="2.40981">
        <ele>342.44</ele>
        <time>2024-09-20T10:04:29.999Z</time>
      </trkpt>
      <trkpt lat="42.81034" lon="2.41006">
        <ele>342.35</ele>
        <time>2024-09-20T10:04:34.999Z</time>
      </trkpt>
      <trkpt lat="42.81026" lon="2.4103">
        <ele>342.3</ele>
        <time>2024-09-20T10:04:39.999Z</time>
      </trkpt>
      <trkpt lat="42.81019" lon="2.41055">
        <ele>342.13</ele>
        <time>2024-09-20T10:04:44.999Z</time>
      </trkpt>
      <trkpt lat="42.81011" lon="2.41081">
        <ele>341.98</ele>
        <time>2024-09-20T10:04:49.999Z</time>
      </trkpt>
      <trkpt lat="42.81002" lon="2.41103">
        <ele>341.91</ele>
        <time>2024-09-20T10:04:54.999Z</time>
      </trkpt>
      <trkpt lat="42.80994" lon="2.4112">
        <ele>341.89</ele>
        <time>2024-09-20T10:04:59.999Z</time>
      </trkpt>
      <trkpt lat="42.80985" lon="2.41137">
        <ele>341.84</ele>
        <time>2024-09-20T10:05:04.999Z</time>
      </trkpt>
      <trkpt lat="42.80977" lon="2.41154">
        <ele>341.78</ele>
        <time>2024-09-20T10:05:09.999Z</time>
      </trkpt>
      <trkpt lat="42.8097" lon="2.41174">
        <ele>341.71</ele>
        <time>2024-09-20T10:05:14.999Z</time>
      </trkpt>
      <trkpt lat="42.80965" lon="2.41201">
        <ele>341.17</ele>
        <time>2024-09-20T10:05:19.999Z</time>
      </trkpt>
      <trkpt lat="42.80961" lon="2.41227">
        <ele>340.94</ele>
        <time>2024-09-20T10:05:24.999Z</time>
      </trkpt>
      <trkpt lat="42.80958" lon="2.41252">
        <ele>340.8</ele>
        <time>2024-09-20T10:05:29.999Z</time>
      </trkpt>
      <trkpt lat="42.80956" lon="2.4128">
        <ele>340.6</ele>
        <time>2024-09-20T10:05:34.999Z</time>
      </trkpt>
      <trkpt lat="42.80951" lon="2.41304">
        <ele>340.46</ele>
        <time>2024-09-20T10:05:39.999Z</time>
      </trkpt>
      <trkpt lat="42.80942" lon="2.41325">
        <ele>340.38</ele>
        <time>2024-09-20T10:05:44.999Z</time>
      </trkpt>
      <trkpt lat="42.80938" lon="2.41351">
        <ele>340.3</ele>
        <time>2024-09-20T10:05:49.999Z</time>
      </trkpt>
      <trkpt lat="42.80936" lon="2.41372">
        <ele>340.27</ele>
        <time>2024-09-20T10:05:54.999Z</time>
      </trkpt>
      <trkpt lat="42.80932" lon="2.41399">
        <ele>340.05</ele>
        <time>2024-09-20T10:05:59.999Z</time>
      </trkpt>
      <trkpt lat="42.80935" lon="2.41425">
        <ele>339.99</ele>
        <time>2024-09-20T10:06:04.999Z</time>
      </trkpt>
      <trkpt lat="42.80934" lon="2.41449">
        <ele>339.98</ele>
        <time>2024-09-20T10:06:09.999Z</time>
      </trkpt>
      <trkpt lat="42.8093" lon="2.41469">
        <ele>339.96</ele>
        <time>2024-09-20T10:06:14.999Z</time>
      </trkpt>
      <trkpt lat="42.80922" lon="2.41486">
        <ele>339.94</ele>
        <time>2024-09-20T10:06:19.999Z</time>
      </trkpt>
      <trkpt lat="42.80916" lon="2.41506">
        <ele>339.89</ele>
        <time>2024-09-20T10:06:24.999Z</time>
      </trkpt>
      <trkpt lat="42.80914" lon="2.41528">
        <ele>339.83</ele>
        <time>2024-09-20T10:06:29.999Z</time>
      </trkpt>
      <trkpt lat="42.80911" lon="2.41547">
        <ele>339.77</ele>
        <time>2024-09-20T10:06:34.999Z</time>
      </trkpt>
      <trkpt lat="42.8091" lon="2.41572">
        <ele>339.7</ele>
        <time>2024-09-20T10:06:39.999Z</time>
      </trkpt>
      <trkpt lat="42.80907" lon="2.41592">
        <ele>339.63</ele>
        <time>2024-09-20T10:06:44.999Z</time>
      </trkpt>
      <trkpt lat="42.80907" lon="2.41611">
        <ele>339.56</ele>
        <time>2024-09-20T10:06:49.999Z</time>
      </trkpt>
      <trkpt lat="42.80903" lon="2.41623">
        <ele>338.96</ele>
        <time>2024-09-20T10:08:17.999Z</time>
      </trkpt>
      <trkpt lat="42.80902" lon="2.41645">
        <ele>338.84</ele>
        <time>2024-09-20T10:08:22.999Z</time>
      </trkpt>
      <trkpt lat="42.80901" lon="2.41666">
        <ele>338.73</ele>
        <time>2024-09-20T10:08:27.999Z</time>
      </trkpt>
      <trkpt lat="42.80896" lon="2.41676">
        <ele>338.42</ele>
        <time>2024-09-20T10:09:04.999Z</time>
      </trkpt>
      <trkpt lat="42.80891" lon="2.41687">
        <ele>336.69</ele>
        <time>2024-09-20T10:09:56.999Z</time>
      </trkpt>
      <trkpt lat="42.80883" lon="2.41681">
        <ele>334.81</ele>
        <time>2024-09-20T10:11:09.999Z</time>
      </trkpt>
      <trkpt lat="42.80874" lon="2.41675">
        <ele>334.34</ele>
        <time>2024-09-20T10:11:23.999Z</time>
      </trkpt>
      <trkpt lat="42.80865" lon="2.41672">
        <ele>334.01</ele>
        <time>2024-09-20T10:11:30.999Z</time>
      </trkpt>
      <trkpt lat="42.80855" lon="2.41669">
        <ele>333.68</ele>
        <time>2024-09-20T10:11:37.999Z</time>
      </trkpt>
      <trkpt lat="42.80846" lon="2.41671">
        <ele>333.31</ele>
        <time>2024-09-20T10:11:45.999Z</time>
      </trkpt>
      <trkpt lat="42.80837" lon="2.41675">
        <ele>332.89</ele>
        <time>2024-09-20T10:11:55.999Z</time>
      </trkpt>
      <trkpt lat="42.80829" lon="2.4167">
        <ele>332.63</ele>
        <time>2024-09-20T10:12:02.999Z</time>
      </trkpt>
      <trkpt lat="42.80819" lon="2.41665">
        <ele>332.34</ele>
        <time>2024-09-20T10:12:10.999Z</time>
      </trkpt>
      <trkpt lat="42.8081" lon="2.41663">
        <ele>332.12</ele>
        <time>2024-09-20T10:12:16.999Z</time>
      </trkpt>
      <trkpt lat="42.80801" lon="2.41657">
        <ele>330.91</ele>
        <time>2024-09-20T10:13:51.999Z</time>
      </trkpt>
      <trkpt lat="42.80792" lon="2.41653">
        <ele>330.65</ele>
        <time>2024-09-20T10:13:59.999Z</time>
      </trkpt>
      <trkpt lat="42.80784" lon="2.41647">
        <ele>330.43</ele>
        <time>2024-09-20T10:14:07.999Z</time>
      </trkpt>
      <trkpt lat="42.80776" lon="2.41654">
        <ele>330.21</ele>
        <time>2024-09-20T10:14:16.999Z</time>
      </trkpt>
      <trkpt lat="42.80769" lon="2.41664">
        <ele>330.04</ele>
        <time>2024-09-20T10:14:23.999Z</time>
      </trkpt>
      <trkpt lat="42.80761" lon="2.41671">
        <ele>329.82</ele>
        <time>2024-09-20T10:14:32.999Z</time>
      </trkpt>
      <trkpt lat="42.80752" lon="2.41677">
        <ele>329.58</ele>
        <time>2024-09-20T10:14:42.999Z</time>
      </trkpt>
      <trkpt lat="42.80744" lon="2.41672">
        <ele>329.14</ele>
        <time>2024-09-20T10:15:09.000Z</time>
      </trkpt>
      <trkpt lat="42.80734" lon="2.41676">
        <ele>328.6</ele>
        <time>2024-09-20T10:15:52.000Z</time>
      </trkpt>
      <trkpt lat="42.80726" lon="2.41681">
        <ele>328.27</ele>
        <time>2024-09-20T10:16:04.000Z</time>
      </trkpt>
      <trkpt lat="42.80719" lon="2.41689">
        <ele>328.01</ele>
        <time>2024-09-20T10:16:14.000Z</time>
      </trkpt>
      <trkpt lat="42.80713" lon="2.41699">
        <ele>327.73</ele>
        <time>2024-09-20T10:16:24.000Z</time>
      </trkpt>
      <trkpt lat="42.80705" lon="2.41706">
        <ele>327.49</ele>
        <time>2024-09-20T10:16:33.000Z</time>
      </trkpt>
      <trkpt lat="42.80696" lon="2.41704">
        <ele>327.29</ele>
        <time>2024-09-20T10:16:41.000Z</time>
      </trkpt>
      <trkpt lat="42.80687" lon="2.4171">
        <ele>327.05</ele>
        <time>2024-09-20T10:16:51.000Z</time>
      </trkpt>
      <trkpt lat="42.80681" lon="2.4172">
        <ele>326.87</ele>
        <time>2024-09-20T10:16:59.000Z</time>
      </trkpt>
      <trkpt lat="42.80678" lon="2.41733">
        <ele>326.68</ele>
        <time>2024-09-20T10:17:08.000Z</time>
      </trkpt>
      <trkpt lat="42.80677" lon="2.41745">
        <ele>326.52</ele>
        <time>2024-09-20T10:17:16.000Z</time>
      </trkpt>
      <trkpt lat="42.80674" lon="2.41758">
        <ele>326.32</ele>
        <time>2024-09-20T10:17:27.000Z</time>
      </trkpt>
      <trkpt lat="42.8067" lon="2.4177">
        <ele>326.18</ele>
        <time>2024-09-20T10:17:36.000Z</time>
      </trkpt>
      <trkpt lat="42.80665" lon="2.41782">
        <ele>326.02</ele>
        <time>2024-09-20T10:17:46.000Z</time>
      </trkpt>
      <trkpt lat="42.80661" lon="2.41795">
        <ele>325.86</ele>
        <time>2024-09-20T10:17:56.000Z</time>
      </trkpt>
      <trkpt lat="42.80661" lon="2.41808">
        <ele>325.72</ele>
        <time>2024-09-20T10:18:05.000Z</time>
      </trkpt>
      <trkpt lat="42.80661" lon="2.41821">
        <ele>325.58</ele>
        <time>2024-09-20T10:18:14.000Z</time>
      </trkpt>
      <trkpt lat="42.80657" lon="2.41832">
        <ele>325.44</ele>
        <time>2024-09-20T10:18:23.000Z</time>
      </trkpt>
      <trkpt lat="42.80653" lon="2.41844">
        <ele>325.29</ele>
        <time>2024-09-20T10:18:33.000Z</time>
      </trkpt>
      <trkpt lat="42.80649" lon="2.41855">
        <ele>325.1</ele>
        <time>2024-09-20T10:18:45.000Z</time>
      </trkpt>
      <trkpt lat="42.80643" lon="2.41866">
        <ele>324.93</ele>
        <time>2024-09-20T10:18:55.000Z</time>
      </trkpt>
      <trkpt lat="42.80636" lon="2.41876">
        <ele>324.77</ele>
        <time>2024-09-20T10:19:05.000Z</time>
      </trkpt>
      <trkpt lat="42.8063" lon="2.41887">
        <ele>324.62</ele>
        <time>2024-09-20T10:19:15.000Z</time>
      </trkpt>
      <trkpt lat="42.80622" lon="2.41894">
        <ele>324.48</ele>
        <time>2024-09-20T10:19:26.000Z</time>
      </trkpt>
      <trkpt lat="42.80613" lon="2.4189">
        <ele>324.38</ele>
        <time>2024-09-20T10:19:35.000Z</time>
      </trkpt>
      <trkpt lat="42.80605" lon="2.41884">
        <ele>324.27</ele>
        <time>2024-09-20T10:19:43.000Z</time>
      </trkpt>
      <trkpt lat="42.806" lon="2.41894">
        <ele>324.11</ele>
        <time>2024-09-20T10:19:54.000Z</time>
      </trkpt>
      <trkpt lat="42.80599" lon="2.41906">
        <ele>323.96</ele>
        <time>2024-09-20T10:20:05.000Z</time>
      </trkpt>
      <trkpt lat="42.80597" lon="2.41919">
        <ele>323.77</ele>
        <time>2024-09-20T10:20:17.000Z</time>
      </trkpt>
      <trkpt lat="42.80595" lon="2.41932">
        <ele>323.65</ele>
        <time>2024-09-20T10:20:25.000Z</time>
      </trkpt>
      <trkpt lat="42.80594" lon="2.41945">
        <ele>323.5</ele>
        <time>2024-09-20T10:20:35.000Z</time>
      </trkpt>
      <trkpt lat="42.80597" lon="2.41957">
        <ele>323.35</ele>
        <time>2024-09-20T10:20:45.000Z</time>
      </trkpt>
      <trkpt lat="42.80603" lon="2.41967">
        <ele>323.22</ele>
        <time>2024-09-20T10:20:55.000Z</time>
      </trkpt>
      <trkpt lat="42.80598" lon="2.41977">
        <ele>323.07</ele>
        <time>2024-09-20T10:21:07.000Z</time>
      </trkpt>
      <trkpt lat="42.80591" lon="2.41985">
        <ele>322.97</ele>
        <time>2024-09-20T10:21:15.000Z</time>
      </trkpt>
      <trkpt lat="42.80587" lon="2.41997">
        <ele>322.87</ele>
        <time>2024-09-20T10:21:24.000Z</time>
      </trkpt>
      <trkpt lat="42.80581" lon="2.42006">
        <ele>322.7</ele>
        <time>2024-09-20T10:21:38.000Z</time>
      </trkpt>
      <trkpt lat="42.80575" lon="2.42016">
        <ele>322.61</ele>
        <time>2024-09-20T10:21:46.000Z</time>
      </trkpt>
      <trkpt lat="42.80573" lon="2.42029">
        <ele>322.16</ele>
        <time>2024-09-20T10:22:55.000Z</time>
      </trkpt>
      <trkpt lat="42.80574" lon="2.42041">
        <ele>322.01</ele>
        <time>2024-09-20T10:23:03.000Z</time>
      </trkpt>
      <trkpt lat="42.8058" lon="2.42051">
        <ele>321.8</ele>
        <time>2024-09-20T10:23:20.000Z</time>
      </trkpt>
      <trkpt lat="42.80576" lon="2.42063">
        <ele>321.56</ele>
        <time>2024-09-20T10:23:46.000Z</time>
      </trkpt>
      <trkpt lat="42.80571" lon="2.42075">
        <ele>321.41</ele>
        <time>2024-09-20T10:23:55.000Z</time>
      </trkpt>
      <trkpt lat="42.80566" lon="2.42086">
        <ele>321.27</ele>
        <time>2024-09-20T10:24:04.000Z</time>
      </trkpt>
      <trkpt lat="42.80561" lon="2.42097">
        <ele>321.14</ele>
        <time>2024-09-20T10:24:14.000Z</time>
      </trkpt>
      <trkpt lat="42.80556" lon="2.42108">
        <ele>321.02</ele>
        <time>2024-09-20T10:24:24.000Z</time>
      </trkpt>
      <trkpt lat="42.80551" lon="2.42119">
        <ele>320.92</ele>
        <time>2024-09-20T10:24:34.000Z</time>
      </trkpt>
      <trkpt lat="42.80551" lon="2.42132">
        <ele>320.82</ele>
        <time>2024-09-20T10:24:45.000Z</time>
      </trkpt>
      <trkpt lat="42.80557" lon="2.42141">
        <ele>320.73</ele>
        <time>2024-09-20T10:24:57.000Z</time>
      </trkpt>
      <trkpt lat="42.80559" lon="2.42154">
        <ele>320.66</ele>
        <time>2024-09-20T10:25:06.000Z</time>
      </trkpt>
      <trkpt lat="42.80564" lon="2.42164">
        <ele>320.59</ele>
        <time>2024-09-20T10:25:19.000Z</time>
      </trkpt>
      <trkpt lat="42.80572" lon="2.42173">
        <ele>320.54</ele>
        <time>2024-09-20T10:25:30.000Z</time>
      </trkpt>
      <trkpt lat="42.80578" lon="2.42182">
        <ele>320.47</ele>
        <time>2024-09-20T10:25:42.000Z</time>
      </trkpt>
      <trkpt lat="42.80587" lon="2.42189">
        <ele>320.42</ele>
        <time>2024-09-20T10:25:51.000Z</time>
      </trkpt>
      <trkpt lat="42.80594" lon="2.42196">
        <ele>320.36</ele>
        <time>2024-09-20T10:26:02.000Z</time>
      </trkpt>
      <trkpt lat="42.806" lon="2.42206">
        <ele>320.24</ele>
        <time>2024-09-20T10:26:31.000Z</time>
      </trkpt>
      <trkpt lat="42.80608" lon="2.42212">
        <ele>320.17</ele>
        <time>2024-09-20T10:26:43.000Z</time>
      </trkpt>
      <trkpt lat="42.80615" lon="2.4222">
        <ele>320.11</ele>
        <time>2024-09-20T10:26:54.000Z</time>
      </trkpt>
      <trkpt lat="42.8062" lon="2.42231">
        <ele>320.06</ele>
        <time>2024-09-20T10:27:03.999Z</time>
      </trkpt>
      <trkpt lat="42.80623" lon="2.42244">
        <ele>319.98</ele>
        <time>2024-09-20T10:27:17.999Z</time>
      </trkpt>
      <trkpt lat="42.80627" lon="2.42255">
        <ele>319.92</ele>
        <time>2024-09-20T10:27:30.999Z</time>
      </trkpt>
      <trkpt lat="42.8063" lon="2.42267">
        <ele>319.88</ele>
        <time>2024-09-20T10:27:43.999Z</time>
      </trkpt>
      <trkpt lat="42.80632" lon="2.4228">
        <ele>319.85</ele>
        <time>2024-09-20T10:27:54.999Z</time>
      </trkpt>
      <trkpt lat="42.80631" lon="2.42292">
        <ele>319.84</ele>
        <time>2024-09-20T10:28:11.999Z</time>
      </trkpt>
      <trkpt lat="42.8063" lon="2.42305">
        <ele>319.84</ele>
        <time>2024-09-20T10:28:23.999Z</time>
      </trkpt>
      <trkpt lat="42.80629" lon="2.42318">
        <ele>319.83</ele>
        <time>2024-09-20T10:29:12.999Z</time>
      </trkpt>
      <trkpt lat="42.80625" lon="2.42329">
        <ele>319.78</ele>
        <time>2024-09-20T10:29:27.999Z</time>
      </trkpt>
      <trkpt lat="42.80619" lon="2.42339">
        <ele>319.71</ele>
        <time>2024-09-20T10:29:41.999Z</time>
      </trkpt>
      <trkpt lat="42.80615" lon="2.42351">
        <ele>318.73</ele>
        <time>2024-09-20T10:32:26.999Z</time>
      </trkpt>
      <trkpt lat="42.80609" lon="2.42367">
        <ele>318.59</ele>
        <time>2024-09-20T10:32:31.999Z</time>
      </trkpt>
      <trkpt lat="42.80601" lon="2.42385">
        <ele>318.46</ele>
        <time>2024-09-20T10:32:36.999Z</time>
      </trkpt>
      <trkpt lat="42.80594" lon="2.42398">
        <ele>318.31</ele>
        <time>2024-09-20T10:32:41.999Z</time>
      </trkpt>
      <trkpt lat="42.80592" lon="2.42417">
        <ele>318.16</ele>
        <time>2024-09-20T10:32:46.999Z</time>
      </trkpt>
      <trkpt lat="42.80592" lon="2.42439">
        <ele>318</ele>
        <time>2024-09-20T10:32:51.999Z</time>
      </trkpt>
      <trkpt lat="42.80577" lon="2.4246">
        <ele>317.84</ele>
        <time>2024-09-20T10:32:56.999Z</time>
      </trkpt>
      <trkpt lat="42.80567" lon="2.4246">
        <ele>317.65</ele>
        <time>2024-09-20T10:33:02.999Z</time>
      </trkpt>
      <trkpt lat="42.80558" lon="2.42467">
        <ele>317.4</ele>
        <time>2024-09-20T10:33:10.999Z</time>
      </trkpt>
      <trkpt lat="42.80556" lon="2.42481">
        <ele>317.25</ele>
        <time>2024-09-20T10:33:15.999Z</time>
      </trkpt>
      <trkpt lat="42.80556" lon="2.42494">
        <ele>317.08</ele>
        <time>2024-09-20T10:33:21.999Z</time>
      </trkpt>
      <trkpt lat="42.8055" lon="2.42504">
        <ele>316.93</ele>
        <time>2024-09-20T10:33:27.999Z</time>
      </trkpt>
      <trkpt lat="42.80542" lon="2.42497">
        <ele>316.76</ele>
        <time>2024-09-20T10:33:34.999Z</time>
      </trkpt>
      <trkpt lat="42.80537" lon="2.42484">
        <ele>316.58</ele>
        <time>2024-09-20T10:33:42.999Z</time>
      </trkpt>
      <trkpt lat="42.80534" lon="2.42469">
        <ele>316.47</ele>
        <time>2024-09-20T10:33:47.999Z</time>
      </trkpt>
      <trkpt lat="42.80529" lon="2.42455">
        <ele>316.38</ele>
        <time>2024-09-20T10:33:52.999Z</time>
      </trkpt>
      <trkpt lat="42.80529" lon="2.4244">
        <ele>316.28</ele>
        <time>2024-09-20T10:33:57.999Z</time>
      </trkpt>
      <trkpt lat="42.80523" lon="2.4243">
        <ele>316.19</ele>
        <time>2024-09-20T10:34:02.999Z</time>
      </trkpt>
      <trkpt lat="42.80513" lon="2.42428">
        <ele>316.11</ele>
        <time>2024-09-20T10:34:07.999Z</time>
      </trkpt>
      <trkpt lat="42.80502" lon="2.42426">
        <ele>316.02</ele>
        <time>2024-09-20T10:34:12.999Z</time>
      </trkpt>
      <trkpt lat="42.80491" lon="2.42422">
        <ele>315.94</ele>
        <time>2024-09-20T10:34:17.999Z</time>
      </trkpt>
      <trkpt lat="42.80479" lon="2.4242">
        <ele>315.85</ele>
        <time>2024-09-20T10:34:22.999Z</time>
      </trkpt>
      <trkpt lat="42.80466" lon="2.42415">
        <ele>315.76</ele>
        <time>2024-09-20T10:34:27.999Z</time>
      </trkpt>
      <trkpt lat="42.80452" lon="2.42412">
        <ele>315.66</ele>
        <time>2024-09-20T10:34:32.999Z</time>
      </trkpt>
      <trkpt lat="42.80436" lon="2.42412">
        <ele>315.57</ele>
        <time>2024-09-20T10:34:37.999Z</time>
      </trkpt>
      <trkpt lat="42.8042" lon="2.42411">
        <ele>315.49</ele>
        <time>2024-09-20T10:34:42.999Z</time>
      </trkpt>
      <trkpt lat="42.80405" lon="2.42407">
        <ele>315.41</ele>
        <time>2024-09-20T10:34:47.999Z</time>
      </trkpt>
      <trkpt lat="42.80395" lon="2.42409">
        <ele>315.33</ele>
        <time>2024-09-20T10:34:52.999Z</time>
      </trkpt>
      <trkpt lat="42.80393" lon="2.42423">
        <ele>315.3</ele>
        <time>2024-09-20T10:37:19.999Z</time>
      </trkpt>
      <trkpt lat="42.80395" lon="2.42449">
        <ele>315.31</ele>
        <time>2024-09-20T10:37:24.999Z</time>
      </trkpt>
      <trkpt lat="42.80397" lon="2.42474">
        <ele>315.31</ele>
        <time>2024-09-20T10:37:29.999Z</time>
      </trkpt>
      <trkpt lat="42.80399" lon="2.425">
        <ele>315.23</ele>
        <time>2024-09-20T10:37:34.999Z</time>
      </trkpt>
      <trkpt lat="42.80401" lon="2.42526">
        <ele>315.08</ele>
        <time>2024-09-20T10:37:39.999Z</time>
      </trkpt>
      <trkpt lat="42.80403" lon="2.42552">
        <ele>314.99</ele>
        <time>2024-09-20T10:37:44.999Z</time>
      </trkpt>
      <trkpt lat="42.80405" lon="2.42575">
        <ele>314.97</ele>
        <time>2024-09-20T10:37:49.999Z</time>
      </trkpt>
      <trkpt lat="42.80407" lon="2.42599">
        <ele>314.93</ele>
        <time>2024-09-20T10:37:54.999Z</time>
      </trkpt>
      <trkpt lat="42.80409" lon="2.42625">
        <ele>314.59</ele>
        <time>2024-09-20T10:37:59.999Z</time>
      </trkpt>
      <trkpt lat="42.80411" lon="2.42651">
        <ele>314.39</ele>
        <time>2024-09-20T10:38:04.999Z</time>
      </trkpt>
      <trkpt lat="42.80414" lon="2.4268">
        <ele>314.22</ele>
        <time>2024-09-20T10:38:09.999Z</time>
      </trkpt>
      <trkpt lat="42.80417" lon="2.42708">
        <ele>314.08</ele>
        <time>2024-09-20T10:38:14.999Z</time>
      </trkpt>
      <trkpt lat="42.80418" lon="2.42734">
        <ele>313.99</ele>
        <time>2024-09-20T10:38:19.999Z</time>
      </trkpt>
      <trkpt lat="42.80422" lon="2.42763">
        <ele>313.85</ele>
        <time>2024-09-20T10:38:24.999Z</time>
      </trkpt>
      <trkpt lat="42.80435" lon="2.42783">
        <ele>313.81</ele>
        <time>2024-09-20T10:38:29.999Z</time>
      </trkpt>
      <trkpt lat="42.8044" lon="2.42804">
        <ele>313.78</ele>
        <time>2024-09-20T10:38:34.999Z</time>
      </trkpt>
      <trkpt lat="42.80439" lon="2.42827">
        <ele>313.59</ele>
        <time>2024-09-20T10:38:39.999Z</time>
      </trkpt>
      <trkpt lat="42.80429" lon="2.42852">
        <ele>313.4</ele>
        <time>2024-09-20T10:38:44.999Z</time>
      </trkpt>
      <trkpt lat="42.80428" lon="2.42874">
        <ele>313.34</ele>
        <time>2024-09-20T10:38:49.999Z</time>
      </trkpt>
      <trkpt lat="42.80428" lon="2.42897">
        <ele>313.18</ele>
        <time>2024-09-20T10:38:54.999Z</time>
      </trkpt>
      <trkpt lat="42.8043" lon="2.42922">
        <ele>313.14</ele>
        <time>2024-09-20T10:38:59.999Z</time>
      </trkpt>
      <trkpt lat="42.80431" lon="2.42945">
        <ele>313.1</ele>
        <time>2024-09-20T10:39:04.999Z</time>
      </trkpt>
      <trkpt lat="42.80432" lon="2.42969">
        <ele>313.05</ele>
        <time>2024-09-20T10:39:09.999Z</time>
      </trkpt>
      <trkpt lat="42.80433" lon="2.42992">
        <ele>313</ele>
        <time>2024-09-20T10:39:15.000Z</time>
      </trkpt>
      <trkpt lat="42.80434" lon="2.43013">
        <ele>312.94</ele>
        <time>2024-09-20T10:39:20.000Z</time>
      </trkpt>
      <trkpt lat="42.80435" lon="2.43039">
        <ele>312.61</ele>
        <time>2024-09-20T10:39:25.000Z</time>
      </trkpt>
      <trkpt lat="42.80437" lon="2.43071">
        <ele>312.28</ele>
        <time>2024-09-20T10:39:30.000Z</time>
      </trkpt>
      <trkpt lat="42.80438" lon="2.43101">
        <ele>312.05</ele>
        <time>2024-09-20T10:39:35.000Z</time>
      </trkpt>
      <trkpt lat="42.80441" lon="2.43128">
        <ele>311.87</ele>
        <time>2024-09-20T10:39:40.000Z</time>
      </trkpt>
      <trkpt lat="42.80444" lon="2.43156">
        <ele>311.72</ele>
        <time>2024-09-20T10:39:45.000Z</time>
      </trkpt>
      <trkpt lat="42.80447" lon="2.43181">
        <ele>311.68</ele>
        <time>2024-09-20T10:39:50.000Z</time>
      </trkpt>
      <trkpt lat="42.80448" lon="2.43207">
        <ele>311.5</ele>
        <time>2024-09-20T10:39:55.000Z</time>
      </trkpt>
      <trkpt lat="42.80451" lon="2.43234">
        <ele>311.33</ele>
        <time>2024-09-20T10:40:00.000Z</time>
      </trkpt>
      <trkpt lat="42.80452" lon="2.4326">
        <ele>311.16</ele>
        <time>2024-09-20T10:40:05.000Z</time>
      </trkpt>
      <trkpt lat="42.80455" lon="2.43286">
        <ele>310.99</ele>
        <time>2024-09-20T10:40:10.000Z</time>
      </trkpt>
      <trkpt lat="42.80457" lon="2.43313">
        <ele>310.82</ele>
        <time>2024-09-20T10:40:15.000Z</time>
      </trkpt>
      <trkpt lat="42.80459" lon="2.43341">
        <ele>310.67</ele>
        <time>2024-09-20T10:40:20.000Z</time>
      </trkpt>
      <trkpt lat="42.80461" lon="2.43365">
        <ele>310.65</ele>
        <time>2024-09-20T10:40:25.000Z</time>
      </trkpt>
      <trkpt lat="42.80462" lon="2.43388">
        <ele>310.62</ele>
        <time>2024-09-20T10:40:30.000Z</time>
      </trkpt>
      <trkpt lat="42.80462" lon="2.43409">
        <ele>310.59</ele>
        <time>2024-09-20T10:40:35.000Z</time>
      </trkpt>
      <trkpt lat="42.80462" lon="2.43431">
        <ele>310.54</ele>
        <time>2024-09-20T10:40:40.000Z</time>
      </trkpt>
      <trkpt lat="42.8046" lon="2.43454">
        <ele>310.49</ele>
        <time>2024-09-20T10:40:45.000Z</time>
      </trkpt>
      <trkpt lat="42.80458" lon="2.43474">
        <ele>310.43</ele>
        <time>2024-09-20T10:40:50.000Z</time>
      </trkpt>
      <trkpt lat="42.80456" lon="2.43493">
        <ele>310.37</ele>
        <time>2024-09-20T10:40:55.000Z</time>
      </trkpt>
      <trkpt lat="42.80457" lon="2.43518">
        <ele>310</ele>
        <time>2024-09-20T10:41:00.000Z</time>
      </trkpt>
      <trkpt lat="42.80457" lon="2.43548">
        <ele>309.62</ele>
        <time>2024-09-20T10:41:05.000Z</time>
      </trkpt>
      <trkpt lat="42.80457" lon="2.43577">
        <ele>309.39</ele>
        <time>2024-09-20T10:41:10.000Z</time>
      </trkpt>
      <trkpt lat="42.80456" lon="2.43601">
        <ele>309.36</ele>
        <time>2024-09-20T10:41:15.000Z</time>
      </trkpt>
      <trkpt lat="42.80456" lon="2.43624">
        <ele>309.32</ele>
        <time>2024-09-20T10:41:20.000Z</time>
      </trkpt>
      <trkpt lat="42.80455" lon="2.43648">
        <ele>309.15</ele>
        <time>2024-09-20T10:41:25.000Z</time>
      </trkpt>
      <trkpt lat="42.80454" lon="2.43674">
        <ele>308.88</ele>
        <time>2024-09-20T10:41:30.000Z</time>
      </trkpt>
      <trkpt lat="42.80453" lon="2.43699">
        <ele>308.81</ele>
        <time>2024-09-20T10:41:35.000Z</time>
      </trkpt>
      <trkpt lat="42.80451" lon="2.43728">
        <ele>308.6</ele>
        <time>2024-09-20T10:41:40.000Z</time>
      </trkpt>
      <trkpt lat="42.8045" lon="2.43758">
        <ele>308.45</ele>
        <time>2024-09-20T10:41:45.000Z</time>
      </trkpt>
      <trkpt lat="42.80449" lon="2.43789">
        <ele>308.33</ele>
        <time>2024-09-20T10:41:50.000Z</time>
      </trkpt>
      <trkpt lat="42.8045" lon="2.43823">
        <ele>308.15</ele>
        <time>2024-09-20T10:41:55.000Z</time>
      </trkpt>
      <trkpt lat="42.80448" lon="2.43855">
        <ele>307.99</ele>
        <time>2024-09-20T10:42:00.000Z</time>
      </trkpt>
      <trkpt lat="42.80447" lon="2.43868">
        <ele>307.97</ele>
        <time>2024-09-20T10:42:05.000Z</time>
      </trkpt>
      <trkpt lat="42.80446" lon="2.4388">
        <ele>307.55</ele>
        <time>2024-09-20T10:43:19.000Z</time>
      </trkpt>
      <trkpt lat="42.80448" lon="2.43868">
        <ele>307.28</ele>
        <time>2024-09-20T10:43:49.000Z</time>
      </trkpt>
      <trkpt lat="42.80449" lon="2.43855">
        <ele>307.07</ele>
        <time>2024-09-20T10:44:03.000Z</time>
      </trkpt>
      <trkpt lat="42.80451" lon="2.43831">
        <ele>306.65</ele>
        <time>2024-09-20T10:44:08.000Z</time>
      </trkpt>
      <trkpt lat="42.80452" lon="2.43802">
        <ele>306.21</ele>
        <time>2024-09-20T10:44:13.000Z</time>
      </trkpt>
      <trkpt lat="42.80452" lon="2.43784">
        <ele>306.17</ele>
        <time>2024-09-20T10:44:18.000Z</time>
      </trkpt>
      <trkpt lat="42.80453" lon="2.43764">
        <ele>306.14</ele>
        <time>2024-09-20T10:44:23.000Z</time>
      </trkpt>
      <trkpt lat="42.80453" lon="2.43745">
        <ele>306.11</ele>
        <time>2024-09-20T10:44:28.000Z</time>
      </trkpt>
      <trkpt lat="42.80453" lon="2.43724">
        <ele>306.08</ele>
        <time>2024-09-20T10:44:33.000Z</time>
      </trkpt>
      <trkpt lat="42.80454" lon="2.43699">
        <ele>305.93</ele>
        <time>2024-09-20T10:44:38.000Z</time>
      </trkpt>
      <trkpt lat="42.80455" lon="2.43682">
        <ele>305.9</ele>
        <time>2024-09-20T10:44:43.000Z</time>
      </trkpt>
      <trkpt lat="42.80456" lon="2.43659">
        <ele>305.87</ele>
        <time>2024-09-20T10:44:48.000Z</time>
      </trkpt>
      <trkpt lat="42.80457" lon="2.43636">
        <ele>305.84</ele>
        <time>2024-09-20T10:44:53.000Z</time>
      </trkpt>
      <trkpt lat="42.80457" lon="2.43612">
        <ele>305.8</ele>
        <time>2024-09-20T10:44:58.000Z</time>
      </trkpt>
      <trkpt lat="42.80458" lon="2.43587">
        <ele>305.63</ele>
        <time>2024-09-20T10:45:03.000Z</time>
      </trkpt>
      <trkpt lat="42.80459" lon="2.43558">
        <ele>305.47</ele>
        <time>2024-09-20T10:45:08.000Z</time>
      </trkpt>
      <trkpt lat="42.80459" lon="2.43529">
        <ele>305.38</ele>
        <time>2024-09-20T10:45:13.000Z</time>
      </trkpt>
      <trkpt lat="42.80458" lon="2.43505">
        <ele>305.36</ele>
        <time>2024-09-20T10:45:18.000Z</time>
      </trkpt>
      <trkpt lat="42.80457" lon="2.4349">
        <ele>305.36</ele>
        <time>2024-09-20T10:45:23.000Z</time>
      </trkpt>
      <trkpt lat="42.80448" lon="2.43487">
        <ele>305.31</ele>
        <time>2024-09-20T10:45:41.000Z</time>
      </trkpt>
      <trkpt lat="42.8044" lon="2.43493">
        <ele>305.27</ele>
        <time>2024-09-20T10:45:58.000Z</time>
      </trkpt>
      <trkpt lat="42.80439" lon="2.43505">
        <ele>305.33</ele>
        <time>2024-09-20T10:46:51.000Z</time>
      </trkpt>
      <trkpt lat="42.8044" lon="2.4352">
        <ele>305.55</ele>
        <time>2024-09-20T10:47:58.000Z</time>
      </trkpt>
      <trkpt lat="42.80439" lon="2.43545">
        <ele>305.62</ele>
        <time>2024-09-20T10:48:03.000Z</time>
      </trkpt>
      <trkpt lat="42.80439" lon="2.43573">
        <ele>306.08</ele>
        <time>2024-09-20T10:48:08.000Z</time>
      </trkpt>
      <trkpt lat="42.80438" lon="2.43602">
        <ele>306.26</ele>
        <time>2024-09-20T10:48:13.000Z</time>
      </trkpt>
      <trkpt lat="42.80438" lon="2.43632">
        <ele>306.32</ele>
        <time>2024-09-20T10:48:18.000Z</time>
      </trkpt>
      <trkpt lat="42.80438" lon="2.43662">
        <ele>306.36</ele>
        <time>2024-09-20T10:48:23.000Z</time>
      </trkpt>
      <trkpt lat="42.80438" lon="2.43692">
        <ele>306.38</ele>
        <time>2024-09-20T10:48:28.000Z</time>
      </trkpt>
      <trkpt lat="42.80438" lon="2.4372">
        <ele>306.4</ele>
        <time>2024-09-20T10:48:33.000Z</time>
      </trkpt>
      <trkpt lat="42.80438" lon="2.43747">
        <ele>306.44</ele>
        <time>2024-09-20T10:48:38.000Z</time>
      </trkpt>
      <trkpt lat="42.80438" lon="2.43773">
        <ele>306.46</ele>
        <time>2024-09-20T10:48:43.000Z</time>
      </trkpt>
      <trkpt lat="42.80438" lon="2.438">
        <ele>306.49</ele>
        <time>2024-09-20T10:48:48.000Z</time>
      </trkpt>
      <trkpt lat="42.80436" lon="2.4383">
        <ele>306.52</ele>
        <time>2024-09-20T10:48:53.000Z</time>
      </trkpt>
      <trkpt lat="42.80433" lon="2.43859">
        <ele>306.51</ele>
        <time>2024-09-20T10:48:58.000Z</time>
      </trkpt>
      <trkpt lat="42.8043" lon="2.43887">
        <ele>306.51</ele>
        <time>2024-09-20T10:49:03.000Z</time>
      </trkpt>
      <trkpt lat="42.80425" lon="2.43914">
        <ele>306.54</ele>
        <time>2024-09-20T10:49:08.000Z</time>
      </trkpt>
      <trkpt lat="42.8042" lon="2.43936">
        <ele>306.55</ele>
        <time>2024-09-20T10:49:13.000Z</time>
      </trkpt>
      <trkpt lat="42.80414" lon="2.4396">
        <ele>306.57</ele>
        <time>2024-09-20T10:49:18.000Z</time>
      </trkpt>
      <trkpt lat="42.80409" lon="2.43984">
        <ele>306.61</ele>
        <time>2024-09-20T10:49:23.000Z</time>
      </trkpt>
      <trkpt lat="42.80402" lon="2.44008">
        <ele>306.66</ele>
        <time>2024-09-20T10:49:28.000Z</time>
      </trkpt>
      <trkpt lat="42.80397" lon="2.44032">
        <ele>306.66</ele>
        <time>2024-09-20T10:49:33.000Z</time>
      </trkpt>
      <trkpt lat="42.80391" lon="2.44055">
        <ele>306.67</ele>
        <time>2024-09-20T10:49:38.000Z</time>
      </trkpt>
      <trkpt lat="42.80386" lon="2.44079">
        <ele>306.68</ele>
        <time>2024-09-20T10:49:43.000Z</time>
      </trkpt>
      <trkpt lat="42.80381" lon="2.44102">
        <ele>306.72</ele>
        <time>2024-09-20T10:49:48.000Z</time>
      </trkpt>
      <trkpt lat="42.80375" lon="2.44128">
        <ele>306.8</ele>
        <time>2024-09-20T10:49:53.000Z</time>
      </trkpt>
      <trkpt lat="42.80369" lon="2.44153">
        <ele>306.82</ele>
        <time>2024-09-20T10:49:58.000Z</time>
      </trkpt>
      <trkpt lat="42.80363" lon="2.44179">
        <ele>306.78</ele>
        <time>2024-09-20T10:50:03.000Z</time>
      </trkpt>
      <trkpt lat="42.80357" lon="2.44206">
        <ele>306.75</ele>
        <time>2024-09-20T10:50:08.000Z</time>
      </trkpt>
      <trkpt lat="42.80354" lon="2.44234">
        <ele>306.73</ele>
        <time>2024-09-20T10:50:13.000Z</time>
      </trkpt>
      <trkpt lat="42.80353" lon="2.44262">
        <ele>306.71</ele>
        <time>2024-09-20T10:50:18.000Z</time>
      </trkpt>
      <trkpt lat="42.80352" lon="2.44293">
        <ele>306.67</ele>
        <time>2024-09-20T10:50:23.000Z</time>
      </trkpt>
      <trkpt lat="42.80352" lon="2.4433">
        <ele>306.61</ele>
        <time>2024-09-20T10:50:28.000Z</time>
      </trkpt>
      <trkpt lat="42.80353" lon="2.44375">
        <ele>306.53</ele>
        <time>2024-09-20T10:50:33.000Z</time>
      </trkpt>
      <trkpt lat="42.80352" lon="2.44424">
        <ele>306.33</ele>
        <time>2024-09-20T10:50:38.000Z</time>
      </trkpt>
      <trkpt lat="42.80352" lon="2.44475">
        <ele>305.99</ele>
        <time>2024-09-20T10:50:43.000Z</time>
      </trkpt>
      <trkpt lat="42.80352" lon="2.4453">
        <ele>305.67</ele>
        <time>2024-09-20T10:50:48.000Z</time>
      </trkpt>
      <trkpt lat="42.80351" lon="2.4459">
        <ele>305.22</ele>
        <time>2024-09-20T10:50:53.000Z</time>
      </trkpt>
      <trkpt lat="42.80349" lon="2.44651">
        <ele>305.24</ele>
        <time>2024-09-20T10:50:58.000Z</time>
      </trkpt>
      <trkpt lat="42.8035" lon="2.44708">
        <ele>305.48</ele>
        <time>2024-09-20T10:51:03.000Z</time>
      </trkpt>
      <trkpt lat="42.80351" lon="2.44757">
        <ele>305.15</ele>
        <time>2024-09-20T10:51:08.000Z</time>
      </trkpt>
      <trkpt lat="42.80351" lon="2.44802">
        <ele>304.7</ele>
        <time>2024-09-20T10:51:13.000Z</time>
      </trkpt>
      <trkpt lat="42.80351" lon="2.44845">
        <ele>304.42</ele>
        <time>2024-09-20T10:51:18.000Z</time>
      </trkpt>
      <trkpt lat="42.80351" lon="2.44898">
        <ele>304.22</ele>
        <time>2024-09-20T10:51:23.999Z</time>
      </trkpt>
      <trkpt lat="42.80351" lon="2.44942">
        <ele>304.19</ele>
        <time>2024-09-20T10:51:28.999Z</time>
      </trkpt>
      <trkpt lat="42.8035" lon="2.44988">
        <ele>304.03</ele>
        <time>2024-09-20T10:51:33.999Z</time>
      </trkpt>
      <trkpt lat="42.8035" lon="2.45036">
        <ele>304.04</ele>
        <time>2024-09-20T10:51:38.999Z</time>
      </trkpt>
      <trkpt lat="42.8035" lon="2.4508">
        <ele>304.02</ele>
        <time>2024-09-20T10:51:43.999Z</time>
      </trkpt>
      <trkpt lat="42.8035" lon="2.45122">
        <ele>304.04</ele>
        <time>2024-09-20T10:51:48.999Z</time>
      </trkpt>
      <trkpt lat="42.8035" lon="2.45165">
        <ele>303.9</ele>
        <time>2024-09-20T10:51:53.999Z</time>
      </trkpt>
      <trkpt lat="42.8035" lon="2.45205">
        <ele>303.84</ele>
        <time>2024-09-20T10:51:58.999Z</time>
      </trkpt>
      <trkpt lat="42.80351" lon="2.45248">
        <ele>303.89</ele>
        <time>2024-09-20T10:52:03.999Z</time>
      </trkpt>
      <trkpt lat="42.8035" lon="2.4529">
        <ele>304.06</ele>
        <time>2024-09-20T10:52:08.999Z</time>
      </trkpt>
      <trkpt lat="42.8035" lon="2.45334">
        <ele>304.21</ele>
        <time>2024-09-20T10:52:13.999Z</time>
      </trkpt>
      <trkpt lat="42.8035" lon="2.45372">
        <ele>304.18</ele>
        <time>2024-09-20T10:52:18.999Z</time>
      </trkpt>
      <trkpt lat="42.8035" lon="2.45402">
        <ele>304.11</ele>
        <time>2024-09-20T10:52:23.999Z</time>
      </trkpt>
      <trkpt lat="42.8035" lon="2.45429">
        <ele>304.02</ele>
        <time>2024-09-20T10:52:28.999Z</time>
      </trkpt>
      <trkpt lat="42.80349" lon="2.45458">
        <ele>303.87</ele>
        <time>2024-09-20T10:52:33.999Z</time>
      </trkpt>
      <trkpt lat="42.80349" lon="2.45487">
        <ele>303.64</ele>
        <time>2024-09-20T10:52:38.999Z</time>
      </trkpt>
      <trkpt lat="42.80349" lon="2.45517">
        <ele>303.27</ele>
        <time>2024-09-20T10:52:43.999Z</time>
      </trkpt>
      <trkpt lat="42.80349" lon="2.45549">
        <ele>302.93</ele>
        <time>2024-09-20T10:52:48.999Z</time>
      </trkpt>
      <trkpt lat="42.80349" lon="2.45583">
        <ele>302.69</ele>
        <time>2024-09-20T10:52:53.999Z</time>
      </trkpt>
      <trkpt lat="42.80349" lon="2.45617">
        <ele>302.53</ele>
        <time>2024-09-20T10:52:58.999Z</time>
      </trkpt>
      <trkpt lat="42.80348" lon="2.45651">
        <ele>302.19</ele>
        <time>2024-09-20T10:53:03.999Z</time>
      </trkpt>
      <trkpt lat="42.80348" lon="2.45682">
        <ele>301.93</ele>
        <time>2024-09-20T10:53:08.999Z</time>
      </trkpt>
      <trkpt lat="42.80349" lon="2.45715">
        <ele>301.6</ele>
        <time>2024-09-20T10:53:13.999Z</time>
      </trkpt>
      <trkpt lat="42.80349" lon="2.45749">
        <ele>301.15</ele>
        <time>2024-09-20T10:53:18.999Z</time>
      </trkpt>
      <trkpt lat="42.8035" lon="2.45779">
        <ele>300.74</ele>
        <time>2024-09-20T10:53:23.999Z</time>
      </trkpt>
      <trkpt lat="42.8035" lon="2.45811">
        <ele>300.47</ele>
        <time>2024-09-20T10:53:28.999Z</time>
      </trkpt>
      <trkpt lat="42.8035" lon="2.45838">
        <ele>300.27</ele>
        <time>2024-09-20T10:53:33.999Z</time>
      </trkpt>
      <trkpt lat="42.80349" lon="2.45866">
        <ele>299.52</ele>
        <time>2024-09-20T10:53:38.999Z</time>
      </trkpt>
      <trkpt lat="42.80349" lon="2.45898">
        <ele>299.23</ele>
        <time>2024-09-20T10:53:43.999Z</time>
      </trkpt>
      <trkpt lat="42.80349" lon="2.45929">
        <ele>299.22</ele>
        <time>2024-09-20T10:53:48.999Z</time>
      </trkpt>
      <trkpt lat="42.80349" lon="2.4596">
        <ele>299.19</ele>
        <time>2024-09-20T10:53:53.999Z</time>
      </trkpt>
      <trkpt lat="42.80349" lon="2.45993">
        <ele>299.16</ele>
        <time>2024-09-20T10:53:58.999Z</time>
      </trkpt>
      <trkpt lat="42.8035" lon="2.46026">
        <ele>299.08</ele>
        <time>2024-09-20T10:54:03.999Z</time>
      </trkpt>
      <trkpt lat="42.80351" lon="2.46059">
        <ele>299</ele>
        <time>2024-09-20T10:54:08.999Z</time>
      </trkpt>
      <trkpt lat="42.80354" lon="2.46089">
        <ele>298.97</ele>
        <time>2024-09-20T10:54:13.999Z</time>
      </trkpt>
      <trkpt lat="42.80357" lon="2.46118">
        <ele>298.52</ele>
        <time>2024-09-20T10:54:18.999Z</time>
      </trkpt>
      <trkpt lat="42.8036" lon="2.46147">
        <ele>297.52</ele>
        <time>2024-09-20T10:54:23.999Z</time>
      </trkpt>
      <trkpt lat="42.80362" lon="2.46176">
        <ele>297.17</ele>
        <time>2024-09-20T10:54:28.999Z</time>
      </trkpt>
      <trkpt lat="42.80362" lon="2.46206">
        <ele>296.69</ele>
        <time>2024-09-20T10:54:33.999Z</time>
      </trkpt>
      <trkpt lat="42.80359" lon="2.46236">
        <ele>296.48</ele>
        <time>2024-09-20T10:54:38.999Z</time>
      </trkpt>
      <trkpt lat="42.80352" lon="2.46261">
        <ele>296.32</ele>
        <time>2024-09-20T10:54:43.999Z</time>
      </trkpt>
      <trkpt lat="42.80344" lon="2.46284">
        <ele>296.08</ele>
        <time>2024-09-20T10:54:48.999Z</time>
      </trkpt>
      <trkpt lat="42.80333" lon="2.46305">
        <ele>295.97</ele>
        <time>2024-09-20T10:54:53.999Z</time>
      </trkpt>
      <trkpt lat="42.80326" lon="2.46324">
        <ele>295.81</ele>
        <time>2024-09-20T10:54:58.999Z</time>
      </trkpt>
      <trkpt lat="42.80324" lon="2.46337">
        <ele>294.26</ele>
        <time>2024-09-20T10:55:46.999Z</time>
      </trkpt>
      <trkpt lat="42.80318" lon="2.46365">
        <ele>290.45</ele>
        <time>2024-09-20T10:55:51.999Z</time>
      </trkpt>
      <trkpt lat="42.80315" lon="2.46395">
        <ele>288.84</ele>
        <time>2024-09-20T10:55:56.999Z</time>
      </trkpt>
      <trkpt lat="42.80316" lon="2.46425">
        <ele>288.09</ele>
        <time>2024-09-20T10:56:01.999Z</time>
      </trkpt>
      <trkpt lat="42.80323" lon="2.46458">
        <ele>287.58</ele>
        <time>2024-09-20T10:56:06.999Z</time>
      </trkpt>
      <trkpt lat="42.80332" lon="2.46489">
        <ele>287.19</ele>
        <time>2024-09-20T10:56:11.999Z</time>
      </trkpt>
      <trkpt lat="42.8034" lon="2.4652">
        <ele>286.91</ele>
        <time>2024-09-20T10:56:16.999Z</time>
      </trkpt>
      <trkpt lat="42.80348" lon="2.46553">
        <ele>286.6</ele>
        <time>2024-09-20T10:56:21.999Z</time>
      </trkpt>
      <trkpt lat="42.80349" lon="2.46589">
        <ele>286.41</ele>
        <time>2024-09-20T10:56:26.999Z</time>
      </trkpt>
      <trkpt lat="42.80349" lon="2.46625">
        <ele>286.3</ele>
        <time>2024-09-20T10:56:31.999Z</time>
      </trkpt>
      <trkpt lat="42.80349" lon="2.46662">
        <ele>286.21</ele>
        <time>2024-09-20T10:56:36.999Z</time>
      </trkpt>
      <trkpt lat="42.80348" lon="2.46699">
        <ele>286.11</ele>
        <time>2024-09-20T10:56:41.999Z</time>
      </trkpt>
      <trkpt lat="42.80348" lon="2.46736">
        <ele>285.95</ele>
        <time>2024-09-20T10:56:46.999Z</time>
      </trkpt>
      <trkpt lat="42.80348" lon="2.46771">
        <ele>285.82</ele>
        <time>2024-09-20T10:56:51.999Z</time>
      </trkpt>
      <trkpt lat="42.8035" lon="2.46801">
        <ele>285.72</ele>
        <time>2024-09-20T10:56:56.999Z</time>
      </trkpt>
      <trkpt lat="42.80352" lon="2.46827">
        <ele>285.71</ele>
        <time>2024-09-20T10:57:01.999Z</time>
      </trkpt>
      <trkpt lat="42.80353" lon="2.46852">
        <ele>285.72</ele>
        <time>2024-09-20T10:57:06.999Z</time>
      </trkpt>
      <trkpt lat="42.80354" lon="2.46872">
        <ele>285.73</ele>
        <time>2024-09-20T10:57:11.999Z</time>
      </trkpt>
      <trkpt lat="42.80355" lon="2.46891">
        <ele>285.76</ele>
        <time>2024-09-20T10:57:16.999Z</time>
      </trkpt>
      <trkpt lat="42.80356" lon="2.46908">
        <ele>285.81</ele>
        <time>2024-09-20T10:57:21.999Z</time>
      </trkpt>
      <trkpt lat="42.80357" lon="2.46923">
        <ele>285.88</ele>
        <time>2024-09-20T10:57:26.999Z</time>
      </trkpt>
      <trkpt lat="42.80358" lon="2.46941">
        <ele>285.97</ele>
        <time>2024-09-20T10:57:31.999Z</time>
      </trkpt>
      <trkpt lat="42.80358" lon="2.46958">
        <ele>286.08</ele>
        <time>2024-09-20T10:57:36.999Z</time>
      </trkpt>
      <trkpt lat="42.80357" lon="2.46975">
        <ele>286.19</ele>
        <time>2024-09-20T10:57:41.999Z</time>
      </trkpt>
      <trkpt lat="42.80356" lon="2.46992">
        <ele>286.31</ele>
        <time>2024-09-20T10:57:46.999Z</time>
      </trkpt>
      <trkpt lat="42.80355" lon="2.4701">
        <ele>286.43</ele>
        <time>2024-09-20T10:57:51.999Z</time>
      </trkpt>
      <trkpt lat="42.80353" lon="2.47028">
        <ele>286.53</ele>
        <time>2024-09-20T10:57:56.999Z</time>
      </trkpt>
      <trkpt lat="42.80351" lon="2.47049">
        <ele>286.61</ele>
        <time>2024-09-20T10:58:01.999Z</time>
      </trkpt>
      <trkpt lat="42.80349" lon="2.4707">
        <ele>286.67</ele>
        <time>2024-09-20T10:58:06.999Z</time>
      </trkpt>
      <trkpt lat="42.80349" lon="2.47094">
        <ele>286.71</ele>
        <time>2024-09-20T10:58:11.999Z</time>
      </trkpt>
      <trkpt lat="42.80348" lon="2.47117">
        <ele>286.74</ele>
        <time>2024-09-20T10:58:16.999Z</time>
      </trkpt>
      <trkpt lat="42.80348" lon="2.47144">
        <ele>286.82</ele>
        <time>2024-09-20T10:58:21.999Z</time>
      </trkpt>
      <trkpt lat="42.80349" lon="2.47171">
        <ele>286.82</ele>
        <time>2024-09-20T10:58:26.999Z</time>
      </trkpt>
      <trkpt lat="42.80349" lon="2.47203">
        <ele>286.78</ele>
        <time>2024-09-20T10:58:31.999Z</time>
      </trkpt>
      <trkpt lat="42.8035" lon="2.4724">
        <ele>286.62</ele>
        <time>2024-09-20T10:58:36.999Z</time>
      </trkpt>
      <trkpt lat="42.80351" lon="2.47279">
        <ele>286.47</ele>
        <time>2024-09-20T10:58:41.999Z</time>
      </trkpt>
      <trkpt lat="42.80352" lon="2.4732">
        <ele>286.42</ele>
        <time>2024-09-20T10:58:46.999Z</time>
      </trkpt>
      <trkpt lat="42.80352" lon="2.47359">
        <ele>286.4</ele>
        <time>2024-09-20T10:58:51.999Z</time>
      </trkpt>
      <trkpt lat="42.80353" lon="2.474">
        <ele>286.31</ele>
        <time>2024-09-20T10:58:56.999Z</time>
      </trkpt>
      <trkpt lat="42.80357" lon="2.47443">
        <ele>286.23</ele>
        <time>2024-09-20T10:59:01.999Z</time>
      </trkpt>
      <trkpt lat="42.80357" lon="2.47483">
        <ele>285.99</ele>
        <time>2024-09-20T10:59:06.999Z</time>
      </trkpt>
      <trkpt lat="42.80359" lon="2.47525">
        <ele>285.59</ele>
        <time>2024-09-20T10:59:11.999Z</time>
      </trkpt>
      <trkpt lat="42.80359" lon="2.47571">
        <ele>285.1</ele>
        <time>2024-09-20T10:59:16.999Z</time>
      </trkpt>
      <trkpt lat="42.8036" lon="2.47619">
        <ele>284.68</ele>
        <time>2024-09-20T10:59:21.999Z</time>
      </trkpt>
      <trkpt lat="42.80362" lon="2.47665">
        <ele>284.27</ele>
        <time>2024-09-20T10:59:26.999Z</time>
      </trkpt>
      <trkpt lat="42.80362" lon="2.47711">
        <ele>283.92</ele>
        <time>2024-09-20T10:59:31.999Z</time>
      </trkpt>
      <trkpt lat="42.80364" lon="2.47753">
        <ele>283.64</ele>
        <time>2024-09-20T10:59:36.999Z</time>
      </trkpt>
      <trkpt lat="42.80366" lon="2.4779">
        <ele>283.21</ele>
        <time>2024-09-20T10:59:41.999Z</time>
      </trkpt>
      <trkpt lat="42.80368" lon="2.47823">
        <ele>282.76</ele>
        <time>2024-09-20T10:59:46.999Z</time>
      </trkpt>
      <trkpt lat="42.8037" lon="2.47854">
        <ele>282.26</ele>
        <time>2024-09-20T10:59:51.999Z</time>
      </trkpt>
      <trkpt lat="42.80376" lon="2.47886">
        <ele>281.63</ele>
        <time>2024-09-20T10:59:56.999Z</time>
      </trkpt>
      <trkpt lat="42.80384" lon="2.47919">
        <ele>280.77</ele>
        <time>2024-09-20T11:00:01.999Z</time>
      </trkpt>
      <trkpt lat="42.80397" lon="2.47951">
        <ele>279.85</ele>
        <time>2024-09-20T11:00:06.999Z</time>
      </trkpt>
      <trkpt lat="42.80413" lon="2.47983">
        <ele>278.82</ele>
        <time>2024-09-20T11:00:11.999Z</time>
      </trkpt>
      <trkpt lat="42.80434" lon="2.48015">
        <ele>277.99</ele>
        <time>2024-09-20T11:00:16.999Z</time>
      </trkpt>
      <trkpt lat="42.8046" lon="2.48047">
        <ele>277.33</ele>
        <time>2024-09-20T11:00:21.999Z</time>
      </trkpt>
      <trkpt lat="42.80488" lon="2.48076">
        <ele>276.99</ele>
        <time>2024-09-20T11:00:26.999Z</time>
      </trkpt>
      <trkpt lat="42.80513" lon="2.48104">
        <ele>276.79</ele>
        <time>2024-09-20T11:00:31.999Z</time>
      </trkpt>
      <trkpt lat="42.80536" lon="2.48128">
        <ele>276.7</ele>
        <time>2024-09-20T11:00:36.999Z</time>
      </trkpt>
      <trkpt lat="42.80555" lon="2.48148">
        <ele>276.67</ele>
        <time>2024-09-20T11:00:41.999Z</time>
      </trkpt>
      <trkpt lat="42.80571" lon="2.48165">
        <ele>276.86</ele>
        <time>2024-09-20T11:00:46.999Z</time>
      </trkpt>
      <trkpt lat="42.80587" lon="2.48181">
        <ele>277.31</ele>
        <time>2024-09-20T11:00:51.999Z</time>
      </trkpt>
      <trkpt lat="42.80602" lon="2.48198">
        <ele>277.58</ele>
        <time>2024-09-20T11:00:56.999Z</time>
      </trkpt>
      <trkpt lat="42.80617" lon="2.48213">
        <ele>277.62</ele>
        <time>2024-09-20T11:01:01.999Z</time>
      </trkpt>
      <trkpt lat="42.80633" lon="2.48232">
        <ele>277.41</ele>
        <time>2024-09-20T11:01:06.999Z</time>
      </trkpt>
      <trkpt lat="42.80643" lon="2.48259">
        <ele>277.05</ele>
        <time>2024-09-20T11:01:11.999Z</time>
      </trkpt>
      <trkpt lat="42.80649" lon="2.48293">
        <ele>276.79</ele>
        <time>2024-09-20T11:01:16.999Z</time>
      </trkpt>
      <trkpt lat="42.80654" lon="2.48327">
        <ele>276.59</ele>
        <time>2024-09-20T11:01:21.999Z</time>
      </trkpt>
      <trkpt lat="42.8066" lon="2.48363">
        <ele>276.4</ele>
        <time>2024-09-20T11:01:26.999Z</time>
      </trkpt>
      <trkpt lat="42.80666" lon="2.48399">
        <ele>276.22</ele>
        <time>2024-09-20T11:01:31.999Z</time>
      </trkpt>
      <trkpt lat="42.80671" lon="2.48435">
        <ele>276.02</ele>
        <time>2024-09-20T11:01:36.999Z</time>
      </trkpt>
      <trkpt lat="42.80676" lon="2.48471">
        <ele>275.79</ele>
        <time>2024-09-20T11:01:41.999Z</time>
      </trkpt>
      <trkpt lat="42.80681" lon="2.48503">
        <ele>275.57</ele>
        <time>2024-09-20T11:01:46.999Z</time>
      </trkpt>
      <trkpt lat="42.80686" lon="2.48531">
        <ele>275.36</ele>
        <time>2024-09-20T11:01:51.999Z</time>
      </trkpt>
      <trkpt lat="42.8069" lon="2.48556">
        <ele>275.3</ele>
        <time>2024-09-20T11:01:56.999Z</time>
      </trkpt>
      <trkpt lat="42.80694" lon="2.48578">
        <ele>275.27</ele>
        <time>2024-09-20T11:02:01.999Z</time>
      </trkpt>
      <trkpt lat="42.80698" lon="2.48601">
        <ele>275.22</ele>
        <time>2024-09-20T11:02:06.999Z</time>
      </trkpt>
      <trkpt lat="42.80702" lon="2.48624">
        <ele>275.17</ele>
        <time>2024-09-20T11:02:11.999Z</time>
      </trkpt>
      <trkpt lat="42.80704" lon="2.48645">
        <ele>275.11</ele>
        <time>2024-09-20T11:02:16.999Z</time>
      </trkpt>
      <trkpt lat="42.80708" lon="2.48666">
        <ele>275.05</ele>
        <time>2024-09-20T11:02:21.999Z</time>
      </trkpt>
      <trkpt lat="42.80711" lon="2.48688">
        <ele>274.98</ele>
        <time>2024-09-20T11:02:26.999Z</time>
      </trkpt>
      <trkpt lat="42.80715" lon="2.4871">
        <ele>274.91</ele>
        <time>2024-09-20T11:02:31.999Z</time>
      </trkpt>
      <trkpt lat="42.80718" lon="2.48732">
        <ele>274.84</ele>
        <time>2024-09-20T11:02:36.999Z</time>
      </trkpt>
      <trkpt lat="42.80722" lon="2.48754">
        <ele>274.77</ele>
        <time>2024-09-20T11:02:41.999Z</time>
      </trkpt>
      <trkpt lat="42.80726" lon="2.48777">
        <ele>274.7</ele>
        <time>2024-09-20T11:02:46.999Z</time>
      </trkpt>
      <trkpt lat="42.80729" lon="2.48799">
        <ele>274.63</ele>
        <time>2024-09-20T11:02:51.999Z</time>
      </trkpt>
      <trkpt lat="42.80733" lon="2.48822">
        <ele>274.57</ele>
        <time>2024-09-20T11:02:56.999Z</time>
      </trkpt>
      <trkpt lat="42.80736" lon="2.48843">
        <ele>274.5</ele>
        <time>2024-09-20T11:03:01.999Z</time>
      </trkpt>
      <trkpt lat="42.8074" lon="2.48862">
        <ele>274.44</ele>
        <time>2024-09-20T11:03:06.999Z</time>
      </trkpt>
      <trkpt lat="42.80743" lon="2.48881">
        <ele>274.39</ele>
        <time>2024-09-20T11:03:11.999Z</time>
      </trkpt>
      <trkpt lat="42.80745" lon="2.48898">
        <ele>274.33</ele>
        <time>2024-09-20T11:03:16.999Z</time>
      </trkpt>
      <trkpt lat="42.80748" lon="2.48915">
        <ele>274.27</ele>
        <time>2024-09-20T11:03:21.999Z</time>
      </trkpt>
      <trkpt lat="42.80751" lon="2.48932">
        <ele>274.2</ele>
        <time>2024-09-20T11:03:26.999Z</time>
      </trkpt>
      <trkpt lat="42.80754" lon="2.4895">
        <ele>274.12</ele>
        <time>2024-09-20T11:03:31.999Z</time>
      </trkpt>
      <trkpt lat="42.80755" lon="2.48967">
        <ele>274.04</ele>
        <time>2024-09-20T11:03:37.000Z</time>
      </trkpt>
      <trkpt lat="42.80759" lon="2.48985">
        <ele>273.96</ele>
        <time>2024-09-20T11:03:42.000Z</time>
      </trkpt>
      <trkpt lat="42.8076" lon="2.49002">
        <ele>273.88</ele>
        <time>2024-09-20T11:03:47.000Z</time>
      </trkpt>
      <trkpt lat="42.80763" lon="2.49019">
        <ele>273.8</ele>
        <time>2024-09-20T11:03:52.000Z</time>
      </trkpt>
      <trkpt lat="42.80765" lon="2.49037">
        <ele>273.73</ele>
        <time>2024-09-20T11:03:57.000Z</time>
      </trkpt>
      <trkpt lat="42.80768" lon="2.49055">
        <ele>273.66</ele>
        <time>2024-09-20T11:04:02.000Z</time>
      </trkpt>
      <trkpt lat="42.80771" lon="2.49072">
        <ele>273.6</ele>
        <time>2024-09-20T11:04:07.000Z</time>
      </trkpt>
      <trkpt lat="42.80774" lon="2.49091">
        <ele>273.54</ele>
        <time>2024-09-20T11:04:12.000Z</time>
      </trkpt>
      <trkpt lat="42.80778" lon="2.49113">
        <ele>273.49</ele>
        <time>2024-09-20T11:04:17.000Z</time>
      </trkpt>
      <trkpt lat="42.80782" lon="2.49139">
        <ele>273.17</ele>
        <time>2024-09-20T11:04:22.000Z</time>
      </trkpt>
      <trkpt lat="42.80786" lon="2.49167">
        <ele>272.99</ele>
        <time>2024-09-20T11:04:27.000Z</time>
      </trkpt>
      <trkpt lat="42.80791" lon="2.49196">
        <ele>272.94</ele>
        <time>2024-09-20T11:04:32.000Z</time>
      </trkpt>
      <trkpt lat="42.80796" lon="2.49222">
        <ele>272.91</ele>
        <time>2024-09-20T11:04:37.000Z</time>
      </trkpt>
      <trkpt lat="42.808" lon="2.4925">
        <ele>272.9</ele>
        <time>2024-09-20T11:04:42.000Z</time>
      </trkpt>
      <trkpt lat="42.80805" lon="2.49278">
        <ele>272.9</ele>
        <time>2024-09-20T11:04:47.000Z</time>
      </trkpt>
      <trkpt lat="42.80809" lon="2.49302">
        <ele>272.88</ele>
        <time>2024-09-20T11:04:52.000Z</time>
      </trkpt>
      <trkpt lat="42.80812" lon="2.49323">
        <ele>272.88</ele>
        <time>2024-09-20T11:04:57.000Z</time>
      </trkpt>
      <trkpt lat="42.80815" lon="2.49346">
        <ele>272.88</ele>
        <time>2024-09-20T11:05:02.000Z</time>
      </trkpt>
      <trkpt lat="42.80819" lon="2.49367">
        <ele>272.87</ele>
        <time>2024-09-20T11:05:07.000Z</time>
      </trkpt>
      <trkpt lat="42.80822" lon="2.4939">
        <ele>272.87</ele>
        <time>2024-09-20T11:05:12.000Z</time>
      </trkpt>
      <trkpt lat="42.80825" lon="2.49412">
        <ele>272.86</ele>
        <time>2024-09-20T11:05:17.000Z</time>
      </trkpt>
      <trkpt lat="42.80829" lon="2.49434">
        <ele>272.83</ele>
        <time>2024-09-20T11:05:22.000Z</time>
      </trkpt>
      <trkpt lat="42.80832" lon="2.49457">
        <ele>272.81</ele>
        <time>2024-09-20T11:05:27.000Z</time>
      </trkpt>
      <trkpt lat="42.80836" lon="2.49481">
        <ele>272.77</ele>
        <time>2024-09-20T11:05:32.000Z</time>
      </trkpt>
      <trkpt lat="42.8084" lon="2.49507">
        <ele>272.52</ele>
        <time>2024-09-20T11:05:37.000Z</time>
      </trkpt>
      <trkpt lat="42.80844" lon="2.49539">
        <ele>272.37</ele>
        <time>2024-09-20T11:05:42.000Z</time>
      </trkpt>
      <trkpt lat="42.80849" lon="2.49573">
        <ele>272.26</ele>
        <time>2024-09-20T11:05:47.000Z</time>
      </trkpt>
      <trkpt lat="42.80854" lon="2.49603">
        <ele>272.15</ele>
        <time>2024-09-20T11:05:52.000Z</time>
      </trkpt>
      <trkpt lat="42.80859" lon="2.4963">
        <ele>272.01</ele>
        <time>2024-09-20T11:05:57.000Z</time>
      </trkpt>
      <trkpt lat="42.80863" lon="2.49657">
        <ele>271.91</ele>
        <time>2024-09-20T11:06:02.000Z</time>
      </trkpt>
      <trkpt lat="42.80868" lon="2.49684">
        <ele>271.82</ele>
        <time>2024-09-20T11:06:07.000Z</time>
      </trkpt>
      <trkpt lat="42.80872" lon="2.49712">
        <ele>271.68</ele>
        <time>2024-09-20T11:06:12.000Z</time>
      </trkpt>
      <trkpt lat="42.80875" lon="2.4974">
        <ele>271.52</ele>
        <time>2024-09-20T11:06:17.000Z</time>
      </trkpt>
      <trkpt lat="42.8088" lon="2.49764">
        <ele>271.47</ele>
        <time>2024-09-20T11:06:22.000Z</time>
      </trkpt>
      <trkpt lat="42.80884" lon="2.49782">
        <ele>271.44</ele>
        <time>2024-09-20T11:06:27.000Z</time>
      </trkpt>
      <trkpt lat="42.80891" lon="2.49805">
        <ele>271.41</ele>
        <time>2024-09-20T11:06:32.000Z</time>
      </trkpt>
      <trkpt lat="42.80891" lon="2.49829">
        <ele>271.39</ele>
        <time>2024-09-20T11:06:37.000Z</time>
      </trkpt>
      <trkpt lat="42.80894" lon="2.49854">
        <ele>271.3</ele>
        <time>2024-09-20T11:06:42.000Z</time>
      </trkpt>
      <trkpt lat="42.80897" lon="2.49881">
        <ele>271.16</ele>
        <time>2024-09-20T11:06:47.000Z</time>
      </trkpt>
      <trkpt lat="42.80901" lon="2.49906">
        <ele>271.1</ele>
        <time>2024-09-20T11:06:52.000Z</time>
      </trkpt>
      <trkpt lat="42.80904" lon="2.49929">
        <ele>271.08</ele>
        <time>2024-09-20T11:06:57.000Z</time>
      </trkpt>
      <trkpt lat="42.80909" lon="2.49951">
        <ele>271.05</ele>
        <time>2024-09-20T11:07:02.000Z</time>
      </trkpt>
      <trkpt lat="42.80912" lon="2.49975">
        <ele>271.02</ele>
        <time>2024-09-20T11:07:07.000Z</time>
      </trkpt>
      <trkpt lat="42.80916" lon="2.5">
        <ele>270.98</ele>
        <time>2024-09-20T11:07:12.000Z</time>
      </trkpt>
      <trkpt lat="42.80919" lon="2.50025">
        <ele>270.93</ele>
        <time>2024-09-20T11:07:17.000Z</time>
      </trkpt>
      <trkpt lat="42.80923" lon="2.50049">
        <ele>270.86</ele>
        <time>2024-09-20T11:07:22.000Z</time>
      </trkpt>
      <trkpt lat="42.80926" lon="2.50073">
        <ele>270.79</ele>
        <time>2024-09-20T11:07:27.000Z</time>
      </trkpt>
      <trkpt lat="42.80928" lon="2.50096">
        <ele>270.71</ele>
        <time>2024-09-20T11:07:32.000Z</time>
      </trkpt>
      <trkpt lat="42.80931" lon="2.50119">
        <ele>270.62</ele>
        <time>2024-09-20T11:07:37.000Z</time>
      </trkpt>
      <trkpt lat="42.80934" lon="2.50141">
        <ele>270.51</ele>
        <time>2024-09-20T11:07:42.000Z</time>
      </trkpt>
      <trkpt lat="42.80935" lon="2.50165">
        <ele>269.84</ele>
        <time>2024-09-20T11:07:47.000Z</time>
      </trkpt>
      <trkpt lat="42.80929" lon="2.50189">
        <ele>269.67</ele>
        <time>2024-09-20T11:07:52.000Z</time>
      </trkpt>
      <trkpt lat="42.8092" lon="2.50212">
        <ele>269.62</ele>
        <time>2024-09-20T11:07:57.000Z</time>
      </trkpt>
      <trkpt lat="42.80914" lon="2.50229">
        <ele>269.56</ele>
        <time>2024-09-20T11:08:02.000Z</time>
      </trkpt>
      <trkpt lat="42.80915" lon="2.5025">
        <ele>269.5</ele>
        <time>2024-09-20T11:08:07.000Z</time>
      </trkpt>
      <trkpt lat="42.80919" lon="2.50265">
        <ele>269.29</ele>
        <time>2024-09-20T11:09:54.000Z</time>
      </trkpt>
      <trkpt lat="42.80924" lon="2.50288">
        <ele>269.26</ele>
        <time>2024-09-20T11:09:59.000Z</time>
      </trkpt>
      <trkpt lat="42.8093" lon="2.50307">
        <ele>269.24</ele>
        <time>2024-09-20T11:10:04.000Z</time>
      </trkpt>
      <trkpt lat="42.80934" lon="2.50323">
        <ele>269.21</ele>
        <time>2024-09-20T11:10:09.000Z</time>
      </trkpt>
      <trkpt lat="42.80934" lon="2.50335">
        <ele>269.17</ele>
        <time>2024-09-20T11:10:23.000Z</time>
      </trkpt>
      <trkpt lat="42.80938" lon="2.50348">
        <ele>269.14</ele>
        <time>2024-09-20T11:10:28.000Z</time>
      </trkpt>
      <trkpt lat="42.80943" lon="2.50361">
        <ele>269.11</ele>
        <time>2024-09-20T11:10:33.000Z</time>
      </trkpt>
      <trkpt lat="42.80949" lon="2.50374">
        <ele>269.09</ele>
        <time>2024-09-20T11:10:38.000Z</time>
      </trkpt>
      <trkpt lat="42.80954" lon="2.50386">
        <ele>269.06</ele>
        <time>2024-09-20T11:10:43.000Z</time>
      </trkpt>
      <trkpt lat="42.80959" lon="2.50399">
        <ele>269.04</ele>
        <time>2024-09-20T11:10:48.000Z</time>
      </trkpt>
      <trkpt lat="42.80965" lon="2.50413">
        <ele>269.02</ele>
        <time>2024-09-20T11:10:53.000Z</time>
      </trkpt>
      <trkpt lat="42.80972" lon="2.50424">
        <ele>269</ele>
        <time>2024-09-20T11:10:58.000Z</time>
      </trkpt>
      <trkpt lat="42.8098" lon="2.50432">
        <ele>268.98</ele>
        <time>2024-09-20T11:11:04.000Z</time>
      </trkpt>
      <trkpt lat="42.80989" lon="2.5043">
        <ele>268.97</ele>
        <time>2024-09-20T11:11:09.000Z</time>
      </trkpt>
      <trkpt lat="42.80998" lon="2.50426">
        <ele>268.96</ele>
        <time>2024-09-20T11:11:14.000Z</time>
      </trkpt>
      <trkpt lat="42.81008" lon="2.50423">
        <ele>268.96</ele>
        <time>2024-09-20T11:11:20.000Z</time>
      </trkpt>
      <trkpt lat="42.81017" lon="2.50421">
        <ele>268.96</ele>
        <time>2024-09-20T11:11:26.000Z</time>
      </trkpt>
      <trkpt lat="42.81027" lon="2.50417">
        <ele>268.97</ele>
        <time>2024-09-20T11:11:31.000Z</time>
      </trkpt>
      <trkpt lat="42.81036" lon="2.50414">
        <ele>268.97</ele>
        <time>2024-09-20T11:11:36.000Z</time>
      </trkpt>
      <trkpt lat="42.8104" lon="2.50427">
        <ele>269</ele>
        <time>2024-09-20T11:11:53.000Z</time>
      </trkpt>
      <trkpt lat="42.81041" lon="2.50443">
        <ele>269.01</ele>
        <time>2024-09-20T11:11:58.000Z</time>
      </trkpt>
      <trkpt lat="42.8105" lon="2.50449">
        <ele>269.03</ele>
        <time>2024-09-20T11:12:04.000Z</time>
      </trkpt>
      <trkpt lat="42.81051" lon="2.50435">
        <ele>269.05</ele>
        <time>2024-09-20T11:12:09.000Z</time>
      </trkpt>
      <trkpt lat="42.81058" lon="2.50425">
        <ele>269.07</ele>
        <time>2024-09-20T11:12:14.000Z</time>
      </trkpt>
      <trkpt lat="42.81065" lon="2.50416">
        <ele>269.46</ele>
        <time>2024-09-20T11:14:01.000Z</time>
      </trkpt>
      <trkpt lat="42.81056" lon="2.50417">
        <ele>270.71</ele>
        <time>2024-09-20T11:15:28.000Z</time>
      </trkpt>
      <trkpt lat="42.81065" lon="2.50416">
        <ele>274.05</ele>
        <time>2024-09-20T11:27:06.999Z</time>
      </trkpt>
      <trkpt lat="42.81056" lon="2.5042">
        <ele>278.26</ele>
        <time>2024-09-20T11:48:32.999Z</time>
      </trkpt>
      <trkpt lat="42.81048" lon="2.50428">
        <ele>278.47</ele>
        <time>2024-09-20T11:48:41.999Z</time>
      </trkpt>
      <trkpt lat="42.8104" lon="2.50421">
        <ele>278.82</ele>
        <time>2024-09-20T11:49:01.999Z</time>
      </trkpt>
      <trkpt lat="42.81039" lon="2.50409">
        <ele>278.96</ele>
        <time>2024-09-20T11:49:11.999Z</time>
      </trkpt>
      <trkpt lat="42.81046" lon="2.50415">
        <ele>284.67</ele>
        <time>2024-09-20T12:16:51.000Z</time>
      </trkpt>
      <trkpt lat="42.8104" lon="2.50424">
        <ele>284.3</ele>
        <time>2024-09-20T12:19:15.000Z</time>
      </trkpt>
      <trkpt lat="42.8105" lon="2.50429">
        <ele>284.2</ele>
        <time>2024-09-20T12:19:28.000Z</time>
      </trkpt>
      <trkpt lat="42.81059" lon="2.50427">
        <ele>284.15</ele>
        <time>2024-09-20T12:19:37.000Z</time>
      </trkpt>
      <trkpt lat="42.81068" lon="2.50426">
        <ele>284.08</ele>
        <time>2024-09-20T12:20:35.000Z</time>
      </trkpt>
      <trkpt lat="42.81058" lon="2.50428">
        <ele>284.86</ele>
        <time>2024-09-20T12:30:41.999Z</time>
      </trkpt>
      <trkpt lat="42.81052" lon="2.5044">
        <ele>282.98</ele>
        <time>2024-09-20T12:32:51.999Z</time>
      </trkpt>
      <trkpt lat="42.81048" lon="2.50454">
        <ele>282.87</ele>
        <time>2024-09-20T12:32:56.999Z</time>
      </trkpt>
      <trkpt lat="42.81038" lon="2.50441">
        <ele>282.78</ele>
        <time>2024-09-20T12:33:01.999Z</time>
      </trkpt>
      <trkpt lat="42.81031" lon="2.50421">
        <ele>282.69</ele>
        <time>2024-09-20T12:33:06.999Z</time>
      </trkpt>
      <trkpt lat="42.81018" lon="2.50423">
        <ele>282.61</ele>
        <time>2024-09-20T12:33:11.999Z</time>
      </trkpt>
      <trkpt lat="42.81004" lon="2.50432">
        <ele>282.43</ele>
        <time>2024-09-20T12:33:16.999Z</time>
      </trkpt>
      <trkpt lat="42.80984" lon="2.50432">
        <ele>282.34</ele>
        <time>2024-09-20T12:33:21.999Z</time>
      </trkpt>
      <trkpt lat="42.80967" lon="2.50407">
        <ele>282.05</ele>
        <time>2024-09-20T12:33:26.999Z</time>
      </trkpt>
      <trkpt lat="42.80953" lon="2.50385">
        <ele>281.77</ele>
        <time>2024-09-20T12:33:31.999Z</time>
      </trkpt>
      <trkpt lat="42.80948" lon="2.50375">
        <ele>281.7</ele>
        <time>2024-09-20T12:33:39.999Z</time>
      </trkpt>
      <trkpt lat="42.80937" lon="2.50379">
        <ele>281.64</ele>
        <time>2024-09-20T12:33:46.999Z</time>
      </trkpt>
      <trkpt lat="42.80924" lon="2.50382">
        <ele>281.59</ele>
        <time>2024-09-20T12:33:51.999Z</time>
      </trkpt>
      <trkpt lat="42.8091" lon="2.5039">
        <ele>281.54</ele>
        <time>2024-09-20T12:33:56.999Z</time>
      </trkpt>
      <trkpt lat="42.80898" lon="2.50387">
        <ele>281.5</ele>
        <time>2024-09-20T12:34:01.999Z</time>
      </trkpt>
      <trkpt lat="42.80888" lon="2.50378">
        <ele>281.45</ele>
        <time>2024-09-20T12:34:06.999Z</time>
      </trkpt>
      <trkpt lat="42.80876" lon="2.50364">
        <ele>281.41</ele>
        <time>2024-09-20T12:34:11.999Z</time>
      </trkpt>
      <trkpt lat="42.80864" lon="2.50347">
        <ele>281.38</ele>
        <time>2024-09-20T12:34:16.999Z</time>
      </trkpt>
      <trkpt lat="42.80849" lon="2.50351">
        <ele>281.35</ele>
        <time>2024-09-20T12:34:21.999Z</time>
      </trkpt>
      <trkpt lat="42.80829" lon="2.5035">
        <ele>281.28</ele>
        <time>2024-09-20T12:34:26.999Z</time>
      </trkpt>
      <trkpt lat="42.808" lon="2.50346">
        <ele>281.26</ele>
        <time>2024-09-20T12:34:31.999Z</time>
      </trkpt>
      <trkpt lat="42.80783" lon="2.50342">
        <ele>281.24</ele>
        <time>2024-09-20T12:34:36.999Z</time>
      </trkpt>
      <trkpt lat="42.80767" lon="2.50339">
        <ele>281.19</ele>
        <time>2024-09-20T12:34:41.999Z</time>
      </trkpt>
      <trkpt lat="42.80749" lon="2.50334">
        <ele>281.16</ele>
        <time>2024-09-20T12:34:46.999Z</time>
      </trkpt>
      <trkpt lat="42.80729" lon="2.5033">
        <ele>281.13</ele>
        <time>2024-09-20T12:34:51.999Z</time>
      </trkpt>
      <trkpt lat="42.80715" lon="2.50324">
        <ele>281.11</ele>
        <time>2024-09-20T12:34:56.999Z</time>
      </trkpt>
      <trkpt lat="42.80699" lon="2.50318">
        <ele>281.09</ele>
        <time>2024-09-20T12:35:01.999Z</time>
      </trkpt>
      <trkpt lat="42.80685" lon="2.50307">
        <ele>281.06</ele>
        <time>2024-09-20T12:35:06.999Z</time>
      </trkpt>
      <trkpt lat="42.8067" lon="2.50297">
        <ele>281.03</ele>
        <time>2024-09-20T12:35:11.999Z</time>
      </trkpt>
      <trkpt lat="42.80654" lon="2.50289">
        <ele>280.99</ele>
        <time>2024-09-20T12:35:16.999Z</time>
      </trkpt>
      <trkpt lat="42.80638" lon="2.50279">
        <ele>280.96</ele>
        <time>2024-09-20T12:35:21.999Z</time>
      </trkpt>
      <trkpt lat="42.80623" lon="2.5027">
        <ele>280.92</ele>
        <time>2024-09-20T12:35:26.999Z</time>
      </trkpt>
      <trkpt lat="42.80605" lon="2.50259">
        <ele>280.69</ele>
        <time>2024-09-20T12:35:31.999Z</time>
      </trkpt>
      <trkpt lat="42.80585" lon="2.50249">
        <ele>280.37</ele>
        <time>2024-09-20T12:35:36.999Z</time>
      </trkpt>
      <trkpt lat="42.80564" lon="2.50237">
        <ele>280.09</ele>
        <time>2024-09-20T12:35:41.999Z</time>
      </trkpt>
      <trkpt lat="42.80539" lon="2.50223">
        <ele>279.94</ele>
        <time>2024-09-20T12:35:46.999Z</time>
      </trkpt>
      <trkpt lat="42.80514" lon="2.50214">
        <ele>279.73</ele>
        <time>2024-09-20T12:35:51.999Z</time>
      </trkpt>
      <trkpt lat="42.80494" lon="2.50207">
        <ele>279.53</ele>
        <time>2024-09-20T12:35:56.999Z</time>
      </trkpt>
      <trkpt lat="42.80475" lon="2.50196">
        <ele>279.35</ele>
        <time>2024-09-20T12:36:01.999Z</time>
      </trkpt>
      <trkpt lat="42.80457" lon="2.50181">
        <ele>279.24</ele>
        <time>2024-09-20T12:36:06.999Z</time>
      </trkpt>
      <trkpt lat="42.80442" lon="2.50163">
        <ele>279.06</ele>
        <time>2024-09-20T12:36:11.999Z</time>
      </trkpt>
      <trkpt lat="42.80428" lon="2.50141">
        <ele>278.87</ele>
        <time>2024-09-20T12:36:16.999Z</time>
      </trkpt>
      <trkpt lat="42.8042" lon="2.50122">
        <ele>278.82</ele>
        <time>2024-09-20T12:36:21.999Z</time>
      </trkpt>
      <trkpt lat="42.80417" lon="2.50109">
        <ele>278.16</ele>
        <time>2024-09-20T12:37:50.999Z</time>
      </trkpt>
      <trkpt lat="42.80408" lon="2.50082">
        <ele>277.09</ele>
        <time>2024-09-20T12:37:55.999Z</time>
      </trkpt>
      <trkpt lat="42.80399" lon="2.50053">
        <ele>276.7</ele>
        <time>2024-09-20T12:38:00.999Z</time>
      </trkpt>
      <trkpt lat="42.80386" lon="2.50018">
        <ele>276.59</ele>
        <time>2024-09-20T12:38:05.999Z</time>
      </trkpt>
      <trkpt lat="42.8037" lon="2.49978">
        <ele>276.55</ele>
        <time>2024-09-20T12:38:10.999Z</time>
      </trkpt>
      <trkpt lat="42.80349" lon="2.49933">
        <ele>276.39</ele>
        <time>2024-09-20T12:38:15.999Z</time>
      </trkpt>
      <trkpt lat="42.8032" lon="2.49892">
        <ele>276.03</ele>
        <time>2024-09-20T12:38:20.999Z</time>
      </trkpt>
      <trkpt lat="42.80281" lon="2.49858">
        <ele>275.36</ele>
        <time>2024-09-20T12:38:25.999Z</time>
      </trkpt>
      <trkpt lat="42.80241" lon="2.49824">
        <ele>274.87</ele>
        <time>2024-09-20T12:38:30.999Z</time>
      </trkpt>
      <trkpt lat="42.80201" lon="2.49801">
        <ele>274.3</ele>
        <time>2024-09-20T12:38:35.999Z</time>
      </trkpt>
      <trkpt lat="42.80163" lon="2.49786">
        <ele>274.03</ele>
        <time>2024-09-20T12:38:40.999Z</time>
      </trkpt>
      <trkpt lat="42.8013" lon="2.4978">
        <ele>273.98</ele>
        <time>2024-09-20T12:38:45.999Z</time>
      </trkpt>
      <trkpt lat="42.80102" lon="2.49781">
        <ele>273.69</ele>
        <time>2024-09-20T12:38:50.999Z</time>
      </trkpt>
      <trkpt lat="42.80074" lon="2.49785">
        <ele>273.39</ele>
        <time>2024-09-20T12:38:55.999Z</time>
      </trkpt>
      <trkpt lat="42.80049" lon="2.49783">
        <ele>269.5</ele>
        <time>2024-09-20T12:39:00.999Z</time>
      </trkpt>
      <trkpt lat="42.80027" lon="2.49773">
        <ele>268.65</ele>
        <time>2024-09-20T12:39:05.999Z</time>
      </trkpt>
      <trkpt lat="42.80004" lon="2.4976">
        <ele>269.09</ele>
        <time>2024-09-20T12:39:10.999Z</time>
      </trkpt>
      <trkpt lat="42.79983" lon="2.49751">
        <ele>267.04</ele>
        <time>2024-09-20T12:39:15.999Z</time>
      </trkpt>
      <trkpt lat="42.79966" lon="2.49748">
        <ele>265.2</ele>
        <time>2024-09-20T12:39:20.999Z</time>
      </trkpt>
      <trkpt lat="42.79956" lon="2.49748">
        <ele>267.56</ele>
        <time>2024-09-20T12:40:52.000Z</time>
      </trkpt>
      <trkpt lat="42.79942" lon="2.49754">
        <ele>269.25</ele>
        <time>2024-09-20T12:40:57.000Z</time>
      </trkpt>
      <trkpt lat="42.79926" lon="2.49767">
        <ele>270.71</ele>
        <time>2024-09-20T12:41:02.000Z</time>
      </trkpt>
      <trkpt lat="42.79915" lon="2.49777">
        <ele>271.95</ele>
        <time>2024-09-20T12:41:07.000Z</time>
      </trkpt>
      <trkpt lat="42.79902" lon="2.49787">
        <ele>272.97</ele>
        <time>2024-09-20T12:41:12.000Z</time>
      </trkpt>
      <trkpt lat="42.79887" lon="2.49798">
        <ele>273.78</ele>
        <time>2024-09-20T12:41:17.000Z</time>
      </trkpt>
      <trkpt lat="42.79874" lon="2.49811">
        <ele>274.34</ele>
        <time>2024-09-20T12:41:22.000Z</time>
      </trkpt>
      <trkpt lat="42.79863" lon="2.49827">
        <ele>274.65</ele>
        <time>2024-09-20T12:41:27.000Z</time>
      </trkpt>
      <trkpt lat="42.79852" lon="2.4984">
        <ele>274.76</ele>
        <time>2024-09-20T12:41:32.000Z</time>
      </trkpt>
      <trkpt lat="42.79839" lon="2.49851">
        <ele>274.78</ele>
        <time>2024-09-20T12:41:37.000Z</time>
      </trkpt>
      <trkpt lat="42.79827" lon="2.49861">
        <ele>274.72</ele>
        <time>2024-09-20T12:41:42.000Z</time>
      </trkpt>
      <trkpt lat="42.79813" lon="2.4987">
        <ele>274.64</ele>
        <time>2024-09-20T12:41:47.000Z</time>
      </trkpt>
      <trkpt lat="42.79799" lon="2.49878">
        <ele>274.5</ele>
        <time>2024-09-20T12:41:52.000Z</time>
      </trkpt>
      <trkpt lat="42.79785" lon="2.49887">
        <ele>274.38</ele>
        <time>2024-09-20T12:41:57.000Z</time>
      </trkpt>
      <trkpt lat="42.79772" lon="2.49897">
        <ele>274.26</ele>
        <time>2024-09-20T12:42:02.000Z</time>
      </trkpt>
      <trkpt lat="42.79758" lon="2.49908">
        <ele>274.15</ele>
        <time>2024-09-20T12:42:07.000Z</time>
      </trkpt>
      <trkpt lat="42.79745" lon="2.49918">
        <ele>274.08</ele>
        <time>2024-09-20T12:42:12.000Z</time>
      </trkpt>
      <trkpt lat="42.79733" lon="2.49931">
        <ele>274.03</ele>
        <time>2024-09-20T12:42:17.000Z</time>
      </trkpt>
      <trkpt lat="42.79723" lon="2.49944">
        <ele>274.02</ele>
        <time>2024-09-20T12:42:22.000Z</time>
      </trkpt>
      <trkpt lat="42.79717" lon="2.49961">
        <ele>274.02</ele>
        <time>2024-09-20T12:42:27.000Z</time>
      </trkpt>
      <trkpt lat="42.79713" lon="2.49979">
        <ele>274.05</ele>
        <time>2024-09-20T12:42:32.000Z</time>
      </trkpt>
      <trkpt lat="42.79707" lon="2.49993">
        <ele>274.11</ele>
        <time>2024-09-20T12:42:37.000Z</time>
      </trkpt>
      <trkpt lat="42.79698" lon="2.50005">
        <ele>274.18</ele>
        <time>2024-09-20T12:42:42.000Z</time>
      </trkpt>
      <trkpt lat="42.79691" lon="2.50014">
        <ele>274.28</ele>
        <time>2024-09-20T12:42:47.000Z</time>
      </trkpt>
      <trkpt lat="42.79686" lon="2.50026">
        <ele>274.53</ele>
        <time>2024-09-20T12:43:05.000Z</time>
      </trkpt>
      <trkpt lat="42.79683" lon="2.50042">
        <ele>274.67</ele>
        <time>2024-09-20T12:43:10.000Z</time>
      </trkpt>
      <trkpt lat="42.79676" lon="2.50057">
        <ele>274.81</ele>
        <time>2024-09-20T12:43:15.000Z</time>
      </trkpt>
      <trkpt lat="42.79665" lon="2.50068">
        <ele>274.96</ele>
        <time>2024-09-20T12:43:20.000Z</time>
      </trkpt>
      <trkpt lat="42.79656" lon="2.50078">
        <ele>275.1</ele>
        <time>2024-09-20T12:43:25.000Z</time>
      </trkpt>
      <trkpt lat="42.79649" lon="2.50091">
        <ele>275.23</ele>
        <time>2024-09-20T12:43:30.000Z</time>
      </trkpt>
      <trkpt lat="42.79645" lon="2.50106">
        <ele>275.37</ele>
        <time>2024-09-20T12:43:35.000Z</time>
      </trkpt>
      <trkpt lat="42.79646" lon="2.50122">
        <ele>275.49</ele>
        <time>2024-09-20T12:43:40.000Z</time>
      </trkpt>
      <trkpt lat="42.79648" lon="2.50139">
        <ele>275.6</ele>
        <time>2024-09-20T12:43:45.000Z</time>
      </trkpt>
      <trkpt lat="42.79651" lon="2.50154">
        <ele>275.69</ele>
        <time>2024-09-20T12:43:50.000Z</time>
      </trkpt>
      <trkpt lat="42.79655" lon="2.50173">
        <ele>275.78</ele>
        <time>2024-09-20T12:43:55.000Z</time>
      </trkpt>
      <trkpt lat="42.79652" lon="2.50189">
        <ele>275.87</ele>
        <time>2024-09-20T12:44:00.000Z</time>
      </trkpt>
      <trkpt lat="42.79645" lon="2.50205">
        <ele>275.96</ele>
        <time>2024-09-20T12:44:05.000Z</time>
      </trkpt>
      <trkpt lat="42.79638" lon="2.5022">
        <ele>276.05</ele>
        <time>2024-09-20T12:44:10.000Z</time>
      </trkpt>
      <trkpt lat="42.79633" lon="2.50237">
        <ele>276.16</ele>
        <time>2024-09-20T12:44:15.000Z</time>
      </trkpt>
      <trkpt lat="42.7963" lon="2.50257">
        <ele>276.29</ele>
        <time>2024-09-20T12:44:20.000Z</time>
      </trkpt>
      <trkpt lat="42.79628" lon="2.50276">
        <ele>276.46</ele>
        <time>2024-09-20T12:44:25.000Z</time>
      </trkpt>
      <trkpt lat="42.79626" lon="2.50295">
        <ele>276.65</ele>
        <time>2024-09-20T12:44:30.000Z</time>
      </trkpt>
      <trkpt lat="42.79627" lon="2.50316">
        <ele>276.86</ele>
        <time>2024-09-20T12:44:35.000Z</time>
      </trkpt>
      <trkpt lat="42.7963" lon="2.50335">
        <ele>277.06</ele>
        <time>2024-09-20T12:44:40.000Z</time>
      </trkpt>
      <trkpt lat="42.79632" lon="2.50354">
        <ele>277.25</ele>
        <time>2024-09-20T12:44:45.000Z</time>
      </trkpt>
      <trkpt lat="42.79635" lon="2.50375">
        <ele>277.44</ele>
        <time>2024-09-20T12:44:50.000Z</time>
      </trkpt>
      <trkpt lat="42.79638" lon="2.50394">
        <ele>277.62</ele>
        <time>2024-09-20T12:44:55.000Z</time>
      </trkpt>
      <trkpt lat="42.79644" lon="2.50411">
        <ele>277.81</ele>
        <time>2024-09-20T12:45:00.000Z</time>
      </trkpt>
      <trkpt lat="42.79652" lon="2.50428">
        <ele>278.01</ele>
        <time>2024-09-20T12:45:05.000Z</time>
      </trkpt>
      <trkpt lat="42.7966" lon="2.50444">
        <ele>278.22</ele>
        <time>2024-09-20T12:45:10.000Z</time>
      </trkpt>
      <trkpt lat="42.79667" lon="2.50463">
        <ele>278.44</ele>
        <time>2024-09-20T12:45:15.000Z</time>
      </trkpt>
      <trkpt lat="42.79666" lon="2.50486">
        <ele>279.33</ele>
        <time>2024-09-20T12:45:20.000Z</time>
      </trkpt>
      <trkpt lat="42.79655" lon="2.50503">
        <ele>279.91</ele>
        <time>2024-09-20T12:45:25.000Z</time>
      </trkpt>
      <trkpt lat="42.79641" lon="2.50517">
        <ele>280.08</ele>
        <time>2024-09-20T12:45:30.000Z</time>
      </trkpt>
      <trkpt lat="42.79628" lon="2.50534">
        <ele>280.29</ele>
        <time>2024-09-20T12:45:35.000Z</time>
      </trkpt>
      <trkpt lat="42.79618" lon="2.50551">
        <ele>280.53</ele>
        <time>2024-09-20T12:45:40.000Z</time>
      </trkpt>
      <trkpt lat="42.79613" lon="2.5057">
        <ele>280.79</ele>
        <time>2024-09-20T12:45:45.000Z</time>
      </trkpt>
      <trkpt lat="42.79611" lon="2.50591">
        <ele>281.06</ele>
        <time>2024-09-20T12:45:50.000Z</time>
      </trkpt>
      <trkpt lat="42.79616" lon="2.5061">
        <ele>281.35</ele>
        <time>2024-09-20T12:45:55.000Z</time>
      </trkpt>
      <trkpt lat="42.79624" lon="2.50629">
        <ele>281.63</ele>
        <time>2024-09-20T12:46:00.000Z</time>
      </trkpt>
      <trkpt lat="42.79632" lon="2.50647">
        <ele>281.91</ele>
        <time>2024-09-20T12:46:05.000Z</time>
      </trkpt>
      <trkpt lat="42.79641" lon="2.50664">
        <ele>282.21</ele>
        <time>2024-09-20T12:46:10.000Z</time>
      </trkpt>
      <trkpt lat="42.79647" lon="2.50682">
        <ele>282.51</ele>
        <time>2024-09-20T12:46:15.000Z</time>
      </trkpt>
      <trkpt lat="42.79654" lon="2.50702">
        <ele>282.83</ele>
        <time>2024-09-20T12:46:20.000Z</time>
      </trkpt>
      <trkpt lat="42.79661" lon="2.5072">
        <ele>283.15</ele>
        <time>2024-09-20T12:46:25.000Z</time>
      </trkpt>
      <trkpt lat="42.79665" lon="2.5074">
        <ele>283.48</ele>
        <time>2024-09-20T12:46:30.000Z</time>
      </trkpt>
      <trkpt lat="42.79661" lon="2.50761">
        <ele>283.81</ele>
        <time>2024-09-20T12:46:35.000Z</time>
      </trkpt>
      <trkpt lat="42.79649" lon="2.50777">
        <ele>284.14</ele>
        <time>2024-09-20T12:46:40.000Z</time>
      </trkpt>
      <trkpt lat="42.79639" lon="2.50796">
        <ele>284.48</ele>
        <time>2024-09-20T12:46:45.000Z</time>
      </trkpt>
      <trkpt lat="42.79637" lon="2.50817">
        <ele>284.79</ele>
        <time>2024-09-20T12:46:50.000Z</time>
      </trkpt>
      <trkpt lat="42.79637" lon="2.50838">
        <ele>285.09</ele>
        <time>2024-09-20T12:46:55.000Z</time>
      </trkpt>
      <trkpt lat="42.79637" lon="2.50859">
        <ele>285.38</ele>
        <time>2024-09-20T12:47:00.000Z</time>
      </trkpt>
      <trkpt lat="42.79638" lon="2.50882">
        <ele>285.66</ele>
        <time>2024-09-20T12:47:05.000Z</time>
      </trkpt>
      <trkpt lat="42.79639" lon="2.50903">
        <ele>285.92</ele>
        <time>2024-09-20T12:47:10.000Z</time>
      </trkpt>
      <trkpt lat="42.7964" lon="2.50927">
        <ele>286.17</ele>
        <time>2024-09-20T12:47:15.000Z</time>
      </trkpt>
      <trkpt lat="42.79641" lon="2.50949">
        <ele>286.4</ele>
        <time>2024-09-20T12:47:20.000Z</time>
      </trkpt>
      <trkpt lat="42.79642" lon="2.5097">
        <ele>286.63</ele>
        <time>2024-09-20T12:47:25.000Z</time>
      </trkpt>
      <trkpt lat="42.79648" lon="2.50991">
        <ele>286.85</ele>
        <time>2024-09-20T12:47:30.000Z</time>
      </trkpt>
      <trkpt lat="42.79658" lon="2.5101">
        <ele>287.07</ele>
        <time>2024-09-20T12:47:35.000Z</time>
      </trkpt>
      <trkpt lat="42.79671" lon="2.51027">
        <ele>287.29</ele>
        <time>2024-09-20T12:47:40.000Z</time>
      </trkpt>
      <trkpt lat="42.79682" lon="2.51048">
        <ele>288.6</ele>
        <time>2024-09-20T12:47:45.000Z</time>
      </trkpt>
      <trkpt lat="42.79671" lon="2.51073">
        <ele>289.35</ele>
        <time>2024-09-20T12:47:50.000Z</time>
      </trkpt>
      <trkpt lat="42.79653" lon="2.5107">
        <ele>289.6</ele>
        <time>2024-09-20T12:47:55.000Z</time>
      </trkpt>
      <trkpt lat="42.79634" lon="2.51064">
        <ele>289.79</ele>
        <time>2024-09-20T12:48:00.000Z</time>
      </trkpt>
      <trkpt lat="42.79613" lon="2.51062">
        <ele>289.95</ele>
        <time>2024-09-20T12:48:05.000Z</time>
      </trkpt>
      <trkpt lat="42.79596" lon="2.51076">
        <ele>290</ele>
        <time>2024-09-20T12:48:10.000Z</time>
      </trkpt>
      <trkpt lat="42.79588" lon="2.51094">
        <ele>290.08</ele>
        <time>2024-09-20T12:48:15.000Z</time>
      </trkpt>
      <trkpt lat="42.79586" lon="2.5111">
        <ele>290.18</ele>
        <time>2024-09-20T12:48:20.000Z</time>
      </trkpt>
      <trkpt lat="42.79583" lon="2.51129">
        <ele>290.28</ele>
        <time>2024-09-20T12:48:25.000Z</time>
      </trkpt>
      <trkpt lat="42.79581" lon="2.51147">
        <ele>290.39</ele>
        <time>2024-09-20T12:48:30.000Z</time>
      </trkpt>
      <trkpt lat="42.79581" lon="2.51167">
        <ele>290.51</ele>
        <time>2024-09-20T12:48:35.000Z</time>
      </trkpt>
      <trkpt lat="42.79584" lon="2.51186">
        <ele>290.64</ele>
        <time>2024-09-20T12:48:40.000Z</time>
      </trkpt>
      <trkpt lat="42.79589" lon="2.51205">
        <ele>290.78</ele>
        <time>2024-09-20T12:48:45.000Z</time>
      </trkpt>
      <trkpt lat="42.79597" lon="2.5122">
        <ele>290.94</ele>
        <time>2024-09-20T12:48:50.000Z</time>
      </trkpt>
      <trkpt lat="42.79607" lon="2.51234">
        <ele>291.12</ele>
        <time>2024-09-20T12:48:55.000Z</time>
      </trkpt>
      <trkpt lat="42.79619" lon="2.51246">
        <ele>291.31</ele>
        <time>2024-09-20T12:49:00.000Z</time>
      </trkpt>
      <trkpt lat="42.79632" lon="2.51257">
        <ele>291.53</ele>
        <time>2024-09-20T12:49:05.000Z</time>
      </trkpt>
      <trkpt lat="42.79643" lon="2.51273">
        <ele>291.76</ele>
        <time>2024-09-20T12:49:10.000Z</time>
      </trkpt>
      <trkpt lat="42.79649" lon="2.51292">
        <ele>292.01</ele>
        <time>2024-09-20T12:49:15.000Z</time>
      </trkpt>
      <trkpt lat="42.79661" lon="2.51306">
        <ele>292.26</ele>
        <time>2024-09-20T12:49:20.000Z</time>
      </trkpt>
      <trkpt lat="42.79673" lon="2.51319">
        <ele>292.53</ele>
        <time>2024-09-20T12:49:25.000Z</time>
      </trkpt>
      <trkpt lat="42.79675" lon="2.51339">
        <ele>292.83</ele>
        <time>2024-09-20T12:49:30.000Z</time>
      </trkpt>
      <trkpt lat="42.79664" lon="2.51347">
        <ele>293.16</ele>
        <time>2024-09-20T12:49:35.000Z</time>
      </trkpt>
      <trkpt lat="42.79649" lon="2.5135">
        <ele>293.51</ele>
        <time>2024-09-20T12:49:40.000Z</time>
      </trkpt>
      <trkpt lat="42.79635" lon="2.51351">
        <ele>293.87</ele>
        <time>2024-09-20T12:49:45.000Z</time>
      </trkpt>
      <trkpt lat="42.79621" lon="2.51349">
        <ele>294.23</ele>
        <time>2024-09-20T12:49:50.000Z</time>
      </trkpt>
      <trkpt lat="42.79609" lon="2.51344">
        <ele>294.59</ele>
        <time>2024-09-20T12:49:55.000Z</time>
      </trkpt>
      <trkpt lat="42.79594" lon="2.51343">
        <ele>294.94</ele>
        <time>2024-09-20T12:50:00.000Z</time>
      </trkpt>
      <trkpt lat="42.79581" lon="2.51355">
        <ele>295.27</ele>
        <time>2024-09-20T12:50:05.000Z</time>
      </trkpt>
      <trkpt lat="42.79576" lon="2.51371">
        <ele>295.6</ele>
        <time>2024-09-20T12:50:10.000Z</time>
      </trkpt>
      <trkpt lat="42.79577" lon="2.51388">
        <ele>295.92</ele>
        <time>2024-09-20T12:50:15.000Z</time>
      </trkpt>
      <trkpt lat="42.7958" lon="2.51405">
        <ele>296.22</ele>
        <time>2024-09-20T12:50:20.000Z</time>
      </trkpt>
      <trkpt lat="42.79586" lon="2.5142">
        <ele>296.51</ele>
        <time>2024-09-20T12:50:25.000Z</time>
      </trkpt>
      <trkpt lat="42.79596" lon="2.51433">
        <ele>296.8</ele>
        <time>2024-09-20T12:50:30.000Z</time>
      </trkpt>
      <trkpt lat="42.79607" lon="2.5144">
        <ele>297.07</ele>
        <time>2024-09-20T12:50:35.000Z</time>
      </trkpt>
      <trkpt lat="42.79619" lon="2.5145">
        <ele>297.36</ele>
        <time>2024-09-20T12:50:40.000Z</time>
      </trkpt>
      <trkpt lat="42.79632" lon="2.51462">
        <ele>297.64</ele>
        <time>2024-09-20T12:50:45.000Z</time>
      </trkpt>
      <trkpt lat="42.79642" lon="2.51477">
        <ele>297.92</ele>
        <time>2024-09-20T12:50:50.000Z</time>
      </trkpt>
      <trkpt lat="42.79644" lon="2.51495">
        <ele>298.2</ele>
        <time>2024-09-20T12:50:55.000Z</time>
      </trkpt>
      <trkpt lat="42.79641" lon="2.51512">
        <ele>298.47</ele>
        <time>2024-09-20T12:51:00.000Z</time>
      </trkpt>
      <trkpt lat="42.7964" lon="2.5153">
        <ele>298.76</ele>
        <time>2024-09-20T12:51:05.000Z</time>
      </trkpt>
      <trkpt lat="42.79643" lon="2.5155">
        <ele>299.05</ele>
        <time>2024-09-20T12:51:10.000Z</time>
      </trkpt>
      <trkpt lat="42.7965" lon="2.51568">
        <ele>299.36</ele>
        <time>2024-09-20T12:51:15.000Z</time>
      </trkpt>
      <trkpt lat="42.7966" lon="2.51586">
        <ele>299.68</ele>
        <time>2024-09-20T12:51:20.000Z</time>
      </trkpt>
      <trkpt lat="42.79669" lon="2.51601">
        <ele>299.99</ele>
        <time>2024-09-20T12:51:25.000Z</time>
      </trkpt>
      <trkpt lat="42.79673" lon="2.51621">
        <ele>300.31</ele>
        <time>2024-09-20T12:51:30.000Z</time>
      </trkpt>
      <trkpt lat="42.79674" lon="2.51641">
        <ele>300.62</ele>
        <time>2024-09-20T12:51:35.000Z</time>
      </trkpt>
      <trkpt lat="42.79671" lon="2.51658">
        <ele>300.92</ele>
        <time>2024-09-20T12:51:40.000Z</time>
      </trkpt>
      <trkpt lat="42.7967" lon="2.51679">
        <ele>301.24</ele>
        <time>2024-09-20T12:51:45.000Z</time>
      </trkpt>
      <trkpt lat="42.79669" lon="2.51697">
        <ele>301.55</ele>
        <time>2024-09-20T12:51:50.000Z</time>
      </trkpt>
      <trkpt lat="42.7967" lon="2.51718">
        <ele>301.87</ele>
        <time>2024-09-20T12:51:55.000Z</time>
      </trkpt>
      <trkpt lat="42.79674" lon="2.51738">
        <ele>302.18</ele>
        <time>2024-09-20T12:52:00.000Z</time>
      </trkpt>
      <trkpt lat="42.7968" lon="2.51755">
        <ele>302.49</ele>
        <time>2024-09-20T12:52:05.000Z</time>
      </trkpt>
      <trkpt lat="42.79691" lon="2.51771">
        <ele>302.8</ele>
        <time>2024-09-20T12:52:10.000Z</time>
      </trkpt>
      <trkpt lat="42.79697" lon="2.51786">
        <ele>303.11</ele>
        <time>2024-09-20T12:52:15.000Z</time>
      </trkpt>
      <trkpt lat="42.79701" lon="2.51801">
        <ele>303.43</ele>
        <time>2024-09-20T12:52:20.000Z</time>
      </trkpt>
      <trkpt lat="42.79702" lon="2.51824">
        <ele>303.84</ele>
        <time>2024-09-20T12:52:25.999Z</time>
      </trkpt>
      <trkpt lat="42.79699" lon="2.51844">
        <ele>304.19</ele>
        <time>2024-09-20T12:52:30.999Z</time>
      </trkpt>
      <trkpt lat="42.79696" lon="2.51863">
        <ele>304.54</ele>
        <time>2024-09-20T12:52:35.999Z</time>
      </trkpt>
      <trkpt lat="42.79692" lon="2.51881">
        <ele>304.91</ele>
        <time>2024-09-20T12:52:40.999Z</time>
      </trkpt>
      <trkpt lat="42.79689" lon="2.51898">
        <ele>305.27</ele>
        <time>2024-09-20T12:52:45.999Z</time>
      </trkpt>
      <trkpt lat="42.79687" lon="2.51915">
        <ele>305.65</ele>
        <time>2024-09-20T12:52:50.999Z</time>
      </trkpt>
      <trkpt lat="42.79686" lon="2.51932">
        <ele>306.03</ele>
        <time>2024-09-20T12:52:55.999Z</time>
      </trkpt>
      <trkpt lat="42.79685" lon="2.5195">
        <ele>306.41</ele>
        <time>2024-09-20T12:53:00.999Z</time>
      </trkpt>
      <trkpt lat="42.79686" lon="2.51969">
        <ele>306.79</ele>
        <time>2024-09-20T12:53:05.999Z</time>
      </trkpt>
      <trkpt lat="42.79691" lon="2.51987">
        <ele>307.16</ele>
        <time>2024-09-20T12:53:10.999Z</time>
      </trkpt>
      <trkpt lat="42.79698" lon="2.52004">
        <ele>307.52</ele>
        <time>2024-09-20T12:53:15.999Z</time>
      </trkpt>
      <trkpt lat="42.79706" lon="2.52015">
        <ele>307.86</ele>
        <time>2024-09-20T12:53:20.999Z</time>
      </trkpt>
      <trkpt lat="42.79715" lon="2.52024">
        <ele>308.2</ele>
        <time>2024-09-20T12:53:25.999Z</time>
      </trkpt>
      <trkpt lat="42.79726" lon="2.52031">
        <ele>308.54</ele>
        <time>2024-09-20T12:53:30.999Z</time>
      </trkpt>
      <trkpt lat="42.79737" lon="2.52038">
        <ele>308.88</ele>
        <time>2024-09-20T12:53:35.999Z</time>
      </trkpt>
      <trkpt lat="42.79746" lon="2.52051">
        <ele>309.23</ele>
        <time>2024-09-20T12:53:40.999Z</time>
      </trkpt>
      <trkpt lat="42.79753" lon="2.52065">
        <ele>309.57</ele>
        <time>2024-09-20T12:53:45.999Z</time>
      </trkpt>
      <trkpt lat="42.79759" lon="2.52078">
        <ele>309.9</ele>
        <time>2024-09-20T12:53:50.999Z</time>
      </trkpt>
      <trkpt lat="42.79766" lon="2.52092">
        <ele>310.22</ele>
        <time>2024-09-20T12:53:55.999Z</time>
      </trkpt>
      <trkpt lat="42.79772" lon="2.52109">
        <ele>310.54</ele>
        <time>2024-09-20T12:54:00.999Z</time>
      </trkpt>
      <trkpt lat="42.79776" lon="2.52127">
        <ele>310.85</ele>
        <time>2024-09-20T12:54:05.999Z</time>
      </trkpt>
      <trkpt lat="42.79781" lon="2.52143">
        <ele>311.15</ele>
        <time>2024-09-20T12:54:10.999Z</time>
      </trkpt>
      <trkpt lat="42.79786" lon="2.52159">
        <ele>311.44</ele>
        <time>2024-09-20T12:54:15.999Z</time>
      </trkpt>
      <trkpt lat="42.79792" lon="2.52176">
        <ele>311.72</ele>
        <time>2024-09-20T12:54:20.999Z</time>
      </trkpt>
      <trkpt lat="42.79798" lon="2.52192">
        <ele>311.99</ele>
        <time>2024-09-20T12:54:25.999Z</time>
      </trkpt>
      <trkpt lat="42.79808" lon="2.52205">
        <ele>312.26</ele>
        <time>2024-09-20T12:54:30.999Z</time>
      </trkpt>
      <trkpt lat="42.79818" lon="2.52216">
        <ele>312.52</ele>
        <time>2024-09-20T12:54:35.999Z</time>
      </trkpt>
      <trkpt lat="42.79825" lon="2.5223">
        <ele>312.78</ele>
        <time>2024-09-20T12:54:40.999Z</time>
      </trkpt>
      <trkpt lat="42.79832" lon="2.52246">
        <ele>313.04</ele>
        <time>2024-09-20T12:54:45.999Z</time>
      </trkpt>
      <trkpt lat="42.7984" lon="2.5226">
        <ele>313.28</ele>
        <time>2024-09-20T12:54:50.999Z</time>
      </trkpt>
      <trkpt lat="42.79848" lon="2.52274">
        <ele>313.52</ele>
        <time>2024-09-20T12:54:55.999Z</time>
      </trkpt>
      <trkpt lat="42.79851" lon="2.52286">
        <ele>313.76</ele>
        <time>2024-09-20T12:55:00.999Z</time>
      </trkpt>
      <trkpt lat="42.79855" lon="2.52299">
        <ele>314.05</ele>
        <time>2024-09-20T12:55:06.999Z</time>
      </trkpt>
      <trkpt lat="42.79859" lon="2.52315">
        <ele>314.31</ele>
        <time>2024-09-20T12:55:11.999Z</time>
      </trkpt>
      <trkpt lat="42.79863" lon="2.5233">
        <ele>314.58</ele>
        <time>2024-09-20T12:55:16.999Z</time>
      </trkpt>
      <trkpt lat="42.79872" lon="2.52346">
        <ele>314.86</ele>
        <time>2024-09-20T12:55:21.999Z</time>
      </trkpt>
      <trkpt lat="42.79879" lon="2.5236">
        <ele>315.13</ele>
        <time>2024-09-20T12:55:26.999Z</time>
      </trkpt>
      <trkpt lat="42.79882" lon="2.52375">
        <ele>315.4</ele>
        <time>2024-09-20T12:55:31.999Z</time>
      </trkpt>
      <trkpt lat="42.79879" lon="2.5239">
        <ele>315.69</ele>
        <time>2024-09-20T12:55:36.999Z</time>
      </trkpt>
      <trkpt lat="42.79874" lon="2.52406">
        <ele>315.99</ele>
        <time>2024-09-20T12:55:41.999Z</time>
      </trkpt>
      <trkpt lat="42.7987" lon="2.52418">
        <ele>316.31</ele>
        <time>2024-09-20T12:55:46.999Z</time>
      </trkpt>
      <trkpt lat="42.79866" lon="2.52432">
        <ele>316.64</ele>
        <time>2024-09-20T12:55:51.999Z</time>
      </trkpt>
      <trkpt lat="42.79863" lon="2.52446">
        <ele>316.98</ele>
        <time>2024-09-20T12:55:56.999Z</time>
      </trkpt>
      <trkpt lat="42.79859" lon="2.52459">
        <ele>317.33</ele>
        <time>2024-09-20T12:56:01.999Z</time>
      </trkpt>
      <trkpt lat="42.79857" lon="2.52474">
        <ele>317.69</ele>
        <time>2024-09-20T12:56:06.999Z</time>
      </trkpt>
      <trkpt lat="42.79861" lon="2.52493">
        <ele>318.04</ele>
        <time>2024-09-20T12:56:11.999Z</time>
      </trkpt>
      <trkpt lat="42.79872" lon="2.52509">
        <ele>318.38</ele>
        <time>2024-09-20T12:56:16.999Z</time>
      </trkpt>
      <trkpt lat="42.79882" lon="2.52516">
        <ele>318.7</ele>
        <time>2024-09-20T12:56:21.999Z</time>
      </trkpt>
      <trkpt lat="42.79892" lon="2.52518">
        <ele>319.02</ele>
        <time>2024-09-20T12:56:26.999Z</time>
      </trkpt>
      <trkpt lat="42.79903" lon="2.52517">
        <ele>319.35</ele>
        <time>2024-09-20T12:56:31.999Z</time>
      </trkpt>
      <trkpt lat="42.79913" lon="2.52518">
        <ele>319.69</ele>
        <time>2024-09-20T12:56:36.999Z</time>
      </trkpt>
      <trkpt lat="42.79924" lon="2.52518">
        <ele>320.05</ele>
        <time>2024-09-20T12:56:41.999Z</time>
      </trkpt>
      <trkpt lat="42.79935" lon="2.5252">
        <ele>320.41</ele>
        <time>2024-09-20T12:56:46.999Z</time>
      </trkpt>
      <trkpt lat="42.79945" lon="2.52527">
        <ele>320.77</ele>
        <time>2024-09-20T12:56:51.999Z</time>
      </trkpt>
      <trkpt lat="42.79951" lon="2.5254">
        <ele>321.15</ele>
        <time>2024-09-20T12:56:56.999Z</time>
      </trkpt>
      <trkpt lat="42.7995" lon="2.52554">
        <ele>321.54</ele>
        <time>2024-09-20T12:57:01.999Z</time>
      </trkpt>
      <trkpt lat="42.79946" lon="2.52567">
        <ele>321.94</ele>
        <time>2024-09-20T12:57:06.999Z</time>
      </trkpt>
      <trkpt lat="42.79941" lon="2.5258">
        <ele>322.36</ele>
        <time>2024-09-20T12:57:11.999Z</time>
      </trkpt>
      <trkpt lat="42.79938" lon="2.52593">
        <ele>322.78</ele>
        <time>2024-09-20T12:57:16.999Z</time>
      </trkpt>
      <trkpt lat="42.79935" lon="2.52608">
        <ele>323.2</ele>
        <time>2024-09-20T12:57:21.999Z</time>
      </trkpt>
      <trkpt lat="42.79934" lon="2.52623">
        <ele>323.64</ele>
        <time>2024-09-20T12:57:26.999Z</time>
      </trkpt>
      <trkpt lat="42.79935" lon="2.52638">
        <ele>324.08</ele>
        <time>2024-09-20T12:57:31.999Z</time>
      </trkpt>
      <trkpt lat="42.79936" lon="2.52653">
        <ele>324.53</ele>
        <time>2024-09-20T12:57:36.999Z</time>
      </trkpt>
      <trkpt lat="42.79938" lon="2.52668">
        <ele>324.99</ele>
        <time>2024-09-20T12:57:41.999Z</time>
      </trkpt>
      <trkpt lat="42.79941" lon="2.52683">
        <ele>325.45</ele>
        <time>2024-09-20T12:57:46.999Z</time>
      </trkpt>
      <trkpt lat="42.79942" lon="2.52698">
        <ele>325.93</ele>
        <time>2024-09-20T12:57:51.999Z</time>
      </trkpt>
      <trkpt lat="42.79945" lon="2.52712">
        <ele>326.4</ele>
        <time>2024-09-20T12:57:56.999Z</time>
      </trkpt>
      <trkpt lat="42.79947" lon="2.52726">
        <ele>326.88</ele>
        <time>2024-09-20T12:58:01.999Z</time>
      </trkpt>
      <trkpt lat="42.79949" lon="2.52741">
        <ele>327.37</ele>
        <time>2024-09-20T12:58:06.999Z</time>
      </trkpt>
      <trkpt lat="42.79949" lon="2.52756">
        <ele>327.86</ele>
        <time>2024-09-20T12:58:11.999Z</time>
      </trkpt>
      <trkpt lat="42.79946" lon="2.5277">
        <ele>328.34</ele>
        <time>2024-09-20T12:58:16.999Z</time>
      </trkpt>
      <trkpt lat="42.79942" lon="2.52782">
        <ele>328.83</ele>
        <time>2024-09-20T12:58:21.999Z</time>
      </trkpt>
      <trkpt lat="42.79936" lon="2.52793">
        <ele>329.31</ele>
        <time>2024-09-20T12:58:26.999Z</time>
      </trkpt>
      <trkpt lat="42.79928" lon="2.52802">
        <ele>329.79</ele>
        <time>2024-09-20T12:58:31.999Z</time>
      </trkpt>
      <trkpt lat="42.79919" lon="2.52812">
        <ele>330.26</ele>
        <time>2024-09-20T12:58:36.999Z</time>
      </trkpt>
      <trkpt lat="42.79909" lon="2.52824">
        <ele>330.71</ele>
        <time>2024-09-20T12:58:41.999Z</time>
      </trkpt>
      <trkpt lat="42.799" lon="2.52833">
        <ele>331.15</ele>
        <time>2024-09-20T12:58:46.999Z</time>
      </trkpt>
      <trkpt lat="42.79891" lon="2.5284">
        <ele>331.65</ele>
        <time>2024-09-20T12:58:52.999Z</time>
      </trkpt>
      <trkpt lat="42.79886" lon="2.52852">
        <ele>335.09</ele>
        <time>2024-09-20T12:59:56.999Z</time>
      </trkpt>
      <trkpt lat="42.79882" lon="2.52865">
        <ele>335.58</ele>
        <time>2024-09-20T13:00:01.999Z</time>
      </trkpt>
      <trkpt lat="42.79878" lon="2.52877">
        <ele>336.07</ele>
        <time>2024-09-20T13:00:06.999Z</time>
      </trkpt>
      <trkpt lat="42.79875" lon="2.5289">
        <ele>336.54</ele>
        <time>2024-09-20T13:00:11.999Z</time>
      </trkpt>
      <trkpt lat="42.79874" lon="2.52903">
        <ele>337</ele>
        <time>2024-09-20T13:00:16.999Z</time>
      </trkpt>
      <trkpt lat="42.79873" lon="2.52916">
        <ele>337.46</ele>
        <time>2024-09-20T13:00:21.999Z</time>
      </trkpt>
      <trkpt lat="42.79874" lon="2.52929">
        <ele>337.91</ele>
        <time>2024-09-20T13:00:26.999Z</time>
      </trkpt>
      <trkpt lat="42.79874" lon="2.52942">
        <ele>338.36</ele>
        <time>2024-09-20T13:00:31.999Z</time>
      </trkpt>
      <trkpt lat="42.79872" lon="2.52956">
        <ele>338.81</ele>
        <time>2024-09-20T13:00:36.999Z</time>
      </trkpt>
      <trkpt lat="42.79876" lon="2.52969">
        <ele>340.73</ele>
        <time>2024-09-20T13:01:59.999Z</time>
      </trkpt>
      <trkpt lat="42.79886" lon="2.52974">
        <ele>341.49</ele>
        <time>2024-09-20T13:02:04.999Z</time>
      </trkpt>
      <trkpt lat="42.79896" lon="2.52976">
        <ele>342.19</ele>
        <time>2024-09-20T13:02:09.999Z</time>
      </trkpt>
      <trkpt lat="42.79906" lon="2.52979">
        <ele>342.83</ele>
        <time>2024-09-20T13:02:14.999Z</time>
      </trkpt>
      <trkpt lat="42.79916" lon="2.52984">
        <ele>343.43</ele>
        <time>2024-09-20T13:02:19.999Z</time>
      </trkpt>
      <trkpt lat="42.79926" lon="2.52986">
        <ele>343.99</ele>
        <time>2024-09-20T13:02:24.999Z</time>
      </trkpt>
      <trkpt lat="42.79937" lon="2.52987">
        <ele>344.52</ele>
        <time>2024-09-20T13:02:29.999Z</time>
      </trkpt>
      <trkpt lat="42.79948" lon="2.52989">
        <ele>345.11</ele>
        <time>2024-09-20T13:02:35.999Z</time>
      </trkpt>
      <trkpt lat="42.79957" lon="2.52987">
        <ele>345.56</ele>
        <time>2024-09-20T13:02:40.999Z</time>
      </trkpt>
      <trkpt lat="42.79967" lon="2.52986">
        <ele>346.22</ele>
        <time>2024-09-20T13:02:47.999Z</time>
      </trkpt>
      <trkpt lat="42.79977" lon="2.5298">
        <ele>346.98</ele>
        <time>2024-09-20T13:02:53.999Z</time>
      </trkpt>
      <trkpt lat="42.79987" lon="2.52982">
        <ele>347.75</ele>
        <time>2024-09-20T13:02:58.999Z</time>
      </trkpt>
      <trkpt lat="42.79996" lon="2.52983">
        <ele>348.52</ele>
        <time>2024-09-20T13:03:03.999Z</time>
      </trkpt>
      <trkpt lat="42.80006" lon="2.52982">
        <ele>349.31</ele>
        <time>2024-09-20T13:03:08.999Z</time>
      </trkpt>
      <trkpt lat="42.80016" lon="2.52986">
        <ele>350.07</ele>
        <time>2024-09-20T13:03:13.999Z</time>
      </trkpt>
      <trkpt lat="42.80033" lon="2.52992">
        <ele>350.78</ele>
        <time>2024-09-20T13:03:18.999Z</time>
      </trkpt>
      <trkpt lat="42.80053" lon="2.52998">
        <ele>353.99</ele>
        <time>2024-09-20T13:03:23.999Z</time>
      </trkpt>
      <trkpt lat="42.8007" lon="2.53013">
        <ele>356.22</ele>
        <time>2024-09-20T13:03:28.999Z</time>
      </trkpt>
      <trkpt lat="42.80091" lon="2.53036">
        <ele>357.71</ele>
        <time>2024-09-20T13:03:33.999Z</time>
      </trkpt>
      <trkpt lat="42.80112" lon="2.53058">
        <ele>359.31</ele>
        <time>2024-09-20T13:03:38.999Z</time>
      </trkpt>
      <trkpt lat="42.80132" lon="2.5308">
        <ele>360.64</ele>
        <time>2024-09-20T13:03:43.999Z</time>
      </trkpt>
      <trkpt lat="42.80155" lon="2.53105">
        <ele>361.41</ele>
        <time>2024-09-20T13:03:48.999Z</time>
      </trkpt>
      <trkpt lat="42.80177" lon="2.53132">
        <ele>362.04</ele>
        <time>2024-09-20T13:03:53.999Z</time>
      </trkpt>
      <trkpt lat="42.80203" lon="2.53153">
        <ele>362.51</ele>
        <time>2024-09-20T13:03:58.999Z</time>
      </trkpt>
      <trkpt lat="42.80235" lon="2.53157">
        <ele>363.03</ele>
        <time>2024-09-20T13:04:03.999Z</time>
      </trkpt>
      <trkpt lat="42.80246" lon="2.53194">
        <ele>363.18</ele>
        <time>2024-09-20T13:04:08.999Z</time>
      </trkpt>
      <trkpt lat="42.8023" lon="2.53225">
        <ele>363.01</ele>
        <time>2024-09-20T13:04:13.999Z</time>
      </trkpt>
      <trkpt lat="42.80217" lon="2.5324">
        <ele>363.04</ele>
        <time>2024-09-20T13:04:18.999Z</time>
      </trkpt>
      <trkpt lat="42.80206" lon="2.53264">
        <ele>363.42</ele>
        <time>2024-09-20T13:04:23.999Z</time>
      </trkpt>
      <trkpt lat="42.80199" lon="2.53283">
        <ele>363.51</ele>
        <time>2024-09-20T13:04:28.999Z</time>
      </trkpt>
      <trkpt lat="42.8019" lon="2.53302">
        <ele>363.61</ele>
        <time>2024-09-20T13:04:33.999Z</time>
      </trkpt>
      <trkpt lat="42.80185" lon="2.53319">
        <ele>363.72</ele>
        <time>2024-09-20T13:04:39.000Z</time>
      </trkpt>
      <trkpt lat="42.80184" lon="2.5334">
        <ele>363.83</ele>
        <time>2024-09-20T13:04:44.000Z</time>
      </trkpt>
      <trkpt lat="42.80188" lon="2.53358">
        <ele>363.95</ele>
        <time>2024-09-20T13:04:49.000Z</time>
      </trkpt>
      <trkpt lat="42.80194" lon="2.53375">
        <ele>364.06</ele>
        <time>2024-09-20T13:04:54.000Z</time>
      </trkpt>
      <trkpt lat="42.80202" lon="2.53392">
        <ele>364.21</ele>
        <time>2024-09-20T13:04:59.000Z</time>
      </trkpt>
      <trkpt lat="42.80211" lon="2.53406">
        <ele>364.43</ele>
        <time>2024-09-20T13:05:04.000Z</time>
      </trkpt>
      <trkpt lat="42.8022" lon="2.53417">
        <ele>364.7</ele>
        <time>2024-09-20T13:05:09.000Z</time>
      </trkpt>
      <trkpt lat="42.80229" lon="2.53425">
        <ele>364.99</ele>
        <time>2024-09-20T13:05:14.000Z</time>
      </trkpt>
      <trkpt lat="42.80236" lon="2.53437">
        <ele>365.3</ele>
        <time>2024-09-20T13:05:19.000Z</time>
      </trkpt>
      <trkpt lat="42.80237" lon="2.53451">
        <ele>365.61</ele>
        <time>2024-09-20T13:05:24.000Z</time>
      </trkpt>
      <trkpt lat="42.80236" lon="2.53466">
        <ele>365.93</ele>
        <time>2024-09-20T13:05:29.000Z</time>
      </trkpt>
      <trkpt lat="42.80233" lon="2.53479">
        <ele>366.23</ele>
        <time>2024-09-20T13:05:34.000Z</time>
      </trkpt>
      <trkpt lat="42.80229" lon="2.53495">
        <ele>366.51</ele>
        <time>2024-09-20T13:05:39.000Z</time>
      </trkpt>
      <trkpt lat="42.80224" lon="2.53513">
        <ele>366.77</ele>
        <time>2024-09-20T13:05:44.000Z</time>
      </trkpt>
      <trkpt lat="42.80222" lon="2.53528">
        <ele>367</ele>
        <time>2024-09-20T13:05:49.000Z</time>
      </trkpt>
      <trkpt lat="42.80219" lon="2.53544">
        <ele>367.2</ele>
        <time>2024-09-20T13:05:54.000Z</time>
      </trkpt>
      <trkpt lat="42.80218" lon="2.53561">
        <ele>367.39</ele>
        <time>2024-09-20T13:05:59.000Z</time>
      </trkpt>
      <trkpt lat="42.80221" lon="2.53578">
        <ele>367.56</ele>
        <time>2024-09-20T13:06:04.000Z</time>
      </trkpt>
      <trkpt lat="42.80225" lon="2.53594">
        <ele>367.74</ele>
        <time>2024-09-20T13:06:09.000Z</time>
      </trkpt>
      <trkpt lat="42.80228" lon="2.53609">
        <ele>367.94</ele>
        <time>2024-09-20T13:06:14.000Z</time>
      </trkpt>
      <trkpt lat="42.80229" lon="2.53625">
        <ele>368.16</ele>
        <time>2024-09-20T13:06:19.000Z</time>
      </trkpt>
      <trkpt lat="42.80229" lon="2.53642">
        <ele>368.39</ele>
        <time>2024-09-20T13:06:24.000Z</time>
      </trkpt>
      <trkpt lat="42.80228" lon="2.5366">
        <ele>368.62</ele>
        <time>2024-09-20T13:06:29.000Z</time>
      </trkpt>
      <trkpt lat="42.80226" lon="2.53678">
        <ele>368.85</ele>
        <time>2024-09-20T13:06:34.000Z</time>
      </trkpt>
      <trkpt lat="42.80225" lon="2.53695">
        <ele>369.06</ele>
        <time>2024-09-20T13:06:39.000Z</time>
      </trkpt>
      <trkpt lat="42.80225" lon="2.53711">
        <ele>369.27</ele>
        <time>2024-09-20T13:06:44.000Z</time>
      </trkpt>
      <trkpt lat="42.80224" lon="2.53727">
        <ele>369.46</ele>
        <time>2024-09-20T13:06:49.000Z</time>
      </trkpt>
      <trkpt lat="42.80226" lon="2.53741">
        <ele>369.64</ele>
        <time>2024-09-20T13:06:54.000Z</time>
      </trkpt>
      <trkpt lat="42.8023" lon="2.53755">
        <ele>369.83</ele>
        <time>2024-09-20T13:06:59.000Z</time>
      </trkpt>
      <trkpt lat="42.80236" lon="2.53769">
        <ele>370.01</ele>
        <time>2024-09-20T13:07:04.000Z</time>
      </trkpt>
      <trkpt lat="42.80241" lon="2.53783">
        <ele>370.18</ele>
        <time>2024-09-20T13:07:09.000Z</time>
      </trkpt>
      <trkpt lat="42.80242" lon="2.53798">
        <ele>370.34</ele>
        <time>2024-09-20T13:07:14.000Z</time>
      </trkpt>
      <trkpt lat="42.8024" lon="2.53812">
        <ele>370.5</ele>
        <time>2024-09-20T13:07:19.000Z</time>
      </trkpt>
      <trkpt lat="42.80235" lon="2.53825">
        <ele>370.67</ele>
        <time>2024-09-20T13:07:24.000Z</time>
      </trkpt>
      <trkpt lat="42.80231" lon="2.53837">
        <ele>370.85</ele>
        <time>2024-09-20T13:07:29.000Z</time>
      </trkpt>
      <trkpt lat="42.80227" lon="2.53852">
        <ele>371.04</ele>
        <time>2024-09-20T13:07:34.000Z</time>
      </trkpt>
      <trkpt lat="42.80223" lon="2.53866">
        <ele>371.24</ele>
        <time>2024-09-20T13:07:39.000Z</time>
      </trkpt>
      <trkpt lat="42.80221" lon="2.53883">
        <ele>371.43</ele>
        <time>2024-09-20T13:07:44.000Z</time>
      </trkpt>
      <trkpt lat="42.80219" lon="2.53898">
        <ele>371.63</ele>
        <time>2024-09-20T13:07:49.000Z</time>
      </trkpt>
      <trkpt lat="42.80221" lon="2.53913">
        <ele>371.83</ele>
        <time>2024-09-20T13:07:54.000Z</time>
      </trkpt>
      <trkpt lat="42.80225" lon="2.53926">
        <ele>372.05</ele>
        <time>2024-09-20T13:07:59.000Z</time>
      </trkpt>
      <trkpt lat="42.80232" lon="2.53942">
        <ele>372.25</ele>
        <time>2024-09-20T13:08:04.000Z</time>
      </trkpt>
      <trkpt lat="42.80236" lon="2.53964">
        <ele>372.45</ele>
        <time>2024-09-20T13:08:09.000Z</time>
      </trkpt>
      <trkpt lat="42.80227" lon="2.53985">
        <ele>373.17</ele>
        <time>2024-09-20T13:08:14.000Z</time>
      </trkpt>
      <trkpt lat="42.80209" lon="2.53998">
        <ele>373.61</ele>
        <time>2024-09-20T13:08:19.000Z</time>
      </trkpt>
      <trkpt lat="42.80195" lon="2.54013">
        <ele>373.72</ele>
        <time>2024-09-20T13:08:24.000Z</time>
      </trkpt>
      <trkpt lat="42.80185" lon="2.54033">
        <ele>373.84</ele>
        <time>2024-09-20T13:08:29.000Z</time>
      </trkpt>
      <trkpt lat="42.80176" lon="2.54054">
        <ele>373.96</ele>
        <time>2024-09-20T13:08:34.000Z</time>
      </trkpt>
      <trkpt lat="42.80165" lon="2.54074">
        <ele>374.57</ele>
        <time>2024-09-20T13:08:39.000Z</time>
      </trkpt>
      <trkpt lat="42.80153" lon="2.54093">
        <ele>375.1</ele>
        <time>2024-09-20T13:08:44.000Z</time>
      </trkpt>
      <trkpt lat="42.80141" lon="2.54113">
        <ele>375.46</ele>
        <time>2024-09-20T13:08:49.000Z</time>
      </trkpt>
      <trkpt lat="42.80128" lon="2.5413">
        <ele>375.52</ele>
        <time>2024-09-20T13:08:54.000Z</time>
      </trkpt>
      <trkpt lat="42.80116" lon="2.54149">
        <ele>375.9</ele>
        <time>2024-09-20T13:08:59.000Z</time>
      </trkpt>
      <trkpt lat="42.80108" lon="2.54171">
        <ele>376.18</ele>
        <time>2024-09-20T13:09:04.000Z</time>
      </trkpt>
      <trkpt lat="42.80101" lon="2.54197">
        <ele>376.59</ele>
        <time>2024-09-20T13:09:09.000Z</time>
      </trkpt>
      <trkpt lat="42.80099" lon="2.54223">
        <ele>376.9</ele>
        <time>2024-09-20T13:09:14.000Z</time>
      </trkpt>
      <trkpt lat="42.80098" lon="2.54252">
        <ele>377.12</ele>
        <time>2024-09-20T13:09:19.000Z</time>
      </trkpt>
      <trkpt lat="42.80096" lon="2.5428">
        <ele>377.32</ele>
        <time>2024-09-20T13:09:24.000Z</time>
      </trkpt>
      <trkpt lat="42.80094" lon="2.5431">
        <ele>377.51</ele>
        <time>2024-09-20T13:09:29.000Z</time>
      </trkpt>
      <trkpt lat="42.80092" lon="2.54341">
        <ele>377.71</ele>
        <time>2024-09-20T13:09:34.000Z</time>
      </trkpt>
      <trkpt lat="42.8009" lon="2.54372">
        <ele>377.92</ele>
        <time>2024-09-20T13:09:39.000Z</time>
      </trkpt>
      <trkpt lat="42.80088" lon="2.54407">
        <ele>378.13</ele>
        <time>2024-09-20T13:09:44.000Z</time>
      </trkpt>
      <trkpt lat="42.80086" lon="2.54443">
        <ele>378.26</ele>
        <time>2024-09-20T13:09:49.000Z</time>
      </trkpt>
      <trkpt lat="42.8008" lon="2.54484">
        <ele>378.33</ele>
        <time>2024-09-20T13:09:54.000Z</time>
      </trkpt>
      <trkpt lat="42.80079" lon="2.54526">
        <ele>378.42</ele>
        <time>2024-09-20T13:09:59.000Z</time>
      </trkpt>
      <trkpt lat="42.80085" lon="2.54563">
        <ele>378.43</ele>
        <time>2024-09-20T13:10:04.000Z</time>
      </trkpt>
      <trkpt lat="42.80083" lon="2.54598">
        <ele>378.57</ele>
        <time>2024-09-20T13:10:09.000Z</time>
      </trkpt>
      <trkpt lat="42.80081" lon="2.54634">
        <ele>378.55</ele>
        <time>2024-09-20T13:10:14.000Z</time>
      </trkpt>
      <trkpt lat="42.80081" lon="2.54668">
        <ele>378.3</ele>
        <time>2024-09-20T13:10:19.000Z</time>
      </trkpt>
      <trkpt lat="42.8008" lon="2.54701">
        <ele>378.13</ele>
        <time>2024-09-20T13:10:24.000Z</time>
      </trkpt>
      <trkpt lat="42.80073" lon="2.54734">
        <ele>378.01</ele>
        <time>2024-09-20T13:10:29.000Z</time>
      </trkpt>
      <trkpt lat="42.80062" lon="2.54765">
        <ele>377.95</ele>
        <time>2024-09-20T13:10:34.000Z</time>
      </trkpt>
      <trkpt lat="42.80048" lon="2.54794">
        <ele>377.77</ele>
        <time>2024-09-20T13:10:39.000Z</time>
      </trkpt>
      <trkpt lat="42.80035" lon="2.54821">
        <ele>377.61</ele>
        <time>2024-09-20T13:10:44.000Z</time>
      </trkpt>
      <trkpt lat="42.80027" lon="2.54845">
        <ele>377.45</ele>
        <time>2024-09-20T13:10:49.000Z</time>
      </trkpt>
      <trkpt lat="42.80022" lon="2.54869">
        <ele>377.31</ele>
        <time>2024-09-20T13:10:54.000Z</time>
      </trkpt>
      <trkpt lat="42.80018" lon="2.54896">
        <ele>377.2</ele>
        <time>2024-09-20T13:10:59.000Z</time>
      </trkpt>
      <trkpt lat="42.80017" lon="2.54921">
        <ele>377.16</ele>
        <time>2024-09-20T13:11:04.000Z</time>
      </trkpt>
      <trkpt lat="42.80019" lon="2.54949">
        <ele>377.08</ele>
        <time>2024-09-20T13:11:09.000Z</time>
      </trkpt>
      <trkpt lat="42.80022" lon="2.54976">
        <ele>377.02</ele>
        <time>2024-09-20T13:11:14.000Z</time>
      </trkpt>
      <trkpt lat="42.80026" lon="2.55005">
        <ele>376.93</ele>
        <time>2024-09-20T13:11:19.000Z</time>
      </trkpt>
      <trkpt lat="42.80027" lon="2.55032">
        <ele>376.81</ele>
        <time>2024-09-20T13:11:24.000Z</time>
      </trkpt>
      <trkpt lat="42.80026" lon="2.55054">
        <ele>376.78</ele>
        <time>2024-09-20T13:11:29.000Z</time>
      </trkpt>
      <trkpt lat="42.80021" lon="2.55076">
        <ele>376.74</ele>
        <time>2024-09-20T13:11:34.000Z</time>
      </trkpt>
      <trkpt lat="42.80016" lon="2.55096">
        <ele>376.69</ele>
        <time>2024-09-20T13:11:39.000Z</time>
      </trkpt>
      <trkpt lat="42.80012" lon="2.55115">
        <ele>376.64</ele>
        <time>2024-09-20T13:11:44.000Z</time>
      </trkpt>
      <trkpt lat="42.80008" lon="2.55134">
        <ele>376.6</ele>
        <time>2024-09-20T13:11:49.000Z</time>
      </trkpt>
      <trkpt lat="42.80005" lon="2.55153">
        <ele>376.57</ele>
        <time>2024-09-20T13:11:54.000Z</time>
      </trkpt>
      <trkpt lat="42.80002" lon="2.55174">
        <ele>376.54</ele>
        <time>2024-09-20T13:11:59.000Z</time>
      </trkpt>
      <trkpt lat="42.79998" lon="2.55194">
        <ele>376.52</ele>
        <time>2024-09-20T13:12:04.000Z</time>
      </trkpt>
      <trkpt lat="42.79994" lon="2.55217">
        <ele>376.51</ele>
        <time>2024-09-20T13:12:09.000Z</time>
      </trkpt>
      <trkpt lat="42.7999" lon="2.5524">
        <ele>376.47</ele>
        <time>2024-09-20T13:12:14.000Z</time>
      </trkpt>
      <trkpt lat="42.79985" lon="2.55265">
        <ele>376.4</ele>
        <time>2024-09-20T13:12:19.000Z</time>
      </trkpt>
      <trkpt lat="42.7998" lon="2.55291">
        <ele>376.39</ele>
        <time>2024-09-20T13:12:24.000Z</time>
      </trkpt>
      <trkpt lat="42.79978" lon="2.55317">
        <ele>376.38</ele>
        <time>2024-09-20T13:12:29.000Z</time>
      </trkpt>
      <trkpt lat="42.79979" lon="2.55344">
        <ele>376.37</ele>
        <time>2024-09-20T13:12:34.000Z</time>
      </trkpt>
      <trkpt lat="42.79981" lon="2.55374">
        <ele>376.32</ele>
        <time>2024-09-20T13:12:39.000Z</time>
      </trkpt>
      <trkpt lat="42.79985" lon="2.55407">
        <ele>376.27</ele>
        <time>2024-09-20T13:12:44.000Z</time>
      </trkpt>
      <trkpt lat="42.79989" lon="2.5544">
        <ele>376.2</ele>
        <time>2024-09-20T13:12:49.000Z</time>
      </trkpt>
      <trkpt lat="42.79993" lon="2.5547">
        <ele>376.15</ele>
        <time>2024-09-20T13:12:54.000Z</time>
      </trkpt>
      <trkpt lat="42.79993" lon="2.55501">
        <ele>376.14</ele>
        <time>2024-09-20T13:12:59.000Z</time>
      </trkpt>
      <trkpt lat="42.7999" lon="2.5553">
        <ele>376.07</ele>
        <time>2024-09-20T13:13:04.000Z</time>
      </trkpt>
      <trkpt lat="42.79986" lon="2.55558">
        <ele>375.98</ele>
        <time>2024-09-20T13:13:09.000Z</time>
      </trkpt>
      <trkpt lat="42.79981" lon="2.55589">
        <ele>375.87</ele>
        <time>2024-09-20T13:13:14.000Z</time>
      </trkpt>
      <trkpt lat="42.79981" lon="2.55618">
        <ele>375.81</ele>
        <time>2024-09-20T13:13:19.000Z</time>
      </trkpt>
      <trkpt lat="42.79984" lon="2.55649">
        <ele>375.76</ele>
        <time>2024-09-20T13:13:24.000Z</time>
      </trkpt>
      <trkpt lat="42.79987" lon="2.55679">
        <ele>375.7</ele>
        <time>2024-09-20T13:13:29.000Z</time>
      </trkpt>
      <trkpt lat="42.79989" lon="2.55712">
        <ele>375.67</ele>
        <time>2024-09-20T13:13:34.000Z</time>
      </trkpt>
      <trkpt lat="42.79991" lon="2.55744">
        <ele>375.62</ele>
        <time>2024-09-20T13:13:39.000Z</time>
      </trkpt>
      <trkpt lat="42.79994" lon="2.55776">
        <ele>375.6</ele>
        <time>2024-09-20T13:13:44.000Z</time>
      </trkpt>
      <trkpt lat="42.80001" lon="2.55807">
        <ele>375.57</ele>
        <time>2024-09-20T13:13:49.000Z</time>
      </trkpt>
      <trkpt lat="42.80017" lon="2.55831">
        <ele>375.51</ele>
        <time>2024-09-20T13:13:54.000Z</time>
      </trkpt>
      <trkpt lat="42.80038" lon="2.55852">
        <ele>375.44</ele>
        <time>2024-09-20T13:13:59.000Z</time>
      </trkpt>
      <trkpt lat="42.80054" lon="2.5588">
        <ele>375.36</ele>
        <time>2024-09-20T13:14:04.000Z</time>
      </trkpt>
      <trkpt lat="42.80063" lon="2.5592">
        <ele>375.24</ele>
        <time>2024-09-20T13:14:09.000Z</time>
      </trkpt>
      <trkpt lat="42.80063" lon="2.55963">
        <ele>375.07</ele>
        <time>2024-09-20T13:14:14.000Z</time>
      </trkpt>
      <trkpt lat="42.80066" lon="2.56009">
        <ele>374.68</ele>
        <time>2024-09-20T13:14:19.000Z</time>
      </trkpt>
      <trkpt lat="42.80059" lon="2.56057">
        <ele>374.25</ele>
        <time>2024-09-20T13:14:24.000Z</time>
      </trkpt>
      <trkpt lat="42.80049" lon="2.56106">
        <ele>373.79</ele>
        <time>2024-09-20T13:14:29.000Z</time>
      </trkpt>
      <trkpt lat="42.80062" lon="2.56154">
        <ele>373.28</ele>
        <time>2024-09-20T13:14:34.000Z</time>
      </trkpt>
      <trkpt lat="42.80068" lon="2.56206">
        <ele>372.49</ele>
        <time>2024-09-20T13:14:39.000Z</time>
      </trkpt>
      <trkpt lat="42.80062" lon="2.56258">
        <ele>371.14</ele>
        <time>2024-09-20T13:14:44.000Z</time>
      </trkpt>
      <trkpt lat="42.80052" lon="2.56312">
        <ele>370.24</ele>
        <time>2024-09-20T13:14:49.000Z</time>
      </trkpt>
      <trkpt lat="42.80061" lon="2.56349">
        <ele>369.41</ele>
        <time>2024-09-20T13:14:54.000Z</time>
      </trkpt>
      <trkpt lat="42.80077" lon="2.5637">
        <ele>368.41</ele>
        <time>2024-09-20T13:14:59.000Z</time>
      </trkpt>
      <trkpt lat="42.80096" lon="2.56375">
        <ele>367.91</ele>
        <time>2024-09-20T13:15:04.000Z</time>
      </trkpt>
      <trkpt lat="42.80109" lon="2.56375">
        <ele>367.76</ele>
        <time>2024-09-20T13:15:09.000Z</time>
      </trkpt>
      <trkpt lat="42.80119" lon="2.56377">
        <ele>367.42</ele>
        <time>2024-09-20T13:16:53.999Z</time>
      </trkpt>
      <trkpt lat="42.80131" lon="2.56388">
        <ele>366.74</ele>
        <time>2024-09-20T13:16:58.999Z</time>
      </trkpt>
      <trkpt lat="42.80149" lon="2.56409">
        <ele>364.83</ele>
        <time>2024-09-20T13:17:03.999Z</time>
      </trkpt>
      <trkpt lat="42.8017" lon="2.56434">
        <ele>363.73</ele>
        <time>2024-09-20T13:17:08.999Z</time>
      </trkpt>
      <trkpt lat="42.80194" lon="2.56457">
        <ele>362.98</ele>
        <time>2024-09-20T13:17:13.999Z</time>
      </trkpt>
      <trkpt lat="42.8022" lon="2.56434">
        <ele>362.35</ele>
        <time>2024-09-20T13:17:18.999Z</time>
      </trkpt>
      <trkpt lat="42.80247" lon="2.56416">
        <ele>361.82</ele>
        <time>2024-09-20T13:17:23.999Z</time>
      </trkpt>
      <trkpt lat="42.80284" lon="2.56414">
        <ele>361.32</ele>
        <time>2024-09-20T13:17:28.999Z</time>
      </trkpt>
      <trkpt lat="42.8032" lon="2.56441">
        <ele>360.31</ele>
        <time>2024-09-20T13:17:33.999Z</time>
      </trkpt>
      <trkpt lat="42.80347" lon="2.56492">
        <ele>359.14</ele>
        <time>2024-09-20T13:17:38.999Z</time>
      </trkpt>
      <trkpt lat="42.8037" lon="2.56554">
        <ele>357.93</ele>
        <time>2024-09-20T13:17:43.999Z</time>
      </trkpt>
      <trkpt lat="42.80381" lon="2.56616">
        <ele>356.77</ele>
        <time>2024-09-20T13:17:48.999Z</time>
      </trkpt>
      <trkpt lat="42.80418" lon="2.56651">
        <ele>354.05</ele>
        <time>2024-09-20T13:17:53.999Z</time>
      </trkpt>
      <trkpt lat="42.80431" lon="2.56704">
        <ele>351.04</ele>
        <time>2024-09-20T13:17:58.999Z</time>
      </trkpt>
      <trkpt lat="42.80434" lon="2.5676">
        <ele>348.41</ele>
        <time>2024-09-20T13:18:03.999Z</time>
      </trkpt>
      <trkpt lat="42.8044" lon="2.56816">
        <ele>345.16</ele>
        <time>2024-09-20T13:18:08.999Z</time>
      </trkpt>
      <trkpt lat="42.80444" lon="2.56873">
        <ele>341.72</ele>
        <time>2024-09-20T13:18:13.999Z</time>
      </trkpt>
      <trkpt lat="42.80458" lon="2.56927">
        <ele>338.54</ele>
        <time>2024-09-20T13:18:18.999Z</time>
      </trkpt>
      <trkpt lat="42.80463" lon="2.56982">
        <ele>335.53</ele>
        <time>2024-09-20T13:18:23.999Z</time>
      </trkpt>
      <trkpt lat="42.8047" lon="2.57041">
        <ele>332.16</ele>
        <time>2024-09-20T13:18:28.999Z</time>
      </trkpt>
      <trkpt lat="42.80483" lon="2.57097">
        <ele>328.95</ele>
        <time>2024-09-20T13:18:33.999Z</time>
      </trkpt>
      <trkpt lat="42.80485" lon="2.57155">
        <ele>326.12</ele>
        <time>2024-09-20T13:18:38.999Z</time>
      </trkpt>
      <trkpt lat="42.80482" lon="2.5721">
        <ele>323.06</ele>
        <time>2024-09-20T13:18:43.999Z</time>
      </trkpt>
      <trkpt lat="42.80487" lon="2.57267">
        <ele>320.13</ele>
        <time>2024-09-20T13:18:48.999Z</time>
      </trkpt>
      <trkpt lat="42.80495" lon="2.57328">
        <ele>316.85</ele>
        <time>2024-09-20T13:18:53.999Z</time>
      </trkpt>
      <trkpt lat="42.80482" lon="2.57385">
        <ele>313.49</ele>
        <time>2024-09-20T13:18:58.999Z</time>
      </trkpt>
      <trkpt lat="42.80452" lon="2.57428">
        <ele>309.94</ele>
        <time>2024-09-20T13:19:03.999Z</time>
      </trkpt>
      <trkpt lat="42.80468" lon="2.57483">
        <ele>307.19</ele>
        <time>2024-09-20T13:19:08.999Z</time>
      </trkpt>
      <trkpt lat="42.80483" lon="2.57546">
        <ele>304.61</ele>
        <time>2024-09-20T13:19:13.999Z</time>
      </trkpt>
      <trkpt lat="42.80496" lon="2.5761">
        <ele>301.6</ele>
        <time>2024-09-20T13:19:18.999Z</time>
      </trkpt>
      <trkpt lat="42.80505" lon="2.57677">
        <ele>298.43</ele>
        <time>2024-09-20T13:19:23.999Z</time>
      </trkpt>
      <trkpt lat="42.80503" lon="2.57741">
        <ele>295.18</ele>
        <time>2024-09-20T13:19:28.999Z</time>
      </trkpt>
      <trkpt lat="42.80477" lon="2.57789">
        <ele>291.46</ele>
        <time>2024-09-20T13:19:33.999Z</time>
      </trkpt>
      <trkpt lat="42.80442" lon="2.57816">
        <ele>287.17</ele>
        <time>2024-09-20T13:19:38.999Z</time>
      </trkpt>
      <trkpt lat="42.80468" lon="2.5786">
        <ele>282.91</ele>
        <time>2024-09-20T13:19:43.999Z</time>
      </trkpt>
      <trkpt lat="42.80508" lon="2.57889">
        <ele>280.25</ele>
        <time>2024-09-20T13:19:48.999Z</time>
      </trkpt>
      <trkpt lat="42.80547" lon="2.57918">
        <ele>277.26</ele>
        <time>2024-09-20T13:19:53.999Z</time>
      </trkpt>
      <trkpt lat="42.8056" lon="2.57973">
        <ele>273.69</ele>
        <time>2024-09-20T13:19:58.999Z</time>
      </trkpt>
      <trkpt lat="42.80565" lon="2.5803">
        <ele>270.39</ele>
        <time>2024-09-20T13:20:03.999Z</time>
      </trkpt>
      <trkpt lat="42.80567" lon="2.5809">
        <ele>266.44</ele>
        <time>2024-09-20T13:20:08.999Z</time>
      </trkpt>
      <trkpt lat="42.80603" lon="2.58131">
        <ele>261.81</ele>
        <time>2024-09-20T13:20:13.999Z</time>
      </trkpt>
      <trkpt lat="42.80624" lon="2.58187">
        <ele>257.05</ele>
        <time>2024-09-20T13:20:18.999Z</time>
      </trkpt>
      <trkpt lat="42.80652" lon="2.58229">
        <ele>253.06</ele>
        <time>2024-09-20T13:20:23.999Z</time>
      </trkpt>
      <trkpt lat="42.80662" lon="2.58281">
        <ele>249.99</ele>
        <time>2024-09-20T13:20:28.999Z</time>
      </trkpt>
      <trkpt lat="42.80672" lon="2.58332">
        <ele>246.26</ele>
        <time>2024-09-20T13:20:33.999Z</time>
      </trkpt>
      <trkpt lat="42.80699" lon="2.58374">
        <ele>243.8</ele>
        <time>2024-09-20T13:20:38.999Z</time>
      </trkpt>
      <trkpt lat="42.80711" lon="2.58431">
        <ele>240.77</ele>
        <time>2024-09-20T13:20:43.999Z</time>
      </trkpt>
      <trkpt lat="42.80727" lon="2.58487">
        <ele>236.58</ele>
        <time>2024-09-20T13:20:48.999Z</time>
      </trkpt>
      <trkpt lat="42.80739" lon="2.58542">
        <ele>233.25</ele>
        <time>2024-09-20T13:20:53.999Z</time>
      </trkpt>
      <trkpt lat="42.80748" lon="2.58598">
        <ele>230.57</ele>
        <time>2024-09-20T13:20:58.999Z</time>
      </trkpt>
      <trkpt lat="42.8076" lon="2.58655">
        <ele>227.83</ele>
        <time>2024-09-20T13:21:03.999Z</time>
      </trkpt>
      <trkpt lat="42.80775" lon="2.58709">
        <ele>224.71</ele>
        <time>2024-09-20T13:21:08.999Z</time>
      </trkpt>
      <trkpt lat="42.8078" lon="2.58761">
        <ele>221.33</ele>
        <time>2024-09-20T13:21:13.999Z</time>
      </trkpt>
      <trkpt lat="42.8078" lon="2.58814">
        <ele>217.31</ele>
        <time>2024-09-20T13:21:18.999Z</time>
      </trkpt>
      <trkpt lat="42.8078" lon="2.58865">
        <ele>213.78</ele>
        <time>2024-09-20T13:21:23.999Z</time>
      </trkpt>
      <trkpt lat="42.80785" lon="2.58915">
        <ele>210.78</ele>
        <time>2024-09-20T13:21:28.999Z</time>
      </trkpt>
      <trkpt lat="42.80793" lon="2.58964">
        <ele>207.78</ele>
        <time>2024-09-20T13:21:33.999Z</time>
      </trkpt>
      <trkpt lat="42.80793" lon="2.59015">
        <ele>204.27</ele>
        <time>2024-09-20T13:21:38.999Z</time>
      </trkpt>
      <trkpt lat="42.80803" lon="2.59055">
        <ele>201.59</ele>
        <time>2024-09-20T13:21:43.999Z</time>
      </trkpt>
      <trkpt lat="42.80842" lon="2.5906">
        <ele>198.35</ele>
        <time>2024-09-20T13:21:48.999Z</time>
      </trkpt>
      <trkpt lat="42.8086" lon="2.59097">
        <ele>196.04</ele>
        <time>2024-09-20T13:21:53.999Z</time>
      </trkpt>
      <trkpt lat="42.80869" lon="2.59126">
        <ele>194.29</ele>
        <time>2024-09-20T13:21:58.999Z</time>
      </trkpt>
      <trkpt lat="42.80881" lon="2.59145">
        <ele>194.26</ele>
        <time>2024-09-20T13:22:03.999Z</time>
      </trkpt>
      <trkpt lat="42.80903" lon="2.59153">
        <ele>194.34</ele>
        <time>2024-09-20T13:22:08.999Z</time>
      </trkpt>
      <trkpt lat="42.80927" lon="2.59146">
        <ele>192.31</ele>
        <time>2024-09-20T13:22:13.999Z</time>
      </trkpt>
      <trkpt lat="42.80952" lon="2.59125">
        <ele>189.31</ele>
        <time>2024-09-20T13:22:18.999Z</time>
      </trkpt>
      <trkpt lat="42.8097" lon="2.59107">
        <ele>187.94</ele>
        <time>2024-09-20T13:22:23.999Z</time>
      </trkpt>
      <trkpt lat="42.80985" lon="2.59101">
        <ele>187.7</ele>
        <time>2024-09-20T13:22:28.999Z</time>
      </trkpt>
      <trkpt lat="42.80995" lon="2.591">
        <ele>182.46</ele>
        <time>2024-09-20T13:26:07.999Z</time>
      </trkpt>
      <trkpt lat="42.81" lon="2.59121">
        <ele>181.87</ele>
        <time>2024-09-20T13:26:12.999Z</time>
      </trkpt>
      <trkpt lat="42.81004" lon="2.59143">
        <ele>181.27</ele>
        <time>2024-09-20T13:26:17.999Z</time>
      </trkpt>
      <trkpt lat="42.81007" lon="2.59165">
        <ele>180.64</ele>
        <time>2024-09-20T13:26:22.999Z</time>
      </trkpt>
      <trkpt lat="42.8101" lon="2.59188">
        <ele>179.13</ele>
        <time>2024-09-20T13:26:27.999Z</time>
      </trkpt>
      <trkpt lat="42.81011" lon="2.59216">
        <ele>175.55</ele>
        <time>2024-09-20T13:26:32.999Z</time>
      </trkpt>
      <trkpt lat="42.8101" lon="2.59242">
        <ele>174.55</ele>
        <time>2024-09-20T13:26:37.999Z</time>
      </trkpt>
      <trkpt lat="42.81009" lon="2.59267">
        <ele>173.92</ele>
        <time>2024-09-20T13:26:42.999Z</time>
      </trkpt>
      <trkpt lat="42.8101" lon="2.59294">
        <ele>172.68</ele>
        <time>2024-09-20T13:26:47.999Z</time>
      </trkpt>
      <trkpt lat="42.81008" lon="2.59322">
        <ele>172.29</ele>
        <time>2024-09-20T13:26:52.999Z</time>
      </trkpt>
      <trkpt lat="42.81004" lon="2.59352">
        <ele>171.93</ele>
        <time>2024-09-20T13:26:57.999Z</time>
      </trkpt>
      <trkpt lat="42.81002" lon="2.59381">
        <ele>171.71</ele>
        <time>2024-09-20T13:27:02.999Z</time>
      </trkpt>
      <trkpt lat="42.81" lon="2.59409">
        <ele>171.42</ele>
        <time>2024-09-20T13:27:07.999Z</time>
      </trkpt>
      <trkpt lat="42.80998" lon="2.59439">
        <ele>171.2</ele>
        <time>2024-09-20T13:27:12.999Z</time>
      </trkpt>
      <trkpt lat="42.80996" lon="2.59468">
        <ele>170.81</ele>
        <time>2024-09-20T13:27:17.999Z</time>
      </trkpt>
      <trkpt lat="42.80994" lon="2.59497">
        <ele>170.47</ele>
        <time>2024-09-20T13:27:22.999Z</time>
      </trkpt>
      <trkpt lat="42.80992" lon="2.5953">
        <ele>170.05</ele>
        <time>2024-09-20T13:27:27.999Z</time>
      </trkpt>
      <trkpt lat="42.80991" lon="2.59562">
        <ele>169.66</ele>
        <time>2024-09-20T13:27:32.999Z</time>
      </trkpt>
      <trkpt lat="42.80989" lon="2.59597">
        <ele>169.36</ele>
        <time>2024-09-20T13:27:37.999Z</time>
      </trkpt>
      <trkpt lat="42.80986" lon="2.5963">
        <ele>168.92</ele>
        <time>2024-09-20T13:27:42.999Z</time>
      </trkpt>
      <trkpt lat="42.80984" lon="2.59664">
        <ele>168.5</ele>
        <time>2024-09-20T13:27:47.999Z</time>
      </trkpt>
      <trkpt lat="42.80982" lon="2.59699">
        <ele>168.07</ele>
        <time>2024-09-20T13:27:52.999Z</time>
      </trkpt>
      <trkpt lat="42.8098" lon="2.59732">
        <ele>167.82</ele>
        <time>2024-09-20T13:27:57.999Z</time>
      </trkpt>
      <trkpt lat="42.80978" lon="2.59765">
        <ele>167.66</ele>
        <time>2024-09-20T13:28:02.999Z</time>
      </trkpt>
      <trkpt lat="42.80975" lon="2.59796">
        <ele>167.5</ele>
        <time>2024-09-20T13:28:07.999Z</time>
      </trkpt>
      <trkpt lat="42.80973" lon="2.59825">
        <ele>167.39</ele>
        <time>2024-09-20T13:28:12.999Z</time>
      </trkpt>
      <trkpt lat="42.80971" lon="2.59857">
        <ele>167.29</ele>
        <time>2024-09-20T13:28:17.999Z</time>
      </trkpt>
      <trkpt lat="42.80969" lon="2.59886">
        <ele>167.15</ele>
        <time>2024-09-20T13:28:22.999Z</time>
      </trkpt>
      <trkpt lat="42.80968" lon="2.59918">
        <ele>166.97</ele>
        <time>2024-09-20T13:28:27.999Z</time>
      </trkpt>
      <trkpt lat="42.80962" lon="2.59947">
        <ele>166.77</ele>
        <time>2024-09-20T13:28:32.999Z</time>
      </trkpt>
      <trkpt lat="42.80957" lon="2.59977">
        <ele>166.57</ele>
        <time>2024-09-20T13:28:37.999Z</time>
      </trkpt>
      <trkpt lat="42.8096" lon="2.60008">
        <ele>166.4</ele>
        <time>2024-09-20T13:28:42.999Z</time>
      </trkpt>
      <trkpt lat="42.80953" lon="2.60042">
        <ele>166.14</ele>
        <time>2024-09-20T13:28:47.999Z</time>
      </trkpt>
      <trkpt lat="42.80944" lon="2.60074">
        <ele>165.87</ele>
        <time>2024-09-20T13:28:52.999Z</time>
      </trkpt>
      <trkpt lat="42.80933" lon="2.60104">
        <ele>165.64</ele>
        <time>2024-09-20T13:28:58.000Z</time>
      </trkpt>
      <trkpt lat="42.80923" lon="2.60135">
        <ele>165.42</ele>
        <time>2024-09-20T13:29:03.000Z</time>
      </trkpt>
      <trkpt lat="42.80914" lon="2.60164">
        <ele>165.27</ele>
        <time>2024-09-20T13:29:08.000Z</time>
      </trkpt>
      <trkpt lat="42.80905" lon="2.60195">
        <ele>165.1</ele>
        <time>2024-09-20T13:29:13.000Z</time>
      </trkpt>
      <trkpt lat="42.80894" lon="2.60228">
        <ele>164.95</ele>
        <time>2024-09-20T13:29:18.000Z</time>
      </trkpt>
      <trkpt lat="42.80884" lon="2.60259">
        <ele>164.81</ele>
        <time>2024-09-20T13:29:23.000Z</time>
      </trkpt>
      <trkpt lat="42.80873" lon="2.60292">
        <ele>164.66</ele>
        <time>2024-09-20T13:29:28.000Z</time>
      </trkpt>
      <trkpt lat="42.80863" lon="2.60324">
        <ele>164.42</ele>
        <time>2024-09-20T13:29:33.000Z</time>
      </trkpt>
      <trkpt lat="42.80853" lon="2.60356">
        <ele>164.18</ele>
        <time>2024-09-20T13:29:38.000Z</time>
      </trkpt>
      <trkpt lat="42.80842" lon="2.6039">
        <ele>163.9</ele>
        <time>2024-09-20T13:29:43.000Z</time>
      </trkpt>
      <trkpt lat="42.80831" lon="2.60424">
        <ele>163.63</ele>
        <time>2024-09-20T13:29:48.000Z</time>
      </trkpt>
      <trkpt lat="42.80821" lon="2.60456">
        <ele>163.39</ele>
        <time>2024-09-20T13:29:53.000Z</time>
      </trkpt>
      <trkpt lat="42.80811" lon="2.60488">
        <ele>163.15</ele>
        <time>2024-09-20T13:29:58.000Z</time>
      </trkpt>
      <trkpt lat="42.80801" lon="2.60517">
        <ele>162.91</ele>
        <time>2024-09-20T13:30:03.000Z</time>
      </trkpt>
      <trkpt lat="42.80792" lon="2.60545">
        <ele>162.74</ele>
        <time>2024-09-20T13:30:08.000Z</time>
      </trkpt>
      <trkpt lat="42.80785" lon="2.60573">
        <ele>162.64</ele>
        <time>2024-09-20T13:30:13.000Z</time>
      </trkpt>
      <trkpt lat="42.80777" lon="2.60598">
        <ele>162.61</ele>
        <time>2024-09-20T13:30:18.000Z</time>
      </trkpt>
      <trkpt lat="42.8077" lon="2.60622">
        <ele>162.57</ele>
        <time>2024-09-20T13:30:23.000Z</time>
      </trkpt>
      <trkpt lat="42.80761" lon="2.60646">
        <ele>162.5</ele>
        <time>2024-09-20T13:30:28.000Z</time>
      </trkpt>
      <trkpt lat="42.80752" lon="2.60669">
        <ele>162.41</ele>
        <time>2024-09-20T13:30:33.000Z</time>
      </trkpt>
      <trkpt lat="42.80742" lon="2.60692">
        <ele>162.39</ele>
        <time>2024-09-20T13:30:38.000Z</time>
      </trkpt>
      <trkpt lat="42.80732" lon="2.60717">
        <ele>162.43</ele>
        <time>2024-09-20T13:30:43.000Z</time>
      </trkpt>
      <trkpt lat="42.80719" lon="2.60746">
        <ele>162.44</ele>
        <time>2024-09-20T13:30:48.000Z</time>
      </trkpt>
      <trkpt lat="42.80705" lon="2.60776">
        <ele>162.39</ele>
        <time>2024-09-20T13:30:53.000Z</time>
      </trkpt>
      <trkpt lat="42.8069" lon="2.60805">
        <ele>162.29</ele>
        <time>2024-09-20T13:30:58.000Z</time>
      </trkpt>
      <trkpt lat="42.80674" lon="2.60836">
        <ele>162.16</ele>
        <time>2024-09-20T13:31:03.000Z</time>
      </trkpt>
      <trkpt lat="42.80657" lon="2.60866">
        <ele>162.01</ele>
        <time>2024-09-20T13:31:08.000Z</time>
      </trkpt>
      <trkpt lat="42.8064" lon="2.60896">
        <ele>161.84</ele>
        <time>2024-09-20T13:31:13.000Z</time>
      </trkpt>
      <trkpt lat="42.80624" lon="2.60928">
        <ele>161.65</ele>
        <time>2024-09-20T13:31:18.000Z</time>
      </trkpt>
      <trkpt lat="42.8061" lon="2.60954">
        <ele>161.46</ele>
        <time>2024-09-20T13:31:23.000Z</time>
      </trkpt>
      <trkpt lat="42.80598" lon="2.60979">
        <ele>161.26</ele>
        <time>2024-09-20T13:31:28.000Z</time>
      </trkpt>
      <trkpt lat="42.80588" lon="2.61007">
        <ele>161.04</ele>
        <time>2024-09-20T13:31:33.000Z</time>
      </trkpt>
      <trkpt lat="42.8058" lon="2.61036">
        <ele>160.75</ele>
        <time>2024-09-20T13:31:38.000Z</time>
      </trkpt>
      <trkpt lat="42.80572" lon="2.61064">
        <ele>160.49</ele>
        <time>2024-09-20T13:31:43.000Z</time>
      </trkpt>
      <trkpt lat="42.80564" lon="2.61096">
        <ele>160.24</ele>
        <time>2024-09-20T13:31:48.000Z</time>
      </trkpt>
      <trkpt lat="42.80557" lon="2.61126">
        <ele>160</ele>
        <time>2024-09-20T13:31:53.000Z</time>
      </trkpt>
      <trkpt lat="42.80549" lon="2.61157">
        <ele>159.72</ele>
        <time>2024-09-20T13:31:58.000Z</time>
      </trkpt>
      <trkpt lat="42.80543" lon="2.61185">
        <ele>159.45</ele>
        <time>2024-09-20T13:32:03.000Z</time>
      </trkpt>
      <trkpt lat="42.80535" lon="2.61213">
        <ele>159.14</ele>
        <time>2024-09-20T13:32:08.000Z</time>
      </trkpt>
      <trkpt lat="42.80528" lon="2.6124">
        <ele>158.85</ele>
        <time>2024-09-20T13:32:13.000Z</time>
      </trkpt>
      <trkpt lat="42.80521" lon="2.61268">
        <ele>158.59</ele>
        <time>2024-09-20T13:32:18.000Z</time>
      </trkpt>
      <trkpt lat="42.80514" lon="2.61295">
        <ele>158.38</ele>
        <time>2024-09-20T13:32:23.000Z</time>
      </trkpt>
      <trkpt lat="42.80507" lon="2.61324">
        <ele>158.12</ele>
        <time>2024-09-20T13:32:28.000Z</time>
      </trkpt>
      <trkpt lat="42.805" lon="2.61354">
        <ele>157.84</ele>
        <time>2024-09-20T13:32:33.000Z</time>
      </trkpt>
      <trkpt lat="42.80492" lon="2.61386">
        <ele>157.57</ele>
        <time>2024-09-20T13:32:38.000Z</time>
      </trkpt>
      <trkpt lat="42.80484" lon="2.61416">
        <ele>157.29</ele>
        <time>2024-09-20T13:32:43.000Z</time>
      </trkpt>
      <trkpt lat="42.80476" lon="2.6145">
        <ele>157.02</ele>
        <time>2024-09-20T13:32:48.000Z</time>
      </trkpt>
      <trkpt lat="42.80468" lon="2.61483">
        <ele>156.73</ele>
        <time>2024-09-20T13:32:53.000Z</time>
      </trkpt>
      <trkpt lat="42.80459" lon="2.61517">
        <ele>156.48</ele>
        <time>2024-09-20T13:32:58.000Z</time>
      </trkpt>
      <trkpt lat="42.80451" lon="2.6155">
        <ele>156.23</ele>
        <time>2024-09-20T13:33:03.000Z</time>
      </trkpt>
      <trkpt lat="42.80442" lon="2.61585">
        <ele>155.96</ele>
        <time>2024-09-20T13:33:08.000Z</time>
      </trkpt>
      <trkpt lat="42.80432" lon="2.61619">
        <ele>155.67</ele>
        <time>2024-09-20T13:33:13.000Z</time>
      </trkpt>
      <trkpt lat="42.80423" lon="2.61655">
        <ele>155.38</ele>
        <time>2024-09-20T13:33:18.000Z</time>
      </trkpt>
      <trkpt lat="42.80414" lon="2.61691">
        <ele>155.07</ele>
        <time>2024-09-20T13:33:23.000Z</time>
      </trkpt>
      <trkpt lat="42.80405" lon="2.61728">
        <ele>154.77</ele>
        <time>2024-09-20T13:33:28.000Z</time>
      </trkpt>
      <trkpt lat="42.80396" lon="2.61764">
        <ele>154.45</ele>
        <time>2024-09-20T13:33:33.000Z</time>
      </trkpt>
      <trkpt lat="42.80388" lon="2.61799">
        <ele>154.11</ele>
        <time>2024-09-20T13:33:38.000Z</time>
      </trkpt>
      <trkpt lat="42.80382" lon="2.61833">
        <ele>153.79</ele>
        <time>2024-09-20T13:33:43.000Z</time>
      </trkpt>
      <trkpt lat="42.80378" lon="2.61869">
        <ele>153.47</ele>
        <time>2024-09-20T13:33:48.000Z</time>
      </trkpt>
      <trkpt lat="42.80373" lon="2.61903">
        <ele>153.19</ele>
        <time>2024-09-20T13:33:53.000Z</time>
      </trkpt>
      <trkpt lat="42.80368" lon="2.61939">
        <ele>152.92</ele>
        <time>2024-09-20T13:33:58.000Z</time>
      </trkpt>
      <trkpt lat="42.80363" lon="2.61973">
        <ele>152.67</ele>
        <time>2024-09-20T13:34:03.000Z</time>
      </trkpt>
      <trkpt lat="42.80358" lon="2.62004">
        <ele>152.39</ele>
        <time>2024-09-20T13:34:08.000Z</time>
      </trkpt>
      <trkpt lat="42.80354" lon="2.62035">
        <ele>152.14</ele>
        <time>2024-09-20T13:34:13.000Z</time>
      </trkpt>
      <trkpt lat="42.80349" lon="2.62067">
        <ele>151.89</ele>
        <time>2024-09-20T13:34:18.000Z</time>
      </trkpt>
      <trkpt lat="42.80345" lon="2.62098">
        <ele>151.67</ele>
        <time>2024-09-20T13:34:23.000Z</time>
      </trkpt>
      <trkpt lat="42.8034" lon="2.62129">
        <ele>151.51</ele>
        <time>2024-09-20T13:34:28.000Z</time>
      </trkpt>
      <trkpt lat="42.80336" lon="2.6216">
        <ele>151.33</ele>
        <time>2024-09-20T13:34:33.000Z</time>
      </trkpt>
      <trkpt lat="42.80334" lon="2.62191">
        <ele>151.18</ele>
        <time>2024-09-20T13:34:38.000Z</time>
      </trkpt>
      <trkpt lat="42.8033" lon="2.62221">
        <ele>151.09</ele>
        <time>2024-09-20T13:34:43.000Z</time>
      </trkpt>
      <trkpt lat="42.80327" lon="2.6225">
        <ele>151.01</ele>
        <time>2024-09-20T13:34:48.000Z</time>
      </trkpt>
      <trkpt lat="42.80322" lon="2.62278">
        <ele>150.91</ele>
        <time>2024-09-20T13:34:53.000Z</time>
      </trkpt>
      <trkpt lat="42.80318" lon="2.62306">
        <ele>150.79</ele>
        <time>2024-09-20T13:34:58.000Z</time>
      </trkpt>
      <trkpt lat="42.80313" lon="2.62333">
        <ele>150.74</ele>
        <time>2024-09-20T13:35:03.000Z</time>
      </trkpt>
      <trkpt lat="42.80309" lon="2.62364">
        <ele>150.68</ele>
        <time>2024-09-20T13:35:08.000Z</time>
      </trkpt>
      <trkpt lat="42.80303" lon="2.62393">
        <ele>150.58</ele>
        <time>2024-09-20T13:35:13.000Z</time>
      </trkpt>
      <trkpt lat="42.80299" lon="2.62422">
        <ele>150.44</ele>
        <time>2024-09-20T13:35:18.000Z</time>
      </trkpt>
      <trkpt lat="42.80294" lon="2.62451">
        <ele>150.31</ele>
        <time>2024-09-20T13:35:23.000Z</time>
      </trkpt>
      <trkpt lat="42.8029" lon="2.62481">
        <ele>150.18</ele>
        <time>2024-09-20T13:35:28.000Z</time>
      </trkpt>
      <trkpt lat="42.80285" lon="2.62511">
        <ele>150.04</ele>
        <time>2024-09-20T13:35:33.000Z</time>
      </trkpt>
      <trkpt lat="42.80281" lon="2.62543">
        <ele>149.88</ele>
        <time>2024-09-20T13:35:38.000Z</time>
      </trkpt>
      <trkpt lat="42.80276" lon="2.62577">
        <ele>149.74</ele>
        <time>2024-09-20T13:35:43.000Z</time>
      </trkpt>
      <trkpt lat="42.80271" lon="2.62614">
        <ele>149.56</ele>
        <time>2024-09-20T13:35:48.000Z</time>
      </trkpt>
      <trkpt lat="42.80267" lon="2.62649">
        <ele>149.34</ele>
        <time>2024-09-20T13:35:53.000Z</time>
      </trkpt>
      <trkpt lat="42.80261" lon="2.62683">
        <ele>149.17</ele>
        <time>2024-09-20T13:35:58.000Z</time>
      </trkpt>
      <trkpt lat="42.80256" lon="2.62721">
        <ele>149.04</ele>
        <time>2024-09-20T13:36:03.000Z</time>
      </trkpt>
      <trkpt lat="42.80251" lon="2.62754">
        <ele>148.91</ele>
        <time>2024-09-20T13:36:08.000Z</time>
      </trkpt>
      <trkpt lat="42.80246" lon="2.62785">
        <ele>148.78</ele>
        <time>2024-09-20T13:36:13.000Z</time>
      </trkpt>
      <trkpt lat="42.8024" lon="2.62816">
        <ele>148.67</ele>
        <time>2024-09-20T13:36:18.000Z</time>
      </trkpt>
      <trkpt lat="42.80236" lon="2.62844">
        <ele>148.53</ele>
        <time>2024-09-20T13:36:23.000Z</time>
      </trkpt>
      <trkpt lat="42.80231" lon="2.62872">
        <ele>148.37</ele>
        <time>2024-09-20T13:36:28.000Z</time>
      </trkpt>
      <trkpt lat="42.80227" lon="2.629">
        <ele>148.18</ele>
        <time>2024-09-20T13:36:33.000Z</time>
      </trkpt>
      <trkpt lat="42.80223" lon="2.62927">
        <ele>148.01</ele>
        <time>2024-09-20T13:36:38.000Z</time>
      </trkpt>
      <trkpt lat="42.80218" lon="2.62954">
        <ele>147.84</ele>
        <time>2024-09-20T13:36:43.000Z</time>
      </trkpt>
      <trkpt lat="42.80212" lon="2.62982">
        <ele>147.68</ele>
        <time>2024-09-20T13:36:48.000Z</time>
      </trkpt>
      <trkpt lat="42.80206" lon="2.63011">
        <ele>147.5</ele>
        <time>2024-09-20T13:36:53.000Z</time>
      </trkpt>
      <trkpt lat="42.80198" lon="2.63043">
        <ele>147.29</ele>
        <time>2024-09-20T13:36:58.000Z</time>
      </trkpt>
      <trkpt lat="42.8019" lon="2.63076">
        <ele>147.08</ele>
        <time>2024-09-20T13:37:03.000Z</time>
      </trkpt>
      <trkpt lat="42.80182" lon="2.63111">
        <ele>146.91</ele>
        <time>2024-09-20T13:37:08.000Z</time>
      </trkpt>
      <trkpt lat="42.80173" lon="2.63146">
        <ele>146.73</ele>
        <time>2024-09-20T13:37:13.000Z</time>
      </trkpt>
      <trkpt lat="42.80165" lon="2.6318">
        <ele>146.56</ele>
        <time>2024-09-20T13:37:18.000Z</time>
      </trkpt>
      <trkpt lat="42.80158" lon="2.63213">
        <ele>146.39</ele>
        <time>2024-09-20T13:37:23.000Z</time>
      </trkpt>
      <trkpt lat="42.80152" lon="2.63243">
        <ele>146.23</ele>
        <time>2024-09-20T13:37:28.000Z</time>
      </trkpt>
      <trkpt lat="42.80145" lon="2.63273">
        <ele>146.07</ele>
        <time>2024-09-20T13:37:33.000Z</time>
      </trkpt>
      <trkpt lat="42.80138" lon="2.63303">
        <ele>145.91</ele>
        <time>2024-09-20T13:37:38.000Z</time>
      </trkpt>
      <trkpt lat="42.80131" lon="2.63333">
        <ele>145.75</ele>
        <time>2024-09-20T13:37:43.000Z</time>
      </trkpt>
      <trkpt lat="42.80124" lon="2.63363">
        <ele>145.58</ele>
        <time>2024-09-20T13:37:48.000Z</time>
      </trkpt>
      <trkpt lat="42.80117" lon="2.63393">
        <ele>145.43</ele>
        <time>2024-09-20T13:37:53.000Z</time>
      </trkpt>
      <trkpt lat="42.8011" lon="2.63424">
        <ele>145.25</ele>
        <time>2024-09-20T13:37:58.000Z</time>
      </trkpt>
      <trkpt lat="42.80103" lon="2.63455">
        <ele>145.07</ele>
        <time>2024-09-20T13:38:03.000Z</time>
      </trkpt>
      <trkpt lat="42.80095" lon="2.63486">
        <ele>144.88</ele>
        <time>2024-09-20T13:38:08.000Z</time>
      </trkpt>
      <trkpt lat="42.80087" lon="2.63518">
        <ele>144.69</ele>
        <time>2024-09-20T13:38:13.000Z</time>
      </trkpt>
      <trkpt lat="42.8008" lon="2.6355">
        <ele>144.51</ele>
        <time>2024-09-20T13:38:18.000Z</time>
      </trkpt>
      <trkpt lat="42.80072" lon="2.63582">
        <ele>144.33</ele>
        <time>2024-09-20T13:38:23.000Z</time>
      </trkpt>
      <trkpt lat="42.80064" lon="2.63614">
        <ele>144.14</ele>
        <time>2024-09-20T13:38:28.000Z</time>
      </trkpt>
      <trkpt lat="42.80057" lon="2.63645">
        <ele>143.92</ele>
        <time>2024-09-20T13:38:33.000Z</time>
      </trkpt>
      <trkpt lat="42.8005" lon="2.63677">
        <ele>143.68</ele>
        <time>2024-09-20T13:38:38.000Z</time>
      </trkpt>
      <trkpt lat="42.80042" lon="2.63707">
        <ele>143.45</ele>
        <time>2024-09-20T13:38:43.000Z</time>
      </trkpt>
      <trkpt lat="42.80035" lon="2.63739">
        <ele>143.24</ele>
        <time>2024-09-20T13:38:48.000Z</time>
      </trkpt>
      <trkpt lat="42.80027" lon="2.63771">
        <ele>143</ele>
        <time>2024-09-20T13:38:53.000Z</time>
      </trkpt>
      <trkpt lat="42.80019" lon="2.63803">
        <ele>142.74</ele>
        <time>2024-09-20T13:38:58.000Z</time>
      </trkpt>
      <trkpt lat="42.80011" lon="2.63834">
        <ele>142.48</ele>
        <time>2024-09-20T13:39:03.000Z</time>
      </trkpt>
      <trkpt lat="42.80004" lon="2.63867">
        <ele>142.21</ele>
        <time>2024-09-20T13:39:08.000Z</time>
      </trkpt>
      <trkpt lat="42.79997" lon="2.63898">
        <ele>141.97</ele>
        <time>2024-09-20T13:39:13.000Z</time>
      </trkpt>
      <trkpt lat="42.79989" lon="2.63932">
        <ele>141.7</ele>
        <time>2024-09-20T13:39:18.000Z</time>
      </trkpt>
      <trkpt lat="42.79981" lon="2.63962">
        <ele>141.45</ele>
        <time>2024-09-20T13:39:23.000Z</time>
      </trkpt>
      <trkpt lat="42.79974" lon="2.63993">
        <ele>141.23</ele>
        <time>2024-09-20T13:39:28.000Z</time>
      </trkpt>
      <trkpt lat="42.79967" lon="2.64024">
        <ele>141.02</ele>
        <time>2024-09-20T13:39:33.000Z</time>
      </trkpt>
      <trkpt lat="42.79961" lon="2.64055">
        <ele>140.84</ele>
        <time>2024-09-20T13:39:38.000Z</time>
      </trkpt>
      <trkpt lat="42.79953" lon="2.64084">
        <ele>140.66</ele>
        <time>2024-09-20T13:39:43.000Z</time>
      </trkpt>
      <trkpt lat="42.79945" lon="2.64115">
        <ele>140.47</ele>
        <time>2024-09-20T13:39:48.000Z</time>
      </trkpt>
      <trkpt lat="42.79937" lon="2.64146">
        <ele>140.24</ele>
        <time>2024-09-20T13:39:53.000Z</time>
      </trkpt>
      <trkpt lat="42.7993" lon="2.64177">
        <ele>140.01</ele>
        <time>2024-09-20T13:39:58.000Z</time>
      </trkpt>
      <trkpt lat="42.79922" lon="2.64209">
        <ele>139.75</ele>
        <time>2024-09-20T13:40:03.000Z</time>
      </trkpt>
      <trkpt lat="42.79914" lon="2.64242">
        <ele>139.47</ele>
        <time>2024-09-20T13:40:08.000Z</time>
      </trkpt>
      <trkpt lat="42.79906" lon="2.64274">
        <ele>139.19</ele>
        <time>2024-09-20T13:40:13.000Z</time>
      </trkpt>
      <trkpt lat="42.79897" lon="2.64309">
        <ele>138.89</ele>
        <time>2024-09-20T13:40:18.000Z</time>
      </trkpt>
      <trkpt lat="42.79889" lon="2.64343">
        <ele>138.57</ele>
        <time>2024-09-20T13:40:23.000Z</time>
      </trkpt>
      <trkpt lat="42.7988" lon="2.64378">
        <ele>138.27</ele>
        <time>2024-09-20T13:40:28.000Z</time>
      </trkpt>
      <trkpt lat="42.79872" lon="2.6441">
        <ele>137.96</ele>
        <time>2024-09-20T13:40:33.000Z</time>
      </trkpt>
      <trkpt lat="42.79865" lon="2.64443">
        <ele>137.65</ele>
        <time>2024-09-20T13:40:38.000Z</time>
      </trkpt>
      <trkpt lat="42.79857" lon="2.64475">
        <ele>137.33</ele>
        <time>2024-09-20T13:40:43.000Z</time>
      </trkpt>
      <trkpt lat="42.79849" lon="2.64507">
        <ele>136.99</ele>
        <time>2024-09-20T13:40:48.000Z</time>
      </trkpt>
      <trkpt lat="42.79843" lon="2.64538">
        <ele>136.65</ele>
        <time>2024-09-20T13:40:53.000Z</time>
      </trkpt>
      <trkpt lat="42.79835" lon="2.64569">
        <ele>136.33</ele>
        <time>2024-09-20T13:40:58.000Z</time>
      </trkpt>
      <trkpt lat="42.79828" lon="2.64598">
        <ele>136.04</ele>
        <time>2024-09-20T13:41:03.000Z</time>
      </trkpt>
      <trkpt lat="42.79819" lon="2.6463">
        <ele>135.73</ele>
        <time>2024-09-20T13:41:08.999Z</time>
      </trkpt>
      <trkpt lat="42.79813" lon="2.64657">
        <ele>135.49</ele>
        <time>2024-09-20T13:41:13.999Z</time>
      </trkpt>
      <trkpt lat="42.79807" lon="2.64681">
        <ele>135.26</ele>
        <time>2024-09-20T13:41:18.999Z</time>
      </trkpt>
      <trkpt lat="42.79802" lon="2.64706">
        <ele>135.19</ele>
        <time>2024-09-20T13:41:23.999Z</time>
      </trkpt>
      <trkpt lat="42.79796" lon="2.64729">
        <ele>135.03</ele>
        <time>2024-09-20T13:41:28.999Z</time>
      </trkpt>
      <trkpt lat="42.7979" lon="2.64753">
        <ele>134.83</ele>
        <time>2024-09-20T13:41:33.999Z</time>
      </trkpt>
      <trkpt lat="42.79784" lon="2.64778">
        <ele>134.72</ele>
        <time>2024-09-20T13:41:38.999Z</time>
      </trkpt>
      <trkpt lat="42.79779" lon="2.64802">
        <ele>134.68</ele>
        <time>2024-09-20T13:41:43.999Z</time>
      </trkpt>
      <trkpt lat="42.79773" lon="2.64826">
        <ele>134.65</ele>
        <time>2024-09-20T13:41:48.999Z</time>
      </trkpt>
      <trkpt lat="42.79767" lon="2.6485">
        <ele>134.45</ele>
        <time>2024-09-20T13:41:53.999Z</time>
      </trkpt>
      <trkpt lat="42.79761" lon="2.64874">
        <ele>134.41</ele>
        <time>2024-09-20T13:41:58.999Z</time>
      </trkpt>
      <trkpt lat="42.79755" lon="2.64898">
        <ele>134.12</ele>
        <time>2024-09-20T13:42:03.999Z</time>
      </trkpt>
      <trkpt lat="42.7975" lon="2.64923">
        <ele>133.9</ele>
        <time>2024-09-20T13:42:08.999Z</time>
      </trkpt>
      <trkpt lat="42.79744" lon="2.64947">
        <ele>133.83</ele>
        <time>2024-09-20T13:42:13.999Z</time>
      </trkpt>
      <trkpt lat="42.79739" lon="2.64972">
        <ele>133.75</ele>
        <time>2024-09-20T13:42:18.999Z</time>
      </trkpt>
      <trkpt lat="42.79733" lon="2.64998">
        <ele>133.68</ele>
        <time>2024-09-20T13:42:23.999Z</time>
      </trkpt>
      <trkpt lat="42.79727" lon="2.65023">
        <ele>133.63</ele>
        <time>2024-09-20T13:42:28.999Z</time>
      </trkpt>
      <trkpt lat="42.7972" lon="2.6505">
        <ele>133.6</ele>
        <time>2024-09-20T13:42:33.999Z</time>
      </trkpt>
      <trkpt lat="42.79713" lon="2.65078">
        <ele>133.58</ele>
        <time>2024-09-20T13:42:38.999Z</time>
      </trkpt>
      <trkpt lat="42.79705" lon="2.65109">
        <ele>133.55</ele>
        <time>2024-09-20T13:42:43.999Z</time>
      </trkpt>
      <trkpt lat="42.79697" lon="2.6514">
        <ele>133.48</ele>
        <time>2024-09-20T13:42:48.999Z</time>
      </trkpt>
      <trkpt lat="42.79689" lon="2.65171">
        <ele>133.38</ele>
        <time>2024-09-20T13:42:53.999Z</time>
      </trkpt>
      <trkpt lat="42.79681" lon="2.65204">
        <ele>133.28</ele>
        <time>2024-09-20T13:42:58.999Z</time>
      </trkpt>
      <trkpt lat="42.79674" lon="2.65234">
        <ele>133.19</ele>
        <time>2024-09-20T13:43:03.999Z</time>
      </trkpt>
      <trkpt lat="42.79668" lon="2.65261">
        <ele>133.11</ele>
        <time>2024-09-20T13:43:08.999Z</time>
      </trkpt>
      <trkpt lat="42.79662" lon="2.65287">
        <ele>133.03</ele>
        <time>2024-09-20T13:43:13.999Z</time>
      </trkpt>
      <trkpt lat="42.79655" lon="2.65311">
        <ele>132.96</ele>
        <time>2024-09-20T13:43:18.999Z</time>
      </trkpt>
      <trkpt lat="42.7965" lon="2.65336">
        <ele>132.91</ele>
        <time>2024-09-20T13:43:23.999Z</time>
      </trkpt>
      <trkpt lat="42.79644" lon="2.6536">
        <ele>132.87</ele>
        <time>2024-09-20T13:43:28.999Z</time>
      </trkpt>
      <trkpt lat="42.79638" lon="2.65384">
        <ele>132.85</ele>
        <time>2024-09-20T13:43:33.999Z</time>
      </trkpt>
      <trkpt lat="42.79632" lon="2.65409">
        <ele>132.84</ele>
        <time>2024-09-20T13:43:38.999Z</time>
      </trkpt>
      <trkpt lat="42.79627" lon="2.65432">
        <ele>132.85</ele>
        <time>2024-09-20T13:43:43.999Z</time>
      </trkpt>
      <trkpt lat="42.79621" lon="2.65456">
        <ele>132.86</ele>
        <time>2024-09-20T13:43:48.999Z</time>
      </trkpt>
      <trkpt lat="42.79615" lon="2.65477">
        <ele>132.87</ele>
        <time>2024-09-20T13:43:53.999Z</time>
      </trkpt>
      <trkpt lat="42.7961" lon="2.65499">
        <ele>132.89</ele>
        <time>2024-09-20T13:43:58.999Z</time>
      </trkpt>
      <trkpt lat="42.79605" lon="2.65519">
        <ele>132.92</ele>
        <time>2024-09-20T13:44:03.999Z</time>
      </trkpt>
      <trkpt lat="42.79598" lon="2.65541">
        <ele>132.96</ele>
        <time>2024-09-20T13:44:08.999Z</time>
      </trkpt>
      <trkpt lat="42.79591" lon="2.65561">
        <ele>133.02</ele>
        <time>2024-09-20T13:44:13.999Z</time>
      </trkpt>
      <trkpt lat="42.79584" lon="2.65582">
        <ele>133.08</ele>
        <time>2024-09-20T13:44:18.999Z</time>
      </trkpt>
      <trkpt lat="42.79577" lon="2.65603">
        <ele>133.15</ele>
        <time>2024-09-20T13:44:23.999Z</time>
      </trkpt>
      <trkpt lat="42.7957" lon="2.65626">
        <ele>133.37</ele>
        <time>2024-09-20T13:44:28.999Z</time>
      </trkpt>
      <trkpt lat="42.79562" lon="2.65652">
        <ele>133.86</ele>
        <time>2024-09-20T13:44:33.999Z</time>
      </trkpt>
      <trkpt lat="42.79554" lon="2.6568">
        <ele>134.1</ele>
        <time>2024-09-20T13:44:38.999Z</time>
      </trkpt>
      <trkpt lat="42.79544" lon="2.65709">
        <ele>134.26</ele>
        <time>2024-09-20T13:44:43.999Z</time>
      </trkpt>
      <trkpt lat="42.79535" lon="2.65738">
        <ele>134.4</ele>
        <time>2024-09-20T13:44:48.999Z</time>
      </trkpt>
      <trkpt lat="42.79526" lon="2.65764">
        <ele>134.57</ele>
        <time>2024-09-20T13:44:53.999Z</time>
      </trkpt>
      <trkpt lat="42.79517" lon="2.65793">
        <ele>134.71</ele>
        <time>2024-09-20T13:44:58.999Z</time>
      </trkpt>
      <trkpt lat="42.79509" lon="2.65819">
        <ele>134.83</ele>
        <time>2024-09-20T13:45:03.999Z</time>
      </trkpt>
      <trkpt lat="42.795" lon="2.65847">
        <ele>134.9</ele>
        <time>2024-09-20T13:45:08.999Z</time>
      </trkpt>
      <trkpt lat="42.79491" lon="2.65874">
        <ele>134.95</ele>
        <time>2024-09-20T13:45:13.999Z</time>
      </trkpt>
      <trkpt lat="42.79482" lon="2.65903">
        <ele>134.99</ele>
        <time>2024-09-20T13:45:18.999Z</time>
      </trkpt>
      <trkpt lat="42.79473" lon="2.65931">
        <ele>135.03</ele>
        <time>2024-09-20T13:45:23.999Z</time>
      </trkpt>
      <trkpt lat="42.79464" lon="2.65959">
        <ele>135.06</ele>
        <time>2024-09-20T13:45:28.999Z</time>
      </trkpt>
      <trkpt lat="42.79455" lon="2.65987">
        <ele>135.07</ele>
        <time>2024-09-20T13:45:33.999Z</time>
      </trkpt>
      <trkpt lat="42.79446" lon="2.66015">
        <ele>135.05</ele>
        <time>2024-09-20T13:45:38.999Z</time>
      </trkpt>
      <trkpt lat="42.79437" lon="2.66044">
        <ele>135.02</ele>
        <time>2024-09-20T13:45:43.999Z</time>
      </trkpt>
      <trkpt lat="42.79427" lon="2.66073">
        <ele>135.02</ele>
        <time>2024-09-20T13:45:48.999Z</time>
      </trkpt>
      <trkpt lat="42.79418" lon="2.66103">
        <ele>134.96</ele>
        <time>2024-09-20T13:45:53.999Z</time>
      </trkpt>
      <trkpt lat="42.7941" lon="2.66129">
        <ele>134.89</ele>
        <time>2024-09-20T13:45:58.999Z</time>
      </trkpt>
      <trkpt lat="42.79401" lon="2.66157">
        <ele>134.86</ele>
        <time>2024-09-20T13:46:03.999Z</time>
      </trkpt>
      <trkpt lat="42.79392" lon="2.66182">
        <ele>134.86</ele>
        <time>2024-09-20T13:46:08.999Z</time>
      </trkpt>
      <trkpt lat="42.79382" lon="2.66209">
        <ele>134.88</ele>
        <time>2024-09-20T13:46:13.999Z</time>
      </trkpt>
      <trkpt lat="42.79374" lon="2.66236">
        <ele>134.89</ele>
        <time>2024-09-20T13:46:18.999Z</time>
      </trkpt>
      <trkpt lat="42.79365" lon="2.66263">
        <ele>134.89</ele>
        <time>2024-09-20T13:46:23.999Z</time>
      </trkpt>
      <trkpt lat="42.79357" lon="2.66289">
        <ele>134.88</ele>
        <time>2024-09-20T13:46:28.999Z</time>
      </trkpt>
      <trkpt lat="42.79348" lon="2.66316">
        <ele>134.82</ele>
        <time>2024-09-20T13:46:33.999Z</time>
      </trkpt>
      <trkpt lat="42.7934" lon="2.66344">
        <ele>134.72</ele>
        <time>2024-09-20T13:46:38.999Z</time>
      </trkpt>
      <trkpt lat="42.79331" lon="2.66372">
        <ele>134.58</ele>
        <time>2024-09-20T13:46:43.999Z</time>
      </trkpt>
      <trkpt lat="42.79322" lon="2.66398">
        <ele>134.41</ele>
        <time>2024-09-20T13:46:48.999Z</time>
      </trkpt>
      <trkpt lat="42.79314" lon="2.66424">
        <ele>134.22</ele>
        <time>2024-09-20T13:46:53.999Z</time>
      </trkpt>
      <trkpt lat="42.79306" lon="2.66448">
        <ele>134.05</ele>
        <time>2024-09-20T13:46:58.999Z</time>
      </trkpt>
      <trkpt lat="42.79299" lon="2.66472">
        <ele>133.85</ele>
        <time>2024-09-20T13:47:03.999Z</time>
      </trkpt>
      <trkpt lat="42.7929" lon="2.66499">
        <ele>133.66</ele>
        <time>2024-09-20T13:47:08.999Z</time>
      </trkpt>
      <trkpt lat="42.79282" lon="2.66527">
        <ele>133.44</ele>
        <time>2024-09-20T13:47:13.999Z</time>
      </trkpt>
      <trkpt lat="42.79272" lon="2.66553">
        <ele>133.24</ele>
        <time>2024-09-20T13:47:18.999Z</time>
      </trkpt>
      <trkpt lat="42.79263" lon="2.66581">
        <ele>133.03</ele>
        <time>2024-09-20T13:47:23.999Z</time>
      </trkpt>
      <trkpt lat="42.79255" lon="2.66609">
        <ele>132.8</ele>
        <time>2024-09-20T13:47:28.999Z</time>
      </trkpt>
      <trkpt lat="42.79245" lon="2.66639">
        <ele>132.59</ele>
        <time>2024-09-20T13:47:33.999Z</time>
      </trkpt>
      <trkpt lat="42.79235" lon="2.66669">
        <ele>132.39</ele>
        <time>2024-09-20T13:47:38.999Z</time>
      </trkpt>
      <trkpt lat="42.79226" lon="2.66698">
        <ele>132.17</ele>
        <time>2024-09-20T13:47:43.999Z</time>
      </trkpt>
      <trkpt lat="42.79216" lon="2.66728">
        <ele>131.95</ele>
        <time>2024-09-20T13:47:48.999Z</time>
      </trkpt>
      <trkpt lat="42.79206" lon="2.66759">
        <ele>131.74</ele>
        <time>2024-09-20T13:47:53.999Z</time>
      </trkpt>
      <trkpt lat="42.79196" lon="2.6679">
        <ele>131.52</ele>
        <time>2024-09-20T13:47:58.999Z</time>
      </trkpt>
      <trkpt lat="42.79187" lon="2.6682">
        <ele>131.29</ele>
        <time>2024-09-20T13:48:03.999Z</time>
      </trkpt>
      <trkpt lat="42.79178" lon="2.66848">
        <ele>131.06</ele>
        <time>2024-09-20T13:48:08.999Z</time>
      </trkpt>
      <trkpt lat="42.79168" lon="2.66875">
        <ele>130.88</ele>
        <time>2024-09-20T13:48:13.999Z</time>
      </trkpt>
      <trkpt lat="42.7916" lon="2.66901">
        <ele>130.76</ele>
        <time>2024-09-20T13:48:18.999Z</time>
      </trkpt>
      <trkpt lat="42.79151" lon="2.66929">
        <ele>130.64</ele>
        <time>2024-09-20T13:48:23.999Z</time>
      </trkpt>
      <trkpt lat="42.79143" lon="2.66954">
        <ele>130.5</ele>
        <time>2024-09-20T13:48:28.999Z</time>
      </trkpt>
      <trkpt lat="42.79134" lon="2.66982">
        <ele>130.35</ele>
        <time>2024-09-20T13:48:33.999Z</time>
      </trkpt>
      <trkpt lat="42.79125" lon="2.6701">
        <ele>130.21</ele>
        <time>2024-09-20T13:48:38.999Z</time>
      </trkpt>
      <trkpt lat="42.79116" lon="2.67037">
        <ele>130.11</ele>
        <time>2024-09-20T13:48:43.999Z</time>
      </trkpt>
      <trkpt lat="42.79107" lon="2.67065">
        <ele>129.99</ele>
        <time>2024-09-20T13:48:48.999Z</time>
      </trkpt>
      <trkpt lat="42.79099" lon="2.67092">
        <ele>129.87</ele>
        <time>2024-09-20T13:48:53.999Z</time>
      </trkpt>
      <trkpt lat="42.79089" lon="2.67121">
        <ele>129.67</ele>
        <time>2024-09-20T13:48:58.999Z</time>
      </trkpt>
      <trkpt lat="42.7908" lon="2.6715">
        <ele>129.48</ele>
        <time>2024-09-20T13:49:03.999Z</time>
      </trkpt>
      <trkpt lat="42.79071" lon="2.67179">
        <ele>129.29</ele>
        <time>2024-09-20T13:49:08.999Z</time>
      </trkpt>
      <trkpt lat="42.79061" lon="2.67206">
        <ele>129.13</ele>
        <time>2024-09-20T13:49:13.999Z</time>
      </trkpt>
      <trkpt lat="42.79052" lon="2.67232">
        <ele>129.01</ele>
        <time>2024-09-20T13:49:18.999Z</time>
      </trkpt>
      <trkpt lat="42.79043" lon="2.67258">
        <ele>128.9</ele>
        <time>2024-09-20T13:49:23.999Z</time>
      </trkpt>
      <trkpt lat="42.79034" lon="2.67286">
        <ele>128.76</ele>
        <time>2024-09-20T13:49:28.999Z</time>
      </trkpt>
      <trkpt lat="42.79025" lon="2.67314">
        <ele>128.6</ele>
        <time>2024-09-20T13:49:33.999Z</time>
      </trkpt>
      <trkpt lat="42.79016" lon="2.67343">
        <ele>128.42</ele>
        <time>2024-09-20T13:49:38.999Z</time>
      </trkpt>
      <trkpt lat="42.79006" lon="2.67374">
        <ele>128.25</ele>
        <time>2024-09-20T13:49:43.999Z</time>
      </trkpt>
      <trkpt lat="42.78996" lon="2.67404">
        <ele>127.99</ele>
        <time>2024-09-20T13:49:48.999Z</time>
      </trkpt>
      <trkpt lat="42.78986" lon="2.67437">
        <ele>127.78</ele>
        <time>2024-09-20T13:49:53.999Z</time>
      </trkpt>
      <trkpt lat="42.78974" lon="2.67473">
        <ele>127.64</ele>
        <time>2024-09-20T13:49:58.999Z</time>
      </trkpt>
      <trkpt lat="42.78962" lon="2.67509">
        <ele>127.51</ele>
        <time>2024-09-20T13:50:03.999Z</time>
      </trkpt>
      <trkpt lat="42.7895" lon="2.67545">
        <ele>127.38</ele>
        <time>2024-09-20T13:50:08.999Z</time>
      </trkpt>
      <trkpt lat="42.78938" lon="2.67583">
        <ele>127.21</ele>
        <time>2024-09-20T13:50:13.999Z</time>
      </trkpt>
      <trkpt lat="42.78925" lon="2.67622">
        <ele>126.98</ele>
        <time>2024-09-20T13:50:18.999Z</time>
      </trkpt>
      <trkpt lat="42.78913" lon="2.67661">
        <ele>126.62</ele>
        <time>2024-09-20T13:50:23.999Z</time>
      </trkpt>
      <trkpt lat="42.78901" lon="2.67702">
        <ele>126.28</ele>
        <time>2024-09-20T13:50:28.999Z</time>
      </trkpt>
      <trkpt lat="42.78887" lon="2.6774">
        <ele>125.91</ele>
        <time>2024-09-20T13:50:33.999Z</time>
      </trkpt>
      <trkpt lat="42.78875" lon="2.67778">
        <ele>125.87</ele>
        <time>2024-09-20T13:50:38.999Z</time>
      </trkpt>
      <trkpt lat="42.78864" lon="2.67811">
        <ele>125.89</ele>
        <time>2024-09-20T13:50:43.999Z</time>
      </trkpt>
      <trkpt lat="42.78855" lon="2.67835">
        <ele>125.84</ele>
        <time>2024-09-20T13:50:48.999Z</time>
      </trkpt>
      <trkpt lat="42.78851" lon="2.67846">
        <ele>123.32</ele>
        <time>2024-09-20T13:53:20.000Z</time>
      </trkpt>
      <trkpt lat="42.7885" lon="2.6786">
        <ele>122.3</ele>
        <time>2024-09-20T13:53:26.000Z</time>
      </trkpt>
      <trkpt lat="42.78848" lon="2.67877">
        <ele>121.47</ele>
        <time>2024-09-20T13:53:31.000Z</time>
      </trkpt>
      <trkpt lat="42.78847" lon="2.67902">
        <ele>120.68</ele>
        <time>2024-09-20T13:53:36.000Z</time>
      </trkpt>
      <trkpt lat="42.78848" lon="2.67924">
        <ele>119.94</ele>
        <time>2024-09-20T13:53:41.000Z</time>
      </trkpt>
      <trkpt lat="42.78853" lon="2.67945">
        <ele>119.25</ele>
        <time>2024-09-20T13:53:46.000Z</time>
      </trkpt>
      <trkpt lat="42.7886" lon="2.67966">
        <ele>118.62</ele>
        <time>2024-09-20T13:53:51.000Z</time>
      </trkpt>
      <trkpt lat="42.78867" lon="2.67985">
        <ele>118.01</ele>
        <time>2024-09-20T13:53:56.000Z</time>
      </trkpt>
      <trkpt lat="42.78875" lon="2.68004">
        <ele>117.44</ele>
        <time>2024-09-20T13:54:01.000Z</time>
      </trkpt>
      <trkpt lat="42.78883" lon="2.68026">
        <ele>116.12</ele>
        <time>2024-09-20T13:54:06.000Z</time>
      </trkpt>
      <trkpt lat="42.7889" lon="2.6805">
        <ele>113.54</ele>
        <time>2024-09-20T13:54:11.000Z</time>
      </trkpt>
      <trkpt lat="42.78893" lon="2.68077">
        <ele>111.91</ele>
        <time>2024-09-20T13:54:16.000Z</time>
      </trkpt>
      <trkpt lat="42.78888" lon="2.68105">
        <ele>111.03</ele>
        <time>2024-09-20T13:54:21.000Z</time>
      </trkpt>
      <trkpt lat="42.78877" lon="2.68128">
        <ele>110.42</ele>
        <time>2024-09-20T13:54:26.000Z</time>
      </trkpt>
      <trkpt lat="42.78862" lon="2.68144">
        <ele>110.07</ele>
        <time>2024-09-20T13:54:31.000Z</time>
      </trkpt>
      <trkpt lat="42.78842" lon="2.68155">
        <ele>109.63</ele>
        <time>2024-09-20T13:54:36.000Z</time>
      </trkpt>
      <trkpt lat="42.78822" lon="2.68163">
        <ele>109.31</ele>
        <time>2024-09-20T13:54:41.000Z</time>
      </trkpt>
      <trkpt lat="42.78797" lon="2.68173">
        <ele>108.98</ele>
        <time>2024-09-20T13:54:46.000Z</time>
      </trkpt>
      <trkpt lat="42.78771" lon="2.68183">
        <ele>108.64</ele>
        <time>2024-09-20T13:54:51.000Z</time>
      </trkpt>
      <trkpt lat="42.78746" lon="2.68192">
        <ele>108.5</ele>
        <time>2024-09-20T13:54:56.000Z</time>
      </trkpt>
      <trkpt lat="42.78722" lon="2.682">
        <ele>108.46</ele>
        <time>2024-09-20T13:55:01.000Z</time>
      </trkpt>
      <trkpt lat="42.78698" lon="2.6821">
        <ele>108.46</ele>
        <time>2024-09-20T13:55:06.000Z</time>
      </trkpt>
      <trkpt lat="42.78674" lon="2.68221">
        <ele>108.38</ele>
        <time>2024-09-20T13:55:11.000Z</time>
      </trkpt>
      <trkpt lat="42.7865" lon="2.68233">
        <ele>108.39</ele>
        <time>2024-09-20T13:55:16.000Z</time>
      </trkpt>
      <trkpt lat="42.78626" lon="2.68247">
        <ele>108.32</ele>
        <time>2024-09-20T13:55:21.000Z</time>
      </trkpt>
      <trkpt lat="42.78602" lon="2.68261">
        <ele>108.29</ele>
        <time>2024-09-20T13:55:26.000Z</time>
      </trkpt>
      <trkpt lat="42.78578" lon="2.68278">
        <ele>108.17</ele>
        <time>2024-09-20T13:55:31.000Z</time>
      </trkpt>
      <trkpt lat="42.78559" lon="2.68303">
        <ele>107.89</ele>
        <time>2024-09-20T13:55:36.000Z</time>
      </trkpt>
      <trkpt lat="42.78541" lon="2.68328">
        <ele>107.6</ele>
        <time>2024-09-20T13:55:41.000Z</time>
      </trkpt>
      <trkpt lat="42.78523" lon="2.68353">
        <ele>107.21</ele>
        <time>2024-09-20T13:55:46.000Z</time>
      </trkpt>
      <trkpt lat="42.78504" lon="2.68377">
        <ele>106.93</ele>
        <time>2024-09-20T13:55:51.000Z</time>
      </trkpt>
      <trkpt lat="42.78485" lon="2.68402">
        <ele>106.7</ele>
        <time>2024-09-20T13:55:56.000Z</time>
      </trkpt>
      <trkpt lat="42.78468" lon="2.68429">
        <ele>106.48</ele>
        <time>2024-09-20T13:56:01.000Z</time>
      </trkpt>
      <trkpt lat="42.78452" lon="2.6846">
        <ele>106.27</ele>
        <time>2024-09-20T13:56:06.000Z</time>
      </trkpt>
      <trkpt lat="42.78439" lon="2.68492">
        <ele>106</ele>
        <time>2024-09-20T13:56:11.000Z</time>
      </trkpt>
      <trkpt lat="42.78426" lon="2.68523">
        <ele>105.72</ele>
        <time>2024-09-20T13:56:16.000Z</time>
      </trkpt>
      <trkpt lat="42.78411" lon="2.68555">
        <ele>105.51</ele>
        <time>2024-09-20T13:56:21.000Z</time>
      </trkpt>
      <trkpt lat="42.78394" lon="2.68586">
        <ele>105.35</ele>
        <time>2024-09-20T13:56:26.000Z</time>
      </trkpt>
      <trkpt lat="42.78373" lon="2.68614">
        <ele>105.14</ele>
        <time>2024-09-20T13:56:31.000Z</time>
      </trkpt>
      <trkpt lat="42.7835" lon="2.68638">
        <ele>104.96</ele>
        <time>2024-09-20T13:56:36.000Z</time>
      </trkpt>
      <trkpt lat="42.78328" lon="2.68662">
        <ele>104.78</ele>
        <time>2024-09-20T13:56:41.000Z</time>
      </trkpt>
      <trkpt lat="42.78308" lon="2.68685">
        <ele>104.63</ele>
        <time>2024-09-20T13:56:46.000Z</time>
      </trkpt>
      <trkpt lat="42.7829" lon="2.68709">
        <ele>104.47</ele>
        <time>2024-09-20T13:56:51.000Z</time>
      </trkpt>
      <trkpt lat="42.78274" lon="2.68734">
        <ele>104.32</ele>
        <time>2024-09-20T13:56:56.000Z</time>
      </trkpt>
      <trkpt lat="42.78258" lon="2.68762">
        <ele>104.16</ele>
        <time>2024-09-20T13:57:01.000Z</time>
      </trkpt>
      <trkpt lat="42.78244" lon="2.68792">
        <ele>104</ele>
        <time>2024-09-20T13:57:06.000Z</time>
      </trkpt>
      <trkpt lat="42.7823" lon="2.68821">
        <ele>103.86</ele>
        <time>2024-09-20T13:57:11.000Z</time>
      </trkpt>
      <trkpt lat="42.78219" lon="2.68851">
        <ele>103.75</ele>
        <time>2024-09-20T13:57:16.000Z</time>
      </trkpt>
      <trkpt lat="42.78207" lon="2.6888">
        <ele>103.68</ele>
        <time>2024-09-20T13:57:21.000Z</time>
      </trkpt>
      <trkpt lat="42.78193" lon="2.68908">
        <ele>103.61</ele>
        <time>2024-09-20T13:57:26.000Z</time>
      </trkpt>
      <trkpt lat="42.78176" lon="2.68934">
        <ele>103.52</ele>
        <time>2024-09-20T13:57:31.000Z</time>
      </trkpt>
      <trkpt lat="42.78158" lon="2.68958">
        <ele>103.42</ele>
        <time>2024-09-20T13:57:36.000Z</time>
      </trkpt>
      <trkpt lat="42.78137" lon="2.6898">
        <ele>103.32</ele>
        <time>2024-09-20T13:57:41.000Z</time>
      </trkpt>
      <trkpt lat="42.78113" lon="2.68995">
        <ele>103.18</ele>
        <time>2024-09-20T13:57:46.000Z</time>
      </trkpt>
      <trkpt lat="42.78091" lon="2.69008">
        <ele>102.99</ele>
        <time>2024-09-20T13:57:51.000Z</time>
      </trkpt>
      <trkpt lat="42.78069" lon="2.69021">
        <ele>102.74</ele>
        <time>2024-09-20T13:57:56.000Z</time>
      </trkpt>
      <trkpt lat="42.78048" lon="2.69037">
        <ele>102.5</ele>
        <time>2024-09-20T13:58:01.000Z</time>
      </trkpt>
      <trkpt lat="42.7803" lon="2.69056">
        <ele>102.3</ele>
        <time>2024-09-20T13:58:06.000Z</time>
      </trkpt>
      <trkpt lat="42.78013" lon="2.69079">
        <ele>102.13</ele>
        <time>2024-09-20T13:58:11.000Z</time>
      </trkpt>
      <trkpt lat="42.77997" lon="2.69105">
        <ele>101.97</ele>
        <time>2024-09-20T13:58:16.000Z</time>
      </trkpt>
      <trkpt lat="42.77983" lon="2.69131">
        <ele>101.84</ele>
        <time>2024-09-20T13:58:21.000Z</time>
      </trkpt>
      <trkpt lat="42.77971" lon="2.69158">
        <ele>101.72</ele>
        <time>2024-09-20T13:58:26.000Z</time>
      </trkpt>
      <trkpt lat="42.77963" lon="2.69189">
        <ele>101.65</ele>
        <time>2024-09-20T13:58:31.000Z</time>
      </trkpt>
      <trkpt lat="42.77953" lon="2.69221">
        <ele>101.59</ele>
        <time>2024-09-20T13:58:36.000Z</time>
      </trkpt>
      <trkpt lat="42.77946" lon="2.69252">
        <ele>101.54</ele>
        <time>2024-09-20T13:58:41.000Z</time>
      </trkpt>
      <trkpt lat="42.77937" lon="2.69285">
        <ele>101.51</ele>
        <time>2024-09-20T13:58:46.000Z</time>
      </trkpt>
      <trkpt lat="42.77928" lon="2.69318">
        <ele>101.5</ele>
        <time>2024-09-20T13:58:51.000Z</time>
      </trkpt>
      <trkpt lat="42.77919" lon="2.69352">
        <ele>101.49</ele>
        <time>2024-09-20T13:58:56.000Z</time>
      </trkpt>
      <trkpt lat="42.7791" lon="2.69384">
        <ele>101.49</ele>
        <time>2024-09-20T13:59:01.000Z</time>
      </trkpt>
      <trkpt lat="42.779" lon="2.69414">
        <ele>101.42</ele>
        <time>2024-09-20T13:59:06.000Z</time>
      </trkpt>
      <trkpt lat="42.77887" lon="2.69441">
        <ele>101.31</ele>
        <time>2024-09-20T13:59:11.000Z</time>
      </trkpt>
      <trkpt lat="42.7787" lon="2.69464">
        <ele>101.21</ele>
        <time>2024-09-20T13:59:16.000Z</time>
      </trkpt>
      <trkpt lat="42.77851" lon="2.69485">
        <ele>101.13</ele>
        <time>2024-09-20T13:59:21.000Z</time>
      </trkpt>
      <trkpt lat="42.77832" lon="2.69507">
        <ele>101.05</ele>
        <time>2024-09-20T13:59:26.000Z</time>
      </trkpt>
      <trkpt lat="42.77816" lon="2.69531">
        <ele>100.96</ele>
        <time>2024-09-20T13:59:31.000Z</time>
      </trkpt>
      <trkpt lat="42.77802" lon="2.69559">
        <ele>100.89</ele>
        <time>2024-09-20T13:59:36.000Z</time>
      </trkpt>
      <trkpt lat="42.77794" lon="2.69589">
        <ele>100.84</ele>
        <time>2024-09-20T13:59:41.000Z</time>
      </trkpt>
      <trkpt lat="42.77785" lon="2.69621">
        <ele>100.8</ele>
        <time>2024-09-20T13:59:46.000Z</time>
      </trkpt>
      <trkpt lat="42.77774" lon="2.69655">
        <ele>100.81</ele>
        <time>2024-09-20T13:59:51.000Z</time>
      </trkpt>
      <trkpt lat="42.77754" lon="2.69673">
        <ele>100.78</ele>
        <time>2024-09-20T13:59:56.000Z</time>
      </trkpt>
      <trkpt lat="42.77732" lon="2.69672">
        <ele>100.74</ele>
        <time>2024-09-20T14:00:01.000Z</time>
      </trkpt>
      <trkpt lat="42.77709" lon="2.69659">
        <ele>100.67</ele>
        <time>2024-09-20T14:00:06.000Z</time>
      </trkpt>
      <trkpt lat="42.7769" lon="2.69645">
        <ele>100.6</ele>
        <time>2024-09-20T14:00:11.000Z</time>
      </trkpt>
      <trkpt lat="42.77675" lon="2.69634">
        <ele>100.56</ele>
        <time>2024-09-20T14:00:16.000Z</time>
      </trkpt>
      <trkpt lat="42.77666" lon="2.69628">
        <ele>100.53</ele>
        <time>2024-09-20T14:00:40.000Z</time>
      </trkpt>
      <trkpt lat="42.77648" lon="2.69616">
        <ele>100.47</ele>
        <time>2024-09-20T14:00:45.000Z</time>
      </trkpt>
      <trkpt lat="42.77628" lon="2.69603">
        <ele>100.48</ele>
        <time>2024-09-20T14:00:50.000Z</time>
      </trkpt>
      <trkpt lat="42.77609" lon="2.6959">
        <ele>100.53</ele>
        <time>2024-09-20T14:00:55.000Z</time>
      </trkpt>
      <trkpt lat="42.77588" lon="2.69577">
        <ele>100.55</ele>
        <time>2024-09-20T14:01:00.000Z</time>
      </trkpt>
      <trkpt lat="42.77564" lon="2.69564">
        <ele>100.57</ele>
        <time>2024-09-20T14:01:05.000Z</time>
      </trkpt>
      <trkpt lat="42.77537" lon="2.69557">
        <ele>100.6</ele>
        <time>2024-09-20T14:01:10.000Z</time>
      </trkpt>
      <trkpt lat="42.77511" lon="2.69553">
        <ele>100.57</ele>
        <time>2024-09-20T14:01:15.000Z</time>
      </trkpt>
      <trkpt lat="42.77484" lon="2.69556">
        <ele>100.51</ele>
        <time>2024-09-20T14:01:20.000Z</time>
      </trkpt>
      <trkpt lat="42.7746" lon="2.69562">
        <ele>100.4</ele>
        <time>2024-09-20T14:01:25.000Z</time>
      </trkpt>
      <trkpt lat="42.77435" lon="2.69575">
        <ele>100.27</ele>
        <time>2024-09-20T14:01:30.000Z</time>
      </trkpt>
      <trkpt lat="42.77413" lon="2.69589">
        <ele>100.13</ele>
        <time>2024-09-20T14:01:35.000Z</time>
      </trkpt>
      <trkpt lat="42.77391" lon="2.69608">
        <ele>99.97</ele>
        <time>2024-09-20T14:01:40.000Z</time>
      </trkpt>
      <trkpt lat="42.77372" lon="2.69628">
        <ele>99.89</ele>
        <time>2024-09-20T14:01:45.000Z</time>
      </trkpt>
      <trkpt lat="42.77355" lon="2.69651">
        <ele>99.85</ele>
        <time>2024-09-20T14:01:50.000Z</time>
      </trkpt>
      <trkpt lat="42.77343" lon="2.69676">
        <ele>99.85</ele>
        <time>2024-09-20T14:01:55.000Z</time>
      </trkpt>
      <trkpt lat="42.7733" lon="2.69704">
        <ele>99.86</ele>
        <time>2024-09-20T14:02:00.000Z</time>
      </trkpt>
      <trkpt lat="42.7732" lon="2.6973">
        <ele>99.88</ele>
        <time>2024-09-20T14:02:05.000Z</time>
      </trkpt>
      <trkpt lat="42.77307" lon="2.6976">
        <ele>99.9</ele>
        <time>2024-09-20T14:02:10.000Z</time>
      </trkpt>
      <trkpt lat="42.77296" lon="2.69787">
        <ele>99.92</ele>
        <time>2024-09-20T14:02:15.000Z</time>
      </trkpt>
      <trkpt lat="42.77285" lon="2.69811">
        <ele>99.91</ele>
        <time>2024-09-20T14:02:20.000Z</time>
      </trkpt>
      <trkpt lat="42.77278" lon="2.69836">
        <ele>99.9</ele>
        <time>2024-09-20T14:02:25.000Z</time>
      </trkpt>
      <trkpt lat="42.77272" lon="2.69862">
        <ele>99.9</ele>
        <time>2024-09-20T14:02:30.000Z</time>
      </trkpt>
      <trkpt lat="42.77266" lon="2.69886">
        <ele>99.9</ele>
        <time>2024-09-20T14:02:35.000Z</time>
      </trkpt>
      <trkpt lat="42.77259" lon="2.6991">
        <ele>99.91</ele>
        <time>2024-09-20T14:02:40.000Z</time>
      </trkpt>
      <trkpt lat="42.77253" lon="2.69925">
        <ele>99.92</ele>
        <time>2024-09-20T14:02:45.000Z</time>
      </trkpt>
      <trkpt lat="42.77248" lon="2.69935">
        <ele>99.92</ele>
        <time>2024-09-20T14:02:50.000Z</time>
      </trkpt>
      <trkpt lat="42.77244" lon="2.69947">
        <ele>99.92</ele>
        <time>2024-09-20T14:02:55.000Z</time>
      </trkpt>
      <trkpt lat="42.7724" lon="2.69959">
        <ele>99.93</ele>
        <time>2024-09-20T14:03:08.000Z</time>
      </trkpt>
      <trkpt lat="42.77236" lon="2.69973">
        <ele>99.92</ele>
        <time>2024-09-20T14:03:14.000Z</time>
      </trkpt>
      <trkpt lat="42.77236" lon="2.69997">
        <ele>99.92</ele>
        <time>2024-09-20T14:03:19.000Z</time>
      </trkpt>
      <trkpt lat="42.77223" lon="2.70003">
        <ele>99.91</ele>
        <time>2024-09-20T14:03:24.000Z</time>
      </trkpt>
      <trkpt lat="42.77202" lon="2.70007">
        <ele>99.85</ele>
        <time>2024-09-20T14:03:29.000Z</time>
      </trkpt>
      <trkpt lat="42.77175" lon="2.70021">
        <ele>99.82</ele>
        <time>2024-09-20T14:03:34.000Z</time>
      </trkpt>
      <trkpt lat="42.77166" lon="2.70042">
        <ele>99.75</ele>
        <time>2024-09-20T14:03:39.000Z</time>
      </trkpt>
      <trkpt lat="42.77152" lon="2.70064">
        <ele>99.56</ele>
        <time>2024-09-20T14:03:44.000Z</time>
      </trkpt>
      <trkpt lat="42.77137" lon="2.70083">
        <ele>99.43</ele>
        <time>2024-09-20T14:03:49.000Z</time>
      </trkpt>
      <trkpt lat="42.77122" lon="2.701">
        <ele>98.61</ele>
        <time>2024-09-20T14:03:54.000Z</time>
      </trkpt>
      <trkpt lat="42.77108" lon="2.70114">
        <ele>98.19</ele>
        <time>2024-09-20T14:03:59.000Z</time>
      </trkpt>
      <trkpt lat="42.77096" lon="2.70122">
        <ele>97.71</ele>
        <time>2024-09-20T14:04:04.000Z</time>
      </trkpt>
      <trkpt lat="42.77081" lon="2.70132">
        <ele>97.18</ele>
        <time>2024-09-20T14:04:09.000Z</time>
      </trkpt>
      <trkpt lat="42.77068" lon="2.70141">
        <ele>96.61</ele>
        <time>2024-09-20T14:04:14.000Z</time>
      </trkpt>
      <trkpt lat="42.77056" lon="2.70146">
        <ele>96.06</ele>
        <time>2024-09-20T14:04:19.000Z</time>
      </trkpt>
      <trkpt lat="42.77049" lon="2.70159">
        <ele>94.35</ele>
        <time>2024-09-20T14:05:38.999Z</time>
      </trkpt>
      <trkpt lat="42.77041" lon="2.70168">
        <ele>93.5</ele>
        <time>2024-09-20T14:05:50.999Z</time>
      </trkpt>
      <trkpt lat="42.77024" lon="2.70181">
        <ele>93.32</ele>
        <time>2024-09-20T14:05:55.999Z</time>
      </trkpt>
      <trkpt lat="42.77008" lon="2.70192">
        <ele>93.27</ele>
        <time>2024-09-20T14:06:00.999Z</time>
      </trkpt>
      <trkpt lat="42.76993" lon="2.70205">
        <ele>93.32</ele>
        <time>2024-09-20T14:06:05.999Z</time>
      </trkpt>
      <trkpt lat="42.7698" lon="2.70218">
        <ele>93.49</ele>
        <time>2024-09-20T14:06:10.999Z</time>
      </trkpt>
      <trkpt lat="42.76969" lon="2.7023">
        <ele>93.73</ele>
        <time>2024-09-20T14:06:15.999Z</time>
      </trkpt>
      <trkpt lat="42.76957" lon="2.70242">
        <ele>94.03</ele>
        <time>2024-09-20T14:06:20.999Z</time>
      </trkpt>
      <trkpt lat="42.76947" lon="2.70252">
        <ele>94.34</ele>
        <time>2024-09-20T14:06:25.999Z</time>
      </trkpt>
      <trkpt lat="42.76937" lon="2.70263">
        <ele>94.67</ele>
        <time>2024-09-20T14:06:30.999Z</time>
      </trkpt>
      <trkpt lat="42.76928" lon="2.70274">
        <ele>95.05</ele>
        <time>2024-09-20T14:06:35.999Z</time>
      </trkpt>
      <trkpt lat="42.76919" lon="2.70284">
        <ele>95.45</ele>
        <time>2024-09-20T14:06:40.999Z</time>
      </trkpt>
      <trkpt lat="42.7691" lon="2.70297">
        <ele>95.83</ele>
        <time>2024-09-20T14:06:45.999Z</time>
      </trkpt>
      <trkpt lat="42.769" lon="2.7031">
        <ele>96.17</ele>
        <time>2024-09-20T14:06:50.999Z</time>
      </trkpt>
      <trkpt lat="42.76892" lon="2.70322">
        <ele>96.47</ele>
        <time>2024-09-20T14:06:55.999Z</time>
      </trkpt>
      <trkpt lat="42.76885" lon="2.70335">
        <ele>96.74</ele>
        <time>2024-09-20T14:07:00.999Z</time>
      </trkpt>
      <trkpt lat="42.76878" lon="2.70346">
        <ele>97.02</ele>
        <time>2024-09-20T14:07:05.999Z</time>
      </trkpt>
      <trkpt lat="42.76872" lon="2.70361">
        <ele>97.36</ele>
        <time>2024-09-20T14:07:10.999Z</time>
      </trkpt>
      <trkpt lat="42.76864" lon="2.70377">
        <ele>97.77</ele>
        <time>2024-09-20T14:07:15.999Z</time>
      </trkpt>
      <trkpt lat="42.76855" lon="2.70393">
        <ele>98.22</ele>
        <time>2024-09-20T14:07:20.999Z</time>
      </trkpt>
      <trkpt lat="42.76843" lon="2.70406">
        <ele>98.71</ele>
        <time>2024-09-20T14:07:25.999Z</time>
      </trkpt>
      <trkpt lat="42.76829" lon="2.70409">
        <ele>99.22</ele>
        <time>2024-09-20T14:07:30.999Z</time>
      </trkpt>
      <trkpt lat="42.76816" lon="2.70403">
        <ele>99.76</ele>
        <time>2024-09-20T14:07:35.999Z</time>
      </trkpt>
      <trkpt lat="42.76804" lon="2.70393">
        <ele>100.35</ele>
        <time>2024-09-20T14:07:40.999Z</time>
      </trkpt>
      <trkpt lat="42.7679" lon="2.70381">
        <ele>100.95</ele>
        <time>2024-09-20T14:07:45.999Z</time>
      </trkpt>
      <trkpt lat="42.76776" lon="2.70371">
        <ele>101.56</ele>
        <time>2024-09-20T14:07:50.999Z</time>
      </trkpt>
      <trkpt lat="42.76761" lon="2.70361">
        <ele>102.19</ele>
        <time>2024-09-20T14:07:55.999Z</time>
      </trkpt>
      <trkpt lat="42.76745" lon="2.70354">
        <ele>102.8</ele>
        <time>2024-09-20T14:08:00.999Z</time>
      </trkpt>
      <trkpt lat="42.76725" lon="2.70354">
        <ele>106.22</ele>
        <time>2024-09-20T14:08:05.999Z</time>
      </trkpt>
      <trkpt lat="42.76703" lon="2.70354">
        <ele>108.13</ele>
        <time>2024-09-20T14:08:10.999Z</time>
      </trkpt>
      <trkpt lat="42.76678" lon="2.70352">
        <ele>109</ele>
        <time>2024-09-20T14:08:15.999Z</time>
      </trkpt>
      <trkpt lat="42.76654" lon="2.70337">
        <ele>109.4</ele>
        <time>2024-09-20T14:08:20.999Z</time>
      </trkpt>
      <trkpt lat="42.76627" lon="2.70324">
        <ele>109.56</ele>
        <time>2024-09-20T14:08:25.999Z</time>
      </trkpt>
      <trkpt lat="42.76598" lon="2.70326">
        <ele>109.61</ele>
        <time>2024-09-20T14:08:30.999Z</time>
      </trkpt>
      <trkpt lat="42.76572" lon="2.70342">
        <ele>109.58</ele>
        <time>2024-09-20T14:08:35.999Z</time>
      </trkpt>
      <trkpt lat="42.76548" lon="2.70361">
        <ele>109.5</ele>
        <time>2024-09-20T14:08:40.999Z</time>
      </trkpt>
      <trkpt lat="42.76527" lon="2.70378">
        <ele>109.38</ele>
        <time>2024-09-20T14:08:45.999Z</time>
      </trkpt>
      <trkpt lat="42.76505" lon="2.70389">
        <ele>109.27</ele>
        <time>2024-09-20T14:08:50.999Z</time>
      </trkpt>
      <trkpt lat="42.76483" lon="2.70384">
        <ele>109.17</ele>
        <time>2024-09-20T14:08:55.999Z</time>
      </trkpt>
      <trkpt lat="42.76461" lon="2.70389">
        <ele>109.08</ele>
        <time>2024-09-20T14:09:00.999Z</time>
      </trkpt>
      <trkpt lat="42.76437" lon="2.704">
        <ele>108.98</ele>
        <time>2024-09-20T14:09:05.999Z</time>
      </trkpt>
      <trkpt lat="42.76419" lon="2.70424">
        <ele>108.86</ele>
        <time>2024-09-20T14:09:10.999Z</time>
      </trkpt>
      <trkpt lat="42.76407" lon="2.70452">
        <ele>108.8</ele>
        <time>2024-09-20T14:09:15.999Z</time>
      </trkpt>
      <trkpt lat="42.76396" lon="2.70485">
        <ele>108.79</ele>
        <time>2024-09-20T14:09:20.999Z</time>
      </trkpt>
      <trkpt lat="42.76387" lon="2.70519">
        <ele>108.83</ele>
        <time>2024-09-20T14:09:25.999Z</time>
      </trkpt>
      <trkpt lat="42.76377" lon="2.7055">
        <ele>108.9</ele>
        <time>2024-09-20T14:09:30.999Z</time>
      </trkpt>
      <trkpt lat="42.76368" lon="2.70582">
        <ele>108.96</ele>
        <time>2024-09-20T14:09:35.999Z</time>
      </trkpt>
      <trkpt lat="42.76361" lon="2.70608">
        <ele>109.03</ele>
        <time>2024-09-20T14:09:40.999Z</time>
      </trkpt>
      <trkpt lat="42.76354" lon="2.70634">
        <ele>109.1</ele>
        <time>2024-09-20T14:09:45.999Z</time>
      </trkpt>
      <trkpt lat="42.76347" lon="2.70657">
        <ele>109.12</ele>
        <time>2024-09-20T14:09:50.999Z</time>
      </trkpt>
      <trkpt lat="42.76339" lon="2.70677">
        <ele>109.15</ele>
        <time>2024-09-20T14:09:55.999Z</time>
      </trkpt>
      <trkpt lat="42.76328" lon="2.70694">
        <ele>109.17</ele>
        <time>2024-09-20T14:10:00.999Z</time>
      </trkpt>
      <trkpt lat="42.76315" lon="2.70706">
        <ele>109.18</ele>
        <time>2024-09-20T14:10:05.999Z</time>
      </trkpt>
      <trkpt lat="42.763" lon="2.70716">
        <ele>109.17</ele>
        <time>2024-09-20T14:10:10.999Z</time>
      </trkpt>
      <trkpt lat="42.76284" lon="2.70726">
        <ele>109.17</ele>
        <time>2024-09-20T14:10:15.999Z</time>
      </trkpt>
      <trkpt lat="42.7627" lon="2.70735">
        <ele>109.16</ele>
        <time>2024-09-20T14:10:20.999Z</time>
      </trkpt>
      <trkpt lat="42.76255" lon="2.70745">
        <ele>109.15</ele>
        <time>2024-09-20T14:10:25.999Z</time>
      </trkpt>
      <trkpt lat="42.7624" lon="2.70754">
        <ele>109.15</ele>
        <time>2024-09-20T14:10:30.999Z</time>
      </trkpt>
      <trkpt lat="42.76223" lon="2.70759">
        <ele>109.15</ele>
        <time>2024-09-20T14:10:35.999Z</time>
      </trkpt>
      <trkpt lat="42.76207" lon="2.7076">
        <ele>109.16</ele>
        <time>2024-09-20T14:10:40.999Z</time>
      </trkpt>
      <trkpt lat="42.76191" lon="2.70758">
        <ele>109.17</ele>
        <time>2024-09-20T14:10:45.999Z</time>
      </trkpt>
      <trkpt lat="42.76175" lon="2.70757">
        <ele>109.19</ele>
        <time>2024-09-20T14:10:50.999Z</time>
      </trkpt>
      <trkpt lat="42.76159" lon="2.70755">
        <ele>109.22</ele>
        <time>2024-09-20T14:10:55.999Z</time>
      </trkpt>
      <trkpt lat="42.76142" lon="2.70755">
        <ele>109.31</ele>
        <time>2024-09-20T14:11:00.999Z</time>
      </trkpt>
      <trkpt lat="42.76125" lon="2.70753">
        <ele>109.36</ele>
        <time>2024-09-20T14:11:05.999Z</time>
      </trkpt>
      <trkpt lat="42.76109" lon="2.7075">
        <ele>109.4</ele>
        <time>2024-09-20T14:11:10.999Z</time>
      </trkpt>
      <trkpt lat="42.76093" lon="2.70748">
        <ele>109.44</ele>
        <time>2024-09-20T14:11:15.999Z</time>
      </trkpt>
      <trkpt lat="42.76078" lon="2.70739">
        <ele>109.48</ele>
        <time>2024-09-20T14:11:20.999Z</time>
      </trkpt>
      <trkpt lat="42.76064" lon="2.70728">
        <ele>109.52</ele>
        <time>2024-09-20T14:11:25.999Z</time>
      </trkpt>
      <trkpt lat="42.76047" lon="2.70721">
        <ele>109.57</ele>
        <time>2024-09-20T14:11:30.999Z</time>
      </trkpt>
      <trkpt lat="42.7603" lon="2.70718">
        <ele>109.62</ele>
        <time>2024-09-20T14:11:35.999Z</time>
      </trkpt>
      <trkpt lat="42.76013" lon="2.70718">
        <ele>109.68</ele>
        <time>2024-09-20T14:11:40.999Z</time>
      </trkpt>
      <trkpt lat="42.75995" lon="2.70726">
        <ele>109.76</ele>
        <time>2024-09-20T14:11:45.999Z</time>
      </trkpt>
      <trkpt lat="42.75982" lon="2.70744">
        <ele>109.85</ele>
        <time>2024-09-20T14:11:50.999Z</time>
      </trkpt>
      <trkpt lat="42.75972" lon="2.70764">
        <ele>109.95</ele>
        <time>2024-09-20T14:11:55.999Z</time>
      </trkpt>
      <trkpt lat="42.75964" lon="2.70783">
        <ele>110.05</ele>
        <time>2024-09-20T14:12:00.999Z</time>
      </trkpt>
      <trkpt lat="42.75956" lon="2.70802">
        <ele>110.14</ele>
        <time>2024-09-20T14:12:05.999Z</time>
      </trkpt>
      <trkpt lat="42.75949" lon="2.7082">
        <ele>110.23</ele>
        <time>2024-09-20T14:12:10.999Z</time>
      </trkpt>
      <trkpt lat="42.75941" lon="2.70838">
        <ele>110.33</ele>
        <time>2024-09-20T14:12:15.999Z</time>
      </trkpt>
      <trkpt lat="42.75934" lon="2.70857">
        <ele>110.42</ele>
        <time>2024-09-20T14:12:20.999Z</time>
      </trkpt>
      <trkpt lat="42.75928" lon="2.70878">
        <ele>110.52</ele>
        <time>2024-09-20T14:12:25.999Z</time>
      </trkpt>
      <trkpt lat="42.75922" lon="2.709">
        <ele>110.62</ele>
        <time>2024-09-20T14:12:30.999Z</time>
      </trkpt>
      <trkpt lat="42.75917" lon="2.70921">
        <ele>110.73</ele>
        <time>2024-09-20T14:12:35.999Z</time>
      </trkpt>
      <trkpt lat="42.7591" lon="2.70943">
        <ele>110.86</ele>
        <time>2024-09-20T14:12:40.999Z</time>
      </trkpt>
      <trkpt lat="42.75901" lon="2.70964">
        <ele>111</ele>
        <time>2024-09-20T14:12:45.999Z</time>
      </trkpt>
      <trkpt lat="42.75897" lon="2.70987">
        <ele>111.15</ele>
        <time>2024-09-20T14:12:50.999Z</time>
      </trkpt>
      <trkpt lat="42.75894" lon="2.71009">
        <ele>111.31</ele>
        <time>2024-09-20T14:12:55.999Z</time>
      </trkpt>
      <trkpt lat="42.75891" lon="2.71032">
        <ele>111.49</ele>
        <time>2024-09-20T14:13:00.999Z</time>
      </trkpt>
      <trkpt lat="42.7589" lon="2.71055">
        <ele>111.68</ele>
        <time>2024-09-20T14:13:05.999Z</time>
      </trkpt>
      <trkpt lat="42.75891" lon="2.71075">
        <ele>111.88</ele>
        <time>2024-09-20T14:13:10.999Z</time>
      </trkpt>
      <trkpt lat="42.75892" lon="2.71095">
        <ele>112.1</ele>
        <time>2024-09-20T14:13:15.999Z</time>
      </trkpt>
      <trkpt lat="42.75889" lon="2.71115">
        <ele>112.34</ele>
        <time>2024-09-20T14:13:20.999Z</time>
      </trkpt>
      <trkpt lat="42.75882" lon="2.71131">
        <ele>112.58</ele>
        <time>2024-09-20T14:13:25.999Z</time>
      </trkpt>
      <trkpt lat="42.75872" lon="2.71141">
        <ele>112.82</ele>
        <time>2024-09-20T14:13:30.999Z</time>
      </trkpt>
      <trkpt lat="42.75862" lon="2.71146">
        <ele>113.07</ele>
        <time>2024-09-20T14:13:35.999Z</time>
      </trkpt>
      <trkpt lat="42.7585" lon="2.71154">
        <ele>113.33</ele>
        <time>2024-09-20T14:13:40.999Z</time>
      </trkpt>
      <trkpt lat="42.75838" lon="2.71161">
        <ele>113.61</ele>
        <time>2024-09-20T14:13:45.999Z</time>
      </trkpt>
      <trkpt lat="42.75825" lon="2.71169">
        <ele>113.91</ele>
        <time>2024-09-20T14:13:50.999Z</time>
      </trkpt>
      <trkpt lat="42.75814" lon="2.71177">
        <ele>114.23</ele>
        <time>2024-09-20T14:13:55.999Z</time>
      </trkpt>
      <trkpt lat="42.75803" lon="2.71187">
        <ele>114.57</ele>
        <time>2024-09-20T14:14:00.999Z</time>
      </trkpt>
      <trkpt lat="42.75792" lon="2.71198">
        <ele>114.93</ele>
        <time>2024-09-20T14:14:05.999Z</time>
      </trkpt>
      <trkpt lat="42.75781" lon="2.71212">
        <ele>115.29</ele>
        <time>2024-09-20T14:14:10.999Z</time>
      </trkpt>
      <trkpt lat="42.75769" lon="2.71228">
        <ele>115.63</ele>
        <time>2024-09-20T14:14:15.999Z</time>
      </trkpt>
      <trkpt lat="42.7576" lon="2.71243">
        <ele>115.96</ele>
        <time>2024-09-20T14:14:20.999Z</time>
      </trkpt>
      <trkpt lat="42.75749" lon="2.7126">
        <ele>116.29</ele>
        <time>2024-09-20T14:14:25.999Z</time>
      </trkpt>
      <trkpt lat="42.75738" lon="2.71277">
        <ele>116.6</ele>
        <time>2024-09-20T14:14:30.999Z</time>
      </trkpt>
      <trkpt lat="42.75727" lon="2.71292">
        <ele>116.89</ele>
        <time>2024-09-20T14:14:35.999Z</time>
      </trkpt>
      <trkpt lat="42.75715" lon="2.71305">
        <ele>117.19</ele>
        <time>2024-09-20T14:14:40.999Z</time>
      </trkpt>
      <trkpt lat="42.75701" lon="2.71317">
        <ele>117.48</ele>
        <time>2024-09-20T14:14:45.999Z</time>
      </trkpt>
      <trkpt lat="42.75689" lon="2.71325">
        <ele>117.78</ele>
        <time>2024-09-20T14:14:50.999Z</time>
      </trkpt>
      <trkpt lat="42.75676" lon="2.71332">
        <ele>118.08</ele>
        <time>2024-09-20T14:14:55.999Z</time>
      </trkpt>
      <trkpt lat="42.75663" lon="2.71342">
        <ele>118.38</ele>
        <time>2024-09-20T14:15:00.999Z</time>
      </trkpt>
      <trkpt lat="42.75651" lon="2.71348">
        <ele>118.68</ele>
        <time>2024-09-20T14:15:05.999Z</time>
      </trkpt>
      <trkpt lat="42.75637" lon="2.71351">
        <ele>118.99</ele>
        <time>2024-09-20T14:15:10.999Z</time>
      </trkpt>
      <trkpt lat="42.75622" lon="2.71355">
        <ele>119.29</ele>
        <time>2024-09-20T14:15:15.999Z</time>
      </trkpt>
      <trkpt lat="42.75609" lon="2.7136">
        <ele>119.6</ele>
        <time>2024-09-20T14:15:20.999Z</time>
      </trkpt>
      <trkpt lat="42.75594" lon="2.71365">
        <ele>119.94</ele>
        <time>2024-09-20T14:15:25.999Z</time>
      </trkpt>
      <trkpt lat="42.7558" lon="2.71376">
        <ele>120.35</ele>
        <time>2024-09-20T14:15:30.999Z</time>
      </trkpt>
      <trkpt lat="42.7557" lon="2.7139">
        <ele>120.82</ele>
        <time>2024-09-20T14:15:35.999Z</time>
      </trkpt>
      <trkpt lat="42.7556" lon="2.71404">
        <ele>121.34</ele>
        <time>2024-09-20T14:15:40.999Z</time>
      </trkpt>
      <trkpt lat="42.75549" lon="2.7142">
        <ele>121.9</ele>
        <time>2024-09-20T14:15:45.999Z</time>
      </trkpt>
      <trkpt lat="42.75539" lon="2.71435">
        <ele>122.46</ele>
        <time>2024-09-20T14:15:50.999Z</time>
      </trkpt>
      <trkpt lat="42.7553" lon="2.71448">
        <ele>123.02</ele>
        <time>2024-09-20T14:15:55.999Z</time>
      </trkpt>
      <trkpt lat="42.75522" lon="2.7146">
        <ele>123.57</ele>
        <time>2024-09-20T14:16:00.999Z</time>
      </trkpt>
      <trkpt lat="42.75515" lon="2.71471">
        <ele>124.11</ele>
        <time>2024-09-20T14:16:05.999Z</time>
      </trkpt>
      <trkpt lat="42.75507" lon="2.71482">
        <ele>124.65</ele>
        <time>2024-09-20T14:16:10.999Z</time>
      </trkpt>
      <trkpt lat="42.755" lon="2.71491">
        <ele>125.18</ele>
        <time>2024-09-20T14:16:15.999Z</time>
      </trkpt>
      <trkpt lat="42.75494" lon="2.715">
        <ele>125.69</ele>
        <time>2024-09-20T14:16:20.999Z</time>
      </trkpt>
      <trkpt lat="42.75489" lon="2.71512">
        <ele>126.19</ele>
        <time>2024-09-20T14:16:25.999Z</time>
      </trkpt>
      <trkpt lat="42.75483" lon="2.71529">
        <ele>126.67</ele>
        <time>2024-09-20T14:16:30.999Z</time>
      </trkpt>
      <trkpt lat="42.75478" lon="2.71545">
        <ele>127.13</ele>
        <time>2024-09-20T14:16:35.999Z</time>
      </trkpt>
      <trkpt lat="42.75474" lon="2.71559">
        <ele>127.58</ele>
        <time>2024-09-20T14:16:40.999Z</time>
      </trkpt>
      <trkpt lat="42.75469" lon="2.71575">
        <ele>128.03</ele>
        <time>2024-09-20T14:16:45.999Z</time>
      </trkpt>
      <trkpt lat="42.75467" lon="2.71591">
        <ele>128.48</ele>
        <time>2024-09-20T14:16:50.999Z</time>
      </trkpt>
      <trkpt lat="42.75464" lon="2.71607">
        <ele>128.92</ele>
        <time>2024-09-20T14:16:55.999Z</time>
      </trkpt>
      <trkpt lat="42.75459" lon="2.71624">
        <ele>129.35</ele>
        <time>2024-09-20T14:17:00.999Z</time>
      </trkpt>
      <trkpt lat="42.75455" lon="2.71642">
        <ele>129.77</ele>
        <time>2024-09-20T14:17:05.999Z</time>
      </trkpt>
      <trkpt lat="42.75451" lon="2.71657">
        <ele>130.19</ele>
        <time>2024-09-20T14:17:10.999Z</time>
      </trkpt>
      <trkpt lat="42.75448" lon="2.71674">
        <ele>130.59</ele>
        <time>2024-09-20T14:17:15.999Z</time>
      </trkpt>
      <trkpt lat="42.75444" lon="2.7169">
        <ele>130.99</ele>
        <time>2024-09-20T14:17:20.999Z</time>
      </trkpt>
      <trkpt lat="42.7544" lon="2.71706">
        <ele>131.37</ele>
        <time>2024-09-20T14:17:25.999Z</time>
      </trkpt>
      <trkpt lat="42.75437" lon="2.71721">
        <ele>131.75</ele>
        <time>2024-09-20T14:17:30.999Z</time>
      </trkpt>
      <trkpt lat="42.75432" lon="2.71738">
        <ele>132.12</ele>
        <time>2024-09-20T14:17:36.000Z</time>
      </trkpt>
      <trkpt lat="42.75427" lon="2.71754">
        <ele>132.48</ele>
        <time>2024-09-20T14:17:41.000Z</time>
      </trkpt>
      <trkpt lat="42.75421" lon="2.71766">
        <ele>132.82</ele>
        <time>2024-09-20T14:17:46.000Z</time>
      </trkpt>
      <trkpt lat="42.75411" lon="2.71779">
        <ele>133.15</ele>
        <time>2024-09-20T14:17:51.000Z</time>
      </trkpt>
      <trkpt lat="42.75402" lon="2.71788">
        <ele>133.48</ele>
        <time>2024-09-20T14:17:56.000Z</time>
      </trkpt>
      <trkpt lat="42.7539" lon="2.71799">
        <ele>133.8</ele>
        <time>2024-09-20T14:18:01.000Z</time>
      </trkpt>
      <trkpt lat="42.7538" lon="2.71806">
        <ele>134.13</ele>
        <time>2024-09-20T14:18:06.000Z</time>
      </trkpt>
      <trkpt lat="42.7537" lon="2.71812">
        <ele>134.46</ele>
        <time>2024-09-20T14:18:11.000Z</time>
      </trkpt>
      <trkpt lat="42.75359" lon="2.71816">
        <ele>134.79</ele>
        <time>2024-09-20T14:18:16.000Z</time>
      </trkpt>
      <trkpt lat="42.75346" lon="2.71821">
        <ele>135.13</ele>
        <time>2024-09-20T14:18:21.000Z</time>
      </trkpt>
      <trkpt lat="42.75333" lon="2.71825">
        <ele>135.47</ele>
        <time>2024-09-20T14:18:26.000Z</time>
      </trkpt>
      <trkpt lat="42.75321" lon="2.71827">
        <ele>135.81</ele>
        <time>2024-09-20T14:18:31.000Z</time>
      </trkpt>
      <trkpt lat="42.75309" lon="2.71829">
        <ele>136.15</ele>
        <time>2024-09-20T14:18:36.000Z</time>
      </trkpt>
      <trkpt lat="42.75296" lon="2.7183">
        <ele>136.49</ele>
        <time>2024-09-20T14:18:41.000Z</time>
      </trkpt>
      <trkpt lat="42.75282" lon="2.7183">
        <ele>136.83</ele>
        <time>2024-09-20T14:18:46.000Z</time>
      </trkpt>
      <trkpt lat="42.75269" lon="2.71832">
        <ele>137.17</ele>
        <time>2024-09-20T14:18:51.000Z</time>
      </trkpt>
      <trkpt lat="42.75256" lon="2.71837">
        <ele>137.53</ele>
        <time>2024-09-20T14:18:56.000Z</time>
      </trkpt>
      <trkpt lat="42.75245" lon="2.71846">
        <ele>137.89</ele>
        <time>2024-09-20T14:19:01.000Z</time>
      </trkpt>
      <trkpt lat="42.75234" lon="2.71858">
        <ele>138.24</ele>
        <time>2024-09-20T14:19:06.000Z</time>
      </trkpt>
      <trkpt lat="42.75223" lon="2.7187">
        <ele>138.59</ele>
        <time>2024-09-20T14:19:11.000Z</time>
      </trkpt>
      <trkpt lat="42.75215" lon="2.71884">
        <ele>138.91</ele>
        <time>2024-09-20T14:19:16.000Z</time>
      </trkpt>
      <trkpt lat="42.75207" lon="2.71898">
        <ele>139.22</ele>
        <time>2024-09-20T14:19:21.000Z</time>
      </trkpt>
      <trkpt lat="42.752" lon="2.71912">
        <ele>139.52</ele>
        <time>2024-09-20T14:19:26.000Z</time>
      </trkpt>
      <trkpt lat="42.7519" lon="2.71925">
        <ele>139.81</ele>
        <time>2024-09-20T14:19:31.000Z</time>
      </trkpt>
      <trkpt lat="42.75182" lon="2.71938">
        <ele>140.1</ele>
        <time>2024-09-20T14:19:36.000Z</time>
      </trkpt>
      <trkpt lat="42.75175" lon="2.71957">
        <ele>140.37</ele>
        <time>2024-09-20T14:19:41.000Z</time>
      </trkpt>
      <trkpt lat="42.75169" lon="2.71979">
        <ele>140.63</ele>
        <time>2024-09-20T14:19:46.000Z</time>
      </trkpt>
      <trkpt lat="42.75163" lon="2.72003">
        <ele>141.66</ele>
        <time>2024-09-20T14:19:51.000Z</time>
      </trkpt>
      <trkpt lat="42.7516" lon="2.72028">
        <ele>142.53</ele>
        <time>2024-09-20T14:19:56.000Z</time>
      </trkpt>
      <trkpt lat="42.75155" lon="2.72053">
        <ele>143.11</ele>
        <time>2024-09-20T14:20:01.000Z</time>
      </trkpt>
      <trkpt lat="42.75149" lon="2.72077">
        <ele>143.28</ele>
        <time>2024-09-20T14:20:06.000Z</time>
      </trkpt>
      <trkpt lat="42.75142" lon="2.72102">
        <ele>143.64</ele>
        <time>2024-09-20T14:20:11.000Z</time>
      </trkpt>
      <trkpt lat="42.75132" lon="2.72121">
        <ele>143.79</ele>
        <time>2024-09-20T14:20:16.000Z</time>
      </trkpt>
      <trkpt lat="42.7512" lon="2.72136">
        <ele>143.84</ele>
        <time>2024-09-20T14:20:21.000Z</time>
      </trkpt>
      <trkpt lat="42.75108" lon="2.72148">
        <ele>143.91</ele>
        <time>2024-09-20T14:20:26.000Z</time>
      </trkpt>
      <trkpt lat="42.75096" lon="2.72161">
        <ele>143.99</ele>
        <time>2024-09-20T14:20:31.000Z</time>
      </trkpt>
      <trkpt lat="42.75084" lon="2.72176">
        <ele>144.08</ele>
        <time>2024-09-20T14:20:36.000Z</time>
      </trkpt>
      <trkpt lat="42.75075" lon="2.7219">
        <ele>144.18</ele>
        <time>2024-09-20T14:20:41.000Z</time>
      </trkpt>
      <trkpt lat="42.75063" lon="2.72202">
        <ele>144.29</ele>
        <time>2024-09-20T14:20:46.000Z</time>
      </trkpt>
      <trkpt lat="42.75049" lon="2.7221">
        <ele>144.41</ele>
        <time>2024-09-20T14:20:51.000Z</time>
      </trkpt>
      <trkpt lat="42.75035" lon="2.72219">
        <ele>144.54</ele>
        <time>2024-09-20T14:20:56.000Z</time>
      </trkpt>
      <trkpt lat="42.75022" lon="2.72226">
        <ele>144.67</ele>
        <time>2024-09-20T14:21:01.000Z</time>
      </trkpt>
      <trkpt lat="42.75008" lon="2.72235">
        <ele>144.81</ele>
        <time>2024-09-20T14:21:06.000Z</time>
      </trkpt>
      <trkpt lat="42.74995" lon="2.72241">
        <ele>144.95</ele>
        <time>2024-09-20T14:21:11.000Z</time>
      </trkpt>
      <trkpt lat="42.74981" lon="2.72245">
        <ele>145.11</ele>
        <time>2024-09-20T14:21:16.000Z</time>
      </trkpt>
      <trkpt lat="42.74969" lon="2.72248">
        <ele>145.29</ele>
        <time>2024-09-20T14:21:21.000Z</time>
      </trkpt>
      <trkpt lat="42.74958" lon="2.72253">
        <ele>145.48</ele>
        <time>2024-09-20T14:21:26.000Z</time>
      </trkpt>
      <trkpt lat="42.74944" lon="2.72263">
        <ele>145.68</ele>
        <time>2024-09-20T14:21:31.000Z</time>
      </trkpt>
      <trkpt lat="42.74933" lon="2.72271">
        <ele>145.87</ele>
        <time>2024-09-20T14:21:36.000Z</time>
      </trkpt>
      <trkpt lat="42.74921" lon="2.72282">
        <ele>146.06</ele>
        <time>2024-09-20T14:21:41.000Z</time>
      </trkpt>
      <trkpt lat="42.74909" lon="2.72293">
        <ele>146.26</ele>
        <time>2024-09-20T14:21:46.000Z</time>
      </trkpt>
      <trkpt lat="42.74899" lon="2.72303">
        <ele>146.46</ele>
        <time>2024-09-20T14:21:51.000Z</time>
      </trkpt>
      <trkpt lat="42.74891" lon="2.72312">
        <ele>146.68</ele>
        <time>2024-09-20T14:21:56.000Z</time>
      </trkpt>
      <trkpt lat="42.74884" lon="2.72326">
        <ele>146.93</ele>
        <time>2024-09-20T14:22:01.000Z</time>
      </trkpt>
      <trkpt lat="42.74879" lon="2.7234">
        <ele>147.17</ele>
        <time>2024-09-20T14:22:06.000Z</time>
      </trkpt>
      <trkpt lat="42.74873" lon="2.72354">
        <ele>147.41</ele>
        <time>2024-09-20T14:22:11.000Z</time>
      </trkpt>
      <trkpt lat="42.74868" lon="2.72366">
        <ele>147.62</ele>
        <time>2024-09-20T14:22:16.000Z</time>
      </trkpt>
      <trkpt lat="42.74862" lon="2.72379">
        <ele>147.83</ele>
        <time>2024-09-20T14:22:21.000Z</time>
      </trkpt>
      <trkpt lat="42.74853" lon="2.72389">
        <ele>148.04</ele>
        <time>2024-09-20T14:22:26.000Z</time>
      </trkpt>
      <trkpt lat="42.74844" lon="2.72396">
        <ele>148.25</ele>
        <time>2024-09-20T14:22:31.000Z</time>
      </trkpt>
      <trkpt lat="42.74834" lon="2.724">
        <ele>148.48</ele>
        <time>2024-09-20T14:22:36.000Z</time>
      </trkpt>
      <trkpt lat="42.74825" lon="2.72404">
        <ele>148.73</ele>
        <time>2024-09-20T14:22:41.000Z</time>
      </trkpt>
      <trkpt lat="42.74815" lon="2.72409">
        <ele>149</ele>
        <time>2024-09-20T14:22:46.000Z</time>
      </trkpt>
      <trkpt lat="42.74802" lon="2.72415">
        <ele>149.28</ele>
        <time>2024-09-20T14:22:51.000Z</time>
      </trkpt>
      <trkpt lat="42.74793" lon="2.7242">
        <ele>149.57</ele>
        <time>2024-09-20T14:22:56.000Z</time>
      </trkpt>
      <trkpt lat="42.74784" lon="2.72424">
        <ele>149.88</ele>
        <time>2024-09-20T14:23:01.000Z</time>
      </trkpt>
      <trkpt lat="42.74773" lon="2.7243">
        <ele>150.2</ele>
        <time>2024-09-20T14:23:06.000Z</time>
      </trkpt>
      <trkpt lat="42.74762" lon="2.72436">
        <ele>150.52</ele>
        <time>2024-09-20T14:23:11.000Z</time>
      </trkpt>
      <trkpt lat="42.74753" lon="2.72442">
        <ele>150.84</ele>
        <time>2024-09-20T14:23:16.000Z</time>
      </trkpt>
      <trkpt lat="42.74742" lon="2.72447">
        <ele>151.15</ele>
        <time>2024-09-20T14:23:21.000Z</time>
      </trkpt>
      <trkpt lat="42.74732" lon="2.72451">
        <ele>151.47</ele>
        <time>2024-09-20T14:23:26.000Z</time>
      </trkpt>
      <trkpt lat="42.74721" lon="2.72455">
        <ele>151.78</ele>
        <time>2024-09-20T14:23:31.000Z</time>
      </trkpt>
      <trkpt lat="42.7471" lon="2.72459">
        <ele>152.11</ele>
        <time>2024-09-20T14:23:36.000Z</time>
      </trkpt>
      <trkpt lat="42.74701" lon="2.72461">
        <ele>152.44</ele>
        <time>2024-09-20T14:23:41.000Z</time>
      </trkpt>
      <trkpt lat="42.7469" lon="2.72464">
        <ele>152.8</ele>
        <time>2024-09-20T14:23:46.000Z</time>
      </trkpt>
      <trkpt lat="42.7468" lon="2.72466">
        <ele>153.18</ele>
        <time>2024-09-20T14:23:51.000Z</time>
      </trkpt>
      <trkpt lat="42.74669" lon="2.72469">
        <ele>153.57</ele>
        <time>2024-09-20T14:23:56.000Z</time>
      </trkpt>
      <trkpt lat="42.74658" lon="2.72469">
        <ele>153.97</ele>
        <time>2024-09-20T14:24:01.000Z</time>
      </trkpt>
      <trkpt lat="42.74648" lon="2.7247">
        <ele>154.37</ele>
        <time>2024-09-20T14:24:06.000Z</time>
      </trkpt>
      <trkpt lat="42.74637" lon="2.7247">
        <ele>154.79</ele>
        <time>2024-09-20T14:24:11.000Z</time>
      </trkpt>
      <trkpt lat="42.74625" lon="2.7247">
        <ele>155.22</ele>
        <time>2024-09-20T14:24:16.000Z</time>
      </trkpt>
      <trkpt lat="42.74614" lon="2.72469">
        <ele>155.67</ele>
        <time>2024-09-20T14:24:21.000Z</time>
      </trkpt>
      <trkpt lat="42.74603" lon="2.72468">
        <ele>156.12</ele>
        <time>2024-09-20T14:24:26.000Z</time>
      </trkpt>
      <trkpt lat="42.74592" lon="2.7247">
        <ele>156.57</ele>
        <time>2024-09-20T14:24:31.000Z</time>
      </trkpt>
      <trkpt lat="42.74581" lon="2.7247">
        <ele>157.03</ele>
        <time>2024-09-20T14:24:36.000Z</time>
      </trkpt>
      <trkpt lat="42.7457" lon="2.72471">
        <ele>157.49</ele>
        <time>2024-09-20T14:24:41.000Z</time>
      </trkpt>
      <trkpt lat="42.74558" lon="2.72475">
        <ele>157.96</ele>
        <time>2024-09-20T14:24:46.000Z</time>
      </trkpt>
      <trkpt lat="42.7455" lon="2.72481">
        <ele>158.42</ele>
        <time>2024-09-20T14:24:51.000Z</time>
      </trkpt>
      <trkpt lat="42.74542" lon="2.72489">
        <ele>158.89</ele>
        <time>2024-09-20T14:24:56.000Z</time>
      </trkpt>
      <trkpt lat="42.74533" lon="2.72497">
        <ele>159.35</ele>
        <time>2024-09-20T14:25:01.000Z</time>
      </trkpt>
      <trkpt lat="42.74521" lon="2.72506">
        <ele>159.81</ele>
        <time>2024-09-20T14:25:06.000Z</time>
      </trkpt>
      <trkpt lat="42.74511" lon="2.7251">
        <ele>160.26</ele>
        <time>2024-09-20T14:25:11.000Z</time>
      </trkpt>
      <trkpt lat="42.74501" lon="2.72508">
        <ele>160.71</ele>
        <time>2024-09-20T14:25:16.000Z</time>
      </trkpt>
      <trkpt lat="42.74492" lon="2.72507">
        <ele>161.16</ele>
        <time>2024-09-20T14:25:21.000Z</time>
      </trkpt>
      <trkpt lat="42.74482" lon="2.72508">
        <ele>161.64</ele>
        <time>2024-09-20T14:25:26.000Z</time>
      </trkpt>
      <trkpt lat="42.74472" lon="2.7251">
        <ele>162.15</ele>
        <time>2024-09-20T14:25:31.000Z</time>
      </trkpt>
      <trkpt lat="42.74462" lon="2.72512">
        <ele>162.68</ele>
        <time>2024-09-20T14:25:36.000Z</time>
      </trkpt>
      <trkpt lat="42.74449" lon="2.72515">
        <ele>163.24</ele>
        <time>2024-09-20T14:25:41.000Z</time>
      </trkpt>
      <trkpt lat="42.74438" lon="2.72518">
        <ele>163.8</ele>
        <time>2024-09-20T14:25:46.000Z</time>
      </trkpt>
      <trkpt lat="42.74427" lon="2.72522">
        <ele>164.34</ele>
        <time>2024-09-20T14:25:51.000Z</time>
      </trkpt>
      <trkpt lat="42.74417" lon="2.72527">
        <ele>164.86</ele>
        <time>2024-09-20T14:25:56.000Z</time>
      </trkpt>
      <trkpt lat="42.74405" lon="2.72533">
        <ele>165.38</ele>
        <time>2024-09-20T14:26:01.000Z</time>
      </trkpt>
      <trkpt lat="42.74394" lon="2.72538">
        <ele>165.88</ele>
        <time>2024-09-20T14:26:06.000Z</time>
      </trkpt>
      <trkpt lat="42.74384" lon="2.72539">
        <ele>166.36</ele>
        <time>2024-09-20T14:26:11.000Z</time>
      </trkpt>
      <trkpt lat="42.74373" lon="2.72536">
        <ele>166.82</ele>
        <time>2024-09-20T14:26:16.000Z</time>
      </trkpt>
      <trkpt lat="42.74361" lon="2.72534">
        <ele>167.3</ele>
        <time>2024-09-20T14:26:21.000Z</time>
      </trkpt>
      <trkpt lat="42.74346" lon="2.72539">
        <ele>167.79</ele>
        <time>2024-09-20T14:26:26.000Z</time>
      </trkpt>
      <trkpt lat="42.74335" lon="2.72554">
        <ele>168.29</ele>
        <time>2024-09-20T14:26:31.000Z</time>
      </trkpt>
      <trkpt lat="42.74331" lon="2.7257">
        <ele>168.78</ele>
        <time>2024-09-20T14:26:36.000Z</time>
      </trkpt>
      <trkpt lat="42.7433" lon="2.72584">
        <ele>169.26</ele>
        <time>2024-09-20T14:26:41.000Z</time>
      </trkpt>
      <trkpt lat="42.74329" lon="2.72597">
        <ele>169.73</ele>
        <time>2024-09-20T14:26:46.000Z</time>
      </trkpt>
      <trkpt lat="42.74326" lon="2.7261">
        <ele>170.28</ele>
        <time>2024-09-20T14:26:52.000Z</time>
      </trkpt>
      <trkpt lat="42.74322" lon="2.72622">
        <ele>170.72</ele>
        <time>2024-09-20T14:26:57.000Z</time>
      </trkpt>
      <trkpt lat="42.74317" lon="2.72634">
        <ele>171.23</ele>
        <time>2024-09-20T14:27:03.000Z</time>
      </trkpt>
      <trkpt lat="42.74312" lon="2.72644">
        <ele>171.8</ele>
        <time>2024-09-20T14:27:10.000Z</time>
      </trkpt>
      <trkpt lat="42.74306" lon="2.72654">
        <ele>172.35</ele>
        <time>2024-09-20T14:27:17.000Z</time>
      </trkpt>
      <trkpt lat="42.74298" lon="2.72663">
        <ele>172.82</ele>
        <time>2024-09-20T14:27:23.000Z</time>
      </trkpt>
      <trkpt lat="42.7429" lon="2.72672">
        <ele>173.29</ele>
        <time>2024-09-20T14:27:29.000Z</time>
      </trkpt>
      <trkpt lat="42.74283" lon="2.72681">
        <ele>173.69</ele>
        <time>2024-09-20T14:27:34.000Z</time>
      </trkpt>
      <trkpt lat="42.74278" lon="2.72692">
        <ele>174.1</ele>
        <time>2024-09-20T14:27:39.000Z</time>
      </trkpt>
      <trkpt lat="42.7427" lon="2.727">
        <ele>174.58</ele>
        <time>2024-09-20T14:27:45.000Z</time>
      </trkpt>
      <trkpt lat="42.74264" lon="2.72708">
        <ele>174.97</ele>
        <time>2024-09-20T14:27:50.000Z</time>
      </trkpt>
      <trkpt lat="42.74257" lon="2.72717">
        <ele>175.37</ele>
        <time>2024-09-20T14:27:55.000Z</time>
      </trkpt>
      <trkpt lat="42.7425" lon="2.72726">
        <ele>175.76</ele>
        <time>2024-09-20T14:28:00.000Z</time>
      </trkpt>
      <trkpt lat="42.74242" lon="2.72734">
        <ele>176.24</ele>
        <time>2024-09-20T14:28:06.000Z</time>
      </trkpt>
      <trkpt lat="42.74234" lon="2.72742">
        <ele>176.71</ele>
        <time>2024-09-20T14:28:12.000Z</time>
      </trkpt>
      <trkpt lat="42.74225" lon="2.7275">
        <ele>177.18</ele>
        <time>2024-09-20T14:28:18.000Z</time>
      </trkpt>
      <trkpt lat="42.74217" lon="2.72758">
        <ele>177.65</ele>
        <time>2024-09-20T14:28:24.000Z</time>
      </trkpt>
      <trkpt lat="42.74208" lon="2.72766">
        <ele>178.1</ele>
        <time>2024-09-20T14:28:30.000Z</time>
      </trkpt>
      <trkpt lat="42.742" lon="2.72773">
        <ele>178.55</ele>
        <time>2024-09-20T14:28:36.000Z</time>
      </trkpt>
      <trkpt lat="42.74193" lon="2.72782">
        <ele>179</ele>
        <time>2024-09-20T14:28:42.000Z</time>
      </trkpt>
      <trkpt lat="42.74185" lon="2.7279">
        <ele>179.37</ele>
        <time>2024-09-20T14:28:47.000Z</time>
      </trkpt>
      <trkpt lat="42.74177" lon="2.72799">
        <ele>179.81</ele>
        <time>2024-09-20T14:28:53.000Z</time>
      </trkpt>
      <trkpt lat="42.74169" lon="2.72805">
        <ele>180.18</ele>
        <time>2024-09-20T14:28:58.000Z</time>
      </trkpt>
      <trkpt lat="42.7416" lon="2.72813">
        <ele>180.61</ele>
        <time>2024-09-20T14:29:04.000Z</time>
      </trkpt>
      <trkpt lat="42.74151" lon="2.72821">
        <ele>181.04</ele>
        <time>2024-09-20T14:29:10.000Z</time>
      </trkpt>
      <trkpt lat="42.74142" lon="2.72828">
        <ele>181.47</ele>
        <time>2024-09-20T14:29:16.000Z</time>
      </trkpt>
      <trkpt lat="42.74134" lon="2.72836">
        <ele>181.82</ele>
        <time>2024-09-20T14:29:21.000Z</time>
      </trkpt>
      <trkpt lat="42.74126" lon="2.72843">
        <ele>182.17</ele>
        <time>2024-09-20T14:29:26.000Z</time>
      </trkpt>
      <trkpt lat="42.74117" lon="2.72851">
        <ele>182.52</ele>
        <time>2024-09-20T14:29:31.000Z</time>
      </trkpt>
      <trkpt lat="42.74105" lon="2.72863">
        <ele>182.86</ele>
        <time>2024-09-20T14:29:36.000Z</time>
      </trkpt>
      <trkpt lat="42.74097" lon="2.72869">
        <ele>183.18</ele>
        <time>2024-09-20T14:29:41.000Z</time>
      </trkpt>
      <trkpt lat="42.74086" lon="2.72874">
        <ele>183.57</ele>
        <time>2024-09-20T14:29:46.999Z</time>
      </trkpt>
      <trkpt lat="42.74075" lon="2.72879">
        <ele>183.9</ele>
        <time>2024-09-20T14:29:51.999Z</time>
      </trkpt>
      <trkpt lat="42.74061" lon="2.72883">
        <ele>184.25</ele>
        <time>2024-09-20T14:29:56.999Z</time>
      </trkpt>
      <trkpt lat="42.74047" lon="2.72887">
        <ele>184.61</ele>
        <time>2024-09-20T14:30:01.999Z</time>
      </trkpt>
      <trkpt lat="42.74034" lon="2.72891">
        <ele>184.98</ele>
        <time>2024-09-20T14:30:06.999Z</time>
      </trkpt>
      <trkpt lat="42.74021" lon="2.72898">
        <ele>185.37</ele>
        <time>2024-09-20T14:30:11.999Z</time>
      </trkpt>
      <trkpt lat="42.7401" lon="2.72902">
        <ele>185.75</ele>
        <time>2024-09-20T14:30:16.999Z</time>
      </trkpt>
      <trkpt lat="42.74002" lon="2.72908">
        <ele>194.57</ele>
        <time>2024-09-20T14:37:09.999Z</time>
      </trkpt>
      <trkpt lat="42.73994" lon="2.72916">
        <ele>196.26</ele>
        <time>2024-09-20T14:37:54.999Z</time>
      </trkpt>
      <trkpt lat="42.73983" lon="2.72925">
        <ele>196.71</ele>
        <time>2024-09-20T14:37:59.999Z</time>
      </trkpt>
      <trkpt lat="42.73969" lon="2.72937">
        <ele>197.12</ele>
        <time>2024-09-20T14:38:04.999Z</time>
      </trkpt>
      <trkpt lat="42.73951" lon="2.72951">
        <ele>199.38</ele>
        <time>2024-09-20T14:38:09.999Z</time>
      </trkpt>
      <trkpt lat="42.7393" lon="2.72966">
        <ele>200.61</ele>
        <time>2024-09-20T14:38:14.999Z</time>
      </trkpt>
      <trkpt lat="42.73907" lon="2.72982">
        <ele>201.07</ele>
        <time>2024-09-20T14:38:19.999Z</time>
      </trkpt>
      <trkpt lat="42.73884" lon="2.73">
        <ele>201.25</ele>
        <time>2024-09-20T14:38:24.999Z</time>
      </trkpt>
      <trkpt lat="42.73859" lon="2.73017">
        <ele>201.33</ele>
        <time>2024-09-20T14:38:29.999Z</time>
      </trkpt>
      <trkpt lat="42.73833" lon="2.73036">
        <ele>201.37</ele>
        <time>2024-09-20T14:38:34.999Z</time>
      </trkpt>
      <trkpt lat="42.73805" lon="2.73058">
        <ele>201.39</ele>
        <time>2024-09-20T14:38:39.999Z</time>
      </trkpt>
      <trkpt lat="42.73775" lon="2.73077">
        <ele>201.35</ele>
        <time>2024-09-20T14:38:44.999Z</time>
      </trkpt>
      <trkpt lat="42.73742" lon="2.73088">
        <ele>201.14</ele>
        <time>2024-09-20T14:38:49.999Z</time>
      </trkpt>
      <trkpt lat="42.73709" lon="2.73098">
        <ele>200.92</ele>
        <time>2024-09-20T14:38:54.999Z</time>
      </trkpt>
      <trkpt lat="42.73674" lon="2.73113">
        <ele>200.55</ele>
        <time>2024-09-20T14:38:59.999Z</time>
      </trkpt>
      <trkpt lat="42.7364" lon="2.73129">
        <ele>200.08</ele>
        <time>2024-09-20T14:39:04.999Z</time>
      </trkpt>
      <trkpt lat="42.73604" lon="2.73146">
        <ele>199.62</ele>
        <time>2024-09-20T14:39:09.999Z</time>
      </trkpt>
      <trkpt lat="42.73571" lon="2.73164">
        <ele>199.18</ele>
        <time>2024-09-20T14:39:14.999Z</time>
      </trkpt>
      <trkpt lat="42.73541" lon="2.73179">
        <ele>198.93</ele>
        <time>2024-09-20T14:39:19.999Z</time>
      </trkpt>
      <trkpt lat="42.73516" lon="2.73192">
        <ele>198.55</ele>
        <time>2024-09-20T14:39:24.999Z</time>
      </trkpt>
      <trkpt lat="42.73492" lon="2.73201">
        <ele>198.04</ele>
        <time>2024-09-20T14:39:29.999Z</time>
      </trkpt>
      <trkpt lat="42.73468" lon="2.73202">
        <ele>197.37</ele>
        <time>2024-09-20T14:39:34.999Z</time>
      </trkpt>
      <trkpt lat="42.73447" lon="2.73213">
        <ele>198.12</ele>
        <time>2024-09-20T14:39:39.999Z</time>
      </trkpt>
      <trkpt lat="42.73434" lon="2.73233">
        <ele>198.17</ele>
        <time>2024-09-20T14:39:44.999Z</time>
      </trkpt>
      <trkpt lat="42.73423" lon="2.73252">
        <ele>198.06</ele>
        <time>2024-09-20T14:39:49.999Z</time>
      </trkpt>
      <trkpt lat="42.73412" lon="2.73272">
        <ele>197.92</ele>
        <time>2024-09-20T14:39:54.999Z</time>
      </trkpt>
      <trkpt lat="42.73399" lon="2.73291">
        <ele>197.85</ele>
        <time>2024-09-20T14:39:59.999Z</time>
      </trkpt>
      <trkpt lat="42.73384" lon="2.73306">
        <ele>197.87</ele>
        <time>2024-09-20T14:40:04.999Z</time>
      </trkpt>
      <trkpt lat="42.7337" lon="2.7332">
        <ele>197.9</ele>
        <time>2024-09-20T14:40:09.999Z</time>
      </trkpt>
      <trkpt lat="42.73356" lon="2.73331">
        <ele>197.91</ele>
        <time>2024-09-20T14:40:14.999Z</time>
      </trkpt>
      <trkpt lat="42.73341" lon="2.73343">
        <ele>197.91</ele>
        <time>2024-09-20T14:40:19.999Z</time>
      </trkpt>
      <trkpt lat="42.73326" lon="2.73354">
        <ele>197.92</ele>
        <time>2024-09-20T14:40:24.999Z</time>
      </trkpt>
      <trkpt lat="42.7331" lon="2.73366">
        <ele>197.92</ele>
        <time>2024-09-20T14:40:29.999Z</time>
      </trkpt>
      <trkpt lat="42.73291" lon="2.73379">
        <ele>197.72</ele>
        <time>2024-09-20T14:40:34.999Z</time>
      </trkpt>
      <trkpt lat="42.73268" lon="2.73398">
        <ele>197.5</ele>
        <time>2024-09-20T14:40:39.999Z</time>
      </trkpt>
      <trkpt lat="42.73245" lon="2.73425">
        <ele>197.21</ele>
        <time>2024-09-20T14:40:44.999Z</time>
      </trkpt>
      <trkpt lat="42.73223" lon="2.7346">
        <ele>196.78</ele>
        <time>2024-09-20T14:40:49.999Z</time>
      </trkpt>
      <trkpt lat="42.73205" lon="2.73504">
        <ele>196.19</ele>
        <time>2024-09-20T14:40:54.999Z</time>
      </trkpt>
      <trkpt lat="42.7319" lon="2.73552">
        <ele>195.31</ele>
        <time>2024-09-20T14:40:59.999Z</time>
      </trkpt>
      <trkpt lat="42.73175" lon="2.73596">
        <ele>194.63</ele>
        <time>2024-09-20T14:41:04.999Z</time>
      </trkpt>
      <trkpt lat="42.73152" lon="2.73637">
        <ele>193.62</ele>
        <time>2024-09-20T14:41:09.999Z</time>
      </trkpt>
      <trkpt lat="42.73129" lon="2.73677">
        <ele>193.16</ele>
        <time>2024-09-20T14:41:14.999Z</time>
      </trkpt>
      <trkpt lat="42.73111" lon="2.73718">
        <ele>192.54</ele>
        <time>2024-09-20T14:41:19.999Z</time>
      </trkpt>
      <trkpt lat="42.73099" lon="2.73759">
        <ele>192.03</ele>
        <time>2024-09-20T14:41:24.999Z</time>
      </trkpt>
      <trkpt lat="42.73083" lon="2.73786">
        <ele>191.14</ele>
        <time>2024-09-20T14:41:29.999Z</time>
      </trkpt>
      <trkpt lat="42.73071" lon="2.73806">
        <ele>190.71</ele>
        <time>2024-09-20T14:41:34.999Z</time>
      </trkpt>
      <trkpt lat="42.73059" lon="2.73822">
        <ele>190.62</ele>
        <time>2024-09-20T14:41:39.999Z</time>
      </trkpt>
      <trkpt lat="42.73045" lon="2.73838">
        <ele>190.5</ele>
        <time>2024-09-20T14:41:44.999Z</time>
      </trkpt>
      <trkpt lat="42.73031" lon="2.73854">
        <ele>190.48</ele>
        <time>2024-09-20T14:41:49.999Z</time>
      </trkpt>
      <trkpt lat="42.73018" lon="2.73867">
        <ele>190.45</ele>
        <time>2024-09-20T14:41:55.000Z</time>
      </trkpt>
      <trkpt lat="42.73004" lon="2.73878">
        <ele>190.35</ele>
        <time>2024-09-20T14:42:00.000Z</time>
      </trkpt>
      <trkpt lat="42.72989" lon="2.73885">
        <ele>190.24</ele>
        <time>2024-09-20T14:42:05.000Z</time>
      </trkpt>
      <trkpt lat="42.72973" lon="2.73891">
        <ele>190.15</ele>
        <time>2024-09-20T14:42:10.000Z</time>
      </trkpt>
      <trkpt lat="42.72957" lon="2.73897">
        <ele>190.06</ele>
        <time>2024-09-20T14:42:15.000Z</time>
      </trkpt>
      <trkpt lat="42.72942" lon="2.73906">
        <ele>189.95</ele>
        <time>2024-09-20T14:42:20.000Z</time>
      </trkpt>
      <trkpt lat="42.72929" lon="2.73918">
        <ele>189.9</ele>
        <time>2024-09-20T14:42:25.000Z</time>
      </trkpt>
      <trkpt lat="42.72917" lon="2.7393">
        <ele>189.9</ele>
        <time>2024-09-20T14:42:30.000Z</time>
      </trkpt>
      <trkpt lat="42.72903" lon="2.73939">
        <ele>189.96</ele>
        <time>2024-09-20T14:42:35.000Z</time>
      </trkpt>
      <trkpt lat="42.72888" lon="2.73941">
        <ele>190.03</ele>
        <time>2024-09-20T14:42:40.000Z</time>
      </trkpt>
      <trkpt lat="42.72872" lon="2.73943">
        <ele>190.12</ele>
        <time>2024-09-20T14:42:45.000Z</time>
      </trkpt>
      <trkpt lat="42.72858" lon="2.73949">
        <ele>190.24</ele>
        <time>2024-09-20T14:42:50.000Z</time>
      </trkpt>
      <trkpt lat="42.72844" lon="2.73956">
        <ele>190.35</ele>
        <time>2024-09-20T14:42:55.000Z</time>
      </trkpt>
      <trkpt lat="42.72832" lon="2.73964">
        <ele>190.47</ele>
        <time>2024-09-20T14:43:00.000Z</time>
      </trkpt>
      <trkpt lat="42.72821" lon="2.73975">
        <ele>190.58</ele>
        <time>2024-09-20T14:43:05.000Z</time>
      </trkpt>
      <trkpt lat="42.72812" lon="2.73989">
        <ele>190.7</ele>
        <time>2024-09-20T14:43:10.000Z</time>
      </trkpt>
      <trkpt lat="42.72804" lon="2.74004">
        <ele>190.81</ele>
        <time>2024-09-20T14:43:15.000Z</time>
      </trkpt>
      <trkpt lat="42.72798" lon="2.74021">
        <ele>190.9</ele>
        <time>2024-09-20T14:43:20.000Z</time>
      </trkpt>
      <trkpt lat="42.72791" lon="2.74037">
        <ele>190.99</ele>
        <time>2024-09-20T14:43:25.000Z</time>
      </trkpt>
      <trkpt lat="42.72783" lon="2.74049">
        <ele>191.06</ele>
        <time>2024-09-20T14:43:30.000Z</time>
      </trkpt>
      <trkpt lat="42.72773" lon="2.7406">
        <ele>191.13</ele>
        <time>2024-09-20T14:43:35.000Z</time>
      </trkpt>
      <trkpt lat="42.72756" lon="2.74069">
        <ele>191.46</ele>
        <time>2024-09-20T14:43:40.000Z</time>
      </trkpt>
      <trkpt lat="42.72733" lon="2.7408">
        <ele>191.7</ele>
        <time>2024-09-20T14:43:45.000Z</time>
      </trkpt>
      <trkpt lat="42.72703" lon="2.74095">
        <ele>191.79</ele>
        <time>2024-09-20T14:43:50.000Z</time>
      </trkpt>
      <trkpt lat="42.72671" lon="2.74112">
        <ele>191.71</ele>
        <time>2024-09-20T14:43:55.000Z</time>
      </trkpt>
      <trkpt lat="42.72634" lon="2.74131">
        <ele>191.02</ele>
        <time>2024-09-20T14:44:00.000Z</time>
      </trkpt>
      <trkpt lat="42.7259" lon="2.74151">
        <ele>190.25</ele>
        <time>2024-09-20T14:44:05.000Z</time>
      </trkpt>
      <trkpt lat="42.72544" lon="2.74166">
        <ele>189.59</ele>
        <time>2024-09-20T14:44:10.000Z</time>
      </trkpt>
      <trkpt lat="42.72501" lon="2.7414">
        <ele>189.02</ele>
        <time>2024-09-20T14:44:15.000Z</time>
      </trkpt>
      <trkpt lat="42.72466" lon="2.74101">
        <ele>188.37</ele>
        <time>2024-09-20T14:44:20.000Z</time>
      </trkpt>
      <trkpt lat="42.72428" lon="2.74068">
        <ele>187.39</ele>
        <time>2024-09-20T14:44:25.000Z</time>
      </trkpt>
      <trkpt lat="42.7239" lon="2.74036">
        <ele>186.1</ele>
        <time>2024-09-20T14:44:30.000Z</time>
      </trkpt>
      <trkpt lat="42.72351" lon="2.74002">
        <ele>184.9</ele>
        <time>2024-09-20T14:44:35.000Z</time>
      </trkpt>
      <trkpt lat="42.72313" lon="2.73992">
        <ele>183.84</ele>
        <time>2024-09-20T14:44:40.000Z</time>
      </trkpt>
      <trkpt lat="42.72292" lon="2.74029">
        <ele>182.95</ele>
        <time>2024-09-20T14:44:45.000Z</time>
      </trkpt>
      <trkpt lat="42.72269" lon="2.74057">
        <ele>181.95</ele>
        <time>2024-09-20T14:44:50.000Z</time>
      </trkpt>
      <trkpt lat="42.72243" lon="2.74079">
        <ele>181.26</ele>
        <time>2024-09-20T14:44:55.000Z</time>
      </trkpt>
      <trkpt lat="42.72219" lon="2.74097">
        <ele>180.38</ele>
        <time>2024-09-20T14:45:00.000Z</time>
      </trkpt>
      <trkpt lat="42.72195" lon="2.74116">
        <ele>179.83</ele>
        <time>2024-09-20T14:45:05.000Z</time>
      </trkpt>
      <trkpt lat="42.72173" lon="2.7414">
        <ele>178.9</ele>
        <time>2024-09-20T14:45:10.000Z</time>
      </trkpt>
      <trkpt lat="42.72153" lon="2.7417">
        <ele>177.9</ele>
        <time>2024-09-20T14:45:15.000Z</time>
      </trkpt>
      <trkpt lat="42.72134" lon="2.74199">
        <ele>177.19</ele>
        <time>2024-09-20T14:45:20.000Z</time>
      </trkpt>
      <trkpt lat="42.72115" lon="2.74228">
        <ele>176.54</ele>
        <time>2024-09-20T14:45:25.000Z</time>
      </trkpt>
      <trkpt lat="42.72094" lon="2.74258">
        <ele>175.74</ele>
        <time>2024-09-20T14:45:30.000Z</time>
      </trkpt>
      <trkpt lat="42.72074" lon="2.74288">
        <ele>174.73</ele>
        <time>2024-09-20T14:45:35.000Z</time>
      </trkpt>
      <trkpt lat="42.72054" lon="2.74318">
        <ele>174.01</ele>
        <time>2024-09-20T14:45:40.000Z</time>
      </trkpt>
      <trkpt lat="42.72043" lon="2.7436">
        <ele>173.14</ele>
        <time>2024-09-20T14:45:45.000Z</time>
      </trkpt>
      <trkpt lat="42.72038" lon="2.74403">
        <ele>172.2</ele>
        <time>2024-09-20T14:45:50.000Z</time>
      </trkpt>
      <trkpt lat="42.72031" lon="2.74446">
        <ele>171.3</ele>
        <time>2024-09-20T14:45:55.000Z</time>
      </trkpt>
      <trkpt lat="42.72025" lon="2.74491">
        <ele>170</ele>
        <time>2024-09-20T14:46:00.000Z</time>
      </trkpt>
      <trkpt lat="42.72019" lon="2.74536">
        <ele>168.66</ele>
        <time>2024-09-20T14:46:05.000Z</time>
      </trkpt>
      <trkpt lat="42.72009" lon="2.74581">
        <ele>167.36</ele>
        <time>2024-09-20T14:46:10.000Z</time>
      </trkpt>
      <trkpt lat="42.71992" lon="2.74623">
        <ele>166.3</ele>
        <time>2024-09-20T14:46:15.000Z</time>
      </trkpt>
      <trkpt lat="42.71974" lon="2.7466">
        <ele>165.07</ele>
        <time>2024-09-20T14:46:20.000Z</time>
      </trkpt>
      <trkpt lat="42.71956" lon="2.74689">
        <ele>163.97</ele>
        <time>2024-09-20T14:46:25.000Z</time>
      </trkpt>
      <trkpt lat="42.7194" lon="2.74718">
        <ele>162.84</ele>
        <time>2024-09-20T14:46:30.000Z</time>
      </trkpt>
      <trkpt lat="42.71922" lon="2.7475">
        <ele>161.98</ele>
        <time>2024-09-20T14:46:35.000Z</time>
      </trkpt>
      <trkpt lat="42.71908" lon="2.74785">
        <ele>161.19</ele>
        <time>2024-09-20T14:46:40.000Z</time>
      </trkpt>
      <trkpt lat="42.71894" lon="2.74821">
        <ele>160.99</ele>
        <time>2024-09-20T14:46:45.000Z</time>
      </trkpt>
      <trkpt lat="42.71879" lon="2.74857">
        <ele>161</ele>
        <time>2024-09-20T14:46:50.000Z</time>
      </trkpt>
      <trkpt lat="42.71859" lon="2.74891">
        <ele>160.72</ele>
        <time>2024-09-20T14:46:55.000Z</time>
      </trkpt>
      <trkpt lat="42.71837" lon="2.7492">
        <ele>160.4</ele>
        <time>2024-09-20T14:47:00.000Z</time>
      </trkpt>
      <trkpt lat="42.71818" lon="2.74951">
        <ele>160.22</ele>
        <time>2024-09-20T14:47:05.000Z</time>
      </trkpt>
      <trkpt lat="42.71798" lon="2.7498">
        <ele>159.88</ele>
        <time>2024-09-20T14:47:10.000Z</time>
      </trkpt>
      <trkpt lat="42.71778" lon="2.75005">
        <ele>159.48</ele>
        <time>2024-09-20T14:47:15.000Z</time>
      </trkpt>
      <trkpt lat="42.71758" lon="2.7503">
        <ele>158.97</ele>
        <time>2024-09-20T14:47:20.000Z</time>
      </trkpt>
      <trkpt lat="42.71739" lon="2.75054">
        <ele>158.48</ele>
        <time>2024-09-20T14:47:25.000Z</time>
      </trkpt>
      <trkpt lat="42.71722" lon="2.75075">
        <ele>157.86</ele>
        <time>2024-09-20T14:47:30.000Z</time>
      </trkpt>
      <trkpt lat="42.71705" lon="2.75095">
        <ele>157.36</ele>
        <time>2024-09-20T14:47:35.000Z</time>
      </trkpt>
      <trkpt lat="42.71687" lon="2.75116">
        <ele>156.84</ele>
        <time>2024-09-20T14:47:40.000Z</time>
      </trkpt>
      <trkpt lat="42.71669" lon="2.75135">
        <ele>156.42</ele>
        <time>2024-09-20T14:47:45.000Z</time>
      </trkpt>
      <trkpt lat="42.71652" lon="2.7515">
        <ele>156.12</ele>
        <time>2024-09-20T14:47:50.000Z</time>
      </trkpt>
      <trkpt lat="42.71633" lon="2.75166">
        <ele>155.93</ele>
        <time>2024-09-20T14:47:55.000Z</time>
      </trkpt>
      <trkpt lat="42.71616" lon="2.75182">
        <ele>155.77</ele>
        <time>2024-09-20T14:48:00.000Z</time>
      </trkpt>
      <trkpt lat="42.71599" lon="2.75198">
        <ele>155.69</ele>
        <time>2024-09-20T14:48:05.000Z</time>
      </trkpt>
      <trkpt lat="42.71588" lon="2.75216">
        <ele>155.65</ele>
        <time>2024-09-20T14:48:10.000Z</time>
      </trkpt>
      <trkpt lat="42.71579" lon="2.75225">
        <ele>155.63</ele>
        <time>2024-09-20T14:48:15.000Z</time>
      </trkpt>
      <trkpt lat="42.71567" lon="2.7523">
        <ele>155.49</ele>
        <time>2024-09-20T14:48:43.000Z</time>
      </trkpt>
      <trkpt lat="42.71553" lon="2.75246">
        <ele>154.96</ele>
        <time>2024-09-20T14:48:48.000Z</time>
      </trkpt>
      <trkpt lat="42.71536" lon="2.75267">
        <ele>154.38</ele>
        <time>2024-09-20T14:48:53.000Z</time>
      </trkpt>
      <trkpt lat="42.71519" lon="2.75289">
        <ele>154.01</ele>
        <time>2024-09-20T14:48:58.000Z</time>
      </trkpt>
      <trkpt lat="42.715" lon="2.75314">
        <ele>153.69</ele>
        <time>2024-09-20T14:49:03.000Z</time>
      </trkpt>
      <trkpt lat="42.71483" lon="2.75339">
        <ele>153.32</ele>
        <time>2024-09-20T14:49:08.000Z</time>
      </trkpt>
      <trkpt lat="42.71465" lon="2.75364">
        <ele>152.99</ele>
        <time>2024-09-20T14:49:13.000Z</time>
      </trkpt>
      <trkpt lat="42.71449" lon="2.75391">
        <ele>152.77</ele>
        <time>2024-09-20T14:49:18.000Z</time>
      </trkpt>
      <trkpt lat="42.71435" lon="2.7542">
        <ele>152.6</ele>
        <time>2024-09-20T14:49:23.000Z</time>
      </trkpt>
      <trkpt lat="42.71422" lon="2.75449">
        <ele>152.46</ele>
        <time>2024-09-20T14:49:28.000Z</time>
      </trkpt>
      <trkpt lat="42.71411" lon="2.75475">
        <ele>152.33</ele>
        <time>2024-09-20T14:49:33.000Z</time>
      </trkpt>
      <trkpt lat="42.71399" lon="2.75505">
        <ele>152.23</ele>
        <time>2024-09-20T14:49:38.000Z</time>
      </trkpt>
      <trkpt lat="42.71385" lon="2.75535">
        <ele>152.2</ele>
        <time>2024-09-20T14:49:43.000Z</time>
      </trkpt>
      <trkpt lat="42.71372" lon="2.75565">
        <ele>152.17</ele>
        <time>2024-09-20T14:49:48.000Z</time>
      </trkpt>
      <trkpt lat="42.71361" lon="2.75594">
        <ele>152.06</ele>
        <time>2024-09-20T14:49:53.000Z</time>
      </trkpt>
      <trkpt lat="42.71351" lon="2.7562">
        <ele>151.9</ele>
        <time>2024-09-20T14:49:58.000Z</time>
      </trkpt>
      <trkpt lat="42.7134" lon="2.75647">
        <ele>151.71</ele>
        <time>2024-09-20T14:50:03.000Z</time>
      </trkpt>
      <trkpt lat="42.71325" lon="2.75671">
        <ele>151.63</ele>
        <time>2024-09-20T14:50:08.000Z</time>
      </trkpt>
      <trkpt lat="42.71307" lon="2.75692">
        <ele>151.45</ele>
        <time>2024-09-20T14:50:13.000Z</time>
      </trkpt>
      <trkpt lat="42.7129" lon="2.75712">
        <ele>151.31</ele>
        <time>2024-09-20T14:50:18.000Z</time>
      </trkpt>
      <trkpt lat="42.71274" lon="2.7573">
        <ele>151.14</ele>
        <time>2024-09-20T14:50:23.000Z</time>
      </trkpt>
      <trkpt lat="42.71256" lon="2.75749">
        <ele>150.99</ele>
        <time>2024-09-20T14:50:28.000Z</time>
      </trkpt>
      <trkpt lat="42.71237" lon="2.75765">
        <ele>150.83</ele>
        <time>2024-09-20T14:50:33.000Z</time>
      </trkpt>
      <trkpt lat="42.71216" lon="2.75778">
        <ele>150.56</ele>
        <time>2024-09-20T14:50:38.000Z</time>
      </trkpt>
      <trkpt lat="42.71194" lon="2.75794">
        <ele>150.32</ele>
        <time>2024-09-20T14:50:43.000Z</time>
      </trkpt>
      <trkpt lat="42.71171" lon="2.7582">
        <ele>150.02</ele>
        <time>2024-09-20T14:50:48.000Z</time>
      </trkpt>
      <trkpt lat="42.71149" lon="2.75847">
        <ele>149.74</ele>
        <time>2024-09-20T14:50:53.000Z</time>
      </trkpt>
      <trkpt lat="42.71124" lon="2.75877">
        <ele>149.47</ele>
        <time>2024-09-20T14:50:58.000Z</time>
      </trkpt>
      <trkpt lat="42.71095" lon="2.75906">
        <ele>148.98</ele>
        <time>2024-09-20T14:51:03.000Z</time>
      </trkpt>
      <trkpt lat="42.71059" lon="2.75914">
        <ele>148.5</ele>
        <time>2024-09-20T14:51:08.000Z</time>
      </trkpt>
      <trkpt lat="42.71021" lon="2.75916">
        <ele>147.69</ele>
        <time>2024-09-20T14:51:13.000Z</time>
      </trkpt>
      <trkpt lat="42.7098" lon="2.75912">
        <ele>146.58</ele>
        <time>2024-09-20T14:51:18.000Z</time>
      </trkpt>
      <trkpt lat="42.70935" lon="2.75908">
        <ele>145.02</ele>
        <time>2024-09-20T14:51:23.000Z</time>
      </trkpt>
      <trkpt lat="42.70887" lon="2.75902">
        <ele>143.23</ele>
        <time>2024-09-20T14:51:28.000Z</time>
      </trkpt>
      <trkpt lat="42.7084" lon="2.75901">
        <ele>141.82</ele>
        <time>2024-09-20T14:51:33.000Z</time>
      </trkpt>
      <trkpt lat="42.708" lon="2.75928">
        <ele>140.7</ele>
        <time>2024-09-20T14:51:38.000Z</time>
      </trkpt>
      <trkpt lat="42.70768" lon="2.75959">
        <ele>139.25</ele>
        <time>2024-09-20T14:51:43.000Z</time>
      </trkpt>
      <trkpt lat="42.70738" lon="2.75987">
        <ele>138.06</ele>
        <time>2024-09-20T14:51:48.000Z</time>
      </trkpt>
      <trkpt lat="42.7071" lon="2.76013">
        <ele>136.7</ele>
        <time>2024-09-20T14:51:53.000Z</time>
      </trkpt>
      <trkpt lat="42.70685" lon="2.76043">
        <ele>135.26</ele>
        <time>2024-09-20T14:51:58.000Z</time>
      </trkpt>
      <trkpt lat="42.7066" lon="2.76082">
        <ele>133.78</ele>
        <time>2024-09-20T14:52:03.000Z</time>
      </trkpt>
      <trkpt lat="42.70633" lon="2.76122">
        <ele>132.28</ele>
        <time>2024-09-20T14:52:08.000Z</time>
      </trkpt>
      <trkpt lat="42.70607" lon="2.76162">
        <ele>130.9</ele>
        <time>2024-09-20T14:52:13.000Z</time>
      </trkpt>
      <trkpt lat="42.70578" lon="2.762">
        <ele>129.04</ele>
        <time>2024-09-20T14:52:18.000Z</time>
      </trkpt>
      <trkpt lat="42.70546" lon="2.76231">
        <ele>127.13</ele>
        <time>2024-09-20T14:52:23.000Z</time>
      </trkpt>
      <trkpt lat="42.7051" lon="2.7626">
        <ele>125.43</ele>
        <time>2024-09-20T14:52:28.000Z</time>
      </trkpt>
      <trkpt lat="42.70471" lon="2.76282">
        <ele>123.2</ele>
        <time>2024-09-20T14:52:33.000Z</time>
      </trkpt>
      <trkpt lat="42.70435" lon="2.76308">
        <ele>120.66</ele>
        <time>2024-09-20T14:52:38.000Z</time>
      </trkpt>
      <trkpt lat="42.70405" lon="2.76339">
        <ele>118.77</ele>
        <time>2024-09-20T14:52:43.000Z</time>
      </trkpt>
      <trkpt lat="42.7037" lon="2.76353">
        <ele>116.92</ele>
        <time>2024-09-20T14:52:48.000Z</time>
      </trkpt>
      <trkpt lat="42.70331" lon="2.76348">
        <ele>114.96</ele>
        <time>2024-09-20T14:52:53.000Z</time>
      </trkpt>
      <trkpt lat="42.70292" lon="2.76336">
        <ele>114</ele>
        <time>2024-09-20T14:52:58.000Z</time>
      </trkpt>
      <trkpt lat="42.70255" lon="2.76327">
        <ele>111.98</ele>
        <time>2024-09-20T14:53:03.000Z</time>
      </trkpt>
      <trkpt lat="42.70222" lon="2.7631">
        <ele>109.89</ele>
        <time>2024-09-20T14:53:08.000Z</time>
      </trkpt>
      <trkpt lat="42.70198" lon="2.7628">
        <ele>108.59</ele>
        <time>2024-09-20T14:53:13.000Z</time>
      </trkpt>
      <trkpt lat="42.70182" lon="2.76246">
        <ele>107.53</ele>
        <time>2024-09-20T14:53:18.000Z</time>
      </trkpt>
      <trkpt lat="42.70168" lon="2.76214">
        <ele>106.71</ele>
        <time>2024-09-20T14:53:23.000Z</time>
      </trkpt>
      <trkpt lat="42.70157" lon="2.76185">
        <ele>105.97</ele>
        <time>2024-09-20T14:53:28.000Z</time>
      </trkpt>
      <trkpt lat="42.70153" lon="2.76165">
        <ele>105.85</ele>
        <time>2024-09-20T14:53:33.000Z</time>
      </trkpt>
      <trkpt lat="42.70148" lon="2.76151">
        <ele>104.52</ele>
        <time>2024-09-20T14:54:46.999Z</time>
      </trkpt>
      <trkpt lat="42.70144" lon="2.76123">
        <ele>100.07</ele>
        <time>2024-09-20T14:54:51.999Z</time>
      </trkpt>
      <trkpt lat="42.70144" lon="2.76088">
        <ele>98.34</ele>
        <time>2024-09-20T14:54:56.999Z</time>
      </trkpt>
      <trkpt lat="42.70144" lon="2.76051">
        <ele>97.73</ele>
        <time>2024-09-20T14:55:01.999Z</time>
      </trkpt>
      <trkpt lat="42.70142" lon="2.76013">
        <ele>97.45</ele>
        <time>2024-09-20T14:55:06.999Z</time>
      </trkpt>
      <trkpt lat="42.70133" lon="2.75976">
        <ele>97.09</ele>
        <time>2024-09-20T14:55:11.999Z</time>
      </trkpt>
      <trkpt lat="42.70116" lon="2.75944">
        <ele>96.8</ele>
        <time>2024-09-20T14:55:16.999Z</time>
      </trkpt>
      <trkpt lat="42.70091" lon="2.75921">
        <ele>96.62</ele>
        <time>2024-09-20T14:55:21.999Z</time>
      </trkpt>
      <trkpt lat="42.70061" lon="2.7591">
        <ele>96.56</ele>
        <time>2024-09-20T14:55:26.999Z</time>
      </trkpt>
      <trkpt lat="42.70032" lon="2.75908">
        <ele>96.5</ele>
        <time>2024-09-20T14:55:31.999Z</time>
      </trkpt>
      <trkpt lat="42.70005" lon="2.7591">
        <ele>96.41</ele>
        <time>2024-09-20T14:55:36.999Z</time>
      </trkpt>
      <trkpt lat="42.69978" lon="2.75911">
        <ele>96.25</ele>
        <time>2024-09-20T14:55:41.999Z</time>
      </trkpt>
      <trkpt lat="42.6995" lon="2.75912">
        <ele>96.08</ele>
        <time>2024-09-20T14:55:46.999Z</time>
      </trkpt>
      <trkpt lat="42.69922" lon="2.75912">
        <ele>95.93</ele>
        <time>2024-09-20T14:55:51.999Z</time>
      </trkpt>
      <trkpt lat="42.69894" lon="2.75913">
        <ele>95.83</ele>
        <time>2024-09-20T14:55:56.999Z</time>
      </trkpt>
      <trkpt lat="42.69869" lon="2.75913">
        <ele>95.77</ele>
        <time>2024-09-20T14:56:01.999Z</time>
      </trkpt>
      <trkpt lat="42.69842" lon="2.75914">
        <ele>95.75</ele>
        <time>2024-09-20T14:56:06.999Z</time>
      </trkpt>
      <trkpt lat="42.69816" lon="2.75915">
        <ele>95.77</ele>
        <time>2024-09-20T14:56:11.999Z</time>
      </trkpt>
      <trkpt lat="42.69791" lon="2.75913">
        <ele>95.75</ele>
        <time>2024-09-20T14:56:16.999Z</time>
      </trkpt>
      <trkpt lat="42.69764" lon="2.75905">
        <ele>95.41</ele>
        <time>2024-09-20T14:56:21.999Z</time>
      </trkpt>
      <trkpt lat="42.69741" lon="2.75886">
        <ele>95</ele>
        <time>2024-09-20T14:56:26.999Z</time>
      </trkpt>
      <trkpt lat="42.69723" lon="2.75857">
        <ele>94.72</ele>
        <time>2024-09-20T14:56:31.999Z</time>
      </trkpt>
      <trkpt lat="42.69705" lon="2.7583">
        <ele>94.62</ele>
        <time>2024-09-20T14:56:36.999Z</time>
      </trkpt>
      <trkpt lat="42.69684" lon="2.75811">
        <ele>94.66</ele>
        <time>2024-09-20T14:56:41.999Z</time>
      </trkpt>
      <trkpt lat="42.69661" lon="2.75801">
        <ele>94.76</ele>
        <time>2024-09-20T14:56:46.999Z</time>
      </trkpt>
      <trkpt lat="42.69638" lon="2.75796">
        <ele>94.97</ele>
        <time>2024-09-20T14:56:51.999Z</time>
      </trkpt>
      <trkpt lat="42.69619" lon="2.75792">
        <ele>95.12</ele>
        <time>2024-09-20T14:56:56.999Z</time>
      </trkpt>
      <trkpt lat="42.69604" lon="2.75782">
        <ele>95.2</ele>
        <time>2024-09-20T14:57:01.999Z</time>
      </trkpt>
      <trkpt lat="42.69588" lon="2.7578">
        <ele>95.25</ele>
        <time>2024-09-20T14:57:06.999Z</time>
      </trkpt>
      <trkpt lat="42.69573" lon="2.75783">
        <ele>95.27</ele>
        <time>2024-09-20T14:57:11.999Z</time>
      </trkpt>
      <trkpt lat="42.69563" lon="2.75784">
        <ele>95.27</ele>
        <time>2024-09-20T14:57:16.999Z</time>
      </trkpt>
      <trkpt lat="42.6955" lon="2.75784">
        <ele>95.25</ele>
        <time>2024-09-20T14:57:21.999Z</time>
      </trkpt>
      <trkpt lat="42.6953" lon="2.75784">
        <ele>95.04</ele>
        <time>2024-09-20T14:57:26.999Z</time>
      </trkpt>
      <trkpt lat="42.69502" lon="2.75784">
        <ele>94.84</ele>
        <time>2024-09-20T14:57:31.999Z</time>
      </trkpt>
      <trkpt lat="42.69474" lon="2.75782">
        <ele>94.6</ele>
        <time>2024-09-20T14:57:36.999Z</time>
      </trkpt>
      <trkpt lat="42.69445" lon="2.75778">
        <ele>94.32</ele>
        <time>2024-09-20T14:57:41.999Z</time>
      </trkpt>
      <trkpt lat="42.69416" lon="2.75773">
        <ele>94.26</ele>
        <time>2024-09-20T14:57:46.999Z</time>
      </trkpt>
      <trkpt lat="42.69387" lon="2.75766">
        <ele>94.2</ele>
        <time>2024-09-20T14:57:51.999Z</time>
      </trkpt>
      <trkpt lat="42.69358" lon="2.75758">
        <ele>94.04</ele>
        <time>2024-09-20T14:57:56.999Z</time>
      </trkpt>
      <trkpt lat="42.6933" lon="2.75745">
        <ele>93.73</ele>
        <time>2024-09-20T14:58:01.999Z</time>
      </trkpt>
      <trkpt lat="42.69305" lon="2.75723">
        <ele>93.39</ele>
        <time>2024-09-20T14:58:06.999Z</time>
      </trkpt>
      <trkpt lat="42.69287" lon="2.75694">
        <ele>93.25</ele>
        <time>2024-09-20T14:58:11.999Z</time>
      </trkpt>
      <trkpt lat="42.69274" lon="2.75659">
        <ele>93.44</ele>
        <time>2024-09-20T14:58:16.999Z</time>
      </trkpt>
      <trkpt lat="42.69264" lon="2.7562">
        <ele>93.39</ele>
        <time>2024-09-20T14:58:21.999Z</time>
      </trkpt>
      <trkpt lat="42.69256" lon="2.75582">
        <ele>93.19</ele>
        <time>2024-09-20T14:58:26.999Z</time>
      </trkpt>
      <trkpt lat="42.69247" lon="2.75545">
        <ele>92.92</ele>
        <time>2024-09-20T14:58:31.999Z</time>
      </trkpt>
      <trkpt lat="42.69238" lon="2.75509">
        <ele>92.82</ele>
        <time>2024-09-20T14:58:36.999Z</time>
      </trkpt>
      <trkpt lat="42.6923" lon="2.75474">
        <ele>92.71</ele>
        <time>2024-09-20T14:58:41.999Z</time>
      </trkpt>
      <trkpt lat="42.69221" lon="2.75439">
        <ele>92.43</ele>
        <time>2024-09-20T14:58:46.999Z</time>
      </trkpt>
      <trkpt lat="42.69212" lon="2.75403">
        <ele>92.03</ele>
        <time>2024-09-20T14:58:51.999Z</time>
      </trkpt>
      <trkpt lat="42.69204" lon="2.7537">
        <ele>91.69</ele>
        <time>2024-09-20T14:58:56.999Z</time>
      </trkpt>
      <trkpt lat="42.69196" lon="2.75336">
        <ele>91.49</ele>
        <time>2024-09-20T14:59:01.999Z</time>
      </trkpt>
      <trkpt lat="42.69186" lon="2.75304">
        <ele>91.66</ele>
        <time>2024-09-20T14:59:06.999Z</time>
      </trkpt>
      <trkpt lat="42.69171" lon="2.75274">
        <ele>91.95</ele>
        <time>2024-09-20T14:59:11.999Z</time>
      </trkpt>
      <trkpt lat="42.69153" lon="2.75249">
        <ele>92.06</ele>
        <time>2024-09-20T14:59:16.999Z</time>
      </trkpt>
      <trkpt lat="42.6913" lon="2.7523">
        <ele>92.14</ele>
        <time>2024-09-20T14:59:21.999Z</time>
      </trkpt>
      <trkpt lat="42.69105" lon="2.7522">
        <ele>92.14</ele>
        <time>2024-09-20T14:59:26.999Z</time>
      </trkpt>
      <trkpt lat="42.6908" lon="2.75217">
        <ele>92.13</ele>
        <time>2024-09-20T14:59:31.999Z</time>
      </trkpt>
      <trkpt lat="42.69053" lon="2.75218">
        <ele>92.1</ele>
        <time>2024-09-20T14:59:36.999Z</time>
      </trkpt>
      <trkpt lat="42.69027" lon="2.75218">
        <ele>92.07</ele>
        <time>2024-09-20T14:59:41.999Z</time>
      </trkpt>
      <trkpt lat="42.69002" lon="2.75217">
        <ele>92.13</ele>
        <time>2024-09-20T14:59:46.999Z</time>
      </trkpt>
      <trkpt lat="42.68977" lon="2.75217">
        <ele>92.09</ele>
        <time>2024-09-20T14:59:51.999Z</time>
      </trkpt>
      <trkpt lat="42.68952" lon="2.7522">
        <ele>92.09</ele>
        <time>2024-09-20T14:59:56.999Z</time>
      </trkpt>
      <trkpt lat="42.68925" lon="2.75225">
        <ele>92.18</ele>
        <time>2024-09-20T15:00:01.999Z</time>
      </trkpt>
      <trkpt lat="42.68898" lon="2.75233">
        <ele>92.06</ele>
        <time>2024-09-20T15:00:06.999Z</time>
      </trkpt>
      <trkpt lat="42.68869" lon="2.75241">
        <ele>91.88</ele>
        <time>2024-09-20T15:00:11.999Z</time>
      </trkpt>
      <trkpt lat="42.68844" lon="2.75249">
        <ele>91.65</ele>
        <time>2024-09-20T15:00:16.999Z</time>
      </trkpt>
      <trkpt lat="42.68821" lon="2.75255">
        <ele>91.24</ele>
        <time>2024-09-20T15:00:21.999Z</time>
      </trkpt>
      <trkpt lat="42.68797" lon="2.75259">
        <ele>90.83</ele>
        <time>2024-09-20T15:00:26.999Z</time>
      </trkpt>
      <trkpt lat="42.68771" lon="2.75264">
        <ele>90.42</ele>
        <time>2024-09-20T15:00:31.999Z</time>
      </trkpt>
      <trkpt lat="42.68745" lon="2.75267">
        <ele>90.02</ele>
        <time>2024-09-20T15:00:36.999Z</time>
      </trkpt>
      <trkpt lat="42.68717" lon="2.75269">
        <ele>89.59</ele>
        <time>2024-09-20T15:00:41.999Z</time>
      </trkpt>
      <trkpt lat="42.68689" lon="2.75273">
        <ele>89.19</ele>
        <time>2024-09-20T15:00:46.999Z</time>
      </trkpt>
      <trkpt lat="42.68662" lon="2.75283">
        <ele>88.78</ele>
        <time>2024-09-20T15:00:51.999Z</time>
      </trkpt>
      <trkpt lat="42.68639" lon="2.75301">
        <ele>88.66</ele>
        <time>2024-09-20T15:00:56.999Z</time>
      </trkpt>
      <trkpt lat="42.68619" lon="2.75317">
        <ele>88.87</ele>
        <time>2024-09-20T15:01:01.999Z</time>
      </trkpt>
      <trkpt lat="42.68596" lon="2.75324">
        <ele>88.92</ele>
        <time>2024-09-20T15:01:06.999Z</time>
      </trkpt>
      <trkpt lat="42.68574" lon="2.75315">
        <ele>88.98</ele>
        <time>2024-09-20T15:01:11.999Z</time>
      </trkpt>
      <trkpt lat="42.6856" lon="2.75297">
        <ele>89.11</ele>
        <time>2024-09-20T15:01:16.999Z</time>
      </trkpt>
      <trkpt lat="42.68547" lon="2.75278">
        <ele>89.09</ele>
        <time>2024-09-20T15:01:21.999Z</time>
      </trkpt>
      <trkpt lat="42.6853" lon="2.75253">
        <ele>88.74</ele>
        <time>2024-09-20T15:01:26.999Z</time>
      </trkpt>
      <trkpt lat="42.68506" lon="2.7522">
        <ele>88.29</ele>
        <time>2024-09-20T15:01:31.999Z</time>
      </trkpt>
      <trkpt lat="42.68471" lon="2.75191">
        <ele>87.63</ele>
        <time>2024-09-20T15:01:36.999Z</time>
      </trkpt>
      <trkpt lat="42.68431" lon="2.7518">
        <ele>87.39</ele>
        <time>2024-09-20T15:01:41.999Z</time>
      </trkpt>
      <trkpt lat="42.68394" lon="2.75171">
        <ele>87.51</ele>
        <time>2024-09-20T15:01:46.999Z</time>
      </trkpt>
      <trkpt lat="42.68365" lon="2.75151">
        <ele>87.65</ele>
        <time>2024-09-20T15:01:51.999Z</time>
      </trkpt>
      <trkpt lat="42.68355" lon="2.75125">
        <ele>87.84</ele>
        <time>2024-09-20T15:01:56.999Z</time>
      </trkpt>
      <trkpt lat="42.68355" lon="2.75104">
        <ele>87.85</ele>
        <time>2024-09-20T15:02:01.999Z</time>
      </trkpt>
      <trkpt lat="42.68357" lon="2.75087">
        <ele>87.81</ele>
        <time>2024-09-20T15:02:06.999Z</time>
      </trkpt>
      <trkpt lat="42.6836" lon="2.75073">
        <ele>87.74</ele>
        <time>2024-09-20T15:02:11.999Z</time>
      </trkpt>
      <trkpt lat="42.68362" lon="2.75057">
        <ele>87.74</ele>
        <time>2024-09-20T15:02:16.999Z</time>
      </trkpt>
      <trkpt lat="42.68365" lon="2.75042">
        <ele>87.83</ele>
        <time>2024-09-20T15:02:21.999Z</time>
      </trkpt>
      <trkpt lat="42.68367" lon="2.75026">
        <ele>88.03</ele>
        <time>2024-09-20T15:02:26.999Z</time>
      </trkpt>
      <trkpt lat="42.68367" lon="2.75012">
        <ele>88.34</ele>
        <time>2024-09-20T15:02:32.999Z</time>
      </trkpt>
      <trkpt lat="42.68365" lon="2.74999">
        <ele>88.69</ele>
        <time>2024-09-20T15:02:37.999Z</time>
      </trkpt>
      <trkpt lat="42.6836" lon="2.74985">
        <ele>89.06</ele>
        <time>2024-09-20T15:02:42.999Z</time>
      </trkpt>
      <trkpt lat="42.68354" lon="2.74972">
        <ele>89.41</ele>
        <time>2024-09-20T15:02:47.999Z</time>
      </trkpt>
      <trkpt lat="42.68346" lon="2.74962">
        <ele>89.75</ele>
        <time>2024-09-20T15:02:52.999Z</time>
      </trkpt>
      <trkpt lat="42.68335" lon="2.74955">
        <ele>90.06</ele>
        <time>2024-09-20T15:02:57.999Z</time>
      </trkpt>
      <trkpt lat="42.68321" lon="2.7495">
        <ele>90.29</ele>
        <time>2024-09-20T15:03:02.999Z</time>
      </trkpt>
      <trkpt lat="42.68306" lon="2.74945">
        <ele>90.53</ele>
        <time>2024-09-20T15:03:07.999Z</time>
      </trkpt>
      <trkpt lat="42.68291" lon="2.7494">
        <ele>90.77</ele>
        <time>2024-09-20T15:03:12.999Z</time>
      </trkpt>
      <trkpt lat="42.68276" lon="2.74934">
        <ele>91.01</ele>
        <time>2024-09-20T15:03:17.999Z</time>
      </trkpt>
      <trkpt lat="42.68261" lon="2.74929">
        <ele>91.25</ele>
        <time>2024-09-20T15:03:22.999Z</time>
      </trkpt>
      <trkpt lat="42.68246" lon="2.74923">
        <ele>91.49</ele>
        <time>2024-09-20T15:03:27.999Z</time>
      </trkpt>
      <trkpt lat="42.68232" lon="2.74917">
        <ele>91.72</ele>
        <time>2024-09-20T15:03:32.999Z</time>
      </trkpt>
      <trkpt lat="42.6822" lon="2.74913">
        <ele>91.96</ele>
        <time>2024-09-20T15:03:37.999Z</time>
      </trkpt>
      <trkpt lat="42.68208" lon="2.74908">
        <ele>92.21</ele>
        <time>2024-09-20T15:03:42.999Z</time>
      </trkpt>
      <trkpt lat="42.68196" lon="2.74904">
        <ele>92.46</ele>
        <time>2024-09-20T15:03:47.999Z</time>
      </trkpt>
      <trkpt lat="42.68185" lon="2.74899">
        <ele>92.7</ele>
        <time>2024-09-20T15:03:52.999Z</time>
      </trkpt>
      <trkpt lat="42.68173" lon="2.74895">
        <ele>92.95</ele>
        <time>2024-09-20T15:03:57.999Z</time>
      </trkpt>
      <trkpt lat="42.68162" lon="2.7489">
        <ele>93.2</ele>
        <time>2024-09-20T15:04:02.999Z</time>
      </trkpt>
      <trkpt lat="42.6815" lon="2.74885">
        <ele>93.44</ele>
        <time>2024-09-20T15:04:07.999Z</time>
      </trkpt>
      <trkpt lat="42.68138" lon="2.74881">
        <ele>93.69</ele>
        <time>2024-09-20T15:04:12.999Z</time>
      </trkpt>
      <trkpt lat="42.68125" lon="2.74876">
        <ele>93.96</ele>
        <time>2024-09-20T15:04:17.999Z</time>
      </trkpt>
      <trkpt lat="42.68114" lon="2.74871">
        <ele>94.25</ele>
        <time>2024-09-20T15:04:22.999Z</time>
      </trkpt>
      <trkpt lat="42.68101" lon="2.74867">
        <ele>94.55</ele>
        <time>2024-09-20T15:04:27.999Z</time>
      </trkpt>
      <trkpt lat="42.68089" lon="2.74862">
        <ele>94.85</ele>
        <time>2024-09-20T15:04:32.999Z</time>
      </trkpt>
      <trkpt lat="42.68078" lon="2.74858">
        <ele>95.15</ele>
        <time>2024-09-20T15:04:37.999Z</time>
      </trkpt>
      <trkpt lat="42.68065" lon="2.74853">
        <ele>95.46</ele>
        <time>2024-09-20T15:04:42.999Z</time>
      </trkpt>
      <trkpt lat="42.68054" lon="2.74847">
        <ele>95.76</ele>
        <time>2024-09-20T15:04:47.999Z</time>
      </trkpt>
      <trkpt lat="42.68042" lon="2.74841">
        <ele>96.05</ele>
        <time>2024-09-20T15:04:52.999Z</time>
      </trkpt>
      <trkpt lat="42.68036" lon="2.74829">
        <ele>96.34</ele>
        <time>2024-09-20T15:04:57.999Z</time>
      </trkpt>
      <trkpt lat="42.68032" lon="2.74811">
        <ele>96.62</ele>
        <time>2024-09-20T15:05:02.999Z</time>
      </trkpt>
      <trkpt lat="42.68021" lon="2.74796">
        <ele>96.88</ele>
        <time>2024-09-20T15:05:07.999Z</time>
      </trkpt>
      <trkpt lat="42.68007" lon="2.74792">
        <ele>97.14</ele>
        <time>2024-09-20T15:05:12.999Z</time>
      </trkpt>
      <trkpt lat="42.67994" lon="2.74797">
        <ele>97.39</ele>
        <time>2024-09-20T15:05:17.999Z</time>
      </trkpt>
      <trkpt lat="42.67985" lon="2.74796">
        <ele>97.63</ele>
        <time>2024-09-20T15:05:22.999Z</time>
      </trkpt>
      <trkpt lat="42.67977" lon="2.7479">
        <ele>98.2</ele>
        <time>2024-09-20T15:06:25.000Z</time>
      </trkpt>
      <trkpt lat="42.67969" lon="2.74765">
        <ele>98.97</ele>
        <time>2024-09-20T15:06:30.000Z</time>
      </trkpt>
      <trkpt lat="42.67965" lon="2.74733">
        <ele>99.95</ele>
        <time>2024-09-20T15:06:35.000Z</time>
      </trkpt>
      <trkpt lat="42.67965" lon="2.74702">
        <ele>100.38</ele>
        <time>2024-09-20T15:06:40.000Z</time>
      </trkpt>
      <trkpt lat="42.67965" lon="2.74669">
        <ele>100.65</ele>
        <time>2024-09-20T15:06:45.000Z</time>
      </trkpt>
      <trkpt lat="42.67967" lon="2.74636">
        <ele>100.83</ele>
        <time>2024-09-20T15:06:50.000Z</time>
      </trkpt>
      <trkpt lat="42.67969" lon="2.74603">
        <ele>100.96</ele>
        <time>2024-09-20T15:06:55.000Z</time>
      </trkpt>
      <trkpt lat="42.67971" lon="2.74569">
        <ele>101.11</ele>
        <time>2024-09-20T15:07:00.000Z</time>
      </trkpt>
      <trkpt lat="42.67976" lon="2.74537">
        <ele>101.3</ele>
        <time>2024-09-20T15:07:05.000Z</time>
      </trkpt>
      <trkpt lat="42.67979" lon="2.74504">
        <ele>101.51</ele>
        <time>2024-09-20T15:07:10.000Z</time>
      </trkpt>
      <trkpt lat="42.67979" lon="2.7447">
        <ele>101.69</ele>
        <time>2024-09-20T15:07:15.000Z</time>
      </trkpt>
      <trkpt lat="42.67977" lon="2.74435">
        <ele>101.86</ele>
        <time>2024-09-20T15:07:20.000Z</time>
      </trkpt>
      <trkpt lat="42.67975" lon="2.74396">
        <ele>101.99</ele>
        <time>2024-09-20T15:07:25.000Z</time>
      </trkpt>
      <trkpt lat="42.67974" lon="2.7436">
        <ele>102.13</ele>
        <time>2024-09-20T15:07:30.000Z</time>
      </trkpt>
      <trkpt lat="42.67973" lon="2.74319">
        <ele>102.27</ele>
        <time>2024-09-20T15:07:35.000Z</time>
      </trkpt>
      <trkpt lat="42.67971" lon="2.74279">
        <ele>102.37</ele>
        <time>2024-09-20T15:07:40.000Z</time>
      </trkpt>
      <trkpt lat="42.6797" lon="2.74237">
        <ele>102.47</ele>
        <time>2024-09-20T15:07:45.000Z</time>
      </trkpt>
      <trkpt lat="42.6797" lon="2.74198">
        <ele>102.62</ele>
        <time>2024-09-20T15:07:50.000Z</time>
      </trkpt>
      <trkpt lat="42.67973" lon="2.74166">
        <ele>102.85</ele>
        <time>2024-09-20T15:07:55.000Z</time>
      </trkpt>
      <trkpt lat="42.67975" lon="2.74142">
        <ele>102.88</ele>
        <time>2024-09-20T15:08:00.000Z</time>
      </trkpt>
      <trkpt lat="42.67965" lon="2.74138">
        <ele>102.87</ele>
        <time>2024-09-20T15:08:05.000Z</time>
      </trkpt>
      <trkpt lat="42.67957" lon="2.7414">
        <ele>102.9</ele>
        <time>2024-09-20T15:08:29.000Z</time>
      </trkpt>
      <trkpt lat="42.67937" lon="2.74148">
        <ele>102.81</ele>
        <time>2024-09-20T15:08:34.000Z</time>
      </trkpt>
      <trkpt lat="42.67917" lon="2.74155">
        <ele>102.79</ele>
        <time>2024-09-20T15:08:39.000Z</time>
      </trkpt>
      <trkpt lat="42.67896" lon="2.7416">
        <ele>102.93</ele>
        <time>2024-09-20T15:08:44.000Z</time>
      </trkpt>
      <trkpt lat="42.67875" lon="2.74167">
        <ele>103.17</ele>
        <time>2024-09-20T15:08:49.000Z</time>
      </trkpt>
      <trkpt lat="42.67853" lon="2.74178">
        <ele>103.37</ele>
        <time>2024-09-20T15:08:54.000Z</time>
      </trkpt>
      <trkpt lat="42.6783" lon="2.74189">
        <ele>103.41</ele>
        <time>2024-09-20T15:08:59.000Z</time>
      </trkpt>
      <trkpt lat="42.67807" lon="2.742">
        <ele>103.29</ele>
        <time>2024-09-20T15:09:04.000Z</time>
      </trkpt>
      <trkpt lat="42.67785" lon="2.7421">
        <ele>103.16</ele>
        <time>2024-09-20T15:09:09.000Z</time>
      </trkpt>
      <trkpt lat="42.67762" lon="2.74225">
        <ele>102.89</ele>
        <time>2024-09-20T15:09:14.000Z</time>
      </trkpt>
      <trkpt lat="42.67738" lon="2.74242">
        <ele>102.77</ele>
        <time>2024-09-20T15:09:19.000Z</time>
      </trkpt>
      <trkpt lat="42.67717" lon="2.74251">
        <ele>102.69</ele>
        <time>2024-09-20T15:09:24.000Z</time>
      </trkpt>
      <trkpt lat="42.67694" lon="2.74251">
        <ele>102.8</ele>
        <time>2024-09-20T15:09:29.000Z</time>
      </trkpt>
      <trkpt lat="42.67669" lon="2.74251">
        <ele>102.58</ele>
        <time>2024-09-20T15:09:34.000Z</time>
      </trkpt>
      <trkpt lat="42.67647" lon="2.74244">
        <ele>102.47</ele>
        <time>2024-09-20T15:09:39.000Z</time>
      </trkpt>
      <trkpt lat="42.67628" lon="2.74233">
        <ele>102.33</ele>
        <time>2024-09-20T15:09:44.000Z</time>
      </trkpt>
      <trkpt lat="42.67608" lon="2.74227">
        <ele>102.15</ele>
        <time>2024-09-20T15:09:49.000Z</time>
      </trkpt>
      <trkpt lat="42.67585" lon="2.74217">
        <ele>101.92</ele>
        <time>2024-09-20T15:09:54.000Z</time>
      </trkpt>
      <trkpt lat="42.67563" lon="2.74207">
        <ele>101.81</ele>
        <time>2024-09-20T15:09:59.000Z</time>
      </trkpt>
      <trkpt lat="42.67541" lon="2.74192">
        <ele>101.79</ele>
        <time>2024-09-20T15:10:04.000Z</time>
      </trkpt>
      <trkpt lat="42.67518" lon="2.74179">
        <ele>101.79</ele>
        <time>2024-09-20T15:10:09.000Z</time>
      </trkpt>
      <trkpt lat="42.67496" lon="2.74166">
        <ele>101.96</ele>
        <time>2024-09-20T15:10:14.000Z</time>
      </trkpt>
      <trkpt lat="42.67473" lon="2.74149">
        <ele>102.05</ele>
        <time>2024-09-20T15:10:19.000Z</time>
      </trkpt>
      <trkpt lat="42.67446" lon="2.74137">
        <ele>102.25</ele>
        <time>2024-09-20T15:10:24.000Z</time>
      </trkpt>
      <trkpt lat="42.67422" lon="2.74122">
        <ele>102.45</ele>
        <time>2024-09-20T15:10:29.000Z</time>
      </trkpt>
      <trkpt lat="42.67397" lon="2.74105">
        <ele>102.65</ele>
        <time>2024-09-20T15:10:34.000Z</time>
      </trkpt>
      <trkpt lat="42.67373" lon="2.74093">
        <ele>102.86</ele>
        <time>2024-09-20T15:10:39.000Z</time>
      </trkpt>
      <trkpt lat="42.67348" lon="2.74084">
        <ele>103.05</ele>
        <time>2024-09-20T15:10:44.000Z</time>
      </trkpt>
      <trkpt lat="42.67323" lon="2.74079">
        <ele>103.4</ele>
        <time>2024-09-20T15:10:49.000Z</time>
      </trkpt>
      <trkpt lat="42.67298" lon="2.74074">
        <ele>103.8</ele>
        <time>2024-09-20T15:10:54.000Z</time>
      </trkpt>
      <trkpt lat="42.67275" lon="2.74072">
        <ele>104.14</ele>
        <time>2024-09-20T15:10:59.000Z</time>
      </trkpt>
      <trkpt lat="42.67251" lon="2.74075">
        <ele>104.34</ele>
        <time>2024-09-20T15:11:04.000Z</time>
      </trkpt>
      <trkpt lat="42.67225" lon="2.74076">
        <ele>104.41</ele>
        <time>2024-09-20T15:11:09.000Z</time>
      </trkpt>
      <trkpt lat="42.67199" lon="2.74074">
        <ele>104.42</ele>
        <time>2024-09-20T15:11:14.000Z</time>
      </trkpt>
      <trkpt lat="42.67173" lon="2.74075">
        <ele>104.38</ele>
        <time>2024-09-20T15:11:19.000Z</time>
      </trkpt>
      <trkpt lat="42.67148" lon="2.74079">
        <ele>104.32</ele>
        <time>2024-09-20T15:11:24.000Z</time>
      </trkpt>
      <trkpt lat="42.67119" lon="2.74082">
        <ele>104.26</ele>
        <time>2024-09-20T15:11:29.000Z</time>
      </trkpt>
      <trkpt lat="42.6709" lon="2.74086">
        <ele>104.24</ele>
        <time>2024-09-20T15:11:34.000Z</time>
      </trkpt>
      <trkpt lat="42.67063" lon="2.74088">
        <ele>104.26</ele>
        <time>2024-09-20T15:11:39.000Z</time>
      </trkpt>
      <trkpt lat="42.67036" lon="2.7409">
        <ele>104.29</ele>
        <time>2024-09-20T15:11:44.000Z</time>
      </trkpt>
      <trkpt lat="42.67011" lon="2.7409">
        <ele>104.34</ele>
        <time>2024-09-20T15:11:49.000Z</time>
      </trkpt>
      <trkpt lat="42.66985" lon="2.74091">
        <ele>104.35</ele>
        <time>2024-09-20T15:11:54.000Z</time>
      </trkpt>
      <trkpt lat="42.6696" lon="2.74096">
        <ele>104.28</ele>
        <time>2024-09-20T15:11:59.000Z</time>
      </trkpt>
      <trkpt lat="42.66935" lon="2.74097">
        <ele>104.23</ele>
        <time>2024-09-20T15:12:04.000Z</time>
      </trkpt>
      <trkpt lat="42.66909" lon="2.74098">
        <ele>104.24</ele>
        <time>2024-09-20T15:12:09.000Z</time>
      </trkpt>
      <trkpt lat="42.66883" lon="2.741">
        <ele>104.25</ele>
        <time>2024-09-20T15:12:14.000Z</time>
      </trkpt>
      <trkpt lat="42.66856" lon="2.74101">
        <ele>104.25</ele>
        <time>2024-09-20T15:12:19.000Z</time>
      </trkpt>
      <trkpt lat="42.66829" lon="2.74102">
        <ele>104.26</ele>
        <time>2024-09-20T15:12:24.000Z</time>
      </trkpt>
      <trkpt lat="42.66803" lon="2.74102">
        <ele>104.28</ele>
        <time>2024-09-20T15:12:29.000Z</time>
      </trkpt>
      <trkpt lat="42.66777" lon="2.74102">
        <ele>104.3</ele>
        <time>2024-09-20T15:12:34.000Z</time>
      </trkpt>
      <trkpt lat="42.66749" lon="2.74103">
        <ele>104.35</ele>
        <time>2024-09-20T15:12:39.000Z</time>
      </trkpt>
      <trkpt lat="42.66723" lon="2.74102">
        <ele>104.37</ele>
        <time>2024-09-20T15:12:44.000Z</time>
      </trkpt>
      <trkpt lat="42.66698" lon="2.74102">
        <ele>104.44</ele>
        <time>2024-09-20T15:12:49.000Z</time>
      </trkpt>
      <trkpt lat="42.66674" lon="2.74105">
        <ele>104.53</ele>
        <time>2024-09-20T15:12:54.000Z</time>
      </trkpt>
      <trkpt lat="42.66654" lon="2.74107">
        <ele>104.59</ele>
        <time>2024-09-20T15:12:59.000Z</time>
      </trkpt>
      <trkpt lat="42.66635" lon="2.74106">
        <ele>104.61</ele>
        <time>2024-09-20T15:13:04.000Z</time>
      </trkpt>
      <trkpt lat="42.66617" lon="2.74106">
        <ele>104.65</ele>
        <time>2024-09-20T15:13:09.000Z</time>
      </trkpt>
      <trkpt lat="42.66598" lon="2.74105">
        <ele>104.78</ele>
        <time>2024-09-20T15:13:14.000Z</time>
      </trkpt>
      <trkpt lat="42.66578" lon="2.74103">
        <ele>104.96</ele>
        <time>2024-09-20T15:13:19.000Z</time>
      </trkpt>
      <trkpt lat="42.66554" lon="2.74102">
        <ele>105</ele>
        <time>2024-09-20T15:13:24.000Z</time>
      </trkpt>
      <trkpt lat="42.66533" lon="2.74101">
        <ele>105.01</ele>
        <time>2024-09-20T15:13:29.000Z</time>
      </trkpt>
      <trkpt lat="42.66514" lon="2.741">
        <ele>105.04</ele>
        <time>2024-09-20T15:13:34.000Z</time>
      </trkpt>
      <trkpt lat="42.66495" lon="2.74097">
        <ele>105.09</ele>
        <time>2024-09-20T15:13:39.000Z</time>
      </trkpt>
      <trkpt lat="42.66475" lon="2.74095">
        <ele>105.21</ele>
        <time>2024-09-20T15:13:44.000Z</time>
      </trkpt>
      <trkpt lat="42.66454" lon="2.74092">
        <ele>105.3</ele>
        <time>2024-09-20T15:13:49.000Z</time>
      </trkpt>
      <trkpt lat="42.66433" lon="2.74091">
        <ele>105.39</ele>
        <time>2024-09-20T15:13:54.000Z</time>
      </trkpt>
      <trkpt lat="42.66411" lon="2.74089">
        <ele>105.46</ele>
        <time>2024-09-20T15:13:59.000Z</time>
      </trkpt>
      <trkpt lat="42.66388" lon="2.74088">
        <ele>105.51</ele>
        <time>2024-09-20T15:14:04.000Z</time>
      </trkpt>
      <trkpt lat="42.66367" lon="2.74088">
        <ele>105.52</ele>
        <time>2024-09-20T15:14:09.000Z</time>
      </trkpt>
      <trkpt lat="42.66346" lon="2.74085">
        <ele>105.55</ele>
        <time>2024-09-20T15:14:14.000Z</time>
      </trkpt>
      <trkpt lat="42.66325" lon="2.74081">
        <ele>105.63</ele>
        <time>2024-09-20T15:14:19.000Z</time>
      </trkpt>
      <trkpt lat="42.66301" lon="2.74077">
        <ele>105.75</ele>
        <time>2024-09-20T15:14:24.000Z</time>
      </trkpt>
      <trkpt lat="42.66276" lon="2.74077">
        <ele>105.88</ele>
        <time>2024-09-20T15:14:29.000Z</time>
      </trkpt>
      <trkpt lat="42.6625" lon="2.74082">
        <ele>106</ele>
        <time>2024-09-20T15:14:34.000Z</time>
      </trkpt>
      <trkpt lat="42.66224" lon="2.74088">
        <ele>106.05</ele>
        <time>2024-09-20T15:14:39.000Z</time>
      </trkpt>
      <trkpt lat="42.66199" lon="2.74096">
        <ele>106.07</ele>
        <time>2024-09-20T15:14:44.000Z</time>
      </trkpt>
      <trkpt lat="42.66179" lon="2.74111">
        <ele>106.04</ele>
        <time>2024-09-20T15:14:49.000Z</time>
      </trkpt>
      <trkpt lat="42.66171" lon="2.7414">
        <ele>106.01</ele>
        <time>2024-09-20T15:14:54.000Z</time>
      </trkpt>
      <trkpt lat="42.6617" lon="2.7417">
        <ele>106.06</ele>
        <time>2024-09-20T15:14:59.000Z</time>
      </trkpt>
      <trkpt lat="42.66171" lon="2.74202">
        <ele>106.15</ele>
        <time>2024-09-20T15:15:04.000Z</time>
      </trkpt>
      <trkpt lat="42.6617" lon="2.74234">
        <ele>106.27</ele>
        <time>2024-09-20T15:15:09.000Z</time>
      </trkpt>
      <trkpt lat="42.66155" lon="2.74257">
        <ele>106.34</ele>
        <time>2024-09-20T15:15:14.000Z</time>
      </trkpt>
      <trkpt lat="42.66132" lon="2.74259">
        <ele>106.47</ele>
        <time>2024-09-20T15:15:19.000Z</time>
      </trkpt>
      <trkpt lat="42.66111" lon="2.74258">
        <ele>106.63</ele>
        <time>2024-09-20T15:15:24.000Z</time>
      </trkpt>
      <trkpt lat="42.66088" lon="2.74256">
        <ele>106.75</ele>
        <time>2024-09-20T15:15:29.000Z</time>
      </trkpt>
      <trkpt lat="42.66065" lon="2.74257">
        <ele>106.8</ele>
        <time>2024-09-20T15:15:34.000Z</time>
      </trkpt>
      <trkpt lat="42.66042" lon="2.74256">
        <ele>106.83</ele>
        <time>2024-09-20T15:15:39.000Z</time>
      </trkpt>
      <trkpt lat="42.66017" lon="2.74257">
        <ele>106.84</ele>
        <time>2024-09-20T15:15:44.000Z</time>
      </trkpt>
      <trkpt lat="42.65991" lon="2.74257">
        <ele>106.85</ele>
        <time>2024-09-20T15:15:49.000Z</time>
      </trkpt>
      <trkpt lat="42.65965" lon="2.74257">
        <ele>106.87</ele>
        <time>2024-09-20T15:15:54.000Z</time>
      </trkpt>
      <trkpt lat="42.6594" lon="2.74257">
        <ele>106.91</ele>
        <time>2024-09-20T15:15:59.000Z</time>
      </trkpt>
      <trkpt lat="42.65914" lon="2.74256">
        <ele>106.97</ele>
        <time>2024-09-20T15:16:04.000Z</time>
      </trkpt>
      <trkpt lat="42.65888" lon="2.74255">
        <ele>107.02</ele>
        <time>2024-09-20T15:16:09.000Z</time>
      </trkpt>
      <trkpt lat="42.65861" lon="2.74256">
        <ele>107.1</ele>
        <time>2024-09-20T15:16:14.000Z</time>
      </trkpt>
      <trkpt lat="42.65834" lon="2.74257">
        <ele>107.18</ele>
        <time>2024-09-20T15:16:19.000Z</time>
      </trkpt>
      <trkpt lat="42.65807" lon="2.74257">
        <ele>107.24</ele>
        <time>2024-09-20T15:16:24.000Z</time>
      </trkpt>
      <trkpt lat="42.65781" lon="2.74257">
        <ele>107.32</ele>
        <time>2024-09-20T15:16:29.000Z</time>
      </trkpt>
      <trkpt lat="42.65755" lon="2.74257">
        <ele>107.41</ele>
        <time>2024-09-20T15:16:34.000Z</time>
      </trkpt>
      <trkpt lat="42.65727" lon="2.74257">
        <ele>107.51</ele>
        <time>2024-09-20T15:16:39.000Z</time>
      </trkpt>
      <trkpt lat="42.657" lon="2.74261">
        <ele>107.55</ele>
        <time>2024-09-20T15:16:44.000Z</time>
      </trkpt>
      <trkpt lat="42.65672" lon="2.74271">
        <ele>107.54</ele>
        <time>2024-09-20T15:16:49.000Z</time>
      </trkpt>
      <trkpt lat="42.65642" lon="2.74284">
        <ele>107.54</ele>
        <time>2024-09-20T15:16:54.000Z</time>
      </trkpt>
      <trkpt lat="42.65611" lon="2.74299">
        <ele>107.54</ele>
        <time>2024-09-20T15:16:59.000Z</time>
      </trkpt>
      <trkpt lat="42.65581" lon="2.74315">
        <ele>107.58</ele>
        <time>2024-09-20T15:17:04.000Z</time>
      </trkpt>
      <trkpt lat="42.65553" lon="2.7433">
        <ele>107.65</ele>
        <time>2024-09-20T15:17:09.000Z</time>
      </trkpt>
      <trkpt lat="42.65525" lon="2.74343">
        <ele>107.5</ele>
        <time>2024-09-20T15:17:14.000Z</time>
      </trkpt>
      <trkpt lat="42.65498" lon="2.74356">
        <ele>107.38</ele>
        <time>2024-09-20T15:17:19.000Z</time>
      </trkpt>
      <trkpt lat="42.65471" lon="2.74371">
        <ele>107.53</ele>
        <time>2024-09-20T15:17:24.000Z</time>
      </trkpt>
      <trkpt lat="42.65444" lon="2.74385">
        <ele>108.08</ele>
        <time>2024-09-20T15:17:29.000Z</time>
      </trkpt>
      <trkpt lat="42.65419" lon="2.74398">
        <ele>108.97</ele>
        <time>2024-09-20T15:17:34.000Z</time>
      </trkpt>
      <trkpt lat="42.65394" lon="2.74409">
        <ele>110</ele>
        <time>2024-09-20T15:17:39.000Z</time>
      </trkpt>
      <trkpt lat="42.65367" lon="2.74421">
        <ele>111.09</ele>
        <time>2024-09-20T15:17:44.000Z</time>
      </trkpt>
      <trkpt lat="42.6534" lon="2.74432">
        <ele>111.15</ele>
        <time>2024-09-20T15:17:49.000Z</time>
      </trkpt>
      <trkpt lat="42.65314" lon="2.74441">
        <ele>110.8</ele>
        <time>2024-09-20T15:17:54.000Z</time>
      </trkpt>
      <trkpt lat="42.65288" lon="2.74452">
        <ele>110.41</ele>
        <time>2024-09-20T15:17:59.000Z</time>
      </trkpt>
      <trkpt lat="42.65262" lon="2.74461">
        <ele>110.04</ele>
        <time>2024-09-20T15:18:04.000Z</time>
      </trkpt>
      <trkpt lat="42.65237" lon="2.7447">
        <ele>109.72</ele>
        <time>2024-09-20T15:18:09.000Z</time>
      </trkpt>
      <trkpt lat="42.65211" lon="2.74479">
        <ele>109.45</ele>
        <time>2024-09-20T15:18:14.000Z</time>
      </trkpt>
      <trkpt lat="42.65186" lon="2.74487">
        <ele>109.24</ele>
        <time>2024-09-20T15:18:19.000Z</time>
      </trkpt>
      <trkpt lat="42.65159" lon="2.74507">
        <ele>109.02</ele>
        <time>2024-09-20T15:18:24.999Z</time>
      </trkpt>
      <trkpt lat="42.65137" lon="2.7453">
        <ele>108.85</ele>
        <time>2024-09-20T15:18:29.999Z</time>
      </trkpt>
      <trkpt lat="42.65112" lon="2.74547">
        <ele>108.68</ele>
        <time>2024-09-20T15:18:34.999Z</time>
      </trkpt>
      <trkpt lat="42.65084" lon="2.74565">
        <ele>108.67</ele>
        <time>2024-09-20T15:18:39.999Z</time>
      </trkpt>
      <trkpt lat="42.65058" lon="2.74582">
        <ele>108.78</ele>
        <time>2024-09-20T15:18:44.999Z</time>
      </trkpt>
      <trkpt lat="42.65032" lon="2.74599">
        <ele>108.92</ele>
        <time>2024-09-20T15:18:49.999Z</time>
      </trkpt>
      <trkpt lat="42.65006" lon="2.74616">
        <ele>108.96</ele>
        <time>2024-09-20T15:18:54.999Z</time>
      </trkpt>
      <trkpt lat="42.64987" lon="2.74645">
        <ele>108.97</ele>
        <time>2024-09-20T15:18:59.999Z</time>
      </trkpt>
      <trkpt lat="42.64962" lon="2.74667">
        <ele>109.09</ele>
        <time>2024-09-20T15:19:04.999Z</time>
      </trkpt>
      <trkpt lat="42.64934" lon="2.74679">
        <ele>109.13</ele>
        <time>2024-09-20T15:19:09.999Z</time>
      </trkpt>
      <trkpt lat="42.64905" lon="2.74689">
        <ele>109.09</ele>
        <time>2024-09-20T15:19:14.999Z</time>
      </trkpt>
      <trkpt lat="42.64875" lon="2.74677">
        <ele>109</ele>
        <time>2024-09-20T15:19:19.999Z</time>
      </trkpt>
      <trkpt lat="42.6485" lon="2.74659">
        <ele>108.94</ele>
        <time>2024-09-20T15:19:24.999Z</time>
      </trkpt>
      <trkpt lat="42.64825" lon="2.74642">
        <ele>108.97</ele>
        <time>2024-09-20T15:19:29.999Z</time>
      </trkpt>
      <trkpt lat="42.64801" lon="2.74625">
        <ele>109.02</ele>
        <time>2024-09-20T15:19:34.999Z</time>
      </trkpt>
      <trkpt lat="42.64778" lon="2.74608">
        <ele>109.07</ele>
        <time>2024-09-20T15:19:39.999Z</time>
      </trkpt>
      <trkpt lat="42.64757" lon="2.74593">
        <ele>109.13</ele>
        <time>2024-09-20T15:19:44.999Z</time>
      </trkpt>
      <trkpt lat="42.64733" lon="2.74578">
        <ele>109.23</ele>
        <time>2024-09-20T15:19:49.999Z</time>
      </trkpt>
      <trkpt lat="42.64707" lon="2.74577">
        <ele>109.31</ele>
        <time>2024-09-20T15:19:54.999Z</time>
      </trkpt>
      <trkpt lat="42.6469" lon="2.746">
        <ele>109.3</ele>
        <time>2024-09-20T15:19:59.999Z</time>
      </trkpt>
      <trkpt lat="42.64675" lon="2.74627">
        <ele>109.24</ele>
        <time>2024-09-20T15:20:04.999Z</time>
      </trkpt>
      <trkpt lat="42.64661" lon="2.74651">
        <ele>109.31</ele>
        <time>2024-09-20T15:20:09.999Z</time>
      </trkpt>
      <trkpt lat="42.64646" lon="2.74675">
        <ele>109.36</ele>
        <time>2024-09-20T15:20:14.999Z</time>
      </trkpt>
      <trkpt lat="42.64634" lon="2.74695">
        <ele>109.38</ele>
        <time>2024-09-20T15:20:19.999Z</time>
      </trkpt>
      <trkpt lat="42.64622" lon="2.74716">
        <ele>109.44</ele>
        <time>2024-09-20T15:20:24.999Z</time>
      </trkpt>
      <trkpt lat="42.64607" lon="2.74737">
        <ele>109.54</ele>
        <time>2024-09-20T15:20:29.999Z</time>
      </trkpt>
      <trkpt lat="42.6459" lon="2.74758">
        <ele>109.67</ele>
        <time>2024-09-20T15:20:34.999Z</time>
      </trkpt>
      <trkpt lat="42.64573" lon="2.7478">
        <ele>109.8</ele>
        <time>2024-09-20T15:20:39.999Z</time>
      </trkpt>
      <trkpt lat="42.64556" lon="2.74801">
        <ele>109.88</ele>
        <time>2024-09-20T15:20:44.999Z</time>
      </trkpt>
      <trkpt lat="42.64538" lon="2.74823">
        <ele>109.95</ele>
        <time>2024-09-20T15:20:49.999Z</time>
      </trkpt>
      <trkpt lat="42.64514" lon="2.74831">
        <ele>109.98</ele>
        <time>2024-09-20T15:20:54.999Z</time>
      </trkpt>
      <trkpt lat="42.6449" lon="2.74824">
        <ele>110.02</ele>
        <time>2024-09-20T15:20:59.999Z</time>
      </trkpt>
      <trkpt lat="42.64466" lon="2.74813">
        <ele>110</ele>
        <time>2024-09-20T15:21:04.999Z</time>
      </trkpt>
      <trkpt lat="42.64441" lon="2.74803">
        <ele>109.96</ele>
        <time>2024-09-20T15:21:09.999Z</time>
      </trkpt>
      <trkpt lat="42.64417" lon="2.74793">
        <ele>109.88</ele>
        <time>2024-09-20T15:21:14.999Z</time>
      </trkpt>
      <trkpt lat="42.64393" lon="2.74783">
        <ele>109.81</ele>
        <time>2024-09-20T15:21:19.999Z</time>
      </trkpt>
      <trkpt lat="42.64369" lon="2.74773">
        <ele>109.77</ele>
        <time>2024-09-20T15:21:24.999Z</time>
      </trkpt>
      <trkpt lat="42.64344" lon="2.74762">
        <ele>109.74</ele>
        <time>2024-09-20T15:21:29.999Z</time>
      </trkpt>
      <trkpt lat="42.64318" lon="2.74756">
        <ele>109.69</ele>
        <time>2024-09-20T15:21:34.999Z</time>
      </trkpt>
      <trkpt lat="42.64296" lon="2.7478">
        <ele>109.6</ele>
        <time>2024-09-20T15:21:39.999Z</time>
      </trkpt>
      <trkpt lat="42.64283" lon="2.74808">
        <ele>109.53</ele>
        <time>2024-09-20T15:21:44.999Z</time>
      </trkpt>
      <trkpt lat="42.64271" lon="2.74836">
        <ele>109.47</ele>
        <time>2024-09-20T15:21:49.999Z</time>
      </trkpt>
      <trkpt lat="42.64257" lon="2.74864">
        <ele>109.41</ele>
        <time>2024-09-20T15:21:54.999Z</time>
      </trkpt>
      <trkpt lat="42.64244" lon="2.7489">
        <ele>109.37</ele>
        <time>2024-09-20T15:21:59.999Z</time>
      </trkpt>
      <trkpt lat="42.64233" lon="2.74918">
        <ele>109.34</ele>
        <time>2024-09-20T15:22:04.999Z</time>
      </trkpt>
      <trkpt lat="42.64221" lon="2.74946">
        <ele>109.31</ele>
        <time>2024-09-20T15:22:09.999Z</time>
      </trkpt>
      <trkpt lat="42.6421" lon="2.74975">
        <ele>109.27</ele>
        <time>2024-09-20T15:22:14.999Z</time>
      </trkpt>
      <trkpt lat="42.64195" lon="2.74997">
        <ele>109.23</ele>
        <time>2024-09-20T15:22:19.999Z</time>
      </trkpt>
      <trkpt lat="42.64171" lon="2.74993">
        <ele>109.27</ele>
        <time>2024-09-20T15:22:24.999Z</time>
      </trkpt>
      <trkpt lat="42.64149" lon="2.74979">
        <ele>109.29</ele>
        <time>2024-09-20T15:22:29.999Z</time>
      </trkpt>
      <trkpt lat="42.64128" lon="2.74964">
        <ele>109.33</ele>
        <time>2024-09-20T15:22:34.999Z</time>
      </trkpt>
      <trkpt lat="42.64104" lon="2.7495">
        <ele>109.39</ele>
        <time>2024-09-20T15:22:39.999Z</time>
      </trkpt>
      <trkpt lat="42.64082" lon="2.74937">
        <ele>109.45</ele>
        <time>2024-09-20T15:22:44.999Z</time>
      </trkpt>
      <trkpt lat="42.64062" lon="2.74924">
        <ele>109.52</ele>
        <time>2024-09-20T15:22:49.999Z</time>
      </trkpt>
      <trkpt lat="42.6404" lon="2.74915">
        <ele>109.58</ele>
        <time>2024-09-20T15:22:54.999Z</time>
      </trkpt>
      <trkpt lat="42.64017" lon="2.74907">
        <ele>109.63</ele>
        <time>2024-09-20T15:22:59.999Z</time>
      </trkpt>
      <trkpt lat="42.63994" lon="2.74898">
        <ele>109.64</ele>
        <time>2024-09-20T15:23:04.999Z</time>
      </trkpt>
      <trkpt lat="42.63975" lon="2.74882">
        <ele>109.63</ele>
        <time>2024-09-20T15:23:09.999Z</time>
      </trkpt>
      <trkpt lat="42.63958" lon="2.7489">
        <ele>109.63</ele>
        <time>2024-09-20T15:23:14.999Z</time>
      </trkpt>
      <trkpt lat="42.63952" lon="2.74881">
        <ele>109.15</ele>
        <time>2024-09-20T15:25:03.999Z</time>
      </trkpt>
      <trkpt lat="42.63945" lon="2.74872">
        <ele>109.08</ele>
        <time>2024-09-20T15:25:08.999Z</time>
      </trkpt>
      <trkpt lat="42.63938" lon="2.74882">
        <ele>109.02</ele>
        <time>2024-09-20T15:25:13.999Z</time>
      </trkpt>
      <trkpt lat="42.63939" lon="2.7487">
        <ele>108.78</ele>
        <time>2024-09-20T15:29:27.999Z</time>
      </trkpt>
      <trkpt lat="42.63948" lon="2.74868">
        <ele>108.81</ele>
        <time>2024-09-20T15:29:32.999Z</time>
      </trkpt>
      <trkpt lat="42.63958" lon="2.74891">
        <ele>108.94</ele>
        <time>2024-09-20T15:29:37.999Z</time>
      </trkpt>
      <trkpt lat="42.63966" lon="2.74922">
        <ele>109.02</ele>
        <time>2024-09-20T15:29:42.999Z</time>
      </trkpt>
      <trkpt lat="42.63982" lon="2.74924">
        <ele>109.04</ele>
        <time>2024-09-20T15:29:47.999Z</time>
      </trkpt>
      <trkpt lat="42.63998" lon="2.74914">
        <ele>109.05</ele>
        <time>2024-09-20T15:29:52.999Z</time>
      </trkpt>
      <trkpt lat="42.64013" lon="2.74916">
        <ele>109.06</ele>
        <time>2024-09-20T15:29:57.999Z</time>
      </trkpt>
      <trkpt lat="42.64028" lon="2.74918">
        <ele>109.06</ele>
        <time>2024-09-20T15:30:02.999Z</time>
      </trkpt>
      <trkpt lat="42.64043" lon="2.74922">
        <ele>109.07</ele>
        <time>2024-09-20T15:30:07.999Z</time>
      </trkpt>
      <trkpt lat="42.64055" lon="2.74928">
        <ele>109.07</ele>
        <time>2024-09-20T15:30:12.999Z</time>
      </trkpt>
      <trkpt lat="42.64062" lon="2.74941">
        <ele>109.08</ele>
        <time>2024-09-20T15:30:17.999Z</time>
      </trkpt>
      <trkpt lat="42.6406" lon="2.74967">
        <ele>109.09</ele>
        <time>2024-09-20T15:30:22.999Z</time>
      </trkpt>
      <trkpt lat="42.64057" lon="2.74994">
        <ele>109.09</ele>
        <time>2024-09-20T15:30:27.999Z</time>
      </trkpt>
      <trkpt lat="42.64054" lon="2.75021">
        <ele>109.06</ele>
        <time>2024-09-20T15:30:33.000Z</time>
      </trkpt>
      <trkpt lat="42.64053" lon="2.75048">
        <ele>109.04</ele>
        <time>2024-09-20T15:30:38.000Z</time>
      </trkpt>
      <trkpt lat="42.64053" lon="2.75074">
        <ele>109.01</ele>
        <time>2024-09-20T15:30:43.000Z</time>
      </trkpt>
      <trkpt lat="42.64054" lon="2.75102">
        <ele>108.95</ele>
        <time>2024-09-20T15:30:48.000Z</time>
      </trkpt>
      <trkpt lat="42.64057" lon="2.75133">
        <ele>108.92</ele>
        <time>2024-09-20T15:30:53.000Z</time>
      </trkpt>
      <trkpt lat="42.64059" lon="2.75163">
        <ele>108.89</ele>
        <time>2024-09-20T15:30:58.000Z</time>
      </trkpt>
      <trkpt lat="42.6406" lon="2.75193">
        <ele>108.86</ele>
        <time>2024-09-20T15:31:03.000Z</time>
      </trkpt>
      <trkpt lat="42.64062" lon="2.75223">
        <ele>108.81</ele>
        <time>2024-09-20T15:31:08.000Z</time>
      </trkpt>
      <trkpt lat="42.64068" lon="2.75253">
        <ele>108.8</ele>
        <time>2024-09-20T15:31:13.000Z</time>
      </trkpt>
      <trkpt lat="42.64074" lon="2.75289">
        <ele>108.79</ele>
        <time>2024-09-20T15:31:18.000Z</time>
      </trkpt>
      <trkpt lat="42.64079" lon="2.75319">
        <ele>108.77</ele>
        <time>2024-09-20T15:31:23.000Z</time>
      </trkpt>
      <trkpt lat="42.64086" lon="2.75349">
        <ele>108.72</ele>
        <time>2024-09-20T15:31:28.000Z</time>
      </trkpt>
      <trkpt lat="42.64093" lon="2.75375">
        <ele>108.7</ele>
        <time>2024-09-20T15:31:33.000Z</time>
      </trkpt>
      <trkpt lat="42.64099" lon="2.75397">
        <ele>108.7</ele>
        <time>2024-09-20T15:31:38.000Z</time>
      </trkpt>
      <trkpt lat="42.64108" lon="2.75419">
        <ele>108.71</ele>
        <time>2024-09-20T15:31:43.000Z</time>
      </trkpt>
      <trkpt lat="42.64115" lon="2.75446">
        <ele>108.7</ele>
        <time>2024-09-20T15:31:48.000Z</time>
      </trkpt>
      <trkpt lat="42.64119" lon="2.75474">
        <ele>108.64</ele>
        <time>2024-09-20T15:31:53.000Z</time>
      </trkpt>
      <trkpt lat="42.6412" lon="2.755">
        <ele>108.58</ele>
        <time>2024-09-20T15:31:58.000Z</time>
      </trkpt>
      <trkpt lat="42.64122" lon="2.75524">
        <ele>108.57</ele>
        <time>2024-09-20T15:32:03.000Z</time>
      </trkpt>
      <trkpt lat="42.64126" lon="2.75547">
        <ele>108.56</ele>
        <time>2024-09-20T15:32:08.000Z</time>
      </trkpt>
      <trkpt lat="42.64128" lon="2.75569">
        <ele>108.54</ele>
        <time>2024-09-20T15:32:13.000Z</time>
      </trkpt>
      <trkpt lat="42.64128" lon="2.75593">
        <ele>108.53</ele>
        <time>2024-09-20T15:32:18.000Z</time>
      </trkpt>
      <trkpt lat="42.64117" lon="2.75613">
        <ele>108.51</ele>
        <time>2024-09-20T15:32:23.000Z</time>
      </trkpt>
      <trkpt lat="42.64098" lon="2.75634">
        <ele>108.35</ele>
        <time>2024-09-20T15:32:28.000Z</time>
      </trkpt>
      <trkpt lat="42.64083" lon="2.75655">
        <ele>108.26</ele>
        <time>2024-09-20T15:32:33.000Z</time>
      </trkpt>
      <trkpt lat="42.64069" lon="2.75677">
        <ele>108.18</ele>
        <time>2024-09-20T15:32:38.000Z</time>
      </trkpt>
      <trkpt lat="42.64051" lon="2.75687">
        <ele>108.12</ele>
        <time>2024-09-20T15:32:43.000Z</time>
      </trkpt>
      <trkpt lat="42.64041" lon="2.75692">
        <ele>108.1</ele>
        <time>2024-09-20T15:32:48.000Z</time>
      </trkpt>
      <trkpt lat="42.64094" lon="2.75864">
        <ele>199.97</ele>
        <time>2024-09-20T16:24:35.999Z</time>
      </trkpt>
      <trkpt lat="42.64105" lon="2.75874">
        <ele>142.59</ele>
        <time>2024-09-20T16:25:23.000Z</time>
      </trkpt>
      <trkpt lat="42.64103" lon="2.75887">
        <ele>142.91</ele>
        <time>2024-09-20T16:25:37.000Z</time>
      </trkpt>
      <trkpt lat="42.64102" lon="2.75873">
        <ele>142.2</ele>
        <time>2024-09-20T16:25:47.000Z</time>
      </trkpt>
      <trkpt lat="42.641" lon="2.75858">
        <ele>141.46</ele>
        <time>2024-09-20T16:25:52.000Z</time>
      </trkpt>
      <trkpt lat="42.6409" lon="2.75846">
        <ele>140.64</ele>
        <time>2024-09-20T16:25:57.000Z</time>
      </trkpt>
      <trkpt lat="42.64078" lon="2.75848">
        <ele>139.74</ele>
        <time>2024-09-20T16:26:02.000Z</time>
      </trkpt>
      <trkpt lat="42.64069" lon="2.75857">
        <ele>138.6</ele>
        <time>2024-09-20T16:26:08.000Z</time>
      </trkpt>
      <trkpt lat="42.64068" lon="2.7587">
        <ele>137.32</ele>
        <time>2024-09-20T16:26:14.000Z</time>
      </trkpt>
      <trkpt lat="42.6407" lon="2.75886">
        <ele>136.15</ele>
        <time>2024-09-20T16:26:19.000Z</time>
      </trkpt>
      <trkpt lat="42.64072" lon="2.75901">
        <ele>134.91</ele>
        <time>2024-09-20T16:26:24.000Z</time>
      </trkpt>
      <trkpt lat="42.64075" lon="2.75923">
        <ele>133.65</ele>
        <time>2024-09-20T16:26:29.000Z</time>
      </trkpt>
      <trkpt lat="42.64079" lon="2.75949">
        <ele>127</ele>
        <time>2024-09-20T16:26:34.000Z</time>
      </trkpt>
      <trkpt lat="42.64082" lon="2.75973">
        <ele>124.16</ele>
        <time>2024-09-20T16:26:39.000Z</time>
      </trkpt>
      <trkpt lat="42.64086" lon="2.75999">
        <ele>120.36</ele>
        <time>2024-09-20T16:26:44.000Z</time>
      </trkpt>
      <trkpt lat="42.64095" lon="2.76023">
        <ele>118.54</ele>
        <time>2024-09-20T16:26:49.000Z</time>
      </trkpt>
      <trkpt lat="42.64106" lon="2.76048">
        <ele>117.05</ele>
        <time>2024-09-20T16:26:54.000Z</time>
      </trkpt>
      <trkpt lat="42.6411" lon="2.76078">
        <ele>116.06</ele>
        <time>2024-09-20T16:26:59.000Z</time>
      </trkpt>
      <trkpt lat="42.64114" lon="2.76114">
        <ele>115.31</ele>
        <time>2024-09-20T16:27:04.000Z</time>
      </trkpt>
      <trkpt lat="42.64113" lon="2.76152">
        <ele>114.81</ele>
        <time>2024-09-20T16:27:09.000Z</time>
      </trkpt>
      <trkpt lat="42.64112" lon="2.76186">
        <ele>114.36</ele>
        <time>2024-09-20T16:27:14.000Z</time>
      </trkpt>
      <trkpt lat="42.64113" lon="2.76217">
        <ele>113.78</ele>
        <time>2024-09-20T16:27:19.000Z</time>
      </trkpt>
      <trkpt lat="42.64111" lon="2.76241">
        <ele>113.33</ele>
        <time>2024-09-20T16:27:24.000Z</time>
      </trkpt>
      <trkpt lat="42.64092" lon="2.76253">
        <ele>112.74</ele>
        <time>2024-09-20T16:27:29.000Z</time>
      </trkpt>
      <trkpt lat="42.64076" lon="2.76275">
        <ele>112.24</ele>
        <time>2024-09-20T16:27:34.000Z</time>
      </trkpt>
      <trkpt lat="42.64066" lon="2.76298">
        <ele>111.91</ele>
        <time>2024-09-20T16:27:39.000Z</time>
      </trkpt>
      <trkpt lat="42.64053" lon="2.76323">
        <ele>111.74</ele>
        <time>2024-09-20T16:27:44.000Z</time>
      </trkpt>
      <trkpt lat="42.64033" lon="2.76336">
        <ele>111.45</ele>
        <time>2024-09-20T16:27:49.000Z</time>
      </trkpt>
      <trkpt lat="42.64015" lon="2.76341">
        <ele>111.25</ele>
        <time>2024-09-20T16:27:54.000Z</time>
      </trkpt>
      <trkpt lat="42.64004" lon="2.76352">
        <ele>111.19</ele>
        <time>2024-09-20T16:27:59.000Z</time>
      </trkpt>
      <trkpt lat="42.63999" lon="2.76361">
        <ele>111.12</ele>
        <time>2024-09-20T16:28:04.000Z</time>
      </trkpt>
      <trkpt lat="42.63991" lon="2.76371">
        <ele>110.9</ele>
        <time>2024-09-20T16:28:18.000Z</time>
      </trkpt>
      <trkpt lat="42.63994" lon="2.76383">
        <ele>110.75</ele>
        <time>2024-09-20T16:28:25.000Z</time>
      </trkpt>
      <trkpt lat="42.64" lon="2.76399">
        <ele>110.61</ele>
        <time>2024-09-20T16:28:30.000Z</time>
      </trkpt>
      <trkpt lat="42.64012" lon="2.76421">
        <ele>109.57</ele>
        <time>2024-09-20T16:28:35.000Z</time>
      </trkpt>
      <trkpt lat="42.64025" lon="2.76446">
        <ele>108.98</ele>
        <time>2024-09-20T16:28:40.000Z</time>
      </trkpt>
      <trkpt lat="42.64038" lon="2.76471">
        <ele>108.68</ele>
        <time>2024-09-20T16:28:45.000Z</time>
      </trkpt>
      <trkpt lat="42.64053" lon="2.76501">
        <ele>108.5</ele>
        <time>2024-09-20T16:28:50.000Z</time>
      </trkpt>
      <trkpt lat="42.64069" lon="2.76532">
        <ele>108.37</ele>
        <time>2024-09-20T16:28:55.000Z</time>
      </trkpt>
      <trkpt lat="42.64087" lon="2.76566">
        <ele>108.26</ele>
        <time>2024-09-20T16:29:00.000Z</time>
      </trkpt>
      <trkpt lat="42.64104" lon="2.76598">
        <ele>108.15</ele>
        <time>2024-09-20T16:29:05.000Z</time>
      </trkpt>
      <trkpt lat="42.64122" lon="2.76631">
        <ele>108.05</ele>
        <time>2024-09-20T16:29:10.000Z</time>
      </trkpt>
      <trkpt lat="42.64139" lon="2.7666">
        <ele>107.92</ele>
        <time>2024-09-20T16:29:15.000Z</time>
      </trkpt>
      <trkpt lat="42.64152" lon="2.76682">
        <ele>107.85</ele>
        <time>2024-09-20T16:29:20.000Z</time>
      </trkpt>
      <trkpt lat="42.64158" lon="2.76702">
        <ele>107.84</ele>
        <time>2024-09-20T16:29:25.000Z</time>
      </trkpt>
      <trkpt lat="42.64165" lon="2.76714">
        <ele>107.82</ele>
        <time>2024-09-20T16:29:30.000Z</time>
      </trkpt>
      <trkpt lat="42.64173" lon="2.76731">
        <ele>107.79</ele>
        <time>2024-09-20T16:29:35.000Z</time>
      </trkpt>
      <trkpt lat="42.6418" lon="2.7675">
        <ele>107.74</ele>
        <time>2024-09-20T16:29:40.000Z</time>
      </trkpt>
      <trkpt lat="42.64188" lon="2.76772">
        <ele>107.48</ele>
        <time>2024-09-20T16:29:45.000Z</time>
      </trkpt>
      <trkpt lat="42.64191" lon="2.76794">
        <ele>107.4</ele>
        <time>2024-09-20T16:29:50.000Z</time>
      </trkpt>
      <trkpt lat="42.64196" lon="2.76816">
        <ele>107.3</ele>
        <time>2024-09-20T16:29:55.000Z</time>
      </trkpt>
      <trkpt lat="42.642" lon="2.7684">
        <ele>107.19</ele>
        <time>2024-09-20T16:30:00.000Z</time>
      </trkpt>
      <trkpt lat="42.64204" lon="2.76863">
        <ele>107.07</ele>
        <time>2024-09-20T16:30:05.000Z</time>
      </trkpt>
      <trkpt lat="42.64204" lon="2.76882">
        <ele>106.96</ele>
        <time>2024-09-20T16:30:10.000Z</time>
      </trkpt>
      <trkpt lat="42.64201" lon="2.769">
        <ele>106.86</ele>
        <time>2024-09-20T16:30:15.000Z</time>
      </trkpt>
      <trkpt lat="42.64192" lon="2.76903">
        <ele>106.75</ele>
        <time>2024-09-20T16:30:21.000Z</time>
      </trkpt>
      <trkpt lat="42.64184" lon="2.76909">
        <ele>106.67</ele>
        <time>2024-09-20T16:30:26.000Z</time>
      </trkpt>
      <trkpt lat="42.64173" lon="2.76921">
        <ele>106.59</ele>
        <time>2024-09-20T16:30:31.000Z</time>
      </trkpt>
      <trkpt lat="42.64165" lon="2.76927">
        <ele>106.5</ele>
        <time>2024-09-20T16:30:36.000Z</time>
      </trkpt>
      <trkpt lat="42.64161" lon="2.76939">
        <ele>106.37</ele>
        <time>2024-09-20T16:30:42.000Z</time>
      </trkpt>
      <trkpt lat="42.64164" lon="2.76928">
        <ele>105.37</ele>
        <time>2024-09-20T16:33:00.000Z</time>
      </trkpt>
      <trkpt lat="42.64159" lon="2.76915">
        <ele>105.3</ele>
        <time>2024-09-20T16:33:05.000Z</time>
      </trkpt>
      <trkpt lat="42.6415" lon="2.76898">
        <ele>105.23</ele>
        <time>2024-09-20T16:33:10.000Z</time>
      </trkpt>
      <trkpt lat="42.64155" lon="2.76883">
        <ele>105.11</ele>
        <time>2024-09-20T16:33:18.000Z</time>
      </trkpt>
      <trkpt lat="42.64156" lon="2.76871">
        <ele>107.58</ele>
        <time>2024-09-20T16:59:49.000Z</time>
      </trkpt>
    </trkseg>
  </trk>
</gpx>